<?xml version='1.0' encoding='UTF-8'?><gpx version="1.1" creator="JPX - https://github.com/jenetics/jpx" xmlns="http://www.topografix.com/GPX/1/1"><trk><trkseg><trkpt lat="44.235300761986586" lon="11.59287381021887"><ele>554.0</ele><time>2026-04-06T07:59:05.272Z</time></trkpt><trkpt lat="44.23523525456982" lon="11.592926357869409"><ele>554.0</ele><time>2026-04-06T07:59:11.272Z</time></trkpt><trkpt lat="44.235280238293726" lon="11.593027473237392"><ele>554.0</ele><time>2026-04-06T07:59:57Z</time></trkpt><trkpt lat="44.23529226682685" lon="11.592918531619183"><ele>554.0</ele><time>2026-04-06T08:00:42.999Z</time></trkpt><trkpt lat="44.23528648790362" lon="11.592829971576759"><ele>554.0</ele><time>2026-04-06T08:00:44.999Z</time></trkpt><trkpt lat="44.23526688111523" lon="11.592724742401604"><ele>554.0</ele><time>2026-04-06T08:00:46.999Z</time></trkpt><trkpt lat="44.235255645999935" lon="11.592631937119407"><ele>554.0</ele><time>2026-04-06T08:00:48.999Z</time></trkpt><trkpt lat="44.23526730034285" lon="11.592525104708152"><ele>554.2857142857142</ele><time>2026-04-06T08:00:51.999Z</time></trkpt><trkpt lat="44.2352613487297" lon="11.592423008830178"><ele>554.5714285714286</ele><time>2026-04-06T08:00:55.999Z</time></trkpt><trkpt lat="44.235257517803994" lon="11.592307523029097"><ele>554.8571428571429</ele><time>2026-04-06T08:00:59.999Z</time></trkpt><trkpt lat="44.23524872249204" lon="11.592218553807635"><ele>555.1428571428571</ele><time>2026-04-06T08:01:02.999Z</time></trkpt><trkpt lat="44.23523639460609" lon="11.59211281385776"><ele>555.4285714285714</ele><time>2026-04-06T08:01:06.999Z</time></trkpt><trkpt lat="44.23520381273255" lon="11.59203277472961"><ele>555.7142857142857</ele><time>2026-04-06T08:01:09.999Z</time></trkpt><trkpt lat="44.23514134257994" lon="11.59201699167896"><ele>556.0</ele><time>2026-04-06T08:01:14Z</time></trkpt><trkpt lat="44.235066957981864" lon="11.592082855722163"><ele>556.0</ele><time>2026-04-06T08:01:17Z</time></trkpt><trkpt lat="44.235010669169334" lon="11.592138571360502"><ele>556.0</ele><time>2026-04-06T08:01:20Z</time></trkpt><trkpt lat="44.23497427275002" lon="11.592224053357326"><ele>556.0</ele><time>2026-04-06T08:01:23Z</time></trkpt><trkpt lat="44.23492523262724" lon="11.592292192186168"><ele>556.0</ele><time>2026-04-06T08:01:28Z</time></trkpt><trkpt lat="44.23487157088331" lon="11.592350512548514"><ele>556.0</ele><time>2026-04-06T08:01:32Z</time></trkpt><trkpt lat="44.23482096027001" lon="11.592414046549791"><ele>556.0</ele><time>2026-04-06T08:01:36Z</time></trkpt><trkpt lat="44.23477095314697" lon="11.592489085344916"><ele>556.0</ele><time>2026-04-06T08:01:40Z</time></trkpt><trkpt lat="44.23471386047299" lon="11.592547117743948"><ele>555.8333333333334</ele><time>2026-04-06T08:01:44Z</time></trkpt><trkpt lat="44.23465182979859" lon="11.592619466594073"><ele>555.6666666666667</ele><time>2026-04-06T08:01:49Z</time></trkpt><trkpt lat="44.234594340888165" lon="11.592684441642424"><ele>555.5</ele><time>2026-04-06T08:01:53Z</time></trkpt><trkpt lat="44.234532491305416" lon="11.592756698149424"><ele>555.3333333333334</ele><time>2026-04-06T08:01:57Z</time></trkpt><trkpt lat="44.234484388769154" lon="11.592816751669595"><ele>555.1666666666666</ele><time>2026-04-06T08:02:00Z</time></trkpt><trkpt lat="44.23442086335053" lon="11.59287485585864"><ele>555.0</ele><time>2026-04-06T08:02:04Z</time></trkpt><trkpt lat="44.234347243497055" lon="11.592888998950436"><ele>555.0000000000001</ele><time>2026-04-06T08:02:09Z</time></trkpt><trkpt lat="44.234288034224555" lon="11.592857756965435"><ele>555.0</ele><time>2026-04-06T08:02:12.999Z</time></trkpt><trkpt lat="44.2342345741252" lon="11.592807603211321"><ele>555.0</ele><time>2026-04-06T08:02:16.999Z</time></trkpt><trkpt lat="44.234171583494565" lon="11.592754928428244"><ele>555.0</ele><time>2026-04-06T08:02:21.999Z</time></trkpt><trkpt lat="44.23410771046515" lon="11.592716292003495"><ele>555.0</ele><time>2026-04-06T08:02:26.999Z</time></trkpt><trkpt lat="44.23403912620947" lon="11.592703634976276"><ele>555.0000000000001</ele><time>2026-04-06T08:02:30.999Z</time></trkpt><trkpt lat="44.23396901579021" lon="11.592686392978585"><ele>555.0</ele><time>2026-04-06T08:02:34.999Z</time></trkpt><trkpt lat="44.233904227558796" lon="11.59267071501683"><ele>557.7142857142858</ele><time>2026-04-06T08:02:37.999Z</time></trkpt><trkpt lat="44.23383032297438" lon="11.592647364803218"><ele>560.4285714285714</ele><time>2026-04-06T08:02:42.999Z</time></trkpt><trkpt lat="44.23377004315637" lon="11.592611235934001"><ele>563.1428571428571</ele><time>2026-04-06T08:02:46.999Z</time></trkpt><trkpt lat="44.23370802390666" lon="11.592575498711442"><ele>565.8571428571429</ele><time>2026-04-06T08:02:49.999Z</time></trkpt><trkpt lat="44.23364480028293" lon="11.592539214702"><ele>568.5714285714286</ele><time>2026-04-06T08:02:52.999Z</time></trkpt><trkpt lat="44.23357852132695" lon="11.592497047478886"><ele>571.2857142857143</ele><time>2026-04-06T08:02:55.999Z</time></trkpt><trkpt lat="44.233521358029066" lon="11.592452728442975"><ele>574.0</ele><time>2026-04-06T08:02:58.999Z</time></trkpt><trkpt lat="44.23345351499774" lon="11.592402309297785"><ele>574.0</ele><time>2026-04-06T08:03:02.999Z</time></trkpt><trkpt lat="44.233403008577056" lon="11.59234251322158"><ele>574.0</ele><time>2026-04-06T08:03:06.999Z</time></trkpt><trkpt lat="44.23335596579954" lon="11.592283569850185"><ele>574.0</ele><time>2026-04-06T08:03:10.999Z</time></trkpt><trkpt lat="44.233310831504795" lon="11.592213922960696"><ele>574.0</ele><time>2026-04-06T08:03:14.999Z</time></trkpt><trkpt lat="44.233242378724334" lon="11.59215074424989"><ele>574.0</ele><time>2026-04-06T08:03:19Z</time></trkpt><trkpt lat="44.23317201444443" lon="11.592105014174408"><ele>574.0</ele><time>2026-04-06T08:03:23Z</time></trkpt><trkpt lat="44.233097626549274" lon="11.592066548885175"><ele>574.0</ele><time>2026-04-06T08:03:26Z</time></trkpt><trkpt lat="44.233015693881164" lon="11.59202394943582"><ele>576.5714285714286</ele><time>2026-04-06T08:03:30Z</time></trkpt><trkpt lat="44.23293909362744" lon="11.591981505467473"><ele>579.1428571428571</ele><time>2026-04-06T08:03:34Z</time></trkpt><trkpt lat="44.23287603280992" lon="11.5919579539044"><ele>581.7142857142858</ele><time>2026-04-06T08:03:37Z</time></trkpt><trkpt lat="44.23281203372991" lon="11.591934945143537"><ele>584.2857142857142</ele><time>2026-04-06T08:03:41Z</time></trkpt><trkpt lat="44.23275256803709" lon="11.591906045966347"><ele>586.8571428571429</ele><time>2026-04-06T08:03:45Z</time></trkpt><trkpt lat="44.232668070727485" lon="11.591891992165502"><ele>589.4285714285714</ele><time>2026-04-06T08:03:49Z</time></trkpt><trkpt lat="44.232586345137086" lon="11.591881445254435"><ele>592.0</ele><time>2026-04-06T08:03:53Z</time></trkpt><trkpt lat="44.23251001883437" lon="11.591885856850826"><ele>592.0</ele><time>2026-04-06T08:03:56Z</time></trkpt><trkpt lat="44.232439178853156" lon="11.591905219545257"><ele>592.0</ele><time>2026-04-06T08:03:59Z</time></trkpt><trkpt lat="44.232366010140915" lon="11.591933747579569"><ele>592.0</ele><time>2026-04-06T08:04:03Z</time></trkpt><trkpt lat="44.232297203104785" lon="11.591958655297837"><ele>592.0</ele><time>2026-04-06T08:04:07Z</time></trkpt><trkpt lat="44.23222526749342" lon="11.591989071053483"><ele>592.0</ele><time>2026-04-06T08:04:38.999Z</time></trkpt><trkpt lat="44.23216762291731" lon="11.592059336681299"><ele>592.0</ele><time>2026-04-06T08:04:41.999Z</time></trkpt><trkpt lat="44.232095722779185" lon="11.59213456903392"><ele>588.1666666666667</ele><time>2026-04-06T08:04:43.999Z</time></trkpt><trkpt lat="44.23206569087122" lon="11.59221471632924"><ele>584.3333333333334</ele><time>2026-04-06T08:04:45.999Z</time></trkpt><trkpt lat="44.232125824080256" lon="11.592296197737802"><ele>580.5</ele><time>2026-04-06T08:04:48.999Z</time></trkpt><trkpt lat="44.23207916186877" lon="11.592400654122786"><ele>576.6666666666666</ele><time>2026-04-06T08:04:59.999Z</time></trkpt><trkpt lat="44.2319957668886" lon="11.592430239455986"><ele>572.8333333333333</ele><time>2026-04-06T08:05:02.999Z</time></trkpt><trkpt lat="44.23191807206288" lon="11.592485508778426"><ele>569.0</ele><time>2026-04-06T08:05:04.999Z</time></trkpt><trkpt lat="44.23183436945053" lon="11.592518000315911"><ele>569.0</ele><time>2026-04-06T08:05:07.999Z</time></trkpt><trkpt lat="44.231769206840255" lon="11.59266309742871"><ele>569.0</ele><time>2026-04-06T08:05:09.999Z</time></trkpt><trkpt lat="44.23170162881529" lon="11.59279560976016"><ele>569.0</ele><time>2026-04-06T08:05:11.999Z</time></trkpt><trkpt lat="44.23168229587391" lon="11.592903863208285"><ele>569.0</ele><time>2026-04-06T08:05:13.999Z</time></trkpt><trkpt lat="44.231647806656554" lon="11.592992451423124"><ele>569.0</ele><time>2026-04-06T08:05:17.999Z</time></trkpt><trkpt lat="44.231626462208766" lon="11.593083684433983"><ele>566.6666666666666</ele><time>2026-04-06T08:05:21.999Z</time></trkpt><trkpt lat="44.231589649885834" lon="11.592996220235301"><ele>564.3333333333333</ele><time>2026-04-06T08:05:27Z</time></trkpt><trkpt lat="44.231565658072185" lon="11.592902196049902"><ele>562.0</ele><time>2026-04-06T08:05:30Z</time></trkpt><trkpt lat="44.23152550538841" lon="11.592971363994312"><ele>559.6666666666666</ele><time>2026-04-06T08:05:38Z</time></trkpt><trkpt lat="44.231529258135765" lon="11.59309587792272"><ele>557.3333333333334</ele><time>2026-04-06T08:05:40Z</time></trkpt><trkpt lat="44.23153502225635" lon="11.593185301981677"><ele>555.0</ele><time>2026-04-06T08:05:43Z</time></trkpt><trkpt lat="44.23149425383183" lon="11.59329586600192"><ele>555.0000000000001</ele><time>2026-04-06T08:06:18.999Z</time></trkpt><trkpt lat="44.23149206178659" lon="11.59339905973272"><ele>555.0</ele><time>2026-04-06T08:06:56.999Z</time></trkpt><trkpt lat="44.23143601493853" lon="11.593464396942258"><ele>555.0</ele><time>2026-04-06T08:07:25.999Z</time></trkpt><trkpt lat="44.231370491148745" lon="11.593476195139269"><ele>555.0</ele><time>2026-04-06T08:07:27.999Z</time></trkpt><trkpt lat="44.231314422476046" lon="11.593525809076839"><ele>555.0</ele><time>2026-04-06T08:07:31Z</time></trkpt><trkpt lat="44.23124427424435" lon="11.593532331521397"><ele>555.0000000000001</ele><time>2026-04-06T08:07:41Z</time></trkpt><trkpt lat="44.23119994662783" lon="11.593597960841587"><ele>555.0</ele><time>2026-04-06T08:07:44Z</time></trkpt><trkpt lat="44.23118262129738" lon="11.593682584304316"><ele>549.3333333333334</ele><time>2026-04-06T08:07:48Z</time></trkpt><trkpt lat="44.231143801089395" lon="11.593606326491075"><ele>543.6666666666666</ele><time>2026-04-06T08:07:53Z</time></trkpt><trkpt lat="44.231164232768016" lon="11.593509716642261"><ele>538.0</ele><time>2026-04-06T08:07:57Z</time></trkpt><trkpt lat="44.231201233573216" lon="11.593390681029753"><ele>532.3333333333333</ele><time>2026-04-06T08:08:00Z</time></trkpt><trkpt lat="44.23120259163967" lon="11.593249573588965"><ele>526.6666666666666</ele><time>2026-04-06T08:08:05Z</time></trkpt><trkpt lat="44.2312094669064" lon="11.593145035921516"><ele>521.0</ele><time>2026-04-06T08:08:08Z</time></trkpt><trkpt lat="44.231164639073285" lon="11.593055777472692"><ele>521.0</ele><time>2026-04-06T08:08:10Z</time></trkpt><trkpt lat="44.231115445446534" lon="11.592961657453781"><ele>521.0</ele><time>2026-04-06T08:08:12Z</time></trkpt><trkpt lat="44.231062734113614" lon="11.592876560508312"><ele>521.0</ele><time>2026-04-06T08:08:15Z</time></trkpt><trkpt lat="44.23102005189512" lon="11.59281087654519"><ele>521.0</ele><time>2026-04-06T08:08:19Z</time></trkpt><trkpt lat="44.23094455995143" lon="11.592777258644105"><ele>521.0</ele><time>2026-04-06T08:08:29.999Z</time></trkpt><trkpt lat="44.23087833541129" lon="11.592792328970607"><ele>521.0</ele><time>2026-04-06T08:08:34.999Z</time></trkpt><trkpt lat="44.23081103028728" lon="11.592766871567667"><ele>521.0</ele><time>2026-04-06T08:08:55.999Z</time></trkpt><trkpt lat="44.230762269387384" lon="11.592822919013878"><ele>521.0</ele><time>2026-04-06T08:09:04.999Z</time></trkpt><trkpt lat="44.230701910924985" lon="11.592857726750943"><ele>521.0</ele><time>2026-04-06T08:09:22.999Z</time></trkpt><trkpt lat="44.23063135307338" lon="11.592826626623012"><ele>521.0</ele><time>2026-04-06T08:09:29.999Z</time></trkpt><trkpt lat="44.23057722151182" lon="11.59287707163238"><ele>521.0</ele><time>2026-04-06T08:09:38Z</time></trkpt><trkpt lat="44.230497124924376" lon="11.59290358653178"><ele>521.0</ele><time>2026-04-06T08:09:44Z</time></trkpt><trkpt lat="44.23044187065961" lon="11.592957968784908"><ele>521.0</ele><time>2026-04-06T08:09:48Z</time></trkpt><trkpt lat="44.23042222397245" lon="11.592865750193187"><ele>521.0</ele><time>2026-04-06T08:09:52Z</time></trkpt><trkpt lat="44.230452228427374" lon="11.592762971704861"><ele>516.1666666666666</ele><time>2026-04-06T08:09:57Z</time></trkpt><trkpt lat="44.230447468073024" lon="11.592632829664336"><ele>511.3333333333333</ele><time>2026-04-06T08:09:59Z</time></trkpt><trkpt lat="44.230460438087064" lon="11.592523084119698"><ele>506.5</ele><time>2026-04-06T08:10:01Z</time></trkpt><trkpt lat="44.230498393949745" lon="11.592452099707089"><ele>501.66666666666663</ele><time>2026-04-06T08:10:03Z</time></trkpt><trkpt lat="44.23046594396506" lon="11.592371926286036"><ele>496.8333333333333</ele><time>2026-04-06T08:10:06Z</time></trkpt><trkpt lat="44.23044654741882" lon="11.59228722512164"><ele>492.0</ele><time>2026-04-06T08:10:08Z</time></trkpt><trkpt lat="44.230355736470145" lon="11.592271261990172"><ele>492.0</ele><time>2026-04-06T08:10:11Z</time></trkpt><trkpt lat="44.23028238112871" lon="11.59224124550828"><ele>492.0</ele><time>2026-04-06T08:10:13Z</time></trkpt><trkpt lat="44.23022593259731" lon="11.592301821822186"><ele>492.0</ele><time>2026-04-06T08:10:50.999Z</time></trkpt><trkpt lat="44.23020671038471" lon="11.592420445190033"><ele>492.0</ele><time>2026-04-06T08:10:53.999Z</time></trkpt><trkpt lat="44.23014716887418" lon="11.592559060728425"><ele>492.0</ele><time>2026-04-06T08:10:55.999Z</time></trkpt><trkpt lat="44.23012983044247" lon="11.592654275375486"><ele>492.0</ele><time>2026-04-06T08:10:56.999Z</time></trkpt><trkpt lat="44.23011315498043" lon="11.592740138269463"><ele>492.0</ele><time>2026-04-06T08:10:57.999Z</time></trkpt><trkpt lat="44.23007164202723" lon="11.592821803461872"><ele>492.0</ele><time>2026-04-06T08:10:58.999Z</time></trkpt><trkpt lat="44.2300333823446" lon="11.592907678023789"><ele>492.0</ele><time>2026-04-06T08:10:59.999Z</time></trkpt><trkpt lat="44.23001739696527" lon="11.592997838502157"><ele>492.0</ele><time>2026-04-06T08:11:00.999Z</time></trkpt><trkpt lat="44.23000914404397" lon="11.593091018199994"><ele>492.0</ele><time>2026-04-06T08:11:01.999Z</time></trkpt><trkpt lat="44.23000850105137" lon="11.593253053436895"><ele>492.0</ele><time>2026-04-06T08:11:03.999Z</time></trkpt><trkpt lat="44.23002647427193" lon="11.593346656813738"><ele>492.3333333333333</ele><time>2026-04-06T08:11:04.999Z</time></trkpt><trkpt lat="44.23005633077498" lon="11.593461133648082"><ele>492.66666666666663</ele><time>2026-04-06T08:11:05.999Z</time></trkpt><trkpt lat="44.230098449424446" lon="11.593544463340645"><ele>493.0</ele><time>2026-04-06T08:11:06.999Z</time></trkpt><trkpt lat="44.23010474247812" lon="11.593665458520798"><ele>493.3333333333333</ele><time>2026-04-06T08:11:08.999Z</time></trkpt><trkpt lat="44.23008839629193" lon="11.593771057733743"><ele>493.66666666666663</ele><time>2026-04-06T08:11:11.999Z</time></trkpt><trkpt lat="44.23005565606325" lon="11.593858593004986"><ele>494.0</ele><time>2026-04-06T08:11:14.999Z</time></trkpt><trkpt lat="44.23000362031652" lon="11.593926246705687"><ele>494.0</ele><time>2026-04-06T08:11:17.999Z</time></trkpt><trkpt lat="44.22994232448647" lon="11.593966441953038"><ele>494.0</ele><time>2026-04-06T08:11:20.999Z</time></trkpt><trkpt lat="44.229879752160066" lon="11.594008574540851"><ele>494.0</ele><time>2026-04-06T08:11:23.999Z</time></trkpt><trkpt lat="44.22981495421283" lon="11.594042796452694"><ele>494.0</ele><time>2026-04-06T08:11:26.999Z</time></trkpt><trkpt lat="44.22975565168362" lon="11.594099441943653"><ele>494.0</ele><time>2026-04-06T08:11:29.999Z</time></trkpt><trkpt lat="44.229704586363184" lon="11.594160606327206"><ele>494.0</ele><time>2026-04-06T08:11:32.999Z</time></trkpt><trkpt lat="44.22966064940793" lon="11.594230686390521"><ele>494.0</ele><time>2026-04-06T08:11:35.999Z</time></trkpt><trkpt lat="44.22961277535529" lon="11.594304083112062"><ele>492.7142857142857</ele><time>2026-04-06T08:11:38.999Z</time></trkpt><trkpt lat="44.22956864708248" lon="11.594385468665237"><ele>491.42857142857144</ele><time>2026-04-06T08:11:42Z</time></trkpt><trkpt lat="44.22952487149653" lon="11.594464231155587"><ele>490.14285714285717</ele><time>2026-04-06T08:11:45Z</time></trkpt><trkpt lat="44.22948846710466" lon="11.59455751813917"><ele>488.8571428571429</ele><time>2026-04-06T08:11:48Z</time></trkpt><trkpt lat="44.229466053916916" lon="11.594653088539564"><ele>487.57142857142856</ele><time>2026-04-06T08:11:51Z</time></trkpt><trkpt lat="44.229470283156246" lon="11.594760735549215"><ele>486.28571428571433</ele><time>2026-04-06T08:11:54Z</time></trkpt><trkpt lat="44.22947723026199" lon="11.594861911574185"><ele>485.00000000000006</ele><time>2026-04-06T08:11:57Z</time></trkpt><trkpt lat="44.22949416269631" lon="11.59496032997525"><ele>485.00000000000006</ele><time>2026-04-06T08:12:00Z</time></trkpt><trkpt lat="44.22951275283195" lon="11.595061697861137"><ele>485.0</ele><time>2026-04-06T08:12:03Z</time></trkpt><trkpt lat="44.229541101387376" lon="11.595148523283061"><ele>485.00000000000006</ele><time>2026-04-06T08:12:06Z</time></trkpt><trkpt lat="44.22957705941682" lon="11.595236757968747"><ele>485.00000000000006</ele><time>2026-04-06T08:12:09Z</time></trkpt><trkpt lat="44.22961013664891" lon="11.595316700740122"><ele>485.0</ele><time>2026-04-06T08:12:12Z</time></trkpt><trkpt lat="44.22965412225426" lon="11.595393716288843"><ele>485.00000000000006</ele><time>2026-04-06T08:12:15Z</time></trkpt><trkpt lat="44.229704823274496" lon="11.595456821199532"><ele>485.00000000000006</ele><time>2026-04-06T08:12:18Z</time></trkpt><trkpt lat="44.22976642850559" lon="11.595487586541834"><ele>486.99999999999994</ele><time>2026-04-06T08:12:20Z</time></trkpt><trkpt lat="44.22985693133506" lon="11.595489317379686"><ele>489.0</ele><time>2026-04-06T08:12:23Z</time></trkpt><trkpt lat="44.2299428354401" lon="11.595472032213676"><ele>491.0</ele><time>2026-04-06T08:12:26Z</time></trkpt><trkpt lat="44.23002249709444" lon="11.595473375561879"><ele>493.0</ele><time>2026-04-06T08:12:28.999Z</time></trkpt><trkpt lat="44.23010259369994" lon="11.595478305517556"><ele>494.99999999999994</ele><time>2026-04-06T08:12:31.999Z</time></trkpt><trkpt lat="44.230183199010504" lon="11.595502058354215"><ele>497.0</ele><time>2026-04-06T08:12:34.999Z</time></trkpt><trkpt lat="44.230258881601706" lon="11.595526843382705"><ele>496.99999999999994</ele><time>2026-04-06T08:12:37.999Z</time></trkpt><trkpt lat="44.23033219725812" lon="11.595551241085172"><ele>497.0</ele><time>2026-04-06T08:12:40.999Z</time></trkpt><trkpt lat="44.23040833857362" lon="11.59555266952088"><ele>497.0</ele><time>2026-04-06T08:12:43.999Z</time></trkpt><trkpt lat="44.23047504596592" lon="11.5955027128452"><ele>497.0</ele><time>2026-04-06T08:12:46.999Z</time></trkpt><trkpt lat="44.23052351306823" lon="11.595426284500206"><ele>496.99999999999994</ele><time>2026-04-06T08:12:49.999Z</time></trkpt><trkpt lat="44.230555854999864" lon="11.595317033976281"><ele>497.0</ele><time>2026-04-06T08:12:52.999Z</time></trkpt><trkpt lat="44.23057515436446" lon="11.595207689986541"><ele>498.3333333333333</ele><time>2026-04-06T08:12:55.999Z</time></trkpt><trkpt lat="44.23059601004543" lon="11.595089153622853"><ele>499.66666666666663</ele><time>2026-04-06T08:12:58.999Z</time></trkpt><trkpt lat="44.23061728608151" lon="11.595004136895987"><ele>501.0</ele><time>2026-04-06T08:13:00.999Z</time></trkpt><trkpt lat="44.230639359989496" lon="11.5949138674135"><ele>502.33333333333337</ele><time>2026-04-06T08:13:02.999Z</time></trkpt><trkpt lat="44.230667130963" lon="11.594830064887871"><ele>503.6666666666667</ele><time>2026-04-06T08:13:04.999Z</time></trkpt><trkpt lat="44.230720303268214" lon="11.594714850621106"><ele>505.0</ele><time>2026-04-06T08:13:07.999Z</time></trkpt><trkpt lat="44.230764460540286" lon="11.59464653774219"><ele>505.00000000000006</ele><time>2026-04-06T08:13:09.999Z</time></trkpt><trkpt lat="44.23084132720097" lon="11.5945679384564"><ele>505.0</ele><time>2026-04-06T08:13:12.999Z</time></trkpt><trkpt lat="44.230921503315926" lon="11.594502046733812"><ele>505.0</ele><time>2026-04-06T08:13:15.999Z</time></trkpt><trkpt lat="44.23098074819105" lon="11.594456647035694"><ele>505.0</ele><time>2026-04-06T08:13:17.999Z</time></trkpt><trkpt lat="44.231041143900626" lon="11.594414647486065"><ele>505.00000000000006</ele><time>2026-04-06T08:13:19.999Z</time></trkpt><trkpt lat="44.231105021138156" lon="11.594378358189068"><ele>505.0</ele><time>2026-04-06T08:13:21.999Z</time></trkpt><trkpt lat="44.23117045364194" lon="11.594355695828755"><ele>506.71428571428567</ele><time>2026-04-06T08:13:23.999Z</time></trkpt><trkpt lat="44.23123812278987" lon="11.594338821117086"><ele>508.4285714285714</ele><time>2026-04-06T08:13:25.999Z</time></trkpt><trkpt lat="44.23130550743172" lon="11.594345746958531"><ele>510.1428571428571</ele><time>2026-04-06T08:13:27.999Z</time></trkpt><trkpt lat="44.231375076647" lon="11.594357826017188"><ele>511.8571428571429</ele><time>2026-04-06T08:13:29.999Z</time></trkpt><trkpt lat="44.23144264560534" lon="11.594375607005333"><ele>513.5714285714287</ele><time>2026-04-06T08:13:31.999Z</time></trkpt><trkpt lat="44.23150563794289" lon="11.594403357696281"><ele>515.2857142857143</ele><time>2026-04-06T08:13:33.999Z</time></trkpt><trkpt lat="44.231566836993856" lon="11.59443184053547"><ele>517.0</ele><time>2026-04-06T08:13:35.999Z</time></trkpt><trkpt lat="44.23163451576308" lon="11.59444927036229"><ele>518.5714285714286</ele><time>2026-04-06T08:13:37.999Z</time></trkpt><trkpt lat="44.231702560341326" lon="11.594467215405713"><ele>520.1428571428572</ele><time>2026-04-06T08:13:39.999Z</time></trkpt><trkpt lat="44.23177157756298" lon="11.594476529730716"><ele>521.7142857142858</ele><time>2026-04-06T08:13:41.999Z</time></trkpt><trkpt lat="44.23184114415275" lon="11.594478989124518"><ele>523.2857142857143</ele><time>2026-04-06T08:13:43.999Z</time></trkpt><trkpt lat="44.231912190539816" lon="11.594476627060304"><ele>524.8571428571429</ele><time>2026-04-06T08:13:46Z</time></trkpt><trkpt lat="44.23198185588965" lon="11.594467948579428"><ele>526.4285714285714</ele><time>2026-04-06T08:13:48Z</time></trkpt><trkpt lat="44.232050455856424" lon="11.594458226316661"><ele>528.0</ele><time>2026-04-06T08:13:50Z</time></trkpt><trkpt lat="44.23211987532813" lon="11.594450834823164"><ele>528.0</ele><time>2026-04-06T08:13:52Z</time></trkpt><trkpt lat="44.23218957723629" lon="11.594443769846844"><ele>528.0</ele><time>2026-04-06T08:13:54Z</time></trkpt><trkpt lat="44.232261357506644" lon="11.594440392284914"><ele>528.0</ele><time>2026-04-06T08:13:56Z</time></trkpt><trkpt lat="44.23233271037101" lon="11.594443843609877"><ele>528.0</ele><time>2026-04-06T08:13:58Z</time></trkpt><trkpt lat="44.2324034193723" lon="11.594451932740533"><ele>528.0</ele><time>2026-04-06T08:14:00Z</time></trkpt><trkpt lat="44.232476009138914" lon="11.594451675027011"><ele>528.0</ele><time>2026-04-06T08:14:02Z</time></trkpt><trkpt lat="44.23255003907364" lon="11.594445640851928"><ele>528.0</ele><time>2026-04-06T08:14:04Z</time></trkpt><trkpt lat="44.232622106393826" lon="11.594444473839944"><ele>528.4285714285714</ele><time>2026-04-06T08:14:06Z</time></trkpt><trkpt lat="44.232693202789676" lon="11.594433731236299"><ele>528.8571428571429</ele><time>2026-04-06T08:14:08Z</time></trkpt><trkpt lat="44.23276572836703" lon="11.594426796000759"><ele>529.2857142857143</ele><time>2026-04-06T08:14:10Z</time></trkpt><trkpt lat="44.23283761295341" lon="11.594418559924218"><ele>529.7142857142858</ele><time>2026-04-06T08:14:12Z</time></trkpt><trkpt lat="44.23290743317608" lon="11.594413053454383"><ele>530.1428571428572</ele><time>2026-04-06T08:14:14Z</time></trkpt><trkpt lat="44.23297838876383" lon="11.59440234782594"><ele>530.5714285714286</ele><time>2026-04-06T08:14:16Z</time></trkpt><trkpt lat="44.233043444532534" lon="11.594392741858062"><ele>531.0</ele><time>2026-04-06T08:14:18Z</time></trkpt><trkpt lat="44.233109535672384" lon="11.59439296026095"><ele>529.8333333333334</ele><time>2026-04-06T08:14:20Z</time></trkpt><trkpt lat="44.23318966409874" lon="11.594379689115891"><ele>528.6666666666666</ele><time>2026-04-06T08:14:22Z</time></trkpt><trkpt lat="44.23325770434625" lon="11.594365259952477"><ele>527.5</ele><time>2026-04-06T08:14:24Z</time></trkpt><trkpt lat="44.23334336237006" lon="11.594359296550877"><ele>526.3333333333333</ele><time>2026-04-06T08:14:27Z</time></trkpt><trkpt lat="44.23343803425632" lon="11.59434666626338"><ele>525.1666666666666</ele><time>2026-04-06T08:14:30Z</time></trkpt><trkpt lat="44.23353220370796" lon="11.594361451423916"><ele>524.0</ele><time>2026-04-06T08:14:32.999Z</time></trkpt><trkpt lat="44.23362535246525" lon="11.594381632564449"><ele>524.0</ele><time>2026-04-06T08:14:35.999Z</time></trkpt><trkpt lat="44.23371877802132" lon="11.594399697075055"><ele>524.0</ele><time>2026-04-06T08:14:38.999Z</time></trkpt><trkpt lat="44.23380444550703" lon="11.594411649433164"><ele>524.0</ele><time>2026-04-06T08:14:41.999Z</time></trkpt><trkpt lat="44.23389172193547" lon="11.5944241794922"><ele>524.0</ele><time>2026-04-06T08:14:44.999Z</time></trkpt><trkpt lat="44.2339700909563" lon="11.594436913601957"><ele>524.0</ele><time>2026-04-06T08:14:47.999Z</time></trkpt><trkpt lat="44.23405270875345" lon="11.594427610323713"><ele>524.0</ele><time>2026-04-06T08:14:50.999Z</time></trkpt><trkpt lat="44.23413310888847" lon="11.594418483210525"><ele>525.2857142857143</ele><time>2026-04-06T08:14:53.999Z</time></trkpt><trkpt lat="44.23421007824533" lon="11.594408126137363"><ele>526.5714285714287</ele><time>2026-04-06T08:14:56.999Z</time></trkpt><trkpt lat="44.234275869436026" lon="11.594392089566263"><ele>527.8571428571429</ele><time>2026-04-06T08:14:59.999Z</time></trkpt><trkpt lat="44.234349307587614" lon="11.594395342313168"><ele>529.1428571428571</ele><time>2026-04-06T08:15:02.999Z</time></trkpt><trkpt lat="44.23442557832774" lon="11.594403120729671"><ele>530.4285714285713</ele><time>2026-04-06T08:15:05.999Z</time></trkpt><trkpt lat="44.234497193864016" lon="11.594427828443536"><ele>531.7142857142857</ele><time>2026-04-06T08:15:08.999Z</time></trkpt><trkpt lat="44.234565103227325" lon="11.594464347060427"><ele>533.0</ele><time>2026-04-06T08:15:11.999Z</time></trkpt><trkpt lat="44.234632704752926" lon="11.594507481932721"><ele>533.1428571428571</ele><time>2026-04-06T08:15:14.999Z</time></trkpt><trkpt lat="44.2347013958475" lon="11.594533876537362"><ele>533.2857142857142</ele><time>2026-04-06T08:15:17.999Z</time></trkpt><trkpt lat="44.23477242593489" lon="11.594563354334326"><ele>533.4285714285714</ele><time>2026-04-06T08:15:20.999Z</time></trkpt><trkpt lat="44.234832086737136" lon="11.594598320692228"><ele>533.5714285714286</ele><time>2026-04-06T08:15:23.999Z</time></trkpt><trkpt lat="44.234890552570654" lon="11.594633599433855"><ele>533.7142857142858</ele><time>2026-04-06T08:15:26.999Z</time></trkpt><trkpt lat="44.234955178663284" lon="11.594667869070177"><ele>533.8571428571429</ele><time>2026-04-06T08:15:29.999Z</time></trkpt><trkpt lat="44.2350233465358" lon="11.594686713095015"><ele>534.0</ele><time>2026-04-06T08:15:32.999Z</time></trkpt><trkpt lat="44.235074104750844" lon="11.594618598032573"><ele>534.0</ele><time>2026-04-06T08:15:35.999Z</time></trkpt><trkpt lat="44.23512107220193" lon="11.594533848378394"><ele>534.0</ele><time>2026-04-06T08:15:38.999Z</time></trkpt><trkpt lat="44.23516527232334" lon="11.594466883989485"><ele>534.0</ele><time>2026-04-06T08:15:41.999Z</time></trkpt><trkpt lat="44.235204732475886" lon="11.594363247998109"><ele>534.0</ele><time>2026-04-06T08:15:45.999Z</time></trkpt><trkpt lat="44.23523016443678" lon="11.594238369268375"><ele>534.0</ele><time>2026-04-06T08:15:49.999Z</time></trkpt><trkpt lat="44.235246940898385" lon="11.59412364658384"><ele>534.0</ele><time>2026-04-06T08:15:54Z</time></trkpt><trkpt lat="44.23524994413336" lon="11.594035857529047"><ele>535.1428571428572</ele><time>2026-04-06T08:15:57Z</time></trkpt><trkpt lat="44.23525092699122" lon="11.59391713404701"><ele>536.2857142857143</ele><time>2026-04-06T08:16:00Z</time></trkpt><trkpt lat="44.23525613603487" lon="11.593808733135472"><ele>537.4285714285714</ele><time>2026-04-06T08:16:03Z</time></trkpt><trkpt lat="44.235252921856706" lon="11.593703151758953"><ele>538.5714285714287</ele><time>2026-04-06T08:16:06Z</time></trkpt><trkpt lat="44.23525188245166" lon="11.593593868836503"><ele>539.7142857142858</ele><time>2026-04-06T08:16:09Z</time></trkpt><trkpt lat="44.235247932484" lon="11.593501500191636"><ele>540.8571428571429</ele><time>2026-04-06T08:16:12Z</time></trkpt><trkpt lat="44.235245805425286" lon="11.593410010729798"><ele>542.0</ele><time>2026-04-06T08:16:15Z</time></trkpt><trkpt lat="44.23524989217571" lon="11.593320865234084"><ele>544.0</ele><time>2026-04-06T08:16:18Z</time></trkpt><trkpt lat="44.23526121185092" lon="11.593207364058117"><ele>546.0</ele><time>2026-04-06T08:16:22Z</time></trkpt><trkpt lat="44.23526262980259" lon="11.593099079452603"><ele>548.0</ele><time>2026-04-06T08:16:26.999Z</time></trkpt><trkpt lat="44.235275356937855" lon="11.593001504330394"><ele>550.0</ele><time>2026-04-06T08:16:30.999Z</time></trkpt><trkpt lat="44.235284558133266" lon="11.592886894103438"><ele>552.0</ele><time>2026-04-06T08:16:34.999Z</time></trkpt><trkpt lat="44.235273406637965" lon="11.592787285647622"><ele>554.0</ele><time>2026-04-06T08:16:37.999Z</time></trkpt><trkpt lat="44.23526618906631" lon="11.592686871605597"><ele>554.2857142857142</ele><time>2026-04-06T08:16:40.999Z</time></trkpt><trkpt lat="44.23526197126239" lon="11.592580626279066"><ele>554.5714285714286</ele><time>2026-04-06T08:16:43.999Z</time></trkpt><trkpt lat="44.23526509799038" lon="11.59248681783177"><ele>554.8571428571429</ele><time>2026-04-06T08:16:46.999Z</time></trkpt><trkpt lat="44.23526668961802" lon="11.592370161450548"><ele>555.1428571428571</ele><time>2026-04-06T08:16:50.999Z</time></trkpt><trkpt lat="44.23526338482491" lon="11.59228171034603"><ele>555.4285714285714</ele><time>2026-04-06T08:16:53.999Z</time></trkpt><trkpt lat="44.23525864843682" lon="11.592175748303847"><ele>555.7142857142857</ele><time>2026-04-06T08:16:57.999Z</time></trkpt><trkpt lat="44.235230634499125" lon="11.59207825612726"><ele>556.0</ele><time>2026-04-06T08:17:01.999Z</time></trkpt><trkpt lat="44.2351859887802" lon="11.592011868641862"><ele>556.0</ele><time>2026-04-06T08:17:05.999Z</time></trkpt><trkpt lat="44.23510606327428" lon="11.592010098373766"><ele>556.0</ele><time>2026-04-06T08:17:09.999Z</time></trkpt><trkpt lat="44.2350405729533" lon="11.592080821779232"><ele>556.0</ele><time>2026-04-06T08:17:13.999Z</time></trkpt><trkpt lat="44.234999173408376" lon="11.592179967836431"><ele>556.0</ele><time>2026-04-06T08:17:17.999Z</time></trkpt><trkpt lat="44.23494392056887" lon="11.59223850266879"><ele>556.0</ele><time>2026-04-06T08:17:21.999Z</time></trkpt><trkpt lat="44.234890131455394" lon="11.592328482658358"><ele>556.0</ele><time>2026-04-06T08:17:25.999Z</time></trkpt><trkpt lat="44.234847830903874" lon="11.592393655312469"><ele>557.5714285714286</ele><time>2026-04-06T08:17:28.999Z</time></trkpt><trkpt lat="44.234791177461176" lon="11.592460040244251"><ele>559.1428571428571</ele><time>2026-04-06T08:17:32.999Z</time></trkpt><trkpt lat="44.23474130585898" lon="11.592531031187324"><ele>560.7142857142858</ele><time>2026-04-06T08:17:36.999Z</time></trkpt><trkpt lat="44.23468906481855" lon="11.592585560197257"><ele>562.2857142857142</ele><time>2026-04-06T08:17:40.999Z</time></trkpt><trkpt lat="44.23463319577794" lon="11.592639194608351"><ele>563.8571428571429</ele><time>2026-04-06T08:17:45.999Z</time></trkpt><trkpt lat="44.23457115897613" lon="11.592705991660722"><ele>565.4285714285714</ele><time>2026-04-06T08:17:49.999Z</time></trkpt><trkpt lat="44.23450865411397" lon="11.592773841698722"><ele>567.0</ele><time>2026-04-06T08:17:53.999Z</time></trkpt><trkpt lat="44.23445391938791" lon="11.592823947666648"><ele>567.0</ele><time>2026-04-06T08:17:57.999Z</time></trkpt><trkpt lat="44.23439217168562" lon="11.592863557682184"><ele>567.0</ele><time>2026-04-06T08:18:04Z</time></trkpt><trkpt lat="44.23432729634926" lon="11.592830730148213"><ele>567.0</ele><time>2026-04-06T08:18:10Z</time></trkpt><trkpt lat="44.23427373448518" lon="11.592779822148197"><ele>567.0</ele><time>2026-04-06T08:18:15Z</time></trkpt><trkpt lat="44.23420637932471" lon="11.59273445800536"><ele>567.0</ele><time>2026-04-06T08:18:20Z</time></trkpt><trkpt lat="44.23414127433965" lon="11.592720407067384"><ele>567.0</ele><time>2026-04-06T08:18:24.999Z</time></trkpt><trkpt lat="44.23407765978846" lon="11.592710174869815"><ele>567.0</ele><time>2026-04-06T08:18:27.999Z</time></trkpt><trkpt lat="44.234012395108515" lon="11.592694268935167"><ele>568.0</ele><time>2026-04-06T08:18:31.999Z</time></trkpt><trkpt lat="44.233927369546436" lon="11.592677987887955"><ele>569.0</ele><time>2026-04-06T08:18:35.999Z</time></trkpt><trkpt lat="44.233857627789725" lon="11.592654449397696"><ele>570.0</ele><time>2026-04-06T08:18:38.999Z</time></trkpt><trkpt lat="44.23379378285612" lon="11.592627234522338"><ele>571.0</ele><time>2026-04-06T08:18:42.999Z</time></trkpt><trkpt lat="44.23372508950395" lon="11.592598499841605"><ele>572.0</ele><time>2026-04-06T08:18:46.999Z</time></trkpt><trkpt lat="44.23366170322631" lon="11.592562508890445"><ele>573.0</ele><time>2026-04-06T08:18:50.999Z</time></trkpt><trkpt lat="44.23359174543861" lon="11.592522236313203"><ele>574.0</ele><time>2026-04-06T08:18:54.999Z</time></trkpt><trkpt lat="44.23353562167219" lon="11.592473288308954"><ele>574.0</ele><time>2026-04-06T08:18:58.999Z</time></trkpt><trkpt lat="44.23347915218899" lon="11.59242063095578"><ele>574.0</ele><time>2026-04-06T08:19:03.999Z</time></trkpt><trkpt lat="44.23341807565792" lon="11.592367206751776"><ele>574.0</ele><time>2026-04-06T08:19:07.999Z</time></trkpt><trkpt lat="44.23336753066155" lon="11.5923024671213"><ele>574.0</ele><time>2026-04-06T08:19:11.999Z</time></trkpt><trkpt lat="44.23330692272789" lon="11.59224225403025"><ele>574.0</ele><time>2026-04-06T08:19:15.999Z</time></trkpt><trkpt lat="44.2332571619591" lon="11.592178846510736"><ele>574.0</ele><time>2026-04-06T08:19:19.999Z</time></trkpt><trkpt lat="44.233201386951606" lon="11.592120825340052"><ele>574.0</ele><time>2026-04-06T08:19:23.999Z</time></trkpt><trkpt lat="44.23313471485294" lon="11.592067535120632"><ele>574.8571428571429</ele><time>2026-04-06T08:19:28.999Z</time></trkpt><trkpt lat="44.23307553734935" lon="11.592035207037693"><ele>575.7142857142858</ele><time>2026-04-06T08:19:32.999Z</time></trkpt><trkpt lat="44.23301708008267" lon="11.591999437743224"><ele>576.5714285714286</ele><time>2026-04-06T08:19:36.999Z</time></trkpt><trkpt lat="44.23294482998423" lon="11.591967455258645"><ele>577.4285714285714</ele><time>2026-04-06T08:19:40.999Z</time></trkpt><trkpt lat="44.23287668158455" lon="11.591945447715169"><ele>578.2857142857143</ele><time>2026-04-06T08:19:45.999Z</time></trkpt><trkpt lat="44.232814675547566" lon="11.591924439462183"><ele>579.1428571428571</ele><time>2026-04-06T08:19:48.999Z</time></trkpt><trkpt lat="44.23274168264219" lon="11.591899106826832"><ele>580.0</ele><time>2026-04-06T08:19:52.999Z</time></trkpt><trkpt lat="44.23267430709686" lon="11.59188870168532"><ele>579.1428571428571</ele><time>2026-04-06T08:19:56.999Z</time></trkpt><trkpt lat="44.23260724488711" lon="11.591877603963358"><ele>578.2857142857143</ele><time>2026-04-06T08:19:59.999Z</time></trkpt><trkpt lat="44.23252765413801" lon="11.591860920534389"><ele>577.4285714285714</ele><time>2026-04-06T08:20:02.999Z</time></trkpt><trkpt lat="44.23246354820535" lon="11.59186509557004"><ele>576.5714285714286</ele><time>2026-04-06T08:20:06Z</time></trkpt><trkpt lat="44.23239016721102" lon="11.591892831936205"><ele>575.7142857142858</ele><time>2026-04-06T08:20:10Z</time></trkpt><trkpt lat="44.23231556917099" lon="11.59192456184494"><ele>574.8571428571429</ele><time>2026-04-06T08:20:14Z</time></trkpt><trkpt lat="44.2322551361836" lon="11.591950038380789"><ele>574.0</ele><time>2026-04-06T08:20:17Z</time></trkpt><trkpt lat="44.23217716146955" lon="11.59193541129487"><ele>574.0</ele><time>2026-04-06T08:20:21Z</time></trkpt><trkpt lat="44.2321320058484" lon="11.591849066505777"><ele>574.0</ele><time>2026-04-06T08:20:25Z</time></trkpt><trkpt lat="44.23210096628822" lon="11.591763811512566"><ele>574.0</ele><time>2026-04-06T08:20:29Z</time></trkpt><trkpt lat="44.232074988917" lon="11.591660825575284"><ele>574.0</ele><time>2026-04-06T08:20:33Z</time></trkpt><trkpt lat="44.23205520156822" lon="11.591555948724018"><ele>574.0</ele><time>2026-04-06T08:20:37Z</time></trkpt><trkpt lat="44.23204735357664" lon="11.591444867860952"><ele>574.0</ele><time>2026-04-06T08:20:40.999Z</time></trkpt><trkpt lat="44.232034990825994" lon="11.591353690832474"><ele>574.0</ele><time>2026-04-06T08:20:43.999Z</time></trkpt><trkpt lat="44.232018503097606" lon="11.591258408957163"><ele>575.8333333333334</ele><time>2026-04-06T08:20:46.999Z</time></trkpt><trkpt lat="44.231978354313526" lon="11.591171416179225"><ele>577.6666666666667</ele><time>2026-04-06T08:20:49.999Z</time></trkpt><trkpt lat="44.231938671481586" lon="11.59108121823511"><ele>579.5</ele><time>2026-04-06T08:20:52.999Z</time></trkpt><trkpt lat="44.231914199492785" lon="11.590983768493436"><ele>581.3333333333334</ele><time>2026-04-06T08:20:55.999Z</time></trkpt><trkpt lat="44.231880346977434" lon="11.590867847894438"><ele>583.1666666666666</ele><time>2026-04-06T08:20:58.999Z</time></trkpt><trkpt lat="44.231856418834326" lon="11.590748482920494"><ele>585.0</ele><time>2026-04-06T08:21:01.999Z</time></trkpt><trkpt lat="44.231812479889236" lon="11.590636023221597"><ele>585.0</ele><time>2026-04-06T08:21:04.999Z</time></trkpt><trkpt lat="44.23177172813759" lon="11.590566337668529"><ele>585.0</ele><time>2026-04-06T08:21:06.999Z</time></trkpt><trkpt lat="44.23172922099445" lon="11.59049093808046"><ele>585.0</ele><time>2026-04-06T08:21:08.999Z</time></trkpt><trkpt lat="44.23168250154134" lon="11.590398105453511"><ele>585.0</ele><time>2026-04-06T08:21:10.999Z</time></trkpt><trkpt lat="44.23162767918052" lon="11.590313188058825"><ele>585.0</ele><time>2026-04-06T08:21:12.999Z</time></trkpt><trkpt lat="44.231571240126655" lon="11.590229207127889"><ele>585.0</ele><time>2026-04-06T08:21:14.999Z</time></trkpt><trkpt lat="44.23152248307521" lon="11.590148387997726"><ele>584.3333333333334</ele><time>2026-04-06T08:21:16.999Z</time></trkpt><trkpt lat="44.23146484110933" lon="11.59007646215617"><ele>583.6666666666666</ele><time>2026-04-06T08:21:18.999Z</time></trkpt><trkpt lat="44.23140862902818" lon="11.590009256424864"><ele>583.0</ele><time>2026-04-06T08:21:20.999Z</time></trkpt><trkpt lat="44.23136276585386" lon="11.589941485222063"><ele>582.3333333333333</ele><time>2026-04-06T08:21:22.999Z</time></trkpt><trkpt lat="44.23128670710925" lon="11.58985612774853"><ele>581.6666666666666</ele><time>2026-04-06T08:21:25.999Z</time></trkpt><trkpt lat="44.231227587879594" lon="11.589780649962297"><ele>581.0</ele><time>2026-04-06T08:21:28.999Z</time></trkpt><trkpt lat="44.23116850421726" lon="11.58971526686084"><ele>581.0</ele><time>2026-04-06T08:21:31.999Z</time></trkpt><trkpt lat="44.23112164080647" lon="11.589651869058258"><ele>581.0</ele><time>2026-04-06T08:21:34.999Z</time></trkpt><trkpt lat="44.23106549516957" lon="11.589578716164185"><ele>581.0</ele><time>2026-04-06T08:21:37.999Z</time></trkpt><trkpt lat="44.23102146451203" lon="11.589504535423016"><ele>581.0</ele><time>2026-04-06T08:21:40.999Z</time></trkpt><trkpt lat="44.23098314543987" lon="11.58942366083718"><ele>581.0</ele><time>2026-04-06T08:21:43.999Z</time></trkpt><trkpt lat="44.2309562171166" lon="11.589326889605207"><ele>581.0</ele><time>2026-04-06T08:21:46.999Z</time></trkpt><trkpt lat="44.23093257394094" lon="11.589234616423255"><ele>581.0</ele><time>2026-04-06T08:21:49.999Z</time></trkpt><trkpt lat="44.23090271973044" lon="11.589133079841625"><ele>583.1666666666666</ele><time>2026-04-06T08:21:52.999Z</time></trkpt><trkpt lat="44.23085027117703" lon="11.589037475957713"><ele>585.3333333333333</ele><time>2026-04-06T08:21:55.999Z</time></trkpt><trkpt lat="44.23081843648048" lon="11.588959510667872"><ele>587.5</ele><time>2026-04-06T08:21:57.999Z</time></trkpt><trkpt lat="44.23078287524707" lon="11.588847541207514"><ele>589.6666666666666</ele><time>2026-04-06T08:21:59.999Z</time></trkpt><trkpt lat="44.23074797219472" lon="11.588724086163365"><ele>591.8333333333334</ele><time>2026-04-06T08:22:01.999Z</time></trkpt><trkpt lat="44.230694081919914" lon="11.588622896365175"><ele>594.0</ele><time>2026-04-06T08:22:03.999Z</time></trkpt><trkpt lat="44.230631605447165" lon="11.588575091649064"><ele>594.6</ele><time>2026-04-06T08:22:07.999Z</time></trkpt><trkpt lat="44.230555510526465" lon="11.58854093282732"><ele>595.2</ele><time>2026-04-06T08:22:10Z</time></trkpt><trkpt lat="44.230496285967185" lon="11.588430391099616"><ele>595.8000000000001</ele><time>2026-04-06T08:22:12Z</time></trkpt><trkpt lat="44.23040333032444" lon="11.588370016259958"><ele>596.4</ele><time>2026-04-06T08:22:14Z</time></trkpt><trkpt lat="44.230322647248734" lon="11.588372926557863"><ele>597.0</ele><time>2026-04-06T08:22:16Z</time></trkpt><trkpt lat="44.2302436820079" lon="11.588295962110175"><ele>597.0</ele><time>2026-04-06T08:22:18Z</time></trkpt><trkpt lat="44.230148574527725" lon="11.588227008197418"><ele>597.0</ele><time>2026-04-06T08:22:20Z</time></trkpt><trkpt lat="44.23004740037745" lon="11.588206649656053"><ele>597.0</ele><time>2026-04-06T08:22:22Z</time></trkpt><trkpt lat="44.22992119538031" lon="11.58823597797321"><ele>597.0</ele><time>2026-04-06T08:22:24Z</time></trkpt><trkpt lat="44.229858138513904" lon="11.588255907931346"><ele>597.0</ele><time>2026-04-06T08:22:25Z</time></trkpt><trkpt lat="44.229757227474295" lon="11.588294614189419"><ele>594.2</ele><time>2026-04-06T08:22:27Z</time></trkpt><trkpt lat="44.22964211983158" lon="11.588302057447908"><ele>591.4000000000001</ele><time>2026-04-06T08:22:29Z</time></trkpt><trkpt lat="44.22953730858452" lon="11.5882828156838"><ele>588.5999999999999</ele><time>2026-04-06T08:22:31Z</time></trkpt><trkpt lat="44.22943241892485" lon="11.588286205256658"><ele>585.8</ele><time>2026-04-06T08:22:33Z</time></trkpt><trkpt lat="44.22934119014495" lon="11.588223166620805"><ele>583.0</ele><time>2026-04-06T08:22:35Z</time></trkpt><trkpt lat="44.22926430141986" lon="11.588159260856212"><ele>583.0000000000001</ele><time>2026-04-06T08:22:37Z</time></trkpt><trkpt lat="44.229199078992174" lon="11.588138668746703"><ele>583.0</ele><time>2026-04-06T08:22:38Z</time></trkpt><trkpt lat="44.2291292755688" lon="11.588147913985225"><ele>583.0</ele><time>2026-04-06T08:22:39Z</time></trkpt><trkpt lat="44.22906479566085" lon="11.588156053504443"><ele>583.0</ele><time>2026-04-06T08:22:40Z</time></trkpt><trkpt lat="44.22899894553876" lon="11.588164125961459"><ele>583.0</ele><time>2026-04-06T08:22:41Z</time></trkpt><trkpt lat="44.22893074224484" lon="11.588167330747506"><ele>583.0000000000001</ele><time>2026-04-06T08:22:42Z</time></trkpt><trkpt lat="44.22885777707622" lon="11.588162465972273"><ele>583.0</ele><time>2026-04-06T08:22:43Z</time></trkpt><trkpt lat="44.22877664403115" lon="11.588156616700127"><ele>583.3333333333334</ele><time>2026-04-06T08:22:44Z</time></trkpt><trkpt lat="44.228695472301105" lon="11.588154791237976"><ele>583.6666666666667</ele><time>2026-04-06T08:22:45Z</time></trkpt><trkpt lat="44.228613941796" lon="11.588138947180632"><ele>584.0</ele><time>2026-04-06T08:22:45.999Z</time></trkpt><trkpt lat="44.228540045960926" lon="11.588104480190458"><ele>584.3333333333334</ele><time>2026-04-06T08:22:46.999Z</time></trkpt><trkpt lat="44.22847628805093" lon="11.58806285064262"><ele>584.6666666666666</ele><time>2026-04-06T08:22:47.999Z</time></trkpt><trkpt lat="44.228418038162" lon="11.58802270489946"><ele>585.0</ele><time>2026-04-06T08:22:48.999Z</time></trkpt><trkpt lat="44.228316213559694" lon="11.587945021809631"><ele>585.0</ele><time>2026-04-06T08:22:50.999Z</time></trkpt><trkpt lat="44.228216996578695" lon="11.587858126961825"><ele>585.0</ele><time>2026-04-06T08:22:52.999Z</time></trkpt><trkpt lat="44.228125343019215" lon="11.587762447591555"><ele>585.0</ele><time>2026-04-06T08:22:54.999Z</time></trkpt><trkpt lat="44.228045376504845" lon="11.587659978551489"><ele>585.0</ele><time>2026-04-06T08:22:56.999Z</time></trkpt><trkpt lat="44.22795405332582" lon="11.587572029411156"><ele>585.8333333333334</ele><time>2026-04-06T08:22:58.999Z</time></trkpt><trkpt lat="44.227869998170036" lon="11.5875180760852"><ele>586.6666666666666</ele><time>2026-04-06T08:23:00.999Z</time></trkpt><trkpt lat="44.22779197146351" lon="11.587470495251194"><ele>587.5</ele><time>2026-04-06T08:23:02.999Z</time></trkpt><trkpt lat="44.227732675591334" lon="11.58743447127527"><ele>588.3333333333333</ele><time>2026-04-06T08:23:04.999Z</time></trkpt><trkpt lat="44.227657060353486" lon="11.587381902038201"><ele>589.1666666666666</ele><time>2026-04-06T08:23:07.999Z</time></trkpt><trkpt lat="44.227589820685246" lon="11.58732627523213"><ele>590.0</ele><time>2026-04-06T08:23:10.999Z</time></trkpt><trkpt lat="44.227522288224364" lon="11.587266082317166"><ele>590.0</ele><time>2026-04-06T08:23:13.999Z</time></trkpt><trkpt lat="44.22746482112946" lon="11.587191825851917"><ele>590.0</ele><time>2026-04-06T08:23:16.999Z</time></trkpt><trkpt lat="44.22741433703441" lon="11.587100385823332"><ele>590.0</ele><time>2026-04-06T08:23:19.999Z</time></trkpt><trkpt lat="44.22737028731571" lon="11.587001389501314"><ele>590.0</ele><time>2026-04-06T08:23:22.999Z</time></trkpt><trkpt lat="44.22732397300132" lon="11.586896700320864"><ele>590.0</ele><time>2026-04-06T08:23:25.999Z</time></trkpt><trkpt lat="44.227281885658776" lon="11.586794072094692"><ele>590.0</ele><time>2026-04-06T08:23:28.999Z</time></trkpt><trkpt lat="44.22724410950447" lon="11.586699720253273"><ele>589.2857142857143</ele><time>2026-04-06T08:23:31.999Z</time></trkpt><trkpt lat="44.2272153278532" lon="11.586608944322645"><ele>588.5714285714286</ele><time>2026-04-06T08:23:34.999Z</time></trkpt><trkpt lat="44.22718175015751" lon="11.586526078786823"><ele>587.8571428571429</ele><time>2026-04-06T08:23:37.999Z</time></trkpt><trkpt lat="44.22713378531021" lon="11.586455275480194"><ele>587.1428571428571</ele><time>2026-04-06T08:23:40.999Z</time></trkpt><trkpt lat="44.22708694806859" lon="11.58638919563839"><ele>586.4285714285714</ele><time>2026-04-06T08:23:43.999Z</time></trkpt><trkpt lat="44.227021828329356" lon="11.586357783331529"><ele>585.7142857142858</ele><time>2026-04-06T08:23:46.999Z</time></trkpt><trkpt lat="44.226957744276426" lon="11.586316423053585"><ele>585.0</ele><time>2026-04-06T08:23:49.999Z</time></trkpt><trkpt lat="44.226894410640526" lon="11.586280931103644"><ele>585.0</ele><time>2026-04-06T08:23:52.999Z</time></trkpt><trkpt lat="44.22683728225558" lon="11.586230714653837"><ele>585.0</ele><time>2026-04-06T08:23:55.999Z</time></trkpt><trkpt lat="44.226791151110106" lon="11.58616754145259"><ele>585.0</ele><time>2026-04-06T08:23:58.999Z</time></trkpt><trkpt lat="44.226732299032314" lon="11.586085200881488"><ele>585.0</ele><time>2026-04-06T08:24:02.999Z</time></trkpt><trkpt lat="44.226686673767695" lon="11.586008259577818"><ele>585.0</ele><time>2026-04-06T08:24:06.999Z</time></trkpt><trkpt lat="44.22664164615069" lon="11.585930843200357"><ele>585.0</ele><time>2026-04-06T08:24:10.999Z</time></trkpt><trkpt lat="44.22659775358871" lon="11.585856843228033"><ele>585.0</ele><time>2026-04-06T08:24:14.999Z</time></trkpt><trkpt lat="44.22655406067557" lon="11.585784515460984"><ele>588.0</ele><time>2026-04-06T08:24:19Z</time></trkpt><trkpt lat="44.226503634438444" lon="11.585700407760223"><ele>591.0</ele><time>2026-04-06T08:24:24Z</time></trkpt><trkpt lat="44.22645249312692" lon="11.585623793677076"><ele>594.0</ele><time>2026-04-06T08:24:29Z</time></trkpt><trkpt lat="44.22640531023494" lon="11.585562427156837"><ele>597.0</ele><time>2026-04-06T08:24:33Z</time></trkpt><trkpt lat="44.22634090754307" lon="11.5854858437519"><ele>600.0</ele><time>2026-04-06T08:24:37Z</time></trkpt><trkpt lat="44.22628033410855" lon="11.585442497835572"><ele>603.0</ele><time>2026-04-06T08:24:40Z</time></trkpt><trkpt lat="44.22619758846815" lon="11.585399585838054"><ele>603.1428571428572</ele><time>2026-04-06T08:24:44Z</time></trkpt><trkpt lat="44.22613509380179" lon="11.585374351107403"><ele>603.2857142857142</ele><time>2026-04-06T08:24:47Z</time></trkpt><trkpt lat="44.226056604901835" lon="11.585341288304011"><ele>603.4285714285714</ele><time>2026-04-06T08:24:51Z</time></trkpt><trkpt lat="44.22597968047687" lon="11.585311201343451"><ele>603.5714285714287</ele><time>2026-04-06T08:24:54.999Z</time></trkpt><trkpt lat="44.225902420200796" lon="11.585286227974896"><ele>603.7142857142858</ele><time>2026-04-06T08:24:58.999Z</time></trkpt><trkpt lat="44.225839207744684" lon="11.58525758359945"><ele>603.8571428571429</ele><time>2026-04-06T08:25:02.999Z</time></trkpt><trkpt lat="44.22576821599588" lon="11.585229648880034"><ele>604.0</ele><time>2026-04-06T08:25:06.999Z</time></trkpt><trkpt lat="44.22569843062576" lon="11.585198080834461"><ele>607.7142857142858</ele><time>2026-04-06T08:25:10.999Z</time></trkpt><trkpt lat="44.225624881820266" lon="11.585143448136312"><ele>611.4285714285714</ele><time>2026-04-06T08:25:14.999Z</time></trkpt><trkpt lat="44.22556557564374" lon="11.58510762004002"><ele>615.1428571428571</ele><time>2026-04-06T08:25:17.999Z</time></trkpt><trkpt lat="44.225505455074135" lon="11.585063165075159"><ele>618.8571428571429</ele><time>2026-04-06T08:25:20.999Z</time></trkpt><trkpt lat="44.22544962084978" lon="11.585017365475482"><ele>622.5714285714286</ele><time>2026-04-06T08:25:23.999Z</time></trkpt><trkpt lat="44.22538968037913" lon="11.58496883034506"><ele>626.2857142857143</ele><time>2026-04-06T08:25:26.999Z</time></trkpt><trkpt lat="44.22533068580364" lon="11.584924342054627"><ele>630.0</ele><time>2026-04-06T08:25:29.999Z</time></trkpt><trkpt lat="44.22525950820921" lon="11.584874774850094"><ele>630.0</ele><time>2026-04-06T08:25:33.999Z</time></trkpt><trkpt lat="44.22519847216364" lon="11.584828095358052"><ele>630.0</ele><time>2026-04-06T08:25:36.999Z</time></trkpt><trkpt lat="44.22513541307178" lon="11.584782840801521"><ele>630.0</ele><time>2026-04-06T08:25:40.999Z</time></trkpt><trkpt lat="44.2250756444986" lon="11.584741840838776"><ele>630.0</ele><time>2026-04-06T08:25:43.999Z</time></trkpt><trkpt lat="44.22500809628026" lon="11.584682137484904"><ele>630.0</ele><time>2026-04-06T08:25:47.999Z</time></trkpt><trkpt lat="44.22493899085305" lon="11.58464738531957"><ele>630.0</ele><time>2026-04-06T08:25:50.999Z</time></trkpt><trkpt lat="44.224875976862016" lon="11.584605477103391"><ele>630.0</ele><time>2026-04-06T08:25:53.999Z</time></trkpt><trkpt lat="44.22482331007342" lon="11.584552504365762"><ele>631.8571428571429</ele><time>2026-04-06T08:25:56.999Z</time></trkpt><trkpt lat="44.22476832525218" lon="11.584498366626402"><ele>633.7142857142858</ele><time>2026-04-06T08:25:59.999Z</time></trkpt><trkpt lat="44.22471561648429" lon="11.58443940338118"><ele>635.5714285714286</ele><time>2026-04-06T08:26:02.999Z</time></trkpt><trkpt lat="44.22465579529193" lon="11.584361373881968"><ele>637.4285714285714</ele><time>2026-04-06T08:26:06.999Z</time></trkpt><trkpt lat="44.22459490965731" lon="11.584316867441094"><ele>639.2857142857143</ele><time>2026-04-06T08:26:09.999Z</time></trkpt><trkpt lat="44.22453589101541" lon="11.58427391410527"><ele>641.1428571428571</ele><time>2026-04-06T08:26:12.999Z</time></trkpt><trkpt lat="44.22445674241365" lon="11.58424007058929"><ele>643.0</ele><time>2026-04-06T08:26:16.999Z</time></trkpt><trkpt lat="44.22439479420502" lon="11.584212403258364"><ele>643.0</ele><time>2026-04-06T08:26:19.999Z</time></trkpt><trkpt lat="44.224323003564706" lon="11.584188138210369"><ele>643.0</ele><time>2026-04-06T08:26:24Z</time></trkpt><trkpt lat="44.22425586147415" lon="11.584176444903036"><ele>643.0</ele><time>2026-04-06T08:26:27Z</time></trkpt><trkpt lat="44.224191577467" lon="11.584157497887402"><ele>643.0</ele><time>2026-04-06T08:26:30Z</time></trkpt><trkpt lat="44.22412608004599" lon="11.584144605739787"><ele>643.0</ele><time>2026-04-06T08:26:33Z</time></trkpt><trkpt lat="44.22404611252925" lon="11.584125005348943"><ele>643.0</ele><time>2026-04-06T08:26:37Z</time></trkpt><trkpt lat="44.22396713957852" lon="11.58411000358906"><ele>643.0</ele><time>2026-04-06T08:26:41Z</time></trkpt><trkpt lat="44.22389361861555" lon="11.584096132969721"><ele>644.5</ele><time>2026-04-06T08:26:45Z</time></trkpt><trkpt lat="44.22381243298184" lon="11.584097078502696"><ele>646.0</ele><time>2026-04-06T08:26:49Z</time></trkpt><trkpt lat="44.22373164836219" lon="11.58410167049862"><ele>647.5</ele><time>2026-04-06T08:26:53Z</time></trkpt><trkpt lat="44.22364993939407" lon="11.58408268485737"><ele>649.0</ele><time>2026-04-06T08:26:57Z</time></trkpt><trkpt lat="44.22357085217811" lon="11.584061489924414"><ele>650.5</ele><time>2026-04-06T08:27:01Z</time></trkpt><trkpt lat="44.22349042544532" lon="11.584030986197723"><ele>652.0</ele><time>2026-04-06T08:27:04.999Z</time></trkpt><trkpt lat="44.223422108914725" lon="11.584009432479668"><ele>652.0</ele><time>2026-04-06T08:27:07.999Z</time></trkpt><trkpt lat="44.223358866076985" lon="11.5839834602837"><ele>652.0</ele><time>2026-04-06T08:27:10.999Z</time></trkpt><trkpt lat="44.2232858256423" lon="11.583953444658581"><ele>652.0</ele><time>2026-04-06T08:27:13.999Z</time></trkpt><trkpt lat="44.22321459183011" lon="11.583927283021898"><ele>652.0</ele><time>2026-04-06T08:27:16.999Z</time></trkpt><trkpt lat="44.22314219770531" lon="11.58389401776622"><ele>652.0</ele><time>2026-04-06T08:27:19.999Z</time></trkpt><trkpt lat="44.223070078250025" lon="11.583872841104387"><ele>652.0</ele><time>2026-04-06T08:27:22.999Z</time></trkpt><trkpt lat="44.22300598729217" lon="11.583841257169318"><ele>652.0</ele><time>2026-04-06T08:27:25.999Z</time></trkpt><trkpt lat="44.22294024848195" lon="11.583805350144315"><ele>651.2857142857143</ele><time>2026-04-06T08:27:28.999Z</time></trkpt><trkpt lat="44.22287345001482" lon="11.583762577696211"><ele>650.5714285714286</ele><time>2026-04-06T08:27:31.999Z</time></trkpt><trkpt lat="44.22280958985435" lon="11.583715764763593"><ele>649.8571428571429</ele><time>2026-04-06T08:27:34.999Z</time></trkpt><trkpt lat="44.22274919271927" lon="11.583673922748075"><ele>649.1428571428571</ele><time>2026-04-06T08:27:37.999Z</time></trkpt><trkpt lat="44.22269565437431" lon="11.583604102055869"><ele>648.4285714285714</ele><time>2026-04-06T08:27:40.999Z</time></trkpt><trkpt lat="44.22264300839161" lon="11.583546706620094"><ele>647.7142857142857</ele><time>2026-04-06T08:27:43.999Z</time></trkpt><trkpt lat="44.222593008923916" lon="11.58349056264661"><ele>647.0</ele><time>2026-04-06T08:27:46.999Z</time></trkpt><trkpt lat="44.22252456741674" lon="11.58342180231115"><ele>648.0</ele><time>2026-04-06T08:27:50.999Z</time></trkpt><trkpt lat="44.2224720698728" lon="11.583366432668486"><ele>649.0</ele><time>2026-04-06T08:27:53.999Z</time></trkpt><trkpt lat="44.22241131846733" lon="11.583295600162709"><ele>650.0</ele><time>2026-04-06T08:27:57.999Z</time></trkpt><trkpt lat="44.22234459065097" lon="11.583225788537133"><ele>651.0</ele><time>2026-04-06T08:28:01.999Z</time></trkpt><trkpt lat="44.22227959611255" lon="11.583151039941942"><ele>652.0</ele><time>2026-04-06T08:28:05.999Z</time></trkpt><trkpt lat="44.22221835512474" lon="11.583081351371815"><ele>653.0</ele><time>2026-04-06T08:28:09.999Z</time></trkpt><trkpt lat="44.22215852045458" lon="11.583002598115947"><ele>653.0</ele><time>2026-04-06T08:28:13.999Z</time></trkpt><trkpt lat="44.2221059025947" lon="11.582933444187967"><ele>653.0</ele><time>2026-04-06T08:28:16.999Z</time></trkpt><trkpt lat="44.22205252478054" lon="11.582865942891097"><ele>653.0</ele><time>2026-04-06T08:28:19.999Z</time></trkpt><trkpt lat="44.22199394862699" lon="11.582791486986734"><ele>653.0</ele><time>2026-04-06T08:28:22.999Z</time></trkpt><trkpt lat="44.22194439612553" lon="11.582735768212853"><ele>653.0</ele><time>2026-04-06T08:28:24.999Z</time></trkpt><trkpt lat="44.2218795891533" lon="11.582660375815017"><ele>653.0</ele><time>2026-04-06T08:28:28Z</time></trkpt><trkpt lat="44.22181193783402" lon="11.582598313384565"><ele>652.8333333333333</ele><time>2026-04-06T08:28:31Z</time></trkpt><trkpt lat="44.221737491554265" lon="11.582542044238247"><ele>652.6666666666666</ele><time>2026-04-06T08:28:34Z</time></trkpt><trkpt lat="44.22166209610109" lon="11.582481790625057"><ele>652.5</ele><time>2026-04-06T08:28:37Z</time></trkpt><trkpt lat="44.221602278695386" lon="11.582451581394675"><ele>652.3333333333334</ele><time>2026-04-06T08:28:39Z</time></trkpt><trkpt lat="44.221522555367635" lon="11.582392676031718"><ele>652.1666666666667</ele><time>2026-04-06T08:28:42Z</time></trkpt><trkpt lat="44.22146369125031" lon="11.582338428148283"><ele>652.0</ele><time>2026-04-06T08:28:44Z</time></trkpt><trkpt lat="44.221387173330754" lon="11.582249693354603"><ele>652.0</ele><time>2026-04-06T08:28:47Z</time></trkpt><trkpt lat="44.22133248703554" lon="11.582184787773572"><ele>652.0</ele><time>2026-04-06T08:28:49Z</time></trkpt><trkpt lat="44.221273640063146" lon="11.582110672397752"><ele>652.0</ele><time>2026-04-06T08:28:51Z</time></trkpt><trkpt lat="44.22119305577084" lon="11.582014834828275"><ele>652.0</ele><time>2026-04-06T08:28:53Z</time></trkpt><trkpt lat="44.221083099572" lon="11.581934745457264"><ele>652.0</ele><time>2026-04-06T08:28:55Z</time></trkpt><trkpt lat="44.22101243786378" lon="11.581907716466588"><ele>651.6666666666667</ele><time>2026-04-06T08:28:56Z</time></trkpt><trkpt lat="44.220933445332136" lon="11.581891874415268"><ele>651.3333333333334</ele><time>2026-04-06T08:28:57Z</time></trkpt><trkpt lat="44.220844836820405" lon="11.581875171360227"><ele>651.0</ele><time>2026-04-06T08:28:58Z</time></trkpt><trkpt lat="44.220751422314386" lon="11.581839956941954"><ele>650.6666666666666</ele><time>2026-04-06T08:28:59Z</time></trkpt><trkpt lat="44.22066867097283" lon="11.581781239189676"><ele>650.3333333333333</ele><time>2026-04-06T08:29:00Z</time></trkpt><trkpt lat="44.22059960450771" lon="11.58171067095695"><ele>650.0</ele><time>2026-04-06T08:29:01Z</time></trkpt><trkpt lat="44.22054747883755" lon="11.581613189126939"><ele>650.0</ele><time>2026-04-06T08:29:02Z</time></trkpt><trkpt lat="44.22048259905999" lon="11.581484350666285"><ele>650.0</ele><time>2026-04-06T08:29:03Z</time></trkpt><trkpt lat="44.22038693098256" lon="11.58138618849936"><ele>650.0</ele><time>2026-04-06T08:29:04Z</time></trkpt><trkpt lat="44.22028752532738" lon="11.581318157889205"><ele>650.0</ele><time>2026-04-06T08:29:05Z</time></trkpt><trkpt lat="44.220186383247096" lon="11.581262806147386"><ele>650.0</ele><time>2026-04-06T08:29:06Z</time></trkpt><trkpt lat="44.22009636345994" lon="11.58120092456558"><ele>650.0</ele><time>2026-04-06T08:29:06.999Z</time></trkpt><trkpt lat="44.220025342104485" lon="11.581131744184695"><ele>650.0</ele><time>2026-04-06T08:29:07.999Z</time></trkpt><trkpt lat="44.21994833402015" lon="11.581033754867024"><ele>650.0</ele><time>2026-04-06T08:29:09.999Z</time></trkpt><trkpt lat="44.21987474880257" lon="11.581011467235262"><ele>650.0</ele><time>2026-04-06T08:29:11.999Z</time></trkpt><trkpt lat="44.21980171926534" lon="11.580969629747626"><ele>650.0</ele><time>2026-04-06T08:29:14.999Z</time></trkpt><trkpt lat="44.219771480312424" lon="11.58086886506055"><ele>652.5714285714286</ele><time>2026-04-06T08:29:20.999Z</time></trkpt><trkpt lat="44.219705495061525" lon="11.580832305607299"><ele>655.1428571428572</ele><time>2026-04-06T08:29:23.999Z</time></trkpt><trkpt lat="44.219653161964" lon="11.580783327486861"><ele>657.7142857142858</ele><time>2026-04-06T08:29:27.999Z</time></trkpt><trkpt lat="44.21958924435926" lon="11.580717778526399"><ele>660.2857142857142</ele><time>2026-04-06T08:29:32.999Z</time></trkpt><trkpt lat="44.21952301205608" lon="11.580665141845346"><ele>662.8571428571429</ele><time>2026-04-06T08:29:36.999Z</time></trkpt><trkpt lat="44.21946365459684" lon="11.580622718093618"><ele>665.4285714285714</ele><time>2026-04-06T08:29:40.999Z</time></trkpt><trkpt lat="44.21940434457376" lon="11.580578791467177"><ele>668.0</ele><time>2026-04-06T08:29:44.999Z</time></trkpt><trkpt lat="44.21934521310186" lon="11.58054449688894"><ele>668.0</ele><time>2026-04-06T08:29:48.999Z</time></trkpt><trkpt lat="44.21928337232678" lon="11.580485797281728"><ele>668.0</ele><time>2026-04-06T08:29:53.999Z</time></trkpt><trkpt lat="44.21923282247262" lon="11.580419004755443"><ele>668.0</ele><time>2026-04-06T08:29:58.999Z</time></trkpt><trkpt lat="44.21919484045586" lon="11.580345438691994"><ele>668.0</ele><time>2026-04-06T08:30:02.999Z</time></trkpt><trkpt lat="44.21914737162282" lon="11.580266894735892"><ele>668.0</ele><time>2026-04-06T08:30:06.999Z</time></trkpt><trkpt lat="44.21909737166447" lon="11.580209448650825"><ele>668.0</ele><time>2026-04-06T08:30:10.999Z</time></trkpt><trkpt lat="44.21904308943735" lon="11.580150572072787"><ele>668.0</ele><time>2026-04-06T08:30:14.999Z</time></trkpt><trkpt lat="44.21897904722373" lon="11.580091184904957"><ele>672.1428571428571</ele><time>2026-04-06T08:30:18.999Z</time></trkpt><trkpt lat="44.21891582702888" lon="11.580039466728099"><ele>676.2857142857143</ele><time>2026-04-06T08:30:23.999Z</time></trkpt><trkpt lat="44.21885154453888" lon="11.579986678373874"><ele>680.4285714285714</ele><time>2026-04-06T08:30:28.999Z</time></trkpt><trkpt lat="44.218791277361305" lon="11.579944396420084"><ele>684.5714285714286</ele><time>2026-04-06T08:30:34Z</time></trkpt><trkpt lat="44.218729466035384" lon="11.579918979263258"><ele>688.7142857142857</ele><time>2026-04-06T08:30:38Z</time></trkpt><trkpt lat="44.218664992510305" lon="11.579883087050781"><ele>692.8571428571429</ele><time>2026-04-06T08:30:42Z</time></trkpt><trkpt lat="44.21860172396598" lon="11.579851627265933"><ele>697.0</ele><time>2026-04-06T08:30:46Z</time></trkpt><trkpt lat="44.21853936983861" lon="11.579813942414146"><ele>697.0</ele><time>2026-04-06T08:30:51Z</time></trkpt><trkpt lat="44.21846453329274" lon="11.579788361687296"><ele>697.0</ele><time>2026-04-06T08:30:56Z</time></trkpt><trkpt lat="44.218399769167384" lon="11.579761784524136"><ele>697.0</ele><time>2026-04-06T08:31:00Z</time></trkpt><trkpt lat="44.21833047064355" lon="11.579778934371243"><ele>697.0</ele><time>2026-04-06T08:31:04Z</time></trkpt><trkpt lat="44.21826753128076" lon="11.579790416471184"><ele>697.0</ele><time>2026-04-06T08:31:18.999Z</time></trkpt><trkpt lat="44.218200988814004" lon="11.579754535330158"><ele>697.0</ele><time>2026-04-06T08:31:22.999Z</time></trkpt><trkpt lat="44.21813828024001" lon="11.579719615593921"><ele>697.0</ele><time>2026-04-06T08:31:25.999Z</time></trkpt><trkpt lat="44.218053334237005" lon="11.579668989222698"><ele>692.0</ele><time>2026-04-06T08:31:28.999Z</time></trkpt><trkpt lat="44.21799124983181" lon="11.579625236443693"><ele>692.0</ele><time>2026-04-06T08:31:30.999Z</time></trkpt><trkpt lat="44.217921571879685" lon="11.579639114175137"><ele>692.0</ele><time>2026-04-06T08:31:33.999Z</time></trkpt><trkpt lat="44.21787774014387" lon="11.579570755126431"><ele>692.0</ele><time>2026-04-06T08:31:36.999Z</time></trkpt><trkpt lat="44.217866678233065" lon="11.579463746900284"><ele>688.0</ele><time>2026-04-06T08:31:40.999Z</time></trkpt><trkpt lat="44.217873082255004" lon="11.579368460220593"><ele>688.0</ele><time>2026-04-06T08:31:45.999Z</time></trkpt></trkseg><trkseg><trkpt lat="44.21784695284636" lon="11.579415507601537"><ele>688.0000000000001</ele><time>2026-04-06T08:42:13Z</time></trkpt><trkpt lat="44.217840761893285" lon="11.5795380691034"><ele>688.0</ele><time>2026-04-06T08:42:18Z</time></trkpt><trkpt lat="44.21777871353936" lon="11.579516274120879"><ele>688.0</ele><time>2026-04-06T08:42:22Z</time></trkpt><trkpt lat="44.2177218841471" lon="11.579445497951136"><ele>688.0</ele><time>2026-04-06T08:42:28Z</time></trkpt><trkpt lat="44.21768719233236" lon="11.57937126858226"><ele>688.0</ele><time>2026-04-06T08:42:33Z</time></trkpt><trkpt lat="44.21761063935266" lon="11.579407043701513"><ele>688.0000000000001</ele><time>2026-04-06T08:42:50Z</time></trkpt><trkpt lat="44.21754952143297" lon="11.579458702841821"><ele>688.0</ele><time>2026-04-06T08:42:54Z</time></trkpt><trkpt lat="44.21745986632289" lon="11.579406396168348"><ele>688.0000000000001</ele><time>2026-04-06T08:43:01Z</time></trkpt><trkpt lat="44.21738105701342" lon="11.57941008580396"><ele>688.0</ele><time>2026-04-06T08:43:14Z</time></trkpt><trkpt lat="44.217326219578396" lon="11.579362741356867"><ele>688.0</ele><time>2026-04-06T08:43:17Z</time></trkpt><trkpt lat="44.21726706894713" lon="11.579318405023479"><ele>688.0</ele><time>2026-04-06T08:43:20Z</time></trkpt><trkpt lat="44.217196998755874" lon="11.579306165360991"><ele>688.0</ele><time>2026-04-06T08:43:28Z</time></trkpt><trkpt lat="44.21713638521644" lon="11.579243214311477"><ele>688.0000000000001</ele><time>2026-04-06T08:43:50Z</time></trkpt><trkpt lat="44.21706849566533" lon="11.579210475067054"><ele>688.0</ele><time>2026-04-06T08:44:02Z</time></trkpt><trkpt lat="44.217000461128926" lon="11.579178563921792"><ele>685.8333333333334</ele><time>2026-04-06T08:44:06Z</time></trkpt><trkpt lat="44.21693175537156" lon="11.579166025605257"><ele>683.6666666666667</ele><time>2026-04-06T08:44:22Z</time></trkpt><trkpt lat="44.21686737837364" lon="11.579181259604674"><ele>681.5</ele><time>2026-04-06T08:44:44Z</time></trkpt><trkpt lat="44.216782003165015" lon="11.579185370568572"><ele>679.3333333333334</ele><time>2026-04-06T08:44:47Z</time></trkpt><trkpt lat="44.21670780878198" lon="11.579168032369502"><ele>677.1666666666666</ele><time>2026-04-06T08:44:49Z</time></trkpt><trkpt lat="44.216618524367334" lon="11.579181451981247"><ele>675.0</ele><time>2026-04-06T08:44:52Z</time></trkpt><trkpt lat="44.216543404515065" lon="11.579126495892348"><ele>675.0</ele><time>2026-04-06T08:45:56Z</time></trkpt><trkpt lat="44.21650817752062" lon="11.57922932045911"><ele>675.0</ele><time>2026-04-06T08:46:00Z</time></trkpt><trkpt lat="44.21651249476972" lon="11.57933186377261"><ele>675.0</ele><time>2026-04-06T08:46:02Z</time></trkpt><trkpt lat="44.216541539045096" lon="11.57943642569772"><ele>675.0</ele><time>2026-04-06T08:46:04Z</time></trkpt><trkpt lat="44.21656388812601" lon="11.579521184107142"><ele>675.0</ele><time>2026-04-06T08:46:06Z</time></trkpt><trkpt lat="44.2165934077579" lon="11.57964486007326"><ele>675.0</ele><time>2026-04-06T08:46:08Z</time></trkpt><trkpt lat="44.2165256301822" lon="11.579721611092847"><ele>674.6666666666666</ele><time>2026-04-06T08:46:16Z</time></trkpt><trkpt lat="44.21646516352589" lon="11.57975256136621"><ele>674.3333333333334</ele><time>2026-04-06T08:46:19Z</time></trkpt><trkpt lat="44.216451404806506" lon="11.579876859681042"><ele>674.0</ele><time>2026-04-06T08:46:26Z</time></trkpt><trkpt lat="44.216459910543534" lon="11.579990497548199"><ele>673.6666666666667</ele><time>2026-04-06T08:46:29Z</time></trkpt><trkpt lat="44.2165034867979" lon="11.580074289634396"><ele>673.3333333333334</ele><time>2026-04-06T08:46:31Z</time></trkpt><trkpt lat="44.216515513952096" lon="11.580178611341301"><ele>673.0</ele><time>2026-04-06T08:46:37Z</time></trkpt><trkpt lat="44.21655016465753" lon="11.580278444642971"><ele>673.0</ele><time>2026-04-06T08:46:40Z</time></trkpt><trkpt lat="44.21660317938604" lon="11.58033077499351"><ele>673.0</ele><time>2026-04-06T08:46:55Z</time></trkpt><trkpt lat="44.216538958211196" lon="11.580376047583508"><ele>673.0</ele><time>2026-04-06T08:46:59Z</time></trkpt><trkpt lat="44.21646836404623" lon="11.580406095038521"><ele>673.0</ele><time>2026-04-06T08:47:03Z</time></trkpt><trkpt lat="44.21649155796231" lon="11.580487860663377"><ele>673.0</ele><time>2026-04-06T08:47:10Z</time></trkpt><trkpt lat="44.21644711511818" lon="11.58056194752155"><ele>673.0</ele><time>2026-04-06T08:47:14Z</time></trkpt><trkpt lat="44.21642401042883" lon="11.580652073752441"><ele>673.0</ele><time>2026-04-06T08:47:19Z</time></trkpt><trkpt lat="44.21638462364603" lon="11.580736924325773"><ele>667.1666666666667</ele><time>2026-04-06T08:47:22Z</time></trkpt><trkpt lat="44.2163270424962" lon="11.580785514919276"><ele>661.3333333333334</ele><time>2026-04-06T08:47:33.001Z</time></trkpt><trkpt lat="44.216314285990656" lon="11.580896325034981"><ele>655.5</ele><time>2026-04-06T08:47:50Z</time></trkpt><trkpt lat="44.21633171804838" lon="11.580980743278587"><ele>649.6666666666666</ele><time>2026-04-06T08:47:53Z</time></trkpt><trkpt lat="44.21639017776311" lon="11.581110033305338"><ele>643.8333333333333</ele><time>2026-04-06T08:48:14Z</time></trkpt><trkpt lat="44.216443298540916" lon="11.581167144424782"><ele>638.0</ele><time>2026-04-06T08:48:56Z</time></trkpt><trkpt lat="44.216431204132995" lon="11.58125420142202"><ele>636.8571428571429</ele><time>2026-04-06T08:49:03Z</time></trkpt><trkpt lat="44.216425461890886" lon="11.581356282409489"><ele>635.7142857142857</ele><time>2026-04-06T08:49:06Z</time></trkpt><trkpt lat="44.2164263245835" lon="11.581456900887543"><ele>634.5714285714286</ele><time>2026-04-06T08:49:08Z</time></trkpt><trkpt lat="44.216477265306104" lon="11.58153096269144"><ele>633.4285714285714</ele><time>2026-04-06T08:50:16Z</time></trkpt><trkpt lat="44.216476417469984" lon="11.581651195754576"><ele>632.2857142857142</ele><time>2026-04-06T08:51:19Z</time></trkpt><trkpt lat="44.21648553686911" lon="11.58174850072147"><ele>631.1428571428571</ele><time>2026-04-06T08:51:22Z</time></trkpt><trkpt lat="44.21651985334518" lon="11.581832074650219"><ele>630.0</ele><time>2026-04-06T08:51:25Z</time></trkpt><trkpt lat="44.216571641500614" lon="11.581940122347786"><ele>626.2857142857143</ele><time>2026-04-06T08:51:29Z</time></trkpt><trkpt lat="44.216597065971975" lon="11.582035126552732"><ele>622.5714285714286</ele><time>2026-04-06T08:51:35Z</time></trkpt><trkpt lat="44.21663661207596" lon="11.58210551174623"><ele>618.8571428571429</ele><time>2026-04-06T08:51:41.001Z</time></trkpt><trkpt lat="44.216675303531524" lon="11.582182142739178"><ele>615.1428571428571</ele><time>2026-04-06T08:51:46.001Z</time></trkpt><trkpt lat="44.21669153629342" lon="11.582267059221651"><ele>611.4285714285714</ele><time>2026-04-06T08:51:53.001Z</time></trkpt><trkpt lat="44.2166803731898" lon="11.582381750231788"><ele>607.7142857142858</ele><time>2026-04-06T08:51:56Z</time></trkpt><trkpt lat="44.21667539058447" lon="11.5824800131511"><ele>604.0</ele><time>2026-04-06T08:52:03Z</time></trkpt><trkpt lat="44.2166820016913" lon="11.582568312222584"><ele>604.0000000000001</ele><time>2026-04-06T08:52:11Z</time></trkpt><trkpt lat="44.21666128675528" lon="11.58265140295278"><ele>604.0</ele><time>2026-04-06T08:52:19Z</time></trkpt><trkpt lat="44.21667160278634" lon="11.582741790358991"><ele>604.0</ele><time>2026-04-06T08:52:54Z</time></trkpt><trkpt lat="44.21667272750682" lon="11.582831395011508"><ele>604.0</ele><time>2026-04-06T08:53:26Z</time></trkpt><trkpt lat="44.21669229173937" lon="11.582929930410321"><ele>604.0</ele><time>2026-04-06T08:53:30Z</time></trkpt><trkpt lat="44.21667587964982" lon="11.58302814788597"><ele>604.0000000000001</ele><time>2026-04-06T08:53:34Z</time></trkpt><trkpt lat="44.216708608318065" lon="11.583132725839661"><ele>604.0</ele><time>2026-04-06T08:53:40.999Z</time></trkpt><trkpt lat="44.21674379132893" lon="11.583241872020718"><ele>601.1428571428572</ele><time>2026-04-06T08:53:43.999Z</time></trkpt><trkpt lat="44.21674763329791" lon="11.583335891809622"><ele>598.2857142857143</ele><time>2026-04-06T08:53:46Z</time></trkpt><trkpt lat="44.216760555879176" lon="11.58344295992834"><ele>595.4285714285714</ele><time>2026-04-06T08:53:49Z</time></trkpt><trkpt lat="44.21679386168661" lon="11.583525626856295"><ele>592.5714285714287</ele><time>2026-04-06T08:53:52Z</time></trkpt><trkpt lat="44.21682615343075" lon="11.583635423935245"><ele>589.7142857142858</ele><time>2026-04-06T08:53:55Z</time></trkpt><trkpt lat="44.21684406366814" lon="11.583722367805212"><ele>586.8571428571429</ele><time>2026-04-06T08:53:57Z</time></trkpt><trkpt lat="44.21686192242315" lon="11.583813565685926"><ele>584.0</ele><time>2026-04-06T08:54:04Z</time></trkpt><trkpt lat="44.216929786559355" lon="11.583915812513379"><ele>580.5</ele><time>2026-04-06T08:54:08Z</time></trkpt><trkpt lat="44.217011988443296" lon="11.58399480749648"><ele>577.0</ele><time>2026-04-06T08:54:10Z</time></trkpt><trkpt lat="44.21708927657227" lon="11.58410435442021"><ele>573.5</ele><time>2026-04-06T08:54:12Z</time></trkpt><trkpt lat="44.21713502329168" lon="11.584179916779851"><ele>570.0</ele><time>2026-04-06T08:54:14Z</time></trkpt><trkpt lat="44.21713227465601" lon="11.584305971752594"><ele>566.5</ele><time>2026-04-06T08:54:17Z</time></trkpt><trkpt lat="44.217153111771864" lon="11.584390634199597"><ele>563.0</ele><time>2026-04-06T08:54:20Z</time></trkpt><trkpt lat="44.217081337095756" lon="11.584430134516133"><ele>558.6666666666666</ele><time>2026-04-06T08:54:24Z</time></trkpt><trkpt lat="44.217080564728874" lon="11.58452513780885"><ele>554.3333333333333</ele><time>2026-04-06T08:54:27Z</time></trkpt><trkpt lat="44.217142359206726" lon="11.584568853464154"><ele>550.0</ele><time>2026-04-06T08:54:30Z</time></trkpt><trkpt lat="44.21720464609853" lon="11.584624111117078"><ele>545.6666666666666</ele><time>2026-04-06T08:54:34Z</time></trkpt><trkpt lat="44.21727028971396" lon="11.584716428318199"><ele>541.3333333333334</ele><time>2026-04-06T08:54:37Z</time></trkpt><trkpt lat="44.21732267976641" lon="11.584770984953243"><ele>537.0</ele><time>2026-04-06T08:54:40Z</time></trkpt><trkpt lat="44.21737741073086" lon="11.584852810045595"><ele>537.0</ele><time>2026-04-06T08:54:43Z</time></trkpt><trkpt lat="44.21743566750251" lon="11.584901085159226"><ele>537.0</ele><time>2026-04-06T08:54:45Z</time></trkpt><trkpt lat="44.217532054401005" lon="11.584915131975338"><ele>537.0</ele><time>2026-04-06T08:54:48Z</time></trkpt><trkpt lat="44.21762160907132" lon="11.58494038448434"><ele>537.0</ele><time>2026-04-06T08:54:54Z</time></trkpt><trkpt lat="44.2176767630041" lon="11.585003188249756"><ele>537.0</ele><time>2026-04-06T08:54:57Z</time></trkpt><trkpt lat="44.21772397939681" lon="11.585062143238241"><ele>537.0</ele><time>2026-04-06T08:55:00Z</time></trkpt><trkpt lat="44.21772669640736" lon="11.585157126131834"><ele>537.0</ele><time>2026-04-06T08:55:08Z</time></trkpt><trkpt lat="44.21781987380834" lon="11.585209517612643"><ele>537.0</ele><time>2026-04-06T08:55:12Z</time></trkpt><trkpt lat="44.21790474295764" lon="11.585207517034094"><ele>537.0</ele><time>2026-04-06T08:55:15Z</time></trkpt><trkpt lat="44.21797277540892" lon="11.585192971593784"><ele>537.0</ele><time>2026-04-06T08:55:24Z</time></trkpt><trkpt lat="44.21803794892229" lon="11.585172028161034"><ele>537.0</ele><time>2026-04-06T08:55:28Z</time></trkpt><trkpt lat="44.21804113366109" lon="11.585292707325447"><ele>537.0</ele><time>2026-04-06T08:55:31Z</time></trkpt><trkpt lat="44.21800926348202" lon="11.585401113683652"><ele>533.1666666666666</ele><time>2026-04-06T08:55:35.999Z</time></trkpt><trkpt lat="44.217951085198244" lon="11.585499987731732"><ele>529.3333333333334</ele><time>2026-04-06T08:55:38.999Z</time></trkpt><trkpt lat="44.21789862767418" lon="11.585562976838043"><ele>525.5</ele><time>2026-04-06T08:55:39.999Z</time></trkpt><trkpt lat="44.217836864255524" lon="11.585693041024662"><ele>521.6666666666667</ele><time>2026-04-06T08:55:41.999Z</time></trkpt><trkpt lat="44.21781560661506" lon="11.58581292362925"><ele>517.8333333333334</ele><time>2026-04-06T08:55:44.999Z</time></trkpt><trkpt lat="44.21781305076682" lon="11.585906758956742"><ele>514.0</ele><time>2026-04-06T08:55:47.999Z</time></trkpt><trkpt lat="44.21778080414157" lon="11.586026000565868"><ele>514.0</ele><time>2026-04-06T08:55:50.999Z</time></trkpt><trkpt lat="44.21780980728953" lon="11.586120029333989"><ele>514.0</ele><time>2026-04-06T08:55:54Z</time></trkpt><trkpt lat="44.21782477285101" lon="11.586222232597878"><ele>514.0</ele><time>2026-04-06T08:56:19Z</time></trkpt><trkpt lat="44.217766670405254" lon="11.586270305898548"><ele>514.0</ele><time>2026-04-06T08:57:38.999Z</time></trkpt><trkpt lat="44.21769804530945" lon="11.586257193213132"><ele>514.0</ele><time>2026-04-06T08:57:43.999Z</time></trkpt><trkpt lat="44.21763844261956" lon="11.58620301159776"><ele>514.0</ele><time>2026-04-06T08:57:47.999Z</time></trkpt><trkpt lat="44.217577947949096" lon="11.586149109466165"><ele>514.0</ele><time>2026-04-06T08:57:51.999Z</time></trkpt><trkpt lat="44.21754515623587" lon="11.5860549628401"><ele>514.0</ele><time>2026-04-06T08:57:54.999Z</time></trkpt><trkpt lat="44.21749543313076" lon="11.585964548852619"><ele>514.0</ele><time>2026-04-06T08:57:59Z</time></trkpt><trkpt lat="44.21745933832486" lon="11.58587180902563"><ele>514.0</ele><time>2026-04-06T08:58:04Z</time></trkpt><trkpt lat="44.2174289958035" lon="11.585783307964626"><ele>514.0</ele><time>2026-04-06T08:58:08Z</time></trkpt><trkpt lat="44.2173828484457" lon="11.585721414873689"><ele>514.0</ele><time>2026-04-06T08:58:12Z</time></trkpt><trkpt lat="44.217344387415885" lon="11.585641545206087"><ele>514.0</ele><time>2026-04-06T08:58:15Z</time></trkpt><trkpt lat="44.21729791557732" lon="11.585572301835356"><ele>514.0</ele><time>2026-04-06T08:58:19Z</time></trkpt><trkpt lat="44.217241482381915" lon="11.585504089226509"><ele>513.7142857142857</ele><time>2026-04-06T08:58:23Z</time></trkpt><trkpt lat="44.21718168323984" lon="11.585442104957039"><ele>513.4285714285714</ele><time>2026-04-06T08:58:27Z</time></trkpt><trkpt lat="44.217112069065685" lon="11.585389640647042"><ele>513.1428571428571</ele><time>2026-04-06T08:58:31Z</time></trkpt><trkpt lat="44.217033823818845" lon="11.58533757779684"><ele>512.8571428571429</ele><time>2026-04-06T08:58:35Z</time></trkpt><trkpt lat="44.21697498445873" lon="11.585285474081417"><ele>512.5714285714286</ele><time>2026-04-06T08:58:38Z</time></trkpt><trkpt lat="44.21690877364167" lon="11.58527013128789"><ele>512.2857142857142</ele><time>2026-04-06T08:58:41Z</time></trkpt><trkpt lat="44.21684594286819" lon="11.585235264588366"><ele>512.0</ele><time>2026-04-06T08:58:44Z</time></trkpt><trkpt lat="44.21675902696371" lon="11.585249657805296"><ele>512.0</ele><time>2026-04-06T08:58:47Z</time></trkpt><trkpt lat="44.2166902428012" lon="11.585325702717121"><ele>512.0</ele><time>2026-04-06T08:58:49Z</time></trkpt><trkpt lat="44.21661407069665" lon="11.585420116792626"><ele>512.0</ele><time>2026-04-06T08:58:51Z</time></trkpt><trkpt lat="44.21655026676323" lon="11.585587535440975"><ele>512.0</ele><time>2026-04-06T08:58:53Z</time></trkpt><trkpt lat="44.216546336062706" lon="11.585676201900661"><ele>512.0</ele><time>2026-04-06T08:58:54Z</time></trkpt><trkpt lat="44.216546655643384" lon="11.585764800532115"><ele>511.99999999999994</ele><time>2026-04-06T08:58:55Z</time></trkpt><trkpt lat="44.21659042304469" lon="11.585904728598337"><ele>512.0</ele><time>2026-04-06T08:58:57Z</time></trkpt><trkpt lat="44.21664200205512" lon="11.586048041098582"><ele>512.0</ele><time>2026-04-06T08:58:59Z</time></trkpt><trkpt lat="44.216640428846596" lon="11.586137251539443"><ele>512.0</ele><time>2026-04-06T08:59:01Z</time></trkpt><trkpt lat="44.21663287607978" lon="11.586048135296084"><ele>511.99999999999994</ele><time>2026-04-06T08:59:05Z</time></trkpt><trkpt lat="44.216603680423425" lon="11.585931719228286"><ele>512.0</ele><time>2026-04-06T08:59:08Z</time></trkpt><trkpt lat="44.21656966092105" lon="11.585816208236562"><ele>512.0</ele><time>2026-04-06T08:59:10Z</time></trkpt><trkpt lat="44.21654461134463" lon="11.585674782787358"><ele>512.0</ele><time>2026-04-06T08:59:12Z</time></trkpt><trkpt lat="44.216504109375066" lon="11.585581764595732"><ele>512.0</ele><time>2026-04-06T08:59:14Z</time></trkpt><trkpt lat="44.21645962613295" lon="11.585720605986277"><ele>512.0</ele><time>2026-04-06T08:59:17Z</time></trkpt><trkpt lat="44.216454336647836" lon="11.585823554326824"><ele>512.0</ele><time>2026-04-06T08:59:18.999Z</time></trkpt><trkpt lat="44.216398382667904" lon="11.585970312628895"><ele>512.1666666666666</ele><time>2026-04-06T08:59:20.999Z</time></trkpt><trkpt lat="44.21634416075276" lon="11.586029028805783"><ele>512.3333333333333</ele><time>2026-04-06T08:59:21.999Z</time></trkpt><trkpt lat="44.2162948605372" lon="11.586143455474812"><ele>512.5</ele><time>2026-04-06T08:59:23.999Z</time></trkpt><trkpt lat="44.21627987733871" lon="11.586282332094711"><ele>512.6666666666666</ele><time>2026-04-06T08:59:25.999Z</time></trkpt><trkpt lat="44.216233392107334" lon="11.5863605259942"><ele>512.8333333333334</ele><time>2026-04-06T08:59:27.999Z</time></trkpt><trkpt lat="44.216164165568834" lon="11.586365772654013"><ele>513.0</ele><time>2026-04-06T08:59:29.999Z</time></trkpt><trkpt lat="44.21606782231902" lon="11.586453649851993"><ele>513.0</ele><time>2026-04-06T08:59:31.999Z</time></trkpt><trkpt lat="44.21600947727912" lon="11.586530963189897"><ele>513.0</ele><time>2026-04-06T08:59:33.999Z</time></trkpt><trkpt lat="44.21600412273911" lon="11.586640811786351"><ele>513.0</ele><time>2026-04-06T08:59:35.999Z</time></trkpt><trkpt lat="44.21597019188721" lon="11.586740085385143"><ele>513.0</ele><time>2026-04-06T08:59:39.999Z</time></trkpt><trkpt lat="44.215923462047556" lon="11.586851716774683"><ele>513.0</ele><time>2026-04-06T08:59:42.999Z</time></trkpt><trkpt lat="44.21589042768882" lon="11.586994068954391"><ele>513.0</ele><time>2026-04-06T08:59:44.999Z</time></trkpt><trkpt lat="44.21589387716026" lon="11.587086351842608"><ele>510.8333333333333</ele><time>2026-04-06T08:59:45.999Z</time></trkpt><trkpt lat="44.215872574405374" lon="11.587230146824885"><ele>508.66666666666663</ele><time>2026-04-06T08:59:47.999Z</time></trkpt><trkpt lat="44.21582190636192" lon="11.587310197873656"><ele>506.5</ele><time>2026-04-06T08:59:49.999Z</time></trkpt><trkpt lat="44.21579907693271" lon="11.587394638084511"><ele>504.3333333333333</ele><time>2026-04-06T08:59:51.999Z</time></trkpt><trkpt lat="44.215767450324826" lon="11.587473956784759"><ele>502.16666666666663</ele><time>2026-04-06T08:59:53.999Z</time></trkpt><trkpt lat="44.215710428269844" lon="11.587573803034072"><ele>500.0</ele><time>2026-04-06T08:59:56.999Z</time></trkpt><trkpt lat="44.21565792418193" lon="11.587677001712041"><ele>502.66666666666663</ele><time>2026-04-06T08:59:58.999Z</time></trkpt><trkpt lat="44.2156161201805" lon="11.58776643659229"><ele>505.3333333333333</ele><time>2026-04-06T09:00:00.999Z</time></trkpt><trkpt lat="44.2155418179808" lon="11.587798926353555"><ele>508.0</ele><time>2026-04-06T09:00:04Z</time></trkpt><trkpt lat="44.21548030626022" lon="11.587769226665966"><ele>510.66666666666663</ele><time>2026-04-06T09:00:08Z</time></trkpt><trkpt lat="44.215405390604694" lon="11.587803346074782"><ele>513.3333333333334</ele><time>2026-04-06T09:00:12Z</time></trkpt><trkpt lat="44.21532956421382" lon="11.587850604687064"><ele>516.0</ele><time>2026-04-06T09:00:15Z</time></trkpt><trkpt lat="44.21530045422454" lon="11.587953994423406"><ele>516.0</ele><time>2026-04-06T09:00:18Z</time></trkpt><trkpt lat="44.21527944261224" lon="11.588050599058112"><ele>516.0</ele><time>2026-04-06T09:00:21Z</time></trkpt><trkpt lat="44.21523505126951" lon="11.588188376145045"><ele>516.0</ele><time>2026-04-06T09:00:24Z</time></trkpt><trkpt lat="44.215201433451476" lon="11.58828084976175"><ele>516.0</ele><time>2026-04-06T09:00:25Z</time></trkpt><trkpt lat="44.21515587690051" lon="11.588344499154559"><ele>516.0</ele><time>2026-04-06T09:00:26Z</time></trkpt><trkpt lat="44.21512991426089" lon="11.588433225513025"><ele>516.0</ele><time>2026-04-06T09:00:27Z</time></trkpt><trkpt lat="44.215137251592004" lon="11.588532289393687"><ele>516.0</ele><time>2026-04-06T09:00:28Z</time></trkpt><trkpt lat="44.215144492695" lon="11.588629025967602"><ele>516.0</ele><time>2026-04-06T09:00:29Z</time></trkpt><trkpt lat="44.21510757242108" lon="11.588794973380514"><ele>516.0</ele><time>2026-04-06T09:00:31Z</time></trkpt><trkpt lat="44.2150792999213" lon="11.588920694320391"><ele>516.0</ele><time>2026-04-06T09:00:33Z</time></trkpt><trkpt lat="44.21501778934342" lon="11.589084159545113"><ele>516.0</ele><time>2026-04-06T09:00:35Z</time></trkpt><trkpt lat="44.214973689663964" lon="11.589182221155294"><ele>516.5</ele><time>2026-04-06T09:00:36Z</time></trkpt><trkpt lat="44.21492623040479" lon="11.589285934881227"><ele>517.0</ele><time>2026-04-06T09:00:37Z</time></trkpt><trkpt lat="44.214887260935484" lon="11.589375371449638"><ele>517.5</ele><time>2026-04-06T09:00:38Z</time></trkpt><trkpt lat="44.21484147808211" lon="11.58946464911941"><ele>518.0</ele><time>2026-04-06T09:00:39Z</time></trkpt><trkpt lat="44.21480688247969" lon="11.589550941283148"><ele>518.5</ele><time>2026-04-06T09:00:40Z</time></trkpt><trkpt lat="44.21478915507325" lon="11.589645402303628"><ele>519.0</ele><time>2026-04-06T09:00:41Z</time></trkpt><trkpt lat="44.21477798274419" lon="11.589737761877016"><ele>519.0</ele><time>2026-04-06T09:00:42Z</time></trkpt><trkpt lat="44.21473852104293" lon="11.589873763136845"><ele>519.0</ele><time>2026-04-06T09:00:44Z</time></trkpt><trkpt lat="44.21467385563806" lon="11.589880487239997"><ele>519.0</ele><time>2026-04-06T09:00:46Z</time></trkpt><trkpt lat="44.21467289062427" lon="11.589776278246635"><ele>519.0</ele><time>2026-04-06T09:00:57Z</time></trkpt><trkpt lat="44.21467892132519" lon="11.589687296257921"><ele>519.0</ele><time>2026-04-06T09:01:01Z</time></trkpt><trkpt lat="44.214676964350744" lon="11.589596106427273"><ele>519.0</ele><time>2026-04-06T09:01:05Z</time></trkpt><trkpt lat="44.2146923659392" lon="11.589501465111121"><ele>519.0</ele><time>2026-04-06T09:01:08Z</time></trkpt><trkpt lat="44.21469491888006" lon="11.58940547240496"><ele>520.4285714285714</ele><time>2026-04-06T09:01:11Z</time></trkpt><trkpt lat="44.21469126149353" lon="11.58931104222201"><ele>521.8571428571428</ele><time>2026-04-06T09:01:15Z</time></trkpt><trkpt lat="44.21469360305616" lon="11.589200871245307"><ele>523.2857142857142</ele><time>2026-04-06T09:01:18.999Z</time></trkpt><trkpt lat="44.21463303816506" lon="11.589152836982343"><ele>524.7142857142857</ele><time>2026-04-06T09:01:21.999Z</time></trkpt><trkpt lat="44.2145747851007" lon="11.589220280291354"><ele>526.1428571428571</ele><time>2026-04-06T09:01:24.999Z</time></trkpt><trkpt lat="44.214543488439396" lon="11.589297559032993"><ele>527.5714285714286</ele><time>2026-04-06T09:01:27.999Z</time></trkpt><trkpt lat="44.2144939358162" lon="11.589389101310053"><ele>529.0</ele><time>2026-04-06T09:01:30.999Z</time></trkpt><trkpt lat="44.21443975193702" lon="11.58949277121259"><ele>527.5714285714286</ele><time>2026-04-06T09:01:33.999Z</time></trkpt><trkpt lat="44.21438704181549" lon="11.589567511965415"><ele>526.1428571428571</ele><time>2026-04-06T09:01:36.999Z</time></trkpt><trkpt lat="44.21433141540407" lon="11.589660460177473"><ele>524.7142857142857</ele><time>2026-04-06T09:01:39.999Z</time></trkpt><trkpt lat="44.21428233552348" lon="11.589741542208662"><ele>523.2857142857142</ele><time>2026-04-06T09:01:42.999Z</time></trkpt><trkpt lat="44.21422035865232" lon="11.589794169220848"><ele>521.8571428571428</ele><time>2026-04-06T09:01:45.999Z</time></trkpt><trkpt lat="44.21415783124276" lon="11.589816157559909"><ele>520.4285714285714</ele><time>2026-04-06T09:01:48.999Z</time></trkpt><trkpt lat="44.21408804564788" lon="11.589836841323839"><ele>519.0</ele><time>2026-04-06T09:01:51.999Z</time></trkpt><trkpt lat="44.214019070995256" lon="11.589875051869763"><ele>521.5714285714286</ele><time>2026-04-06T09:01:54.999Z</time></trkpt><trkpt lat="44.213953717209634" lon="11.589918976937671"><ele>524.1428571428571</ele><time>2026-04-06T09:01:57.999Z</time></trkpt><trkpt lat="44.213883295159825" lon="11.589936934294803"><ele>526.7142857142857</ele><time>2026-04-06T09:02:00.999Z</time></trkpt><trkpt lat="44.213827156362136" lon="11.589896096128717"><ele>529.2857142857142</ele><time>2026-04-06T09:02:03.999Z</time></trkpt><trkpt lat="44.21382366699826" lon="11.589793657455314"><ele>531.8571428571429</ele><time>2026-04-06T09:02:06.999Z</time></trkpt><trkpt lat="44.21387404791008" lon="11.589729558667202"><ele>534.4285714285713</ele><time>2026-04-06T09:02:10Z</time></trkpt><trkpt lat="44.21392971905466" lon="11.589681375596461"><ele>537.0</ele><time>2026-04-06T09:02:13Z</time></trkpt><trkpt lat="44.21397655434935" lon="11.589618218947962"><ele>535.8571428571428</ele><time>2026-04-06T09:02:16Z</time></trkpt><trkpt lat="44.21400987966284" lon="11.5895360088001"><ele>534.7142857142857</ele><time>2026-04-06T09:02:19Z</time></trkpt><trkpt lat="44.21403255636727" lon="11.58944510947035"><ele>533.5714285714286</ele><time>2026-04-06T09:02:22Z</time></trkpt><trkpt lat="44.21404065528829" lon="11.589354260081679"><ele>532.4285714285713</ele><time>2026-04-06T09:02:25Z</time></trkpt><trkpt lat="44.21405109071905" lon="11.589263911390736"><ele>531.2857142857142</ele><time>2026-04-06T09:02:28Z</time></trkpt><trkpt lat="44.21405904744953" lon="11.589168055430783"><ele>530.1428571428571</ele><time>2026-04-06T09:02:31Z</time></trkpt><trkpt lat="44.21407192285006" lon="11.589074223624436"><ele>529.0</ele><time>2026-04-06T09:02:34Z</time></trkpt><trkpt lat="44.21407536214615" lon="11.588978675593166"><ele>529.0</ele><time>2026-04-06T09:02:37Z</time></trkpt><trkpt lat="44.214062111189556" lon="11.58887985159941"><ele>529.0</ele><time>2026-04-06T09:02:40Z</time></trkpt><trkpt lat="44.21403223595772" lon="11.588788724186466"><ele>529.0</ele><time>2026-04-06T09:02:43Z</time></trkpt><trkpt lat="44.21400689440791" lon="11.588705696776154"><ele>529.0</ele><time>2026-04-06T09:02:46Z</time></trkpt><trkpt lat="44.21398375672827" lon="11.588621086410242"><ele>529.0</ele><time>2026-04-06T09:02:49Z</time></trkpt><trkpt lat="44.2139846046938" lon="11.588519254537884"><ele>529.0</ele><time>2026-04-06T09:02:53Z</time></trkpt><trkpt lat="44.21400165844016" lon="11.5884096290701"><ele>529.0</ele><time>2026-04-06T09:02:57Z</time></trkpt><trkpt lat="44.21402668488224" lon="11.58832629165822"><ele>530.2857142857143</ele><time>2026-04-06T09:03:00Z</time></trkpt><trkpt lat="44.21404393734953" lon="11.588241314190617"><ele>531.5714285714286</ele><time>2026-04-06T09:03:03Z</time></trkpt><trkpt lat="44.21408214386216" lon="11.588139507683513"><ele>532.8571428571429</ele><time>2026-04-06T09:03:07Z</time></trkpt><trkpt lat="44.214134409156024" lon="11.588061507549336"><ele>534.1428571428571</ele><time>2026-04-06T09:03:11Z</time></trkpt><trkpt lat="44.21416450092109" lon="11.587980946797314"><ele>535.4285714285714</ele><time>2026-04-06T09:03:14Z</time></trkpt><trkpt lat="44.21418960697214" lon="11.587890484747096"><ele>536.7142857142858</ele><time>2026-04-06T09:03:17Z</time></trkpt><trkpt lat="44.214202233096046" lon="11.587798151238243"><ele>538.0</ele><time>2026-04-06T09:03:20Z</time></trkpt><trkpt lat="44.21420082111493" lon="11.587706832030678"><ele>540.1666666666667</ele><time>2026-04-06T09:03:23Z</time></trkpt><trkpt lat="44.21420505188444" lon="11.587618054017575"><ele>542.3333333333334</ele><time>2026-04-06T09:03:26Z</time></trkpt><trkpt lat="44.21422486682841" lon="11.58751109575005"><ele>544.5</ele><time>2026-04-06T09:03:30Z</time></trkpt><trkpt lat="44.2142529448062" lon="11.587401923797467"><ele>546.6666666666666</ele><time>2026-04-06T09:03:34.999Z</time></trkpt><trkpt lat="44.21427686411721" lon="11.587297358503417"><ele>548.8333333333333</ele><time>2026-04-06T09:03:38.999Z</time></trkpt><trkpt lat="44.214289879740214" lon="11.587193894372438"><ele>551.0</ele><time>2026-04-06T09:03:41.999Z</time></trkpt><trkpt lat="44.21429673808365" lon="11.58707605890837"><ele>552.0</ele><time>2026-04-06T09:04:10.999Z</time></trkpt><trkpt lat="44.21431187360941" lon="11.586968141498637"><ele>553.0</ele><time>2026-04-06T09:04:15Z</time></trkpt><trkpt lat="44.21432550695581" lon="11.586859250008418"><ele>554.0</ele><time>2026-04-06T09:04:20Z</time></trkpt><trkpt lat="44.214341889291994" lon="11.586733709139704"><ele>555.0</ele><time>2026-04-06T09:04:23Z</time></trkpt><trkpt lat="44.214345939375406" lon="11.586641002200649"><ele>556.0</ele><time>2026-04-06T09:04:25Z</time></trkpt><trkpt lat="44.21435697903918" lon="11.586539558571912"><ele>557.0</ele><time>2026-04-06T09:04:27Z</time></trkpt><trkpt lat="44.21436431404903" lon="11.586442714962095"><ele>557.0</ele><time>2026-04-06T09:04:29Z</time></trkpt><trkpt lat="44.21437043571085" lon="11.586326097763523"><ele>557.0</ele><time>2026-04-06T09:04:32Z</time></trkpt><trkpt lat="44.214384753222674" lon="11.586237701387313"><ele>557.0</ele><time>2026-04-06T09:04:35Z</time></trkpt><trkpt lat="44.21438990841261" lon="11.586147679096548"><ele>557.0</ele><time>2026-04-06T09:04:38Z</time></trkpt><trkpt lat="44.21435283406588" lon="11.586064898695852"><ele>557.0</ele><time>2026-04-06T09:04:41Z</time></trkpt><trkpt lat="44.21428137630441" lon="11.586062247072707"><ele>557.0</ele><time>2026-04-06T09:04:44Z</time></trkpt><trkpt lat="44.21422900979211" lon="11.586153689898484"><ele>557.0</ele><time>2026-04-06T09:04:47Z</time></trkpt><trkpt lat="44.21418212747639" lon="11.586247102606865"><ele>557.0</ele><time>2026-04-06T09:04:50Z</time></trkpt><trkpt lat="44.21413420432452" lon="11.58634444913384"><ele>557.0</ele><time>2026-04-06T09:04:53Z</time></trkpt><trkpt lat="44.21408568755104" lon="11.586441536916562"><ele>557.0</ele><time>2026-04-06T09:04:56Z</time></trkpt><trkpt lat="44.21404256273063" lon="11.586546339857751"><ele>557.0</ele><time>2026-04-06T09:04:59Z</time></trkpt><trkpt lat="44.21400455211863" lon="11.586656018573331"><ele>557.0</ele><time>2026-04-06T09:05:02Z</time></trkpt><trkpt lat="44.21392147234032" lon="11.586689312797947"><ele>557.0</ele><time>2026-04-06T09:05:05Z</time></trkpt><trkpt lat="44.21388965478289" lon="11.586590929547016"><ele>558.7142857142858</ele><time>2026-04-06T09:05:08Z</time></trkpt><trkpt lat="44.213930169522655" lon="11.586515931059372"><ele>560.4285714285714</ele><time>2026-04-06T09:05:10Z</time></trkpt><trkpt lat="44.21396210775936" lon="11.586411927828772"><ele>562.1428571428571</ele><time>2026-04-06T09:05:13Z</time></trkpt><trkpt lat="44.213980967555536" lon="11.586306479763781"><ele>563.8571428571429</ele><time>2026-04-06T09:05:16Z</time></trkpt><trkpt lat="44.213987811228996" lon="11.586203485151227"><ele>565.5714285714286</ele><time>2026-04-06T09:05:19Z</time></trkpt><trkpt lat="44.213996040613594" lon="11.586097077414102"><ele>567.2857142857143</ele><time>2026-04-06T09:05:22Z</time></trkpt><trkpt lat="44.214001525338745" lon="11.585997817798114"><ele>569.0</ele><time>2026-04-06T09:05:25Z</time></trkpt><trkpt lat="44.21400785848754" lon="11.585896272317015"><ele>569.0</ele><time>2026-04-06T09:05:28Z</time></trkpt><trkpt lat="44.214024127269546" lon="11.585768065189951"><ele>569.0</ele><time>2026-04-06T09:05:31Z</time></trkpt><trkpt lat="44.21403801650765" lon="11.585672369387641"><ele>569.0</ele><time>2026-04-06T09:05:35Z</time></trkpt><trkpt lat="44.214054311708175" lon="11.585559754711998"><ele>569.0</ele><time>2026-04-06T09:05:39Z</time></trkpt><trkpt lat="44.21406932624977" lon="11.585472829860933"><ele>569.0</ele><time>2026-04-06T09:05:42Z</time></trkpt><trkpt lat="44.21406575276171" lon="11.585363898071904"><ele>569.0</ele><time>2026-04-06T09:05:46Z</time></trkpt><trkpt lat="44.21406163989424" lon="11.585258178070172"><ele>571.0000000000001</ele><time>2026-04-06T09:05:50.999Z</time></trkpt><trkpt lat="44.21405307904543" lon="11.585158179655386"><ele>573.0</ele><time>2026-04-06T09:05:53.999Z</time></trkpt><trkpt lat="44.21404492075508" lon="11.585042126082946"><ele>575.0</ele><time>2026-04-06T09:05:57.999Z</time></trkpt><trkpt lat="44.21404903532563" lon="11.584941509701105"><ele>577.0</ele><time>2026-04-06T09:06:01.999Z</time></trkpt><trkpt lat="44.21407377903473" lon="11.58485494505304"><ele>579.0</ele><time>2026-04-06T09:06:06.999Z</time></trkpt><trkpt lat="44.214091490971214" lon="11.584761265387822"><ele>581.0000000000001</ele><time>2026-04-06T09:06:11.999Z</time></trkpt><trkpt lat="44.21411329256138" lon="11.584659379484362"><ele>583.0</ele><time>2026-04-06T09:06:16.999Z</time></trkpt><trkpt lat="44.21414842504152" lon="11.584562339141975"><ele>585.0000000000001</ele><time>2026-04-06T09:06:23Z</time></trkpt><trkpt lat="44.21418975104856" lon="11.584491612343339"><ele>587.0</ele><time>2026-04-06T09:06:27Z</time></trkpt><trkpt lat="44.214246309553005" lon="11.58441971850458"><ele>589.0</ele><time>2026-04-06T09:06:32Z</time></trkpt><trkpt lat="44.214305094989825" lon="11.584354471149922"><ele>591.0</ele><time>2026-04-06T09:06:37Z</time></trkpt><trkpt lat="44.21434387431308" lon="11.58428416273771"><ele>593.0</ele><time>2026-04-06T09:06:40Z</time></trkpt><trkpt lat="44.21436187141578" lon="11.584167862953803"><ele>595.0000000000001</ele><time>2026-04-06T09:06:44Z</time></trkpt><trkpt lat="44.21438321766873" lon="11.584077767038732"><ele>597.0</ele><time>2026-04-06T09:06:46Z</time></trkpt><trkpt lat="44.21440403688046" lon="11.58396099080098"><ele>597.0</ele><time>2026-04-06T09:06:49Z</time></trkpt><trkpt lat="44.21441691128648" lon="11.583865254250354"><ele>597.0</ele><time>2026-04-06T09:06:52Z</time></trkpt><trkpt lat="44.21442525089991" lon="11.583754311127679"><ele>597.0</ele><time>2026-04-06T09:06:55Z</time></trkpt><trkpt lat="44.21444220764712" lon="11.583637473817532"><ele>597.0</ele><time>2026-04-06T09:06:58Z</time></trkpt><trkpt lat="44.21444733066437" lon="11.583532152095373"><ele>597.0</ele><time>2026-04-06T09:07:01Z</time></trkpt><trkpt lat="44.2144524219217" lon="11.583409427694821"><ele>597.0</ele><time>2026-04-06T09:07:04Z</time></trkpt><trkpt lat="44.21447731443269" lon="11.583310903367524"><ele>598.1428571428572</ele><time>2026-04-06T09:07:07Z</time></trkpt><trkpt lat="44.214497780802986" lon="11.583221388903155"><ele>599.2857142857143</ele><time>2026-04-06T09:07:09Z</time></trkpt><trkpt lat="44.21452002457537" lon="11.583110313782596"><ele>600.4285714285714</ele><time>2026-04-06T09:07:12Z</time></trkpt><trkpt lat="44.21454453421476" lon="11.583026294414367"><ele>601.5714285714287</ele><time>2026-04-06T09:07:14Z</time></trkpt><trkpt lat="44.214559028016495" lon="11.582914003625547"><ele>602.7142857142858</ele><time>2026-04-06T09:07:17Z</time></trkpt><trkpt lat="44.21458044183723" lon="11.582813520834833"><ele>603.8571428571429</ele><time>2026-04-06T09:07:20Z</time></trkpt><trkpt lat="44.21461315966437" lon="11.582722426421242"><ele>605.0</ele><time>2026-04-06T09:07:23Z</time></trkpt><trkpt lat="44.21465603889109" lon="11.58263899610769"><ele>605.1428571428571</ele><time>2026-04-06T09:07:28Z</time></trkpt><trkpt lat="44.214700199304396" lon="11.58255668440831"><ele>605.2857142857143</ele><time>2026-04-06T09:07:33Z</time></trkpt><trkpt lat="44.2147473323949" lon="11.58248215887957"><ele>605.4285714285714</ele><time>2026-04-06T09:07:38Z</time></trkpt><trkpt lat="44.21479333985129" lon="11.582401950106116"><ele>605.5714285714286</ele><time>2026-04-06T09:07:43Z</time></trkpt><trkpt lat="44.2148252973493" lon="11.582309168284073"><ele>605.7142857142857</ele><time>2026-04-06T09:07:47Z</time></trkpt><trkpt lat="44.21486522756299" lon="11.582212198230275"><ele>605.8571428571429</ele><time>2026-04-06T09:07:51Z</time></trkpt><trkpt lat="44.21491396690235" lon="11.582140333585278"><ele>606.0</ele><time>2026-04-06T09:07:57Z</time></trkpt><trkpt lat="44.214963746240585" lon="11.582059281521454"><ele>606.5714285714286</ele><time>2026-04-06T09:08:00.999Z</time></trkpt><trkpt lat="44.21499238408001" lon="11.581979747649164"><ele>607.1428571428571</ele><time>2026-04-06T09:08:04.999Z</time></trkpt><trkpt lat="44.215028677105835" lon="11.581894802256686"><ele>607.7142857142858</ele><time>2026-04-06T09:08:11.999Z</time></trkpt><trkpt lat="44.21505299940523" lon="11.581803255271973"><ele>608.2857142857142</ele><time>2026-04-06T09:08:15.999Z</time></trkpt><trkpt lat="44.21507892175189" lon="11.581718563809849"><ele>608.8571428571428</ele><time>2026-04-06T09:08:21.999Z</time></trkpt><trkpt lat="44.215101892848104" lon="11.5816362740753"><ele>609.4285714285714</ele><time>2026-04-06T09:08:28Z</time></trkpt><trkpt lat="44.21510877004504" lon="11.581544876394416"><ele>610.0</ele><time>2026-04-06T09:08:48Z</time></trkpt><trkpt lat="44.215123135338324" lon="11.58163235412188"><ele>610.0</ele><time>2026-04-06T09:08:56Z</time></trkpt><trkpt lat="44.21512950912057" lon="11.581725450858832"><ele>610.0</ele><time>2026-04-06T09:08:58Z</time></trkpt><trkpt lat="44.215124160585965" lon="11.581858064098187"><ele>610.0</ele><time>2026-04-06T09:09:00Z</time></trkpt><trkpt lat="44.2151156661154" lon="11.581993294605121"><ele>610.0</ele><time>2026-04-06T09:09:02Z</time></trkpt><trkpt lat="44.21505744619195" lon="11.582064674042574"><ele>610.0</ele><time>2026-04-06T09:09:06Z</time></trkpt><trkpt lat="44.21502141613863" lon="11.582148965346379"><ele>610.0</ele><time>2026-04-06T09:10:14.999Z</time></trkpt><trkpt lat="44.214957071675116" lon="11.582184196450395"><ele>609.2</ele><time>2026-04-06T09:10:18.999Z</time></trkpt><trkpt lat="44.21487612051049" lon="11.582211415874166"><ele>608.4</ele><time>2026-04-06T09:10:23.999Z</time></trkpt><trkpt lat="44.21481108674017" lon="11.582274437816451"><ele>607.6</ele><time>2026-04-06T09:10:25.999Z</time></trkpt><trkpt lat="44.2147561099754" lon="11.582498054722887"><ele>606.8</ele><time>2026-04-06T09:10:38Z</time></trkpt><trkpt lat="44.21468877078871" lon="11.582560429940553"><ele>606.0</ele><time>2026-04-06T09:10:40Z</time></trkpt><trkpt lat="44.21463390391459" lon="11.582631848418963"><ele>606.0</ele><time>2026-04-06T09:10:44Z</time></trkpt><trkpt lat="44.214605116880705" lon="11.582725074122552"><ele>606.0</ele><time>2026-04-06T09:10:48Z</time></trkpt><trkpt lat="44.21455190394108" lon="11.582802919385388"><ele>606.0</ele><time>2026-04-06T09:10:50Z</time></trkpt><trkpt lat="44.214502492988814" lon="11.582969146053637"><ele>606.0</ele><time>2026-04-06T09:10:52Z</time></trkpt><trkpt lat="44.214476426896844" lon="11.583075535825555"><ele>606.0</ele><time>2026-04-06T09:10:53Z</time></trkpt><trkpt lat="44.214466028329966" lon="11.58317146295893"><ele>606.0</ele><time>2026-04-06T09:10:54Z</time></trkpt><trkpt lat="44.21446187115541" lon="11.583277387067671"><ele>605.8333333333334</ele><time>2026-04-06T09:10:55Z</time></trkpt><trkpt lat="44.21445442673005" lon="11.583378419289621"><ele>605.6666666666666</ele><time>2026-04-06T09:10:56Z</time></trkpt><trkpt lat="44.21445170536394" lon="11.583487651277183"><ele>605.5</ele><time>2026-04-06T09:10:57Z</time></trkpt><trkpt lat="44.21450258721776" lon="11.58358058273709"><ele>605.3333333333333</ele><time>2026-04-06T09:10:59Z</time></trkpt><trkpt lat="44.214583140555696" lon="11.583571248858192"><ele>605.1666666666666</ele><time>2026-04-06T09:11:01Z</time></trkpt><trkpt lat="44.214654338849925" lon="11.583521663448195"><ele>605.0</ele><time>2026-04-06T09:11:03Z</time></trkpt><trkpt lat="44.21472205308527" lon="11.583666543535202"><ele>605.0</ele><time>2026-04-06T09:11:04Z</time></trkpt><trkpt lat="44.21479131405837" lon="11.583610191184988"><ele>605.0</ele><time>2026-04-06T09:11:06Z</time></trkpt><trkpt lat="44.2148801223516" lon="11.583620429327455"><ele>605.0</ele><time>2026-04-06T09:11:09Z</time></trkpt><trkpt lat="44.214974245171334" lon="11.583626849676104"><ele>605.0</ele><time>2026-04-06T09:11:11Z</time></trkpt><trkpt lat="44.21504410272406" lon="11.583666015136123"><ele>605.0</ele><time>2026-04-06T09:11:14Z</time></trkpt><trkpt lat="44.21506655419614" lon="11.583755976683683"><ele>605.0</ele><time>2026-04-06T09:11:16Z</time></trkpt><trkpt lat="44.21507283126852" lon="11.583879922018566"><ele>600.8333333333333</ele><time>2026-04-06T09:11:19Z</time></trkpt><trkpt lat="44.21506841330975" lon="11.583992120415457"><ele>596.6666666666666</ele><time>2026-04-06T09:11:21Z</time></trkpt><trkpt lat="44.21505333184805" lon="11.584114727321305"><ele>592.5</ele><time>2026-04-06T09:11:23Z</time></trkpt><trkpt lat="44.21504013393164" lon="11.584202968742144"><ele>588.3333333333334</ele><time>2026-04-06T09:11:25Z</time></trkpt><trkpt lat="44.21504486688258" lon="11.584306644741735"><ele>584.1666666666667</ele><time>2026-04-06T09:11:27Z</time></trkpt><trkpt lat="44.21508693407335" lon="11.584412217393405"><ele>580.0</ele><time>2026-04-06T09:11:29Z</time></trkpt><trkpt lat="44.215130249381254" lon="11.584493097601674"><ele>577.0</ele><time>2026-04-06T09:11:31Z</time></trkpt><trkpt lat="44.215197699587414" lon="11.584542952745906"><ele>574.0</ele><time>2026-04-06T09:11:33Z</time></trkpt><trkpt lat="44.21526158260409" lon="11.584524888395027"><ele>571.0</ele><time>2026-04-06T09:11:36Z</time></trkpt><trkpt lat="44.21531905022618" lon="11.584634523596895"><ele>568.0</ele><time>2026-04-06T09:11:39Z</time></trkpt><trkpt lat="44.21542709858196" lon="11.58479827267482"><ele>565.0</ele><time>2026-04-06T09:11:46Z</time></trkpt><trkpt lat="44.2154738770484" lon="11.584887612169876"><ele>565.0</ele><time>2026-04-06T09:11:49Z</time></trkpt><trkpt lat="44.21549108035948" lon="11.585003499134121"><ele>565.0</ele><time>2026-04-06T09:11:52Z</time></trkpt><trkpt lat="44.215552424231205" lon="11.585078631767454"><ele>565.0</ele><time>2026-04-06T09:11:56Z</time></trkpt><trkpt lat="44.215592953953895" lon="11.585155150475428"><ele>565.0</ele><time>2026-04-06T09:11:59Z</time></trkpt><trkpt lat="44.21564122201208" lon="11.585248944788493"><ele>565.0</ele><time>2026-04-06T09:12:02Z</time></trkpt><trkpt lat="44.2156978091758" lon="11.58531868347487"><ele>565.0</ele><time>2026-04-06T09:12:08.999Z</time></trkpt><trkpt lat="44.21574737135012" lon="11.585392197838377"><ele>559.9999999999999</ele><time>2026-04-06T09:12:18.999Z</time></trkpt><trkpt lat="44.21578732290501" lon="11.585461332951992"><ele>555.0</ele><time>2026-04-06T09:12:20.999Z</time></trkpt><trkpt lat="44.21582175713716" lon="11.585548367552015"><ele>550.0</ele><time>2026-04-06T09:12:22.999Z</time></trkpt><trkpt lat="44.21586276482021" lon="11.585625526355939"><ele>545.0</ele><time>2026-04-06T09:12:24.999Z</time></trkpt><trkpt lat="44.21592177914482" lon="11.585680065757419"><ele>540.0</ele><time>2026-04-06T09:12:27.999Z</time></trkpt><trkpt lat="44.21597726381465" lon="11.58572903561615"><ele>534.9999999999999</ele><time>2026-04-06T09:12:29.999Z</time></trkpt><trkpt lat="44.21604536673061" lon="11.585785935789612"><ele>530.0</ele><time>2026-04-06T09:12:31.999Z</time></trkpt><trkpt lat="44.2161039207012" lon="11.585833807525548"><ele>530.0</ele><time>2026-04-06T09:12:33.999Z</time></trkpt><trkpt lat="44.216189250154486" lon="11.585852072941776"><ele>530.0</ele><time>2026-04-06T09:12:37Z</time></trkpt><trkpt lat="44.216268359283546" lon="11.585754686603632"><ele>530.0</ele><time>2026-04-06T09:12:40Z</time></trkpt><trkpt lat="44.21636846954876" lon="11.585742834213976"><ele>530.0</ele><time>2026-04-06T09:12:47Z</time></trkpt><trkpt lat="44.21636242619524" lon="11.585883261812326"><ele>530.0</ele><time>2026-04-06T09:12:59Z</time></trkpt><trkpt lat="44.2163285422031" lon="11.585983038564788"><ele>529.9999999999999</ele><time>2026-04-06T09:13:01Z</time></trkpt><trkpt lat="44.2162587092448" lon="11.586035094251795"><ele>530.0</ele><time>2026-04-06T09:13:03Z</time></trkpt><trkpt lat="44.21623643851067" lon="11.586122753525725"><ele>530.0</ele><time>2026-04-06T09:13:05Z</time></trkpt><trkpt lat="44.21621975401579" lon="11.586227389001508"><ele>530.0</ele><time>2026-04-06T09:13:08Z</time></trkpt><trkpt lat="44.216179206988826" lon="11.586308870957481"><ele>530.0</ele><time>2026-04-06T09:13:11Z</time></trkpt><trkpt lat="44.21610190334094" lon="11.586338507739086"><ele>529.9999999999999</ele><time>2026-04-06T09:13:14Z</time></trkpt><trkpt lat="44.216050199167434" lon="11.586397095943267"><ele>530.0</ele><time>2026-04-06T09:13:16Z</time></trkpt><trkpt lat="44.21599715184776" lon="11.586484706135913"><ele>527.1666666666666</ele><time>2026-04-06T09:13:19Z</time></trkpt><trkpt lat="44.21597648634695" lon="11.586595071059902"><ele>524.3333333333333</ele><time>2026-04-06T09:13:21Z</time></trkpt><trkpt lat="44.21596702905831" lon="11.586699298718047"><ele>521.5</ele><time>2026-04-06T09:13:23Z</time></trkpt><trkpt lat="44.21591347688873" lon="11.586818104188428"><ele>518.6666666666666</ele><time>2026-04-06T09:13:25Z</time></trkpt><trkpt lat="44.21589481931675" lon="11.586913238669014"><ele>515.8333333333334</ele><time>2026-04-06T09:13:26Z</time></trkpt><trkpt lat="44.215879756967354" lon="11.587027827098767"><ele>513.0</ele><time>2026-04-06T09:13:27Z</time></trkpt><trkpt lat="44.21588162851609" lon="11.587126216256365"><ele>515.0</ele><time>2026-04-06T09:13:28Z</time></trkpt><trkpt lat="44.215848072090054" lon="11.587218554983133"><ele>517.0</ele><time>2026-04-06T09:13:30Z</time></trkpt><trkpt lat="44.21579325186202" lon="11.587324124684821"><ele>519.0</ele><time>2026-04-06T09:13:33Z</time></trkpt><trkpt lat="44.21574622223797" lon="11.587427962173312"><ele>521.0</ele><time>2026-04-06T09:13:36Z</time></trkpt><trkpt lat="44.21568670488165" lon="11.587521883144525"><ele>523.0</ele><time>2026-04-06T09:13:40Z</time></trkpt><trkpt lat="44.2156524314424" lon="11.587601148648698"><ele>525.0</ele><time>2026-04-06T09:13:42Z</time></trkpt><trkpt lat="44.21559112909835" lon="11.587711811102345"><ele>525.0</ele><time>2026-04-06T09:13:45Z</time></trkpt><trkpt lat="44.215512209008665" lon="11.587732761735403"><ele>525.0</ele><time>2026-04-06T09:13:48Z</time></trkpt><trkpt lat="44.215440300245426" lon="11.587722317007985"><ele>525.0</ele><time>2026-04-06T09:13:53Z</time></trkpt><trkpt lat="44.21536702002942" lon="11.58777578980158"><ele>525.0</ele><time>2026-04-06T09:13:57Z</time></trkpt><trkpt lat="44.215321492611984" lon="11.587863271187086"><ele>525.0</ele><time>2026-04-06T09:14:00Z</time></trkpt><trkpt lat="44.21528318353969" lon="11.587954226062266"><ele>525.0</ele><time>2026-04-06T09:14:04Z</time></trkpt><trkpt lat="44.215263605910714" lon="11.588040886579893"><ele>523.2</ele><time>2026-04-06T09:14:06.999Z</time></trkpt><trkpt lat="44.21523047910143" lon="11.58815538630851"><ele>521.4</ele><time>2026-04-06T09:14:09.999Z</time></trkpt><trkpt lat="44.21518549102911" lon="11.588272353717613"><ele>519.6</ele><time>2026-04-06T09:14:11.999Z</time></trkpt><trkpt lat="44.21513580211914" lon="11.588390585955091"><ele>517.8</ele><time>2026-04-06T09:14:13.999Z</time></trkpt><trkpt lat="44.21515368112045" lon="11.588537558587607"><ele>516.0</ele><time>2026-04-06T09:14:15.999Z</time></trkpt><trkpt lat="44.21514017184747" lon="11.58868636412669"><ele>514.8571428571428</ele><time>2026-04-06T09:14:17.999Z</time></trkpt><trkpt lat="44.21511154163842" lon="11.588800842294058"><ele>513.7142857142857</ele><time>2026-04-06T09:14:19.999Z</time></trkpt><trkpt lat="44.21508642321365" lon="11.58888168273469"><ele>512.5714285714286</ele><time>2026-04-06T09:14:21.999Z</time></trkpt><trkpt lat="44.21505558198966" lon="11.588995842733668"><ele>511.4285714285714</ele><time>2026-04-06T09:14:23.999Z</time></trkpt><trkpt lat="44.2150243186743" lon="11.58907343518794"><ele>510.2857142857142</ele><time>2026-04-06T09:14:24.999Z</time></trkpt><trkpt lat="44.21499344503999" lon="11.589163378018013"><ele>509.14285714285717</ele><time>2026-04-06T09:14:25.999Z</time></trkpt><trkpt lat="44.21496211965504" lon="11.589242745245324"><ele>508.0</ele><time>2026-04-06T09:14:26.999Z</time></trkpt><trkpt lat="44.21488918731503" lon="11.589378395290678"><ele>506.0</ele><time>2026-04-06T09:14:28.999Z</time></trkpt><trkpt lat="44.214826731784875" lon="11.589513652189506"><ele>503.99999999999994</ele><time>2026-04-06T09:14:30.999Z</time></trkpt><trkpt lat="44.2147922155993" lon="11.58966165535062"><ele>501.99999999999994</ele><time>2026-04-06T09:14:32.999Z</time></trkpt><trkpt lat="44.21476778232499" lon="11.58979355679153"><ele>500.0</ele><time>2026-04-06T09:14:34.999Z</time></trkpt><trkpt lat="44.214718988133875" lon="11.589849380522551"><ele>498.0</ele><time>2026-04-06T09:14:36.999Z</time></trkpt><trkpt lat="44.21465376786374" lon="11.589796792244103"><ele>501.0</ele><time>2026-04-06T09:14:39.999Z</time></trkpt><trkpt lat="44.21466974302645" lon="11.589689174795053"><ele>503.99999999999994</ele><time>2026-04-06T09:14:42Z</time></trkpt><trkpt lat="44.214671864069146" lon="11.589578537845265"><ele>507.0</ele><time>2026-04-06T09:14:46Z</time></trkpt><trkpt lat="44.214693131927575" lon="11.589487851553507"><ele>510.0</ele><time>2026-04-06T09:14:50Z</time></trkpt><trkpt lat="44.214695832574286" lon="11.589399972909437"><ele>513.0</ele><time>2026-04-06T09:14:53Z</time></trkpt><trkpt lat="44.214700787436804" lon="11.589306478370275"><ele>516.0</ele><time>2026-04-06T09:14:56Z</time></trkpt><trkpt lat="44.214701792448686" lon="11.589215572590145"><ele>519.0</ele><time>2026-04-06T09:14:59Z</time></trkpt><trkpt lat="44.21463797631059" lon="11.589150735876984"><ele>519.0</ele><time>2026-04-06T09:15:02Z</time></trkpt><trkpt lat="44.21457141551407" lon="11.589193385902062"><ele>519.0</ele><time>2026-04-06T09:15:05Z</time></trkpt><trkpt lat="44.21453732507129" lon="11.589280593145357"><ele>519.0</ele><time>2026-04-06T09:15:08Z</time></trkpt><trkpt lat="44.214502884325285" lon="11.589364910804058"><ele>519.0</ele><time>2026-04-06T09:15:11Z</time></trkpt><trkpt lat="44.21445965503306" lon="11.589442715603466"><ele>519.0</ele><time>2026-04-06T09:15:14Z</time></trkpt><trkpt lat="44.21441194075887" lon="11.589509345964194"><ele>519.0</ele><time>2026-04-06T09:15:17Z</time></trkpt><trkpt lat="44.214368174064184" lon="11.589593296382445"><ele>519.0</ele><time>2026-04-06T09:15:20Z</time></trkpt><trkpt lat="44.21431634514103" lon="11.589656124343557"><ele>519.0</ele><time>2026-04-06T09:15:23Z</time></trkpt><trkpt lat="44.214274953392234" lon="11.589728694713207"><ele>519.0</ele><time>2026-04-06T09:15:26Z</time></trkpt><trkpt lat="44.21420120544261" lon="11.58978130421893"><ele>519.0</ele><time>2026-04-06T09:15:30Z</time></trkpt><trkpt lat="44.214138166329974" lon="11.589798001505597"><ele>519.0</ele><time>2026-04-06T09:15:33Z</time></trkpt><trkpt lat="44.21407266488876" lon="11.58982285276489"><ele>519.0</ele><time>2026-04-06T09:15:36Z</time></trkpt><trkpt lat="44.214010076305755" lon="11.589849882660769"><ele>519.0</ele><time>2026-04-06T09:15:39Z</time></trkpt><trkpt lat="44.213947592061" lon="11.589886562040025"><ele>519.0</ele><time>2026-04-06T09:15:42Z</time></trkpt><trkpt lat="44.21387255225544" lon="11.589893974473476"><ele>519.0</ele><time>2026-04-06T09:15:46Z</time></trkpt><trkpt lat="44.21384002330199" lon="11.589809872478018"><ele>519.0</ele><time>2026-04-06T09:15:50Z</time></trkpt><trkpt lat="44.21389233071839" lon="11.58973788624226"><ele>519.0</ele><time>2026-04-06T09:15:54Z</time></trkpt><trkpt lat="44.21394793781945" lon="11.589696569964774"><ele>519.0</ele><time>2026-04-06T09:15:57Z</time></trkpt><trkpt lat="44.2139940375924" lon="11.589629572854372"><ele>519.0</ele><time>2026-04-06T09:16:00Z</time></trkpt><trkpt lat="44.214029284341" lon="11.589549526277159"><ele>519.0</ele><time>2026-04-06T09:16:03Z</time></trkpt><trkpt lat="44.214044808258414" lon="11.589463024492126"><ele>519.0</ele><time>2026-04-06T09:16:06Z</time></trkpt><trkpt lat="44.2140620993714" lon="11.589373859257558"><ele>520.4285714285714</ele><time>2026-04-06T09:16:09Z</time></trkpt><trkpt lat="44.21407415352189" lon="11.589285834288118"><ele>521.8571428571428</ele><time>2026-04-06T09:16:11.999Z</time></trkpt><trkpt lat="44.21408567157914" lon="11.589195129298188"><ele>523.2857142857142</ele><time>2026-04-06T09:16:14.999Z</time></trkpt><trkpt lat="44.214093652381834" lon="11.589082101514183"><ele>524.7142857142857</ele><time>2026-04-06T09:16:18.999Z</time></trkpt><trkpt lat="44.21409768722565" lon="11.588986006359056"><ele>526.1428571428571</ele><time>2026-04-06T09:16:21.999Z</time></trkpt><trkpt lat="44.21408484140718" lon="11.58886888333845"><ele>527.5714285714286</ele><time>2026-04-06T09:16:25.999Z</time></trkpt><trkpt lat="44.21406210080304" lon="11.588780770615205"><ele>529.0</ele><time>2026-04-06T09:16:28.999Z</time></trkpt><trkpt lat="44.21402859805657" lon="11.588703500295537"><ele>530.5</ele><time>2026-04-06T09:16:31.999Z</time></trkpt><trkpt lat="44.2139988232764" lon="11.58860660632267"><ele>532.0</ele><time>2026-04-06T09:16:35.999Z</time></trkpt><trkpt lat="44.214010831513995" lon="11.58850134064152"><ele>533.5</ele><time>2026-04-06T09:16:40.999Z</time></trkpt><trkpt lat="44.21401787195359" lon="11.588411458516099"><ele>535.0</ele><time>2026-04-06T09:16:44.999Z</time></trkpt><trkpt lat="44.214047232042354" lon="11.58830943768204"><ele>536.5</ele><time>2026-04-06T09:16:50Z</time></trkpt><trkpt lat="44.214079276353445" lon="11.588213391687711"><ele>538.0</ele><time>2026-04-06T09:16:54Z</time></trkpt><trkpt lat="44.21412597770131" lon="11.588124220028849"><ele>538.0</ele><time>2026-04-06T09:16:58Z</time></trkpt><trkpt lat="44.21417278939007" lon="11.58805410643436"><ele>538.0</ele><time>2026-04-06T09:17:01Z</time></trkpt><trkpt lat="44.214209339506624" lon="11.587947634311913"><ele>538.0</ele><time>2026-04-06T09:17:05Z</time></trkpt><trkpt lat="44.214226019388555" lon="11.587834227190852"><ele>538.0</ele><time>2026-04-06T09:17:08Z</time></trkpt><trkpt lat="44.21422790369907" lon="11.587733287754471"><ele>538.0</ele><time>2026-04-06T09:17:11Z</time></trkpt><trkpt lat="44.214226627021496" lon="11.587627832121388"><ele>538.0</ele><time>2026-04-06T09:17:14Z</time></trkpt><trkpt lat="44.214235976274374" lon="11.587535381960333"><ele>539.8571428571429</ele><time>2026-04-06T09:17:17Z</time></trkpt><trkpt lat="44.21425292122621" lon="11.587442216627888"><ele>541.7142857142858</ele><time>2026-04-06T09:17:20Z</time></trkpt><trkpt lat="44.21426647559669" lon="11.587350317417844"><ele>543.5714285714286</ele><time>2026-04-06T09:17:23Z</time></trkpt><trkpt lat="44.21428246357455" lon="11.587265302957837"><ele>545.4285714285714</ele><time>2026-04-06T09:17:26Z</time></trkpt><trkpt lat="44.214305997538794" lon="11.587177359012824"><ele>547.2857142857142</ele><time>2026-04-06T09:17:30Z</time></trkpt><trkpt lat="44.21430674981128" lon="11.58708593019738"><ele>549.1428571428571</ele><time>2026-04-06T09:17:33Z</time></trkpt><trkpt lat="44.21431734377597" lon="11.586978336526682"><ele>551.0</ele><time>2026-04-06T09:17:37Z</time></trkpt><trkpt lat="44.21432435997027" lon="11.58688504513278"><ele>551.8571428571428</ele><time>2026-04-06T09:17:40Z</time></trkpt><trkpt lat="44.21433951278754" lon="11.586786157281788"><ele>552.7142857142857</ele><time>2026-04-06T09:17:43Z</time></trkpt><trkpt lat="44.21434202785975" lon="11.586686083815028"><ele>553.5714285714286</ele><time>2026-04-06T09:17:46Z</time></trkpt><trkpt lat="44.21435995188952" lon="11.586594778816895"><ele>554.4285714285713</ele><time>2026-04-06T09:17:49Z</time></trkpt><trkpt lat="44.214369999656085" lon="11.586486670170016"><ele>555.2857142857142</ele><time>2026-04-06T09:17:52Z</time></trkpt><trkpt lat="44.214377630456084" lon="11.586383626664107"><ele>556.1428571428571</ele><time>2026-04-06T09:17:55Z</time></trkpt><trkpt lat="44.21439439131249" lon="11.586285739565517"><ele>557.0</ele><time>2026-04-06T09:17:58Z</time></trkpt><trkpt lat="44.21440407261919" lon="11.586193871235947"><ele>557.0</ele><time>2026-04-06T09:18:01Z</time></trkpt><trkpt lat="44.21439980650352" lon="11.586106099153936"><ele>557.0</ele><time>2026-04-06T09:18:04Z</time></trkpt><trkpt lat="44.21434372339565" lon="11.586018637824175"><ele>557.0</ele><time>2026-04-06T09:18:07Z</time></trkpt><trkpt lat="44.214261679858815" lon="11.586043507444748"><ele>557.0</ele><time>2026-04-06T09:18:10Z</time></trkpt><trkpt lat="44.2142198264412" lon="11.586130416602144"><ele>557.0</ele><time>2026-04-06T09:18:12.999Z</time></trkpt><trkpt lat="44.21418449510595" lon="11.586205665261842"><ele>557.0</ele><time>2026-04-06T09:18:15.999Z</time></trkpt><trkpt lat="44.21414422538529" lon="11.586289375982627"><ele>557.0</ele><time>2026-04-06T09:18:18.999Z</time></trkpt><trkpt lat="44.21410308016304" lon="11.586371585613211"><ele>557.0</ele><time>2026-04-06T09:18:21.999Z</time></trkpt><trkpt lat="44.21405927069364" lon="11.586449275266382"><ele>557.0</ele><time>2026-04-06T09:18:24.999Z</time></trkpt><trkpt lat="44.2140266919997" lon="11.586547514684183"><ele>557.0</ele><time>2026-04-06T09:18:27.999Z</time></trkpt><trkpt lat="44.213987112023716" lon="11.586631245801644"><ele>557.0</ele><time>2026-04-06T09:18:30.999Z</time></trkpt><trkpt lat="44.213920808174834" lon="11.58663526328662"><ele>557.0</ele><time>2026-04-06T09:18:34.999Z</time></trkpt><trkpt lat="44.21394234856297" lon="11.586535016209435"><ele>557.0</ele><time>2026-04-06T09:18:38.999Z</time></trkpt><trkpt lat="44.213975714343235" lon="11.586448357342046"><ele>557.0</ele><time>2026-04-06T09:18:41.999Z</time></trkpt><trkpt lat="44.213993995344524" lon="11.58635405221027"><ele>557.0</ele><time>2026-04-06T09:18:44.999Z</time></trkpt><trkpt lat="44.21400110070011" lon="11.586262629865796"><ele>557.0</ele><time>2026-04-06T09:18:47.999Z</time></trkpt><trkpt lat="44.21400457560786" lon="11.586163533647035"><ele>557.0</ele><time>2026-04-06T09:18:50.999Z</time></trkpt><trkpt lat="44.214019561340415" lon="11.586072486909817"><ele>557.0</ele><time>2026-04-06T09:18:54Z</time></trkpt><trkpt lat="44.21402320924934" lon="11.585977362391807"><ele>557.0</ele><time>2026-04-06T09:18:57Z</time></trkpt><trkpt lat="44.21403322029323" lon="11.585876078658213"><ele>557.0</ele><time>2026-04-06T09:19:00Z</time></trkpt><trkpt lat="44.2140469401819" lon="11.585777912761028"><ele>557.0</ele><time>2026-04-06T09:19:03Z</time></trkpt><trkpt lat="44.21405491622328" lon="11.585686093202046"><ele>558.7142857142858</ele><time>2026-04-06T09:19:06Z</time></trkpt><trkpt lat="44.21406883982476" lon="11.585591827147923"><ele>560.4285714285714</ele><time>2026-04-06T09:19:09Z</time></trkpt><trkpt lat="44.21408724957081" lon="11.585487045045541"><ele>562.1428571428571</ele><time>2026-04-06T09:19:13Z</time></trkpt><trkpt lat="44.21408813548688" lon="11.585380307936363"><ele>563.8571428571429</ele><time>2026-04-06T09:19:17Z</time></trkpt><trkpt lat="44.21407880003274" lon="11.585291584590772"><ele>565.5714285714286</ele><time>2026-04-06T09:19:21Z</time></trkpt><trkpt lat="44.21406017957494" lon="11.585188837950637"><ele>567.2857142857143</ele><time>2026-04-06T09:19:25Z</time></trkpt><trkpt lat="44.214044165599844" lon="11.58508442070631"><ele>569.0</ele><time>2026-04-06T09:19:29Z</time></trkpt><trkpt lat="44.21405395475499" lon="11.58498019577573"><ele>571.0000000000001</ele><time>2026-04-06T09:19:33Z</time></trkpt><trkpt lat="44.2140726975427" lon="11.584879442833357"><ele>573.0</ele><time>2026-04-06T09:19:37Z</time></trkpt><trkpt lat="44.21408933529502" lon="11.584777284565098"><ele>575.0</ele><time>2026-04-06T09:19:41Z</time></trkpt><trkpt lat="44.21411296950495" lon="11.584692741158822"><ele>577.0</ele><time>2026-04-06T09:19:45Z</time></trkpt><trkpt lat="44.21412016527264" lon="11.58459253973222"><ele>579.0</ele><time>2026-04-06T09:19:49Z</time></trkpt><trkpt lat="44.21415603662711" lon="11.584505318266945"><ele>581.0000000000001</ele><time>2026-04-06T09:19:53Z</time></trkpt><trkpt lat="44.21420464899457" lon="11.58441060972542"><ele>583.0</ele><time>2026-04-06T09:19:58Z</time></trkpt><trkpt lat="44.214253607776776" lon="11.584347301229332"><ele>585.0000000000001</ele><time>2026-04-06T09:20:02Z</time></trkpt><trkpt lat="44.214313826323476" lon="11.5843216435636"><ele>587.0</ele><time>2026-04-06T09:20:06Z</time></trkpt><trkpt lat="44.21436110682058" lon="11.584243069430194"><ele>589.0</ele><time>2026-04-06T09:20:10Z</time></trkpt><trkpt lat="44.21439671142861" lon="11.584155577146976"><ele>591.0</ele><time>2026-04-06T09:20:14.999Z</time></trkpt><trkpt lat="44.21440628843047" lon="11.584059098662676"><ele>593.0</ele><time>2026-04-06T09:20:18.999Z</time></trkpt><trkpt lat="44.214417469241866" lon="11.583958446079937"><ele>595.0000000000001</ele><time>2026-04-06T09:20:21.999Z</time></trkpt><trkpt lat="44.21443504620514" lon="11.58385041521441"><ele>597.0</ele><time>2026-04-06T09:20:24.999Z</time></trkpt><trkpt lat="44.21444513307528" lon="11.583727476644386"><ele>598.1428571428572</ele><time>2026-04-06T09:20:28.999Z</time></trkpt><trkpt lat="44.2144585187779" lon="11.583640386818121"><ele>599.2857142857143</ele><time>2026-04-06T09:20:31.999Z</time></trkpt><trkpt lat="44.21446899174777" lon="11.583549652276902"><ele>600.4285714285714</ele><time>2026-04-06T09:20:34.999Z</time></trkpt><trkpt lat="44.21447401830236" lon="11.583455192621308"><ele>601.5714285714287</ele><time>2026-04-06T09:20:37.999Z</time></trkpt><trkpt lat="44.21448291374484" lon="11.583360835279482"><ele>602.7142857142858</ele><time>2026-04-06T09:20:40.999Z</time></trkpt><trkpt lat="44.214502634866285" lon="11.583260845784617"><ele>603.8571428571429</ele><time>2026-04-06T09:20:43.999Z</time></trkpt><trkpt lat="44.21452022531869" lon="11.583158220847926"><ele>605.0</ele><time>2026-04-06T09:20:46.999Z</time></trkpt><trkpt lat="44.214543089984794" lon="11.583055670873732"><ele>605.0</ele><time>2026-04-06T09:20:49.999Z</time></trkpt><trkpt lat="44.21456793877118" lon="11.582962428274161"><ele>605.0</ele><time>2026-04-06T09:20:52.999Z</time></trkpt><trkpt lat="44.21458470098257" lon="11.582868051337666"><ele>605.0</ele><time>2026-04-06T09:20:55.999Z</time></trkpt><trkpt lat="44.21461176396751" lon="11.582786567915408"><ele>605.0</ele><time>2026-04-06T09:20:59Z</time></trkpt><trkpt lat="44.21464827427334" lon="11.582694999213231"><ele>605.0</ele><time>2026-04-06T09:21:03Z</time></trkpt><trkpt lat="44.214695116904025" lon="11.582611269023065"><ele>605.0</ele><time>2026-04-06T09:21:07Z</time></trkpt><trkpt lat="44.21474868661761" lon="11.58252881731518"><ele>605.0</ele><time>2026-04-06T09:21:11Z</time></trkpt><trkpt lat="44.21478830326139" lon="11.582452931123786"><ele>604.5714285714286</ele><time>2026-04-06T09:21:14Z</time></trkpt><trkpt lat="44.21482617534293" lon="11.582382442767829"><ele>604.1428571428571</ele><time>2026-04-06T09:21:17Z</time></trkpt><trkpt lat="44.21486216030907" lon="11.582305074138482"><ele>603.7142857142858</ele><time>2026-04-06T09:21:21Z</time></trkpt><trkpt lat="44.21489724177981" lon="11.58222977815767"><ele>603.2857142857142</ele><time>2026-04-06T09:21:24Z</time></trkpt><trkpt lat="44.21492883404384" lon="11.582152700522911"><ele>602.8571428571429</ele><time>2026-04-06T09:21:27Z</time></trkpt><trkpt lat="44.21497835076916" lon="11.582048019474664"><ele>602.4285714285714</ele><time>2026-04-06T09:21:31Z</time></trkpt><trkpt lat="44.21501323513484" lon="11.581956826611146"><ele>602.0</ele><time>2026-04-06T09:21:35Z</time></trkpt><trkpt lat="44.21504622232847" lon="11.581870933095686"><ele>603.1428571428571</ele><time>2026-04-06T09:21:39Z</time></trkpt><trkpt lat="44.21506690583529" lon="11.581779900930142"><ele>604.2857142857142</ele><time>2026-04-06T09:21:42Z</time></trkpt><trkpt lat="44.21508941670667" lon="11.581686599829213"><ele>605.4285714285714</ele><time>2026-04-06T09:21:45Z</time></trkpt><trkpt lat="44.2151123621089" lon="11.581587568171201"><ele>606.5714285714286</ele><time>2026-04-06T09:21:48Z</time></trkpt><trkpt lat="44.21513026070462" lon="11.581489472217537"><ele>607.7142857142857</ele><time>2026-04-06T09:21:50Z</time></trkpt><trkpt lat="44.21515306955534" lon="11.58139291669322"><ele>608.8571428571429</ele><time>2026-04-06T09:21:53Z</time></trkpt><trkpt lat="44.21509707958161" lon="11.581314350961124"><ele>610.0</ele><time>2026-04-06T09:21:58Z</time></trkpt><trkpt lat="44.21504304004912" lon="11.581222555476465"><ele>610.0</ele><time>2026-04-06T09:22:59.999Z</time></trkpt><trkpt lat="44.21498002211954" lon="11.58126247346331"><ele>610.0</ele><time>2026-04-06T09:23:05Z</time></trkpt><trkpt lat="44.21490102288757" lon="11.581293533967003"><ele>610.0</ele><time>2026-04-06T09:23:11Z</time></trkpt><trkpt lat="44.21484803918393" lon="11.581343574831996"><ele>610.0</ele><time>2026-04-06T09:23:14Z</time></trkpt><trkpt lat="44.21481946609994" lon="11.581440457959475"><ele>610.0</ele><time>2026-04-06T09:23:17Z</time></trkpt><trkpt lat="44.214779442880136" lon="11.581534574244913"><ele>610.0</ele><time>2026-04-06T09:23:19Z</time></trkpt><trkpt lat="44.21473818415001" lon="11.581665490192126"><ele>609.3333333333334</ele><time>2026-04-06T09:23:22Z</time></trkpt><trkpt lat="44.21469165836711" lon="11.581775172699903"><ele>608.6666666666667</ele><time>2026-04-06T09:23:24Z</time></trkpt><trkpt lat="44.21463605616584" lon="11.581817891163851"><ele>608.0</ele><time>2026-04-06T09:23:27Z</time></trkpt><trkpt lat="44.214570231974626" lon="11.581885105363432"><ele>607.3333333333334</ele><time>2026-04-06T09:23:32Z</time></trkpt><trkpt lat="44.21452263755668" lon="11.58194423354416"><ele>606.6666666666666</ele><time>2026-04-06T09:23:35Z</time></trkpt><trkpt lat="44.21447950083305" lon="11.582025759586005"><ele>606.0</ele><time>2026-04-06T09:23:38Z</time></trkpt><trkpt lat="44.214436472741966" lon="11.582122889059404"><ele>606.0</ele><time>2026-04-06T09:23:41Z</time></trkpt><trkpt lat="44.2143753997946" lon="11.582208344450779"><ele>606.0</ele><time>2026-04-06T09:23:43Z</time></trkpt><trkpt lat="44.214325505909585" lon="11.58227126437876"><ele>606.0</ele><time>2026-04-06T09:23:45Z</time></trkpt><trkpt lat="44.21426111234936" lon="11.582323580271243"><ele>606.0</ele><time>2026-04-06T09:23:49Z</time></trkpt><trkpt lat="44.21419915118717" lon="11.582369220775911"><ele>606.0</ele><time>2026-04-06T09:23:52Z</time></trkpt><trkpt lat="44.21412227384051" lon="11.582434402951023"><ele>606.0</ele><time>2026-04-06T09:23:55Z</time></trkpt><trkpt lat="44.21407536477828" lon="11.582524942626858"><ele>606.0</ele><time>2026-04-06T09:23:59Z</time></trkpt><trkpt lat="44.21403428763104" lon="11.582595221934543"><ele>606.0</ele><time>2026-04-06T09:24:03Z</time></trkpt><trkpt lat="44.21399529755371" lon="11.582699059851738"><ele>606.0</ele><time>2026-04-06T09:24:07Z</time></trkpt><trkpt lat="44.213984133980844" lon="11.58279777878306"><ele>606.0</ele><time>2026-04-06T09:24:09Z</time></trkpt><trkpt lat="44.21393525385745" lon="11.582898443307018"><ele>606.0</ele><time>2026-04-06T09:24:12Z</time></trkpt><trkpt lat="44.213906116943" lon="11.582985966948154"><ele>606.0</ele><time>2026-04-06T09:24:14Z</time></trkpt><trkpt lat="44.21385579706421" lon="11.583096933669134"><ele>603.8571428571429</ele><time>2026-04-06T09:24:16Z</time></trkpt><trkpt lat="44.21379761171272" lon="11.583160887927386"><ele>601.7142857142857</ele><time>2026-04-06T09:24:19Z</time></trkpt><trkpt lat="44.21377779816514" lon="11.583257363423755"><ele>599.5714285714286</ele><time>2026-04-06T09:24:21.999Z</time></trkpt><trkpt lat="44.21373217691932" lon="11.583348239149343"><ele>597.4285714285714</ele><time>2026-04-06T09:24:25.999Z</time></trkpt><trkpt lat="44.21370261138661" lon="11.58343554011595"><ele>595.2857142857143</ele><time>2026-04-06T09:24:28.999Z</time></trkpt><trkpt lat="44.21367348143004" lon="11.583527914276884"><ele>593.1428571428571</ele><time>2026-04-06T09:24:30.999Z</time></trkpt><trkpt lat="44.21366546573767" lon="11.58361571761775"><ele>591.0</ele><time>2026-04-06T09:24:32.999Z</time></trkpt><trkpt lat="44.21366789674923" lon="11.583704970801321"><ele>590.7142857142857</ele><time>2026-04-06T09:24:35.999Z</time></trkpt><trkpt lat="44.21364169462624" lon="11.583794803677762"><ele>590.4285714285714</ele><time>2026-04-06T09:24:37.999Z</time></trkpt><trkpt lat="44.21364741647315" lon="11.58388433705553"><ele>590.1428571428571</ele><time>2026-04-06T09:24:40.999Z</time></trkpt><trkpt lat="44.21365888749597" lon="11.583974453131031"><ele>589.8571428571429</ele><time>2026-04-06T09:24:43.999Z</time></trkpt><trkpt lat="44.213652866829484" lon="11.584066032536992"><ele>589.5714285714286</ele><time>2026-04-06T09:24:46.999Z</time></trkpt><trkpt lat="44.2136488071165" lon="11.58416297071183"><ele>589.2857142857142</ele><time>2026-04-06T09:24:48.999Z</time></trkpt><trkpt lat="44.21366639784697" lon="11.584262336920808"><ele>589.0</ele><time>2026-04-06T09:24:50.999Z</time></trkpt><trkpt lat="44.21366784952948" lon="11.584354255045385"><ele>589.0</ele><time>2026-04-06T09:24:53.999Z</time></trkpt><trkpt lat="44.21367329045554" lon="11.584447385745602"><ele>589.0</ele><time>2026-04-06T09:24:56.999Z</time></trkpt><trkpt lat="44.213673566329355" lon="11.58454026772278"><ele>589.0</ele><time>2026-04-06T09:25:00.999Z</time></trkpt><trkpt lat="44.21363903723832" lon="11.584619674380463"><ele>589.0</ele><time>2026-04-06T09:25:02.999Z</time></trkpt><trkpt lat="44.2135904386578" lon="11.584695288742154"><ele>589.0</ele><time>2026-04-06T09:25:05.999Z</time></trkpt><trkpt lat="44.213541220096445" lon="11.584771500813176"><ele>589.0</ele><time>2026-04-06T09:25:07.999Z</time></trkpt><trkpt lat="44.213437126193384" lon="11.584889084708031"><ele>588.0</ele><time>2026-04-06T09:25:09.999Z</time></trkpt><trkpt lat="44.213344693539625" lon="11.584973054272323"><ele>587.0</ele><time>2026-04-06T09:25:12Z</time></trkpt><trkpt lat="44.213250400299316" lon="11.585026217102534"><ele>586.0</ele><time>2026-04-06T09:25:14Z</time></trkpt><trkpt lat="44.21316746196966" lon="11.585056588030703"><ele>585.0</ele><time>2026-04-06T09:25:16Z</time></trkpt><trkpt lat="44.2131177146441" lon="11.585140483486981"><ele>584.0</ele><time>2026-04-06T09:25:18Z</time></trkpt><trkpt lat="44.2130566478322" lon="11.58529157548845"><ele>582.7142857142857</ele><time>2026-04-06T09:25:20Z</time></trkpt><trkpt lat="44.212990641739914" lon="11.585383484780229"><ele>581.4285714285714</ele><time>2026-04-06T09:25:22Z</time></trkpt><trkpt lat="44.21290130815025" lon="11.585387517926922"><ele>580.1428571428571</ele><time>2026-04-06T09:25:24Z</time></trkpt><trkpt lat="44.21283813028724" lon="11.585398650810449"><ele>578.8571428571429</ele><time>2026-04-06T09:25:25Z</time></trkpt><trkpt lat="44.21277913943995" lon="11.585441626506686"><ele>577.5714285714286</ele><time>2026-04-06T09:25:26Z</time></trkpt><trkpt lat="44.212723687715005" lon="11.585498985601806"><ele>576.2857142857142</ele><time>2026-04-06T09:25:27Z</time></trkpt><trkpt lat="44.21266296064182" lon="11.585523955639816"><ele>575.0</ele><time>2026-04-06T09:25:29Z</time></trkpt><trkpt lat="44.21259606014991" lon="11.58551733178535"><ele>575.0</ele><time>2026-04-06T09:25:34Z</time></trkpt><trkpt lat="44.21249536830394" lon="11.585488161073934"><ele>575.0</ele><time>2026-04-06T09:25:52Z</time></trkpt><trkpt lat="44.21242864424952" lon="11.585498570651026"><ele>575.0</ele><time>2026-04-06T09:25:54Z</time></trkpt><trkpt lat="44.212359862670525" lon="11.585458356649958"><ele>575.0</ele><time>2026-04-06T09:25:57Z</time></trkpt><trkpt lat="44.21229709118453" lon="11.585388772703626"><ele>575.0</ele><time>2026-04-06T09:26:00Z</time></trkpt><trkpt lat="44.212223895963305" lon="11.585369682772635"><ele>575.0</ele><time>2026-04-06T09:26:02Z</time></trkpt><trkpt lat="44.21214247572045" lon="11.585332152322492"><ele>571.8333333333333</ele><time>2026-04-06T09:26:05Z</time></trkpt><trkpt lat="44.212076550807566" lon="11.585366762452823"><ele>568.6666666666666</ele><time>2026-04-06T09:26:15Z</time></trkpt><trkpt lat="44.21205031345015" lon="11.585476245645697"><ele>565.5</ele><time>2026-04-06T09:26:19Z</time></trkpt><trkpt lat="44.212062781709754" lon="11.58558708494848"><ele>562.3333333333334</ele><time>2026-04-06T09:26:21Z</time></trkpt><trkpt lat="44.21206433916262" lon="11.585680766100927"><ele>559.1666666666667</ele><time>2026-04-06T09:26:24Z</time></trkpt><trkpt lat="44.21203728672731" lon="11.58578444970035"><ele>556.0</ele><time>2026-04-06T09:26:27Z</time></trkpt><trkpt lat="44.211986694816346" lon="11.585857287560371"><ele>556.0</ele><time>2026-04-06T09:26:29Z</time></trkpt><trkpt lat="44.21190410276686" lon="11.58587525535795"><ele>556.0</ele><time>2026-04-06T09:26:30.999Z</time></trkpt><trkpt lat="44.21181117730604" lon="11.585871377789934"><ele>556.0</ele><time>2026-04-06T09:26:32.999Z</time></trkpt><trkpt lat="44.21173127755211" lon="11.585858619750745"><ele>556.0</ele><time>2026-04-06T09:26:34.999Z</time></trkpt><trkpt lat="44.21165655060886" lon="11.585880831342354"><ele>556.0</ele><time>2026-04-06T09:26:37.999Z</time></trkpt><trkpt lat="44.21158872383817" lon="11.585837330437931"><ele>556.0</ele><time>2026-04-06T09:26:42.999Z</time></trkpt><trkpt lat="44.2114903653634" lon="11.585814327160183"><ele>553.7142857142857</ele><time>2026-04-06T09:26:45.999Z</time></trkpt><trkpt lat="44.21142784889658" lon="11.585773206995983"><ele>551.4285714285714</ele><time>2026-04-06T09:26:48.999Z</time></trkpt><trkpt lat="44.211349074501435" lon="11.58574819899238"><ele>549.1428571428571</ele><time>2026-04-06T09:26:51.999Z</time></trkpt><trkpt lat="44.21128323628309" lon="11.585692397749549"><ele>546.8571428571429</ele><time>2026-04-06T09:26:54.999Z</time></trkpt><trkpt lat="44.211209557871435" lon="11.585640745968961"><ele>544.5714285714286</ele><time>2026-04-06T09:26:56.999Z</time></trkpt><trkpt lat="44.21115042038775" lon="11.585604270678932"><ele>542.2857142857142</ele><time>2026-04-06T09:26:57.999Z</time></trkpt><trkpt lat="44.211082705894725" lon="11.5855771766291"><ele>540.0</ele><time>2026-04-06T09:26:58.999Z</time></trkpt><trkpt lat="44.211010368024034" lon="11.58555316284008"><ele>540.0</ele><time>2026-04-06T09:26:59.999Z</time></trkpt><trkpt lat="44.21092622126939" lon="11.585555911807916"><ele>540.0</ele><time>2026-04-06T09:27:01.999Z</time></trkpt><trkpt lat="44.210887390524036" lon="11.585630657266671"><ele>540.0</ele><time>2026-04-06T09:27:03.999Z</time></trkpt><trkpt lat="44.21082795236631" lon="11.585724075392475"><ele>540.0</ele><time>2026-04-06T09:27:06.999Z</time></trkpt><trkpt lat="44.21079897240569" lon="11.585886720163431"><ele>540.0</ele><time>2026-04-06T09:27:08.999Z</time></trkpt><trkpt lat="44.21077709666114" lon="11.586026359023128"><ele>540.0</ele><time>2026-04-06T09:27:10.999Z</time></trkpt><trkpt lat="44.21069746714525" lon="11.586044910960263"><ele>540.0</ele><time>2026-04-06T09:27:12.999Z</time></trkpt><trkpt lat="44.210589051209084" lon="11.58605859287656"><ele>540.0</ele><time>2026-04-06T09:27:14.999Z</time></trkpt><trkpt lat="44.21054528669245" lon="11.586127118889648"><ele>540.0</ele><time>2026-04-06T09:27:15.999Z</time></trkpt><trkpt lat="44.21046442699318" lon="11.586171914598848"><ele>540.0</ele><time>2026-04-06T09:27:18Z</time></trkpt><trkpt lat="44.2104003334723" lon="11.586161309458868"><ele>540.0</ele><time>2026-04-06T09:27:19Z</time></trkpt><trkpt lat="44.21032976113216" lon="11.586157154799691"><ele>537.2857142857142</ele><time>2026-04-06T09:27:23Z</time></trkpt><trkpt lat="44.21026862355537" lon="11.586091434918856"><ele>534.5714285714286</ele><time>2026-04-06T09:27:26Z</time></trkpt><trkpt lat="44.2101844546351" lon="11.586081708673518"><ele>531.8571428571429</ele><time>2026-04-06T09:27:30Z</time></trkpt><trkpt lat="44.210120442618475" lon="11.58606209539335"><ele>529.1428571428571</ele><time>2026-04-06T09:27:32Z</time></trkpt><trkpt lat="44.210058306257565" lon="11.586036601412639"><ele>526.4285714285714</ele><time>2026-04-06T09:27:34Z</time></trkpt><trkpt lat="44.20998347130277" lon="11.586035541768183"><ele>523.7142857142857</ele><time>2026-04-06T09:27:38Z</time></trkpt><trkpt lat="44.20992026986694" lon="11.58601845782223"><ele>521.0</ele><time>2026-04-06T09:27:41Z</time></trkpt><trkpt lat="44.20982176675768" lon="11.585967631142601"><ele>518.2</ele><time>2026-04-06T09:27:43Z</time></trkpt><trkpt lat="44.20972996822914" lon="11.58597792618019"><ele>515.4000000000001</ele><time>2026-04-06T09:27:45Z</time></trkpt><trkpt lat="44.20969357200458" lon="11.586086451036413"><ele>512.6</ele><time>2026-04-06T09:27:47Z</time></trkpt><trkpt lat="44.20971449676115" lon="11.58619634152302"><ele>509.8</ele><time>2026-04-06T09:27:50Z</time></trkpt><trkpt lat="44.20975128388101" lon="11.586331091027361"><ele>507.0</ele><time>2026-04-06T09:27:53Z</time></trkpt><trkpt lat="44.20980522540531" lon="11.586462358861652"><ele>511.1666666666667</ele><time>2026-04-06T09:27:55Z</time></trkpt><trkpt lat="44.20984627191668" lon="11.58658833851105"><ele>515.3333333333334</ele><time>2026-04-06T09:27:57Z</time></trkpt><trkpt lat="44.20988033139408" lon="11.586728281706835"><ele>519.5</ele><time>2026-04-06T09:27:59Z</time></trkpt><trkpt lat="44.2098728246966" lon="11.586854974995097"><ele>523.6666666666667</ele><time>2026-04-06T09:28:01Z</time></trkpt><trkpt lat="44.20986242245148" lon="11.586969096274608"><ele>527.8333333333334</ele><time>2026-04-06T09:28:03Z</time></trkpt><trkpt lat="44.20988320381808" lon="11.587059695458182"><ele>532.0</ele><time>2026-04-06T09:28:05Z</time></trkpt><trkpt lat="44.20991564960371" lon="11.587181467833892"><ele>532.8333333333334</ele><time>2026-04-06T09:28:07Z</time></trkpt><trkpt lat="44.20994276575484" lon="11.58735758755497"><ele>533.6666666666667</ele><time>2026-04-06T09:28:09Z</time></trkpt><trkpt lat="44.20996355306474" lon="11.587448843889538"><ele>534.5</ele><time>2026-04-06T09:28:10Z</time></trkpt><trkpt lat="44.209974139522366" lon="11.587553288209445"><ele>535.3333333333334</ele><time>2026-04-06T09:28:11Z</time></trkpt><trkpt lat="44.2099834942521" lon="11.587650686207429"><ele>536.1666666666666</ele><time>2026-04-06T09:28:12Z</time></trkpt><trkpt lat="44.209982269186156" lon="11.587744526130257"><ele>537.0</ele><time>2026-04-06T09:28:17Z</time></trkpt><trkpt lat="44.209899855925556" lon="11.587801107712771"><ele>538.6666666666666</ele><time>2026-04-06T09:28:25Z</time></trkpt><trkpt lat="44.20982511105105" lon="11.587848702833876"><ele>540.3333333333334</ele><time>2026-04-06T09:28:27Z</time></trkpt><trkpt lat="44.20974220581259" lon="11.587832501358138"><ele>542.0</ele><time>2026-04-06T09:28:31Z</time></trkpt><trkpt lat="44.20966504492039" lon="11.587833238498527"><ele>543.6666666666667</ele><time>2026-04-06T09:28:34Z</time></trkpt><trkpt lat="44.20960266588535" lon="11.587774625283775"><ele>545.3333333333334</ele><time>2026-04-06T09:28:35.999Z</time></trkpt><trkpt lat="44.20952797838526" lon="11.587811439806869"><ele>547.0</ele><time>2026-04-06T09:28:38.999Z</time></trkpt><trkpt lat="44.209521462678104" lon="11.587902577149652"><ele>547.0</ele><time>2026-04-06T09:28:46.999Z</time></trkpt><trkpt lat="44.20945191526319" lon="11.587854389406212"><ele>547.0</ele><time>2026-04-06T09:28:53.999Z</time></trkpt><trkpt lat="44.20939405534899" lon="11.587803412009842"><ele>547.0</ele><time>2026-04-06T09:28:56.999Z</time></trkpt><trkpt lat="44.20933120674397" lon="11.587783955116373"><ele>547.0</ele><time>2026-04-06T09:28:59.999Z</time></trkpt><trkpt lat="44.20927688902976" lon="11.587701153466854"><ele>547.0</ele><time>2026-04-06T09:29:03.999Z</time></trkpt><trkpt lat="44.209189546393965" lon="11.587678150508212"><ele>547.0</ele><time>2026-04-06T09:29:06.999Z</time></trkpt><trkpt lat="44.20912660604266" lon="11.587698685740293"><ele>547.0</ele><time>2026-04-06T09:29:08.999Z</time></trkpt><trkpt lat="44.20909347218191" lon="11.587802781970543"><ele>547.0</ele><time>2026-04-06T09:29:10.999Z</time></trkpt><trkpt lat="44.20905210855469" lon="11.587936305343536"><ele>547.0</ele><time>2026-04-06T09:29:12.999Z</time></trkpt><trkpt lat="44.20900928070751" lon="11.588004518912133"><ele>547.0</ele><time>2026-04-06T09:29:13.999Z</time></trkpt><trkpt lat="44.208913958936655" lon="11.588104262476827"><ele>547.0</ele><time>2026-04-06T09:29:15.999Z</time></trkpt><trkpt lat="44.20884915725376" lon="11.588053657637452"><ele>547.0</ele><time>2026-04-06T09:29:19.999Z</time></trkpt><trkpt lat="44.208766187569076" lon="11.588110830573259"><ele>546.6666666666667</ele><time>2026-04-06T09:29:20.999Z</time></trkpt><trkpt lat="44.2086819390704" lon="11.588099662652949"><ele>546.3333333333334</ele><time>2026-04-06T09:29:24Z</time></trkpt><trkpt lat="44.208604440448966" lon="11.58808313691473"><ele>546.0</ele><time>2026-04-06T09:29:27Z</time></trkpt><trkpt lat="44.208529558132525" lon="11.588014090933822"><ele>545.6666666666666</ele><time>2026-04-06T09:29:30Z</time></trkpt><trkpt lat="44.208448765274234" lon="11.587998874250294"><ele>545.3333333333333</ele><time>2026-04-06T09:29:32Z</time></trkpt><trkpt lat="44.2083623624597" lon="11.588026699003262"><ele>545.0</ele><time>2026-04-06T09:29:34Z</time></trkpt><trkpt lat="44.20829308723694" lon="11.588031291011074"><ele>545.0</ele><time>2026-04-06T09:29:36Z</time></trkpt><trkpt lat="44.208238625383295" lon="11.588087450024"><ele>545.0</ele><time>2026-04-06T09:29:41Z</time></trkpt><trkpt lat="44.20828474801339" lon="11.588164134522712"><ele>545.0</ele><time>2026-04-06T09:30:01Z</time></trkpt><trkpt lat="44.20833684673823" lon="11.588235419576362"><ele>545.0</ele><time>2026-04-06T09:30:11Z</time></trkpt><trkpt lat="44.20838439428697" lon="11.588309064800608"><ele>545.0</ele><time>2026-04-06T09:30:15Z</time></trkpt><trkpt lat="44.20842254003021" lon="11.588386960212082"><ele>545.0</ele><time>2026-04-06T09:30:19Z</time></trkpt><trkpt lat="44.20836495140856" lon="11.588447113421328"><ele>545.0</ele><time>2026-04-06T09:32:07Z</time></trkpt><trkpt lat="44.20828405011703" lon="11.588473673804256"><ele>545.0</ele><time>2026-04-06T09:32:11Z</time></trkpt><trkpt lat="44.208218036534824" lon="11.588512245336082"><ele>545.0</ele><time>2026-04-06T09:32:15Z</time></trkpt><trkpt lat="44.208153637560805" lon="11.588515695970468"><ele>545.0</ele><time>2026-04-06T09:32:18Z</time></trkpt><trkpt lat="44.20807223296653" lon="11.588519474531612"><ele>545.0</ele><time>2026-04-06T09:32:21Z</time></trkpt><trkpt lat="44.208037976137234" lon="11.588624641336793"><ele>545.0</ele><time>2026-04-06T09:32:24Z</time></trkpt><trkpt lat="44.20796525545215" lon="11.588626820608773"><ele>545.0</ele><time>2026-04-06T09:32:29Z</time></trkpt><trkpt lat="44.20787900016655" lon="11.588604677024225"><ele>547.4285714285714</ele><time>2026-04-06T09:33:52Z</time></trkpt><trkpt lat="44.207838940650824" lon="11.588536479874652"><ele>549.8571428571429</ele><time>2026-04-06T09:33:56Z</time></trkpt><trkpt lat="44.20780452536299" lon="11.588446212703529"><ele>552.2857142857143</ele><time>2026-04-06T09:34:00Z</time></trkpt><trkpt lat="44.20776055402898" lon="11.588377494714447"><ele>554.7142857142858</ele><time>2026-04-06T09:34:04Z</time></trkpt><trkpt lat="44.20771801986834" lon="11.588296259624139"><ele>557.1428571428571</ele><time>2026-04-06T09:34:09Z</time></trkpt><trkpt lat="44.20766076195586" lon="11.588253262920405"><ele>559.5714285714287</ele><time>2026-04-06T09:34:12Z</time></trkpt><trkpt lat="44.20759043168598" lon="11.588211050378305"><ele>562.0</ele><time>2026-04-06T09:34:16Z</time></trkpt><trkpt lat="44.20752275489999" lon="11.5881971483226"><ele>562.0</ele><time>2026-04-06T09:34:22Z</time></trkpt><trkpt lat="44.2074577798091" lon="11.58815046043037"><ele>562.0</ele><time>2026-04-06T09:34:25Z</time></trkpt><trkpt lat="44.20738006442906" lon="11.588144742363275"><ele>562.0</ele><time>2026-04-06T09:34:28Z</time></trkpt><trkpt lat="44.20730176170239" lon="11.58813163089649"><ele>562.0</ele><time>2026-04-06T09:34:31.999Z</time></trkpt><trkpt lat="44.20722370010746" lon="11.588113209472562"><ele>562.0</ele><time>2026-04-06T09:34:34.999Z</time></trkpt><trkpt lat="44.20715084858726" lon="11.588120905541611"><ele>562.0</ele><time>2026-04-06T09:34:37.999Z</time></trkpt><trkpt lat="44.20707030168961" lon="11.588164321937574"><ele>560.4285714285714</ele><time>2026-04-06T09:34:46.999Z</time></trkpt><trkpt lat="44.207029664462944" lon="11.588233914257081"><ele>558.8571428571429</ele><time>2026-04-06T09:35:01.999Z</time></trkpt><trkpt lat="44.206974142595186" lon="11.588290354498428"><ele>557.2857142857142</ele><time>2026-04-06T09:35:06.999Z</time></trkpt><trkpt lat="44.20692267826604" lon="11.588362451230184"><ele>555.7142857142858</ele><time>2026-04-06T09:35:09.999Z</time></trkpt><trkpt lat="44.206865640316146" lon="11.58842694237422"><ele>554.1428571428571</ele><time>2026-04-06T09:35:12.999Z</time></trkpt><trkpt lat="44.20681101388946" lon="11.588470978039993"><ele>552.5714285714286</ele><time>2026-04-06T09:35:23.999Z</time></trkpt><trkpt lat="44.206750468861976" lon="11.588513381067857"><ele>551.0</ele><time>2026-04-06T09:35:25.999Z</time></trkpt><trkpt lat="44.20666609419093" lon="11.58849991761663"><ele>551.0</ele><time>2026-04-06T09:35:29.999Z</time></trkpt><trkpt lat="44.2065822639156" lon="11.588537495293062"><ele>551.0</ele><time>2026-04-06T09:35:32.999Z</time></trkpt><trkpt lat="44.206536714893794" lon="11.588604893312178"><ele>551.0</ele><time>2026-04-06T09:35:35.999Z</time></trkpt><trkpt lat="44.20651382993212" lon="11.588714276608183"><ele>551.0</ele><time>2026-04-06T09:35:38.999Z</time></trkpt><trkpt lat="44.20646902873429" lon="11.588784112630316"><ele>551.0</ele><time>2026-04-06T09:35:42Z</time></trkpt><trkpt lat="44.2064118902295" lon="11.5888388713743"><ele>551.0</ele><time>2026-04-06T09:35:45Z</time></trkpt><trkpt lat="44.20634143406048" lon="11.588902995595287"><ele>552.4285714285713</ele><time>2026-04-06T09:35:49Z</time></trkpt><trkpt lat="44.20629189225005" lon="11.588987194885613"><ele>553.8571428571429</ele><time>2026-04-06T09:35:53Z</time></trkpt><trkpt lat="44.20623047750678" lon="11.589021388672805"><ele>555.2857142857142</ele><time>2026-04-06T09:35:57Z</time></trkpt><trkpt lat="44.20616550333415" lon="11.58904382001633"><ele>556.7142857142857</ele><time>2026-04-06T09:36:01Z</time></trkpt><trkpt lat="44.20609125709317" lon="11.589038030799093"><ele>558.1428571428571</ele><time>2026-04-06T09:36:06Z</time></trkpt><trkpt lat="44.206027856941304" lon="11.589042501474257"><ele>559.5714285714286</ele><time>2026-04-06T09:36:10Z</time></trkpt><trkpt lat="44.20595727236306" lon="11.589080093502444"><ele>561.0</ele><time>2026-04-06T09:36:28Z</time></trkpt><trkpt lat="44.20588551824984" lon="11.589096346774749"><ele>561.0</ele><time>2026-04-06T09:36:32.999Z</time></trkpt><trkpt lat="44.20579949002513" lon="11.589112400783135"><ele>561.0</ele><time>2026-04-06T09:39:16.999Z</time></trkpt><trkpt lat="44.205739067407535" lon="11.589137168964394"><ele>561.0</ele><time>2026-04-06T09:39:22.999Z</time></trkpt><trkpt lat="44.20569172477678" lon="11.589072401430874"><ele>561.0</ele><time>2026-04-06T09:39:34.999Z</time></trkpt><trkpt lat="44.20562564500651" lon="11.589045090221557"><ele>561.0</ele><time>2026-04-06T09:39:41.999Z</time></trkpt><trkpt lat="44.20554529866001" lon="11.589062577439494"><ele>561.0</ele><time>2026-04-06T09:40:17Z</time></trkpt><trkpt lat="44.20547724768237" lon="11.589006554157171"><ele>561.0</ele><time>2026-04-06T09:40:35.999Z</time></trkpt><trkpt lat="44.205429637674044" lon="11.588938460343101"><ele>557.5</ele><time>2026-04-06T09:40:39.999Z</time></trkpt><trkpt lat="44.20535165888643" lon="11.588903276811168"><ele>554.0</ele><time>2026-04-06T09:40:42.999Z</time></trkpt><trkpt lat="44.20529104887741" lon="11.588851690095373"><ele>550.5</ele><time>2026-04-06T09:41:05.999Z</time></trkpt><trkpt lat="44.20518358298033" lon="11.588805872222592"><ele>547.0</ele><time>2026-04-06T09:41:29.999Z</time></trkpt><trkpt lat="44.205106838724355" lon="11.58874630210914"><ele>543.5</ele><time>2026-04-06T09:41:32.999Z</time></trkpt><trkpt lat="44.205048564919984" lon="11.588708550945908"><ele>540.0</ele><time>2026-04-06T09:41:34.999Z</time></trkpt><trkpt lat="44.20498082570981" lon="11.588694587004886"><ele>538.4</ele><time>2026-04-06T09:41:55.999Z</time></trkpt><trkpt lat="44.20489265332032" lon="11.588622988724689"><ele>536.8</ele><time>2026-04-06T09:41:59Z</time></trkpt><trkpt lat="44.20483253137999" lon="11.588573787364393"><ele>535.2</ele><time>2026-04-06T09:42:02Z</time></trkpt><trkpt lat="44.204779591051306" lon="11.588501970950745"><ele>533.6</ele><time>2026-04-06T09:42:04Z</time></trkpt><trkpt lat="44.20469357150527" lon="11.588446850208792"><ele>532.0</ele><time>2026-04-06T09:42:06Z</time></trkpt><trkpt lat="44.20458977073671" lon="11.58837433834338"><ele>531.3333333333334</ele><time>2026-04-06T09:42:08Z</time></trkpt><trkpt lat="44.204510015706184" lon="11.588306421706022"><ele>530.6666666666667</ele><time>2026-04-06T09:42:10Z</time></trkpt><trkpt lat="44.204452021422135" lon="11.588261447973766"><ele>530.0</ele><time>2026-04-06T09:42:11Z</time></trkpt><trkpt lat="44.20439382945643" lon="11.588206198183796"><ele>529.3333333333334</ele><time>2026-04-06T09:42:12Z</time></trkpt><trkpt lat="44.20433338070439" lon="11.588162962973879"><ele>528.6666666666666</ele><time>2026-04-06T09:42:13Z</time></trkpt><trkpt lat="44.20424812073656" lon="11.588114069787897"><ele>528.0</ele><time>2026-04-06T09:42:15Z</time></trkpt><trkpt lat="44.20416863752774" lon="11.58805198309271"><ele>528.0</ele><time>2026-04-06T09:42:19Z</time></trkpt><trkpt lat="44.20409768279895" lon="11.587998279924937"><ele>528.0</ele><time>2026-04-06T09:42:22Z</time></trkpt><trkpt lat="44.20405353016678" lon="11.58792983285677"><ele>528.0</ele><time>2026-04-06T09:42:26Z</time></trkpt><trkpt lat="44.2040015497893" lon="11.58786758616348"><ele>528.0</ele><time>2026-04-06T09:42:29Z</time></trkpt><trkpt lat="44.203928311027745" lon="11.587778467386771"><ele>528.0</ele><time>2026-04-06T09:42:30.999Z</time></trkpt><trkpt lat="44.203876748543884" lon="11.587652188892333"><ele>528.0</ele><time>2026-04-06T09:42:32.999Z</time></trkpt><trkpt lat="44.203833009036025" lon="11.58758097035497"><ele>525.5</ele><time>2026-04-06T09:42:34.999Z</time></trkpt><trkpt lat="44.20376907366077" lon="11.587479403539087"><ele>523.0</ele><time>2026-04-06T09:42:37.999Z</time></trkpt><trkpt lat="44.20371478384432" lon="11.587391443866123"><ele>520.5</ele><time>2026-04-06T09:42:39.999Z</time></trkpt><trkpt lat="44.20365394112273" lon="11.587298681209381"><ele>518.0</ele><time>2026-04-06T09:42:41.999Z</time></trkpt><trkpt lat="44.20359813657492" lon="11.587242866376922"><ele>515.5</ele><time>2026-04-06T09:42:43.999Z</time></trkpt><trkpt lat="44.20354372200506" lon="11.587177050001154"><ele>513.0</ele><time>2026-04-06T09:42:45.999Z</time></trkpt><trkpt lat="44.2034881808948" lon="11.587107546541024"><ele>513.0</ele><time>2026-04-06T09:42:47.999Z</time></trkpt><trkpt lat="44.20340754294206" lon="11.58703146858782"><ele>513.0</ele><time>2026-04-06T09:42:49.999Z</time></trkpt><trkpt lat="44.203380321753265" lon="11.587119054722372"><ele>513.0</ele><time>2026-04-06T09:43:07.999Z</time></trkpt><trkpt lat="44.20336832471612" lon="11.587241483130423"><ele>513.0</ele><time>2026-04-06T09:43:09.999Z</time></trkpt><trkpt lat="44.20338312368368" lon="11.587405514569712"><ele>513.0</ele><time>2026-04-06T09:43:11.999Z</time></trkpt><trkpt lat="44.20340742826031" lon="11.587527479920126"><ele>513.0</ele><time>2026-04-06T09:43:12.999Z</time></trkpt><trkpt lat="44.20340638670627" lon="11.587645511527217"><ele>513.0</ele><time>2026-04-06T09:43:13.999Z</time></trkpt><trkpt lat="44.20341700692997" lon="11.587741910875886"><ele>513.0</ele><time>2026-04-06T09:43:14.999Z</time></trkpt><trkpt lat="44.203429754770966" lon="11.587829783715662"><ele>513.0</ele><time>2026-04-06T09:43:15.999Z</time></trkpt><trkpt lat="44.20340933791413" lon="11.58798129542616"><ele>513.0</ele><time>2026-04-06T09:43:17.999Z</time></trkpt><trkpt lat="44.203404384264815" lon="11.588074253412724"><ele>513.0</ele><time>2026-04-06T09:43:19.999Z</time></trkpt><trkpt lat="44.203477677694686" lon="11.588203662875634"><ele>510.2</ele><time>2026-04-06T09:43:21.999Z</time></trkpt><trkpt lat="44.20353501436628" lon="11.588317949575234"><ele>507.4</ele><time>2026-04-06T09:43:23.999Z</time></trkpt><trkpt lat="44.20355780267245" lon="11.588410004352701"><ele>504.59999999999997</ele><time>2026-04-06T09:43:24.999Z</time></trkpt><trkpt lat="44.20358465012231" lon="11.588503564800089"><ele>501.79999999999995</ele><time>2026-04-06T09:43:25.999Z</time></trkpt><trkpt lat="44.203612458637025" lon="11.5886469053613"><ele>499.0</ele><time>2026-04-06T09:43:27.999Z</time></trkpt><trkpt lat="44.203690733180665" lon="11.588743818262214"><ele>499.33333333333337</ele><time>2026-04-06T09:43:29.999Z</time></trkpt><trkpt lat="44.203746728422075" lon="11.588798654202067"><ele>499.6666666666667</ele><time>2026-04-06T09:43:30.999Z</time></trkpt><trkpt lat="44.20383115787751" lon="11.588897779430365"><ele>500.0</ele><time>2026-04-06T09:43:32.999Z</time></trkpt><trkpt lat="44.20390095026074" lon="11.588943516328412"><ele>500.33333333333337</ele><time>2026-04-06T09:43:33.999Z</time></trkpt><trkpt lat="44.2039613446818" lon="11.5889844669413"><ele>500.6666666666667</ele><time>2026-04-06T09:43:34.999Z</time></trkpt><trkpt lat="44.20401454804625" lon="11.589073384379788"><ele>501.0</ele><time>2026-04-06T09:43:36.999Z</time></trkpt><trkpt lat="44.2040388667155" lon="11.589160255031155"><ele>501.0</ele><time>2026-04-06T09:43:37.999Z</time></trkpt><trkpt lat="44.204107190665326" lon="11.589344652262236"><ele>501.0</ele><time>2026-04-06T09:43:39.999Z</time></trkpt><trkpt lat="44.20415543544753" lon="11.589430335485426"><ele>501.0</ele><time>2026-04-06T09:43:40.999Z</time></trkpt><trkpt lat="44.20419759664064" lon="11.58951897312196"><ele>501.0</ele><time>2026-04-06T09:43:41.999Z</time></trkpt><trkpt lat="44.20423093897636" lon="11.589606211598893"><ele>501.0</ele><time>2026-04-06T09:43:42.999Z</time></trkpt><trkpt lat="44.20425873964857" lon="11.58969201572497"><ele>501.0</ele><time>2026-04-06T09:43:43.999Z</time></trkpt><trkpt lat="44.20434205473695" lon="11.58982699005883"><ele>497.8333333333333</ele><time>2026-04-06T09:43:45.999Z</time></trkpt><trkpt lat="44.20440361239346" lon="11.589887940025447"><ele>494.66666666666663</ele><time>2026-04-06T09:43:46.999Z</time></trkpt><trkpt lat="44.2044379876739" lon="11.58997552765918"><ele>491.5</ele><time>2026-04-06T09:43:47.999Z</time></trkpt><trkpt lat="44.20446769183017" lon="11.590076972423406"><ele>488.3333333333333</ele><time>2026-04-06T09:43:48.999Z</time></trkpt><trkpt lat="44.20449321020716" lon="11.590158785466437"><ele>485.16666666666663</ele><time>2026-04-06T09:43:49.999Z</time></trkpt><trkpt lat="44.20451442176182" lon="11.59028350797101"><ele>482.0</ele><time>2026-04-06T09:43:51.999Z</time></trkpt><trkpt lat="44.20451196364887" lon="11.59038247861407"><ele>481.99999999999994</ele><time>2026-04-06T09:43:53.999Z</time></trkpt><trkpt lat="44.204455961060255" lon="11.590309541125027"><ele>482.0</ele><time>2026-04-06T09:43:54.999Z</time></trkpt><trkpt lat="44.20439010862416" lon="11.590321765260327"><ele>482.0</ele><time>2026-04-06T09:43:56.999Z</time></trkpt><trkpt lat="44.20432683065082" lon="11.590330607331687"><ele>482.0</ele><time>2026-04-06T09:43:58.999Z</time></trkpt><trkpt lat="44.20425648176041" lon="11.59040362565918"><ele>481.99999999999994</ele><time>2026-04-06T09:44:00.999Z</time></trkpt><trkpt lat="44.20417779934687" lon="11.59048402448997"><ele>482.0</ele><time>2026-04-06T09:44:02.999Z</time></trkpt><trkpt lat="44.204083834851886" lon="11.590550079340794"><ele>481.99999999999994</ele><time>2026-04-06T09:44:04.999Z</time></trkpt><trkpt lat="44.20402072848863" lon="11.590588393348538"><ele>482.0</ele><time>2026-04-06T09:44:06.999Z</time></trkpt><trkpt lat="44.20391835509869" lon="11.590654355477326"><ele>482.0</ele><time>2026-04-06T09:44:08.999Z</time></trkpt><trkpt lat="44.20384674864901" lon="11.590706896287923"><ele>482.0</ele><time>2026-04-06T09:44:10.999Z</time></trkpt><trkpt lat="44.20378465595303" lon="11.59076460262316"><ele>481.99999999999994</ele><time>2026-04-06T09:44:13Z</time></trkpt><trkpt lat="44.203716809450725" lon="11.590830330520127"><ele>482.0</ele><time>2026-04-06T09:44:15Z</time></trkpt><trkpt lat="44.20366660439225" lon="11.590883885617847"><ele>482.28571428571433</ele><time>2026-04-06T09:44:19Z</time></trkpt><trkpt lat="44.20360591739853" lon="11.590912967222394"><ele>482.5714285714286</ele><time>2026-04-06T09:44:21.999Z</time></trkpt><trkpt lat="44.203582305720154" lon="11.591004364217092"><ele>482.8571428571429</ele><time>2026-04-06T09:44:22.999Z</time></trkpt><trkpt lat="44.2035373501029" lon="11.591083613757965"><ele>483.1428571428571</ele><time>2026-04-06T09:44:24.999Z</time></trkpt><trkpt lat="44.203471287420435" lon="11.591125066211273"><ele>483.4285714285714</ele><time>2026-04-06T09:44:27.999Z</time></trkpt><trkpt lat="44.20340915744603" lon="11.591165589841427"><ele>483.71428571428567</ele><time>2026-04-06T09:44:30.999Z</time></trkpt><trkpt lat="44.2033349226432" lon="11.59121093069381"><ele>484.0</ele><time>2026-04-06T09:44:32.999Z</time></trkpt><trkpt lat="44.20325098017006" lon="11.591249638030552"><ele>485.1666666666667</ele><time>2026-04-06T09:44:34.999Z</time></trkpt><trkpt lat="44.203156780951346" lon="11.59127782809859"><ele>486.33333333333337</ele><time>2026-04-06T09:44:36.999Z</time></trkpt><trkpt lat="44.20305231930675" lon="11.591285390889972"><ele>487.5</ele><time>2026-04-06T09:44:38.999Z</time></trkpt><trkpt lat="44.20296017129368" lon="11.591302680038938"><ele>488.66666666666663</ele><time>2026-04-06T09:44:40.999Z</time></trkpt><trkpt lat="44.202896802616294" lon="11.591316947724348"><ele>489.8333333333333</ele><time>2026-04-06T09:44:42.999Z</time></trkpt><trkpt lat="44.20282350419375" lon="11.591326414019315"><ele>491.0</ele><time>2026-04-06T09:44:44.999Z</time></trkpt><trkpt lat="44.202736461218315" lon="11.591351234207991"><ele>490.99999999999994</ele><time>2026-04-06T09:44:46.999Z</time></trkpt><trkpt lat="44.202669633275036" lon="11.591348924707846"><ele>491.0</ele><time>2026-04-06T09:44:47.999Z</time></trkpt><trkpt lat="44.202587196752205" lon="11.5913690282902"><ele>491.0</ele><time>2026-04-06T09:44:49.999Z</time></trkpt><trkpt lat="44.202488102215035" lon="11.591348618392397"><ele>491.0</ele><time>2026-04-06T09:44:51.999Z</time></trkpt><trkpt lat="44.202409783077144" lon="11.591323271907235"><ele>490.99999999999994</ele><time>2026-04-06T09:44:53.999Z</time></trkpt><trkpt lat="44.20234847291658" lon="11.59129259541092"><ele>491.0</ele><time>2026-04-06T09:44:55.999Z</time></trkpt><trkpt lat="44.20223827444526" lon="11.59130755999948"><ele>490.99999999999994</ele><time>2026-04-06T09:44:57.999Z</time></trkpt><trkpt lat="44.20217240159958" lon="11.591307648407279"><ele>491.0</ele><time>2026-04-06T09:44:58.999Z</time></trkpt><trkpt lat="44.2020801584395" lon="11.591285375892594"><ele>491.0</ele><time>2026-04-06T09:45:00.999Z</time></trkpt><trkpt lat="44.2020149648158" lon="11.591279525439349"><ele>491.0</ele><time>2026-04-06T09:45:03.999Z</time></trkpt><trkpt lat="44.20193753619459" lon="11.591263387441991"><ele>490.99999999999994</ele><time>2026-04-06T09:45:06.999Z</time></trkpt><trkpt lat="44.20186194779543" lon="11.591270997051971"><ele>491.0</ele><time>2026-04-06T09:45:09.999Z</time></trkpt><trkpt lat="44.20177998957824" lon="11.591283037323102"><ele>490.99999999999994</ele><time>2026-04-06T09:45:12.999Z</time></trkpt><trkpt lat="44.20171560710962" lon="11.591397328834313"><ele>491.0</ele><time>2026-04-06T09:45:16.999Z</time></trkpt><trkpt lat="44.201654718651795" lon="11.59146359101195"><ele>491.0</ele><time>2026-04-06T09:45:18.999Z</time></trkpt><trkpt lat="44.20157868725044" lon="11.591500091694556"><ele>491.0</ele><time>2026-04-06T09:45:20.999Z</time></trkpt><trkpt lat="44.20153261871437" lon="11.591588883626416"><ele>490.99999999999994</ele><time>2026-04-06T09:45:23.999Z</time></trkpt><trkpt lat="44.20146513687254" lon="11.591613681879029"><ele>491.0</ele><time>2026-04-06T09:45:26.999Z</time></trkpt><trkpt lat="44.20139086801361" lon="11.59160254978931"><ele>489.99999999999994</ele><time>2026-04-06T09:45:28.999Z</time></trkpt><trkpt lat="44.20129843580274" lon="11.591629041753105"><ele>489.0</ele><time>2026-04-06T09:45:30.999Z</time></trkpt><trkpt lat="44.201218271006944" lon="11.59167234159066"><ele>488.0</ele><time>2026-04-06T09:45:32.999Z</time></trkpt><trkpt lat="44.20114268891115" lon="11.591675830173106"><ele>487.0</ele><time>2026-04-06T09:45:37.999Z</time></trkpt><trkpt lat="44.20105658790978" lon="11.591693496294234"><ele>485.99999999999994</ele><time>2026-04-06T09:45:41.999Z</time></trkpt><trkpt lat="44.20097834520227" lon="11.591645125111684"><ele>485.0</ele><time>2026-04-06T09:45:45.999Z</time></trkpt><trkpt lat="44.2008621999224" lon="11.591685650943521"><ele>484.99999999999994</ele><time>2026-04-06T09:45:47.999Z</time></trkpt><trkpt lat="44.20076792761855" lon="11.591685034512473"><ele>485.0</ele><time>2026-04-06T09:45:49.999Z</time></trkpt><trkpt lat="44.200701117145144" lon="11.591652575933935"><ele>485.0</ele><time>2026-04-06T09:45:50.999Z</time></trkpt><trkpt lat="44.20060220451193" lon="11.591637594059483"><ele>485.0</ele><time>2026-04-06T09:45:52.999Z</time></trkpt><trkpt lat="44.2005214643112" lon="11.591663247731944"><ele>484.99999999999994</ele><time>2026-04-06T09:45:54.999Z</time></trkpt><trkpt lat="44.200425999177796" lon="11.591684968318985"><ele>485.0</ele><time>2026-04-06T09:45:56.999Z</time></trkpt><trkpt lat="44.20031861675029" lon="11.591693923005169"><ele>484.49999999999994</ele><time>2026-04-06T09:45:58.999Z</time></trkpt><trkpt lat="44.20023837314215" lon="11.591691318332078"><ele>484.0</ele><time>2026-04-06T09:46:00.999Z</time></trkpt><trkpt lat="44.20015287900813" lon="11.591679292205857"><ele>483.5</ele><time>2026-04-06T09:46:02.999Z</time></trkpt><trkpt lat="44.200054365916046" lon="11.591684669441563"><ele>483.0</ele><time>2026-04-06T09:46:04.999Z</time></trkpt><trkpt lat="44.19996974885803" lon="11.591590349721349"><ele>482.49999999999994</ele><time>2026-04-06T09:46:07.999Z</time></trkpt><trkpt lat="44.19994132788639" lon="11.59166998963363"><ele>482.0</ele><time>2026-04-06T09:46:12Z</time></trkpt><trkpt lat="44.199903526000156" lon="11.591749820251087"><ele>481.99999999999994</ele><time>2026-04-06T09:46:15Z</time></trkpt><trkpt lat="44.19988178720088" lon="11.591846113252803"><ele>482.0</ele><time>2026-04-06T09:46:18Z</time></trkpt><trkpt lat="44.19985860036817" lon="11.591959916242134"><ele>482.0</ele><time>2026-04-06T09:46:21Z</time></trkpt><trkpt lat="44.19984388468243" lon="11.592090215362331"><ele>482.0</ele><time>2026-04-06T09:46:24Z</time></trkpt><trkpt lat="44.1998357766736" lon="11.592190508904595"><ele>481.99999999999994</ele><time>2026-04-06T09:46:26Z</time></trkpt><trkpt lat="44.19980100040293" lon="11.59226714447913"><ele>482.0</ele><time>2026-04-06T09:46:28Z</time></trkpt><trkpt lat="44.199772183260514" lon="11.59237546242733"><ele>480.20000000000005</ele><time>2026-04-06T09:46:30Z</time></trkpt><trkpt lat="44.19971060058126" lon="11.59242457204205"><ele>478.40000000000003</ele><time>2026-04-06T09:46:33Z</time></trkpt><trkpt lat="44.19963306105549" lon="11.592485482600537"><ele>476.59999999999997</ele><time>2026-04-06T09:46:34.999Z</time></trkpt><trkpt lat="44.19955277002526" lon="11.592528801980851"><ele>474.79999999999995</ele><time>2026-04-06T09:46:36.999Z</time></trkpt><trkpt lat="44.1994931437327" lon="11.592565807545474"><ele>473.0</ele><time>2026-04-06T09:46:37.999Z</time></trkpt><trkpt lat="44.19937801853535" lon="11.592696347318965"><ele>473.0</ele><time>2026-04-06T09:46:39.999Z</time></trkpt><trkpt lat="44.19931756964061" lon="11.59273622734456"><ele>472.99999999999994</ele><time>2026-04-06T09:46:40.999Z</time></trkpt><trkpt lat="44.199211283824674" lon="11.59280021239509"><ele>472.99999999999994</ele><time>2026-04-06T09:46:42.999Z</time></trkpt><trkpt lat="44.19912285504242" lon="11.59283548862352"><ele>473.0</ele><time>2026-04-06T09:46:44.999Z</time></trkpt><trkpt lat="44.19902670143406" lon="11.592816663270147"><ele>473.0</ele><time>2026-04-06T09:46:46.999Z</time></trkpt><trkpt lat="44.19893746675428" lon="11.59280456524081"><ele>473.3333333333333</ele><time>2026-04-06T09:46:48.999Z</time></trkpt><trkpt lat="44.19886217213876" lon="11.59277683737846"><ele>473.66666666666663</ele><time>2026-04-06T09:46:50.999Z</time></trkpt><trkpt lat="44.19877840579584" lon="11.592774542590275"><ele>474.0</ele><time>2026-04-06T09:46:53.999Z</time></trkpt><trkpt lat="44.198711810357935" lon="11.592752247292832"><ele>474.33333333333337</ele><time>2026-04-06T09:46:55.999Z</time></trkpt><trkpt lat="44.19863009379379" lon="11.592713258924901"><ele>474.6666666666667</ele><time>2026-04-06T09:46:58.999Z</time></trkpt><trkpt lat="44.19855125615431" lon="11.592699092950756"><ele>475.0</ele><time>2026-04-06T09:47:00.999Z</time></trkpt><trkpt lat="44.19848801688129" lon="11.592670627061642"><ele>475.00000000000006</ele><time>2026-04-06T09:47:03.999Z</time></trkpt><trkpt lat="44.198427187060396" lon="11.59264801193405"><ele>475.0</ele><time>2026-04-06T09:47:05.999Z</time></trkpt><trkpt lat="44.19834104417009" lon="11.592621765642857"><ele>475.0</ele><time>2026-04-06T09:47:07.999Z</time></trkpt><trkpt lat="44.19824728213316" lon="11.592609148462165"><ele>475.0</ele><time>2026-04-06T09:47:09.999Z</time></trkpt><trkpt lat="44.19817422053974" lon="11.592586134339452"><ele>475.00000000000006</ele><time>2026-04-06T09:47:12.999Z</time></trkpt><trkpt lat="44.198104036113826" lon="11.59255791342719"><ele>475.0</ele><time>2026-04-06T09:47:14.999Z</time></trkpt><trkpt lat="44.198024504444184" lon="11.592528960936004"><ele>475.1666666666667</ele><time>2026-04-06T09:47:16.999Z</time></trkpt><trkpt lat="44.19794431457084" lon="11.592511054722525"><ele>475.33333333333337</ele><time>2026-04-06T09:47:18.999Z</time></trkpt><trkpt lat="44.19783620321087" lon="11.592521640336622"><ele>475.5</ele><time>2026-04-06T09:47:20.999Z</time></trkpt><trkpt lat="44.19777097402892" lon="11.59249494557987"><ele>475.66666666666663</ele><time>2026-04-06T09:47:22.999Z</time></trkpt><trkpt lat="44.19770539228718" lon="11.59246275907552"><ele>475.8333333333333</ele><time>2026-04-06T09:47:24.999Z</time></trkpt><trkpt lat="44.1976443469733" lon="11.592410236205131"><ele>476.0</ele><time>2026-04-06T09:47:27.999Z</time></trkpt><trkpt lat="44.19756689182269" lon="11.592416172439906"><ele>475.99999999999994</ele><time>2026-04-06T09:47:30.999Z</time></trkpt><trkpt lat="44.197480113862" lon="11.592467581542712"><ele>476.0</ele><time>2026-04-06T09:47:32.999Z</time></trkpt><trkpt lat="44.19741156494221" lon="11.59251175668025"><ele>476.0</ele><time>2026-04-06T09:47:34.999Z</time></trkpt><trkpt lat="44.19733543014076" lon="11.592541751714405"><ele>476.0</ele><time>2026-04-06T09:47:36.999Z</time></trkpt><trkpt lat="44.19726155413502" lon="11.592546290450576"><ele>475.99999999999994</ele><time>2026-04-06T09:47:38.999Z</time></trkpt><trkpt lat="44.197165617244444" lon="11.592557400822509"><ele>476.0</ele><time>2026-04-06T09:47:40.999Z</time></trkpt><trkpt lat="44.19710158384907" lon="11.592563544880237"><ele>473.8333333333333</ele><time>2026-04-06T09:47:42.999Z</time></trkpt><trkpt lat="44.19703131664436" lon="11.592558144234099"><ele>471.66666666666663</ele><time>2026-04-06T09:47:44.999Z</time></trkpt><trkpt lat="44.19697110065406" lon="11.592609780141675"><ele>469.5</ele><time>2026-04-06T09:47:48.999Z</time></trkpt><trkpt lat="44.196855299367975" lon="11.592709064035715"><ele>467.33333333333337</ele><time>2026-04-06T09:48:01.999Z</time></trkpt><trkpt lat="44.196798121851266" lon="11.59274610607053"><ele>465.1666666666667</ele><time>2026-04-06T09:48:03.999Z</time></trkpt><trkpt lat="44.19672022154596" lon="11.592805767882416"><ele>463.0</ele><time>2026-04-06T09:48:05.999Z</time></trkpt><trkpt lat="44.19664414265461" lon="11.592857214337156"><ele>461.59999999999997</ele><time>2026-04-06T09:48:07.999Z</time></trkpt><trkpt lat="44.19658180447995" lon="11.592916483405762"><ele>460.19999999999993</ele><time>2026-04-06T09:48:09.999Z</time></trkpt><trkpt lat="44.196477521714485" lon="11.592990394946652"><ele>458.8</ele><time>2026-04-06T09:48:11.999Z</time></trkpt><trkpt lat="44.1964210904077" lon="11.593031324642483"><ele>457.4</ele><time>2026-04-06T09:48:12.999Z</time></trkpt><trkpt lat="44.196340581914946" lon="11.593106410417674"><ele>456.0</ele><time>2026-04-06T09:48:15Z</time></trkpt><trkpt lat="44.19624545938478" lon="11.59319671171941"><ele>459.20000000000005</ele><time>2026-04-06T09:48:17Z</time></trkpt><trkpt lat="44.19617126765031" lon="11.593286823366173"><ele>462.40000000000003</ele><time>2026-04-06T09:48:19Z</time></trkpt><trkpt lat="44.19607637134155" lon="11.593357306156976"><ele>465.6</ele><time>2026-04-06T09:48:21Z</time></trkpt><trkpt lat="44.19599138857494" lon="11.593401018886949"><ele>468.8</ele><time>2026-04-06T09:48:23Z</time></trkpt><trkpt lat="44.19589486716717" lon="11.593442341032691"><ele>472.0</ele><time>2026-04-06T09:48:25Z</time></trkpt><trkpt lat="44.19577959622617" lon="11.593490085616214"><ele>472.0</ele><time>2026-04-06T09:48:27Z</time></trkpt><trkpt lat="44.1957134464226" lon="11.593535294127959"><ele>472.0</ele><time>2026-04-06T09:48:28Z</time></trkpt><trkpt lat="44.19564738154864" lon="11.593579540170856"><ele>472.0</ele><time>2026-04-06T09:48:29Z</time></trkpt><trkpt lat="44.195585418328406" lon="11.593626079105839"><ele>472.0</ele><time>2026-04-06T09:48:30Z</time></trkpt><trkpt lat="44.19552904098777" lon="11.593675398820546"><ele>472.0</ele><time>2026-04-06T09:48:31Z</time></trkpt><trkpt lat="44.19545706763909" lon="11.593729413671936"><ele>472.0</ele><time>2026-04-06T09:48:32Z</time></trkpt><trkpt lat="44.195383111263" lon="11.59376847053882"><ele>472.0</ele><time>2026-04-06T09:48:33Z</time></trkpt><trkpt lat="44.19526758707798" lon="11.593799446589227"><ele>468.6</ele><time>2026-04-06T09:48:35Z</time></trkpt><trkpt lat="44.19519403810075" lon="11.593821593695067"><ele>465.20000000000005</ele><time>2026-04-06T09:48:36Z</time></trkpt><trkpt lat="44.19512062982782" lon="11.593840065932788"><ele>461.8</ele><time>2026-04-06T09:48:37Z</time></trkpt><trkpt lat="44.195045251792" lon="11.59385722956281"><ele>458.4</ele><time>2026-04-06T09:48:38Z</time></trkpt><trkpt lat="44.19493045205591" lon="11.593865950388853"><ele>455.0</ele><time>2026-04-06T09:48:40Z</time></trkpt><trkpt lat="44.1947968113464" lon="11.593910884383257"><ele>453.6</ele><time>2026-04-06T09:48:42Z</time></trkpt><trkpt lat="44.19472398137455" lon="11.593958160564283"><ele>452.2</ele><time>2026-04-06T09:48:42.999Z</time></trkpt><trkpt lat="44.19463822897748" lon="11.594008573811646"><ele>450.79999999999995</ele><time>2026-04-06T09:48:43.999Z</time></trkpt><trkpt lat="44.19454711773146" lon="11.594072937838662"><ele>449.4</ele><time>2026-04-06T09:48:44.999Z</time></trkpt><trkpt lat="44.19446925753238" lon="11.594109851774972"><ele>448.0</ele><time>2026-04-06T09:48:45.999Z</time></trkpt><trkpt lat="44.194390171199565" lon="11.594178269651886"><ele>448.00000000000006</ele><time>2026-04-06T09:48:46.999Z</time></trkpt><trkpt lat="44.19431147235131" lon="11.59425032177054"><ele>448.0</ele><time>2026-04-06T09:48:47.999Z</time></trkpt><trkpt lat="44.19423640559489" lon="11.594324363437572"><ele>448.0</ele><time>2026-04-06T09:48:48.999Z</time></trkpt><trkpt lat="44.1941803091465" lon="11.594388351630215"><ele>448.0</ele><time>2026-04-06T09:48:49.999Z</time></trkpt><trkpt lat="44.1941314289596" lon="11.59444490208631"><ele>448.00000000000006</ele><time>2026-04-06T09:48:50.999Z</time></trkpt><trkpt lat="44.19408088197756" lon="11.59450597961983"><ele>448.0</ele><time>2026-04-06T09:48:51.999Z</time></trkpt><trkpt lat="44.19404100148245" lon="11.594604218677537"><ele>446.1666666666667</ele><time>2026-04-06T09:48:53.999Z</time></trkpt><trkpt lat="44.194035469434" lon="11.59474275373255"><ele>444.33333333333337</ele><time>2026-04-06T09:49:57.999Z</time></trkpt><trkpt lat="44.193968621944016" lon="11.594767488736387"><ele>442.5</ele><time>2026-04-06T09:50:02.999Z</time></trkpt><trkpt lat="44.19391410841287" lon="11.59486170257801"><ele>440.66666666666663</ele><time>2026-04-06T09:50:06.999Z</time></trkpt><trkpt lat="44.19388250951871" lon="11.594949690851333"><ele>438.8333333333333</ele><time>2026-04-06T09:50:09.999Z</time></trkpt><trkpt lat="44.19385900834146" lon="11.595041929941125"><ele>437.0</ele><time>2026-04-06T09:50:12.999Z</time></trkpt><trkpt lat="44.19384551491313" lon="11.595136890703584"><ele>431.49999999999994</ele><time>2026-04-06T09:50:14.999Z</time></trkpt><trkpt lat="44.19380463667888" lon="11.595207165817587"><ele>426.0</ele><time>2026-04-06T09:50:16.999Z</time></trkpt><trkpt lat="44.19375995437056" lon="11.595319053037613"><ele>420.5</ele><time>2026-04-06T09:50:21Z</time></trkpt><trkpt lat="44.19372042041566" lon="11.595403412016445"><ele>415.0</ele><time>2026-04-06T09:50:26Z</time></trkpt><trkpt lat="44.19370026255631" lon="11.595519550007479"><ele>409.49999999999994</ele><time>2026-04-06T09:50:45Z</time></trkpt><trkpt lat="44.193662126228176" lon="11.595589677036573"><ele>404.0</ele><time>2026-04-06T09:50:58.999Z</time></trkpt><trkpt lat="44.19363508528699" lon="11.59568537876802"><ele>403.7142857142857</ele><time>2026-04-06T09:51:04.999Z</time></trkpt><trkpt lat="44.193573447125715" lon="11.595743842022024"><ele>403.42857142857144</ele><time>2026-04-06T09:51:09.999Z</time></trkpt><trkpt lat="44.193519830789164" lon="11.595806879608089"><ele>403.1428571428571</ele><time>2026-04-06T09:51:14.999Z</time></trkpt><trkpt lat="44.19345784981419" lon="11.595879353278544"><ele>402.8571428571429</ele><time>2026-04-06T09:51:55.999Z</time></trkpt><trkpt lat="44.19339503269254" lon="11.595930991457205"><ele>402.5714285714286</ele><time>2026-04-06T09:52:01.999Z</time></trkpt><trkpt lat="44.19335310929036" lon="11.596011684274677"><ele>402.2857142857143</ele><time>2026-04-06T09:52:15.999Z</time></trkpt><trkpt lat="44.193317961683434" lon="11.596093199604752"><ele>402.0</ele><time>2026-04-06T09:52:33Z</time></trkpt><trkpt lat="44.19325766931559" lon="11.596165275237883"><ele>401.6666666666667</ele><time>2026-04-06T09:52:37Z</time></trkpt><trkpt lat="44.19319203098562" lon="11.596217007344563"><ele>401.33333333333337</ele><time>2026-04-06T09:52:41Z</time></trkpt><trkpt lat="44.19312711473361" lon="11.59626389278197"><ele>401.0</ele><time>2026-04-06T09:52:46Z</time></trkpt><trkpt lat="44.19305987002966" lon="11.596308960622672"><ele>400.6666666666667</ele><time>2026-04-06T09:52:50Z</time></trkpt><trkpt lat="44.19299110856013" lon="11.596319782315874"><ele>400.33333333333337</ele><time>2026-04-06T09:52:52.999Z</time></trkpt><trkpt lat="44.19291654217974" lon="11.596362507475726"><ele>400.0</ele><time>2026-04-06T09:52:57.999Z</time></trkpt><trkpt lat="44.192839957732076" lon="11.59637662756953"><ele>395.83333333333337</ele><time>2026-04-06T09:53:00.999Z</time></trkpt><trkpt lat="44.192762058707" lon="11.59639990044321"><ele>391.6666666666667</ele><time>2026-04-06T09:53:04.999Z</time></trkpt><trkpt lat="44.19269336030487" lon="11.596409473198735"><ele>387.5</ele><time>2026-04-06T09:53:08.999Z</time></trkpt><trkpt lat="44.192620770750096" lon="11.596439379548016"><ele>383.33333333333337</ele><time>2026-04-06T09:53:11.999Z</time></trkpt><trkpt lat="44.19255329426751" lon="11.596442701834277"><ele>379.1666666666667</ele><time>2026-04-06T09:53:14.999Z</time></trkpt><trkpt lat="44.19247366039204" lon="11.59645519296528"><ele>375.0</ele><time>2026-04-06T09:53:18.999Z</time></trkpt><trkpt lat="44.19239148400531" lon="11.596525004323867"><ele>375.0</ele><time>2026-04-06T09:54:31.999Z</time></trkpt><trkpt lat="44.19235731316103" lon="11.596603419004495"><ele>375.0</ele><time>2026-04-06T09:54:38Z</time></trkpt><trkpt lat="44.1923226889352" lon="11.59668041646566"><ele>375.0</ele><time>2026-04-06T09:54:50.999Z</time></trkpt><trkpt lat="44.192281522572394" lon="11.596768329748363"><ele>375.0</ele><time>2026-04-06T09:54:54.999Z</time></trkpt><trkpt lat="44.19226955959799" lon="11.59688175347238"><ele>375.0</ele><time>2026-04-06T09:54:58.999Z</time></trkpt><trkpt lat="44.19223853913913" lon="11.596980314448494"><ele>375.0</ele><time>2026-04-06T09:55:12.999Z</time></trkpt><trkpt lat="44.19224028321037" lon="11.597100332843342"><ele>367.2857142857143</ele><time>2026-04-06T09:55:15.999Z</time></trkpt><trkpt lat="44.19223533044926" lon="11.597211013033503"><ele>359.57142857142856</ele><time>2026-04-06T09:55:17.999Z</time></trkpt><trkpt lat="44.19222026981356" lon="11.597309212389488"><ele>351.85714285714283</ele><time>2026-04-06T09:55:28.999Z</time></trkpt><trkpt lat="44.19220563151653" lon="11.597403368035744"><ele>344.1428571428571</ele><time>2026-04-06T09:55:30.999Z</time></trkpt><trkpt lat="44.19222199657007" lon="11.597507434130089"><ele>336.42857142857144</ele><time>2026-04-06T09:55:34.999Z</time></trkpt><trkpt lat="44.19224585891125" lon="11.597606942965022"><ele>328.71428571428567</ele><time>2026-04-06T09:56:01.999Z</time></trkpt><trkpt lat="44.192192130771254" lon="11.597659824342886"><ele>321.0</ele><time>2026-04-06T09:56:07.999Z</time></trkpt><trkpt lat="44.19212880365863" lon="11.597635797758137"><ele>320.99999999999994</ele><time>2026-04-06T09:56:13.999Z</time></trkpt><trkpt lat="44.192062021884524" lon="11.597661849162678"><ele>321.0</ele><time>2026-04-06T09:56:20.999Z</time></trkpt><trkpt lat="44.19200867719297" lon="11.597726192404556"><ele>321.0</ele><time>2026-04-06T09:56:32.999Z</time></trkpt><trkpt lat="44.19197403541787" lon="11.597809667734712"><ele>321.0</ele><time>2026-04-06T09:56:36.999Z</time></trkpt><trkpt lat="44.19191367841118" lon="11.597845633749335"><ele>321.0</ele><time>2026-04-06T09:56:43.999Z</time></trkpt><trkpt lat="44.191868521207596" lon="11.597922082204542"><ele>320.99999999999994</ele><time>2026-04-06T09:56:46.999Z</time></trkpt><trkpt lat="44.19181741036427" lon="11.597990221675417"><ele>321.0</ele><time>2026-04-06T09:56:49.999Z</time></trkpt><trkpt lat="44.191779246703284" lon="11.598074962468164"><ele>320.71428571428567</ele><time>2026-04-06T09:56:52.999Z</time></trkpt><trkpt lat="44.19174599243702" lon="11.598150430923098"><ele>320.42857142857144</ele><time>2026-04-06T09:56:56.999Z</time></trkpt><trkpt lat="44.19167693333093" lon="11.598187593362814"><ele>320.1428571428571</ele><time>2026-04-06T09:57:04.999Z</time></trkpt><trkpt lat="44.1916265781122" lon="11.598257075713846"><ele>319.85714285714283</ele><time>2026-04-06T09:57:08.999Z</time></trkpt><trkpt lat="44.19159084361094" lon="11.59838282615677"><ele>319.57142857142856</ele><time>2026-04-06T09:57:12.999Z</time></trkpt><trkpt lat="44.19157102466365" lon="11.598467842811875"><ele>319.2857142857143</ele><time>2026-04-06T09:57:16.999Z</time></trkpt><trkpt lat="44.191544336610306" lon="11.598555020998921"><ele>319.0</ele><time>2026-04-06T09:57:35.999Z</time></trkpt><trkpt lat="44.19148552544971" lon="11.598604218716991"><ele>310.8333333333333</ele><time>2026-04-06T09:57:42.999Z</time></trkpt><trkpt lat="44.19144379778944" lon="11.598695003955502"><ele>302.66666666666663</ele><time>2026-04-06T09:57:46.999Z</time></trkpt><trkpt lat="44.19140448221489" lon="11.598786188986718"><ele>294.5</ele><time>2026-04-06T09:57:49.999Z</time></trkpt><trkpt lat="44.191371343832195" lon="11.598862231301725"><ele>286.3333333333333</ele><time>2026-04-06T09:57:52.999Z</time></trkpt><trkpt lat="44.19134841480666" lon="11.598986809427174"><ele>278.1666666666667</ele><time>2026-04-06T09:58:15.999Z</time></trkpt><trkpt lat="44.191357452828214" lon="11.599092120880886"><ele>270.0</ele><time>2026-04-06T09:58:59Z</time></trkpt><trkpt lat="44.19132083823116" lon="11.59919460561383"><ele>270.0</ele><time>2026-04-06T09:59:03Z</time></trkpt><trkpt lat="44.19128399782203" lon="11.599295440542265"><ele>270.0</ele><time>2026-04-06T09:59:07Z</time></trkpt><trkpt lat="44.191227907541354" lon="11.599367468720544"><ele>270.0</ele><time>2026-04-06T09:59:10Z</time></trkpt><trkpt lat="44.19121205956003" lon="11.599490340269137"><ele>270.0</ele><time>2026-04-06T09:59:13Z</time></trkpt><trkpt lat="44.19120863876277" lon="11.59961571263026"><ele>270.0</ele><time>2026-04-06T09:59:15Z</time></trkpt><trkpt lat="44.19120967590115" lon="11.599745533319577"><ele>270.0</ele><time>2026-04-06T09:59:17Z</time></trkpt><trkpt lat="44.19122382580785" lon="11.599842676449319"><ele>269.1666666666667</ele><time>2026-04-06T09:59:21Z</time></trkpt><trkpt lat="44.191177573114935" lon="11.599908484244935"><ele>268.3333333333333</ele><time>2026-04-06T09:59:24Z</time></trkpt><trkpt lat="44.191086768044535" lon="11.599913217046588"><ele>267.5</ele><time>2026-04-06T09:59:26Z</time></trkpt><trkpt lat="44.19102714943776" lon="11.599972690939492"><ele>266.66666666666663</ele><time>2026-04-06T09:59:28Z</time></trkpt><trkpt lat="44.19101395423616" lon="11.600113656734846"><ele>265.8333333333333</ele><time>2026-04-06T09:59:30Z</time></trkpt><trkpt lat="44.19100374558708" lon="11.600262348186217"><ele>265.0</ele><time>2026-04-06T09:59:32Z</time></trkpt><trkpt lat="44.19098248249643" lon="11.600347324544732"><ele>265.0</ele><time>2026-04-06T09:59:33Z</time></trkpt><trkpt lat="44.19095484987801" lon="11.600521284435555"><ele>265.0</ele><time>2026-04-06T09:59:35Z</time></trkpt><trkpt lat="44.19096070795478" lon="11.600678367022189"><ele>265.0</ele><time>2026-04-06T09:59:37Z</time></trkpt><trkpt lat="44.190965158952" lon="11.60078121127018"><ele>265.0</ele><time>2026-04-06T09:59:39Z</time></trkpt><trkpt lat="44.19092576920628" lon="11.600909440974053"><ele>265.0</ele><time>2026-04-06T09:59:41Z</time></trkpt><trkpt lat="44.19086685256312" lon="11.601029343229845"><ele>262.8</ele><time>2026-04-06T09:59:43Z</time></trkpt><trkpt lat="44.19084191603939" lon="11.60118442048665"><ele>260.6</ele><time>2026-04-06T09:59:45Z</time></trkpt><trkpt lat="44.19087074837983" lon="11.60135292830707"><ele>258.4</ele><time>2026-04-06T09:59:47Z</time></trkpt><trkpt lat="44.190922725148816" lon="11.60150427379457"><ele>256.2</ele><time>2026-04-06T09:59:49Z</time></trkpt><trkpt lat="44.1909978813869" lon="11.6015339209165"><ele>254.0</ele><time>2026-04-06T09:59:51Z</time></trkpt><trkpt lat="44.19104874285913" lon="11.601478441691244"><ele>254.0</ele><time>2026-04-06T09:59:54Z</time></trkpt><trkpt lat="44.19105404986554" lon="11.601628995765392"><ele>253.99999999999997</ele><time>2026-04-06T10:00:35Z</time></trkpt><trkpt lat="44.191112081950784" lon="11.601688198342403"><ele>253.99999999999997</ele><time>2026-04-06T10:00:37Z</time></trkpt><trkpt lat="44.19119025559121" lon="11.601742840367127"><ele>254.0</ele><time>2026-04-06T10:00:39Z</time></trkpt><trkpt lat="44.19129237516754" lon="11.601801462658416"><ele>254.0</ele><time>2026-04-06T10:00:41Z</time></trkpt><trkpt lat="44.19141846337035" lon="11.601859370464101"><ele>254.00000000000003</ele><time>2026-04-06T10:00:43Z</time></trkpt><trkpt lat="44.19148919431729" lon="11.60188918084623"><ele>254.0</ele><time>2026-04-06T10:00:44Z</time></trkpt><trkpt lat="44.191565343047714" lon="11.601910479818242"><ele>254.0</ele><time>2026-04-06T10:00:45Z</time></trkpt><trkpt lat="44.19164256212352" lon="11.601914980344441"><ele>254.0</ele><time>2026-04-06T10:00:46Z</time></trkpt><trkpt lat="44.191718439860054" lon="11.601898311499854"><ele>254.00000000000003</ele><time>2026-04-06T10:00:47Z</time></trkpt><trkpt lat="44.19179210435358" lon="11.601874114764756"><ele>254.0</ele><time>2026-04-06T10:00:48Z</time></trkpt><trkpt lat="44.1918663484472" lon="11.601863487685357"><ele>255.28571428571428</ele><time>2026-04-06T10:00:49Z</time></trkpt><trkpt lat="44.19193977896433" lon="11.601851700765202"><ele>256.57142857142856</ele><time>2026-04-06T10:00:50Z</time></trkpt><trkpt lat="44.19201250571223" lon="11.601842054834934"><ele>257.85714285714283</ele><time>2026-04-06T10:00:51Z</time></trkpt><trkpt lat="44.19208767834858" lon="11.601834256881927"><ele>259.1428571428571</ele><time>2026-04-06T10:00:52Z</time></trkpt><trkpt lat="44.19216154346334" lon="11.601824829747645"><ele>260.4285714285714</ele><time>2026-04-06T10:00:53Z</time></trkpt><trkpt lat="44.192236240625654" lon="11.60180789536501"><ele>261.7142857142857</ele><time>2026-04-06T10:00:54Z</time></trkpt><trkpt lat="44.19230824418264" lon="11.601793454113006"><ele>263.0</ele><time>2026-04-06T10:00:55Z</time></trkpt><trkpt lat="44.19238219289201" lon="11.601781385540148"><ele>263.0</ele><time>2026-04-06T10:00:56Z</time></trkpt><trkpt lat="44.19245527432986" lon="11.601773041509029"><ele>263.0</ele><time>2026-04-06T10:00:57Z</time></trkpt><trkpt lat="44.19252804687324" lon="11.601761627343137"><ele>263.0</ele><time>2026-04-06T10:00:58Z</time></trkpt><trkpt lat="44.19259721300558" lon="11.60175160765888"><ele>263.0</ele><time>2026-04-06T10:00:59Z</time></trkpt><trkpt lat="44.19266648142776" lon="11.601742463629938"><ele>263.0</ele><time>2026-04-06T10:01:00Z</time></trkpt><trkpt lat="44.19273528060003" lon="11.601726130273674"><ele>263.0</ele><time>2026-04-06T10:01:01Z</time></trkpt><trkpt lat="44.192802167055405" lon="11.601706350071328"><ele>263.0</ele><time>2026-04-06T10:01:02Z</time></trkpt><trkpt lat="44.192870859920696" lon="11.601692279565567"><ele>263.0</ele><time>2026-04-06T10:01:03Z</time></trkpt><trkpt lat="44.19294000625204" lon="11.60168108510984"><ele>263.0</ele><time>2026-04-06T10:01:04Z</time></trkpt><trkpt lat="44.193007185601026" lon="11.601668299393378"><ele>263.0</ele><time>2026-04-06T10:01:05Z</time></trkpt><trkpt lat="44.19307418941955" lon="11.601657141734927"><ele>263.0</ele><time>2026-04-06T10:01:06Z</time></trkpt><trkpt lat="44.19314139187326" lon="11.601644083648903"><ele>263.0</ele><time>2026-04-06T10:01:07Z</time></trkpt><trkpt lat="44.19326787164685" lon="11.601629697028187"><ele>263.0</ele><time>2026-04-06T10:01:09Z</time></trkpt><trkpt lat="44.19333103513372" lon="11.601615916590326"><ele>262.83333333333337</ele><time>2026-04-06T10:01:10Z</time></trkpt><trkpt lat="44.193454003179255" lon="11.601584186348312"><ele>262.6666666666667</ele><time>2026-04-06T10:01:12Z</time></trkpt><trkpt lat="44.19351782270854" lon="11.601580850762232"><ele>262.5</ele><time>2026-04-06T10:01:13Z</time></trkpt><trkpt lat="44.19358446323809" lon="11.601588923533177"><ele>262.3333333333333</ele><time>2026-04-06T10:01:14Z</time></trkpt><trkpt lat="44.19365019012373" lon="11.601608742513704"><ele>262.16666666666663</ele><time>2026-04-06T10:01:15Z</time></trkpt><trkpt lat="44.193713116435475" lon="11.60164795038666"><ele>262.0</ele><time>2026-04-06T10:01:16Z</time></trkpt><trkpt lat="44.19375491848884" lon="11.601725431001237"><ele>262.0</ele><time>2026-04-06T10:01:18Z</time></trkpt><trkpt lat="44.19382581194543" lon="11.6017597728655"><ele>262.0</ele><time>2026-04-06T10:01:20Z</time></trkpt><trkpt lat="44.19391480569077" lon="11.601753466371509"><ele>262.0</ele><time>2026-04-06T10:01:22Z</time></trkpt><trkpt lat="44.19401601382097" lon="11.60170836117414"><ele>262.0</ele><time>2026-04-06T10:01:24Z</time></trkpt><trkpt lat="44.194135416410404" lon="11.601673448309073"><ele>262.0</ele><time>2026-04-06T10:01:26Z</time></trkpt><trkpt lat="44.19424738825544" lon="11.601627415252445"><ele>260.8</ele><time>2026-04-06T10:01:28Z</time></trkpt><trkpt lat="44.194352776819926" lon="11.601590949413632"><ele>259.6</ele><time>2026-04-06T10:01:30Z</time></trkpt><trkpt lat="44.194443961373516" lon="11.601555681205378"><ele>258.40000000000003</ele><time>2026-04-06T10:01:32Z</time></trkpt><trkpt lat="44.194526198391394" lon="11.601532400582311"><ele>257.2</ele><time>2026-04-06T10:01:34Z</time></trkpt><trkpt lat="44.1946122631243" lon="11.601509680001369"><ele>256.0</ele><time>2026-04-06T10:01:36Z</time></trkpt><trkpt lat="44.1946985851752" lon="11.601492502550467"><ele>256.0</ele><time>2026-04-06T10:01:38Z</time></trkpt><trkpt lat="44.19480074990282" lon="11.60150062847155"><ele>256.0</ele><time>2026-04-06T10:01:40Z</time></trkpt><trkpt lat="44.19491075003134" lon="11.601511541814787"><ele>256.0</ele><time>2026-04-06T10:01:42Z</time></trkpt><trkpt lat="44.19502654810415" lon="11.601559164407062"><ele>256.0</ele><time>2026-04-06T10:01:44Z</time></trkpt><trkpt lat="44.19514839553209" lon="11.601615257234664"><ele>255.57142857142856</ele><time>2026-04-06T10:01:46Z</time></trkpt><trkpt lat="44.19521557790664" lon="11.601651230249624"><ele>255.1428571428571</ele><time>2026-04-06T10:01:47Z</time></trkpt><trkpt lat="44.195280253200075" lon="11.601685906794001"><ele>254.71428571428572</ele><time>2026-04-06T10:01:48Z</time></trkpt><trkpt lat="44.195353177475496" lon="11.601719599464266"><ele>254.28571428571428</ele><time>2026-04-06T10:01:49Z</time></trkpt><trkpt lat="44.19542606409585" lon="11.60175102070658"><ele>253.85714285714286</ele><time>2026-04-06T10:01:50Z</time></trkpt><trkpt lat="44.19550010034396" lon="11.601782559509207"><ele>253.42857142857144</ele><time>2026-04-06T10:01:51Z</time></trkpt><trkpt lat="44.19557126015929" lon="11.601820378958562"><ele>253.00000000000003</ele><time>2026-04-06T10:01:52Z</time></trkpt><trkpt lat="44.19564669269087" lon="11.601853935731407"><ele>252.33333333333331</ele><time>2026-04-06T10:01:53Z</time></trkpt><trkpt lat="44.19572136996261" lon="11.601889998864959"><ele>251.66666666666666</ele><time>2026-04-06T10:01:54Z</time></trkpt><trkpt lat="44.19579679950974" lon="11.60192679817726"><ele>251.0</ele><time>2026-04-06T10:01:55Z</time></trkpt><trkpt lat="44.19587401949507" lon="11.601960021899046"><ele>250.33333333333331</ele><time>2026-04-06T10:01:56Z</time></trkpt><trkpt lat="44.195950999855" lon="11.601997447588735"><ele>249.66666666666666</ele><time>2026-04-06T10:01:57Z</time></trkpt><trkpt lat="44.196029643288156" lon="11.602034584909967"><ele>249.0</ele><time>2026-04-06T10:01:58Z</time></trkpt><trkpt lat="44.196107849904486" lon="11.60207223753438"><ele>248.0</ele><time>2026-04-06T10:01:59Z</time></trkpt><trkpt lat="44.19618664082902" lon="11.602108075925456"><ele>247.0</ele><time>2026-04-06T10:02:00Z</time></trkpt><trkpt lat="44.19626412802142" lon="11.602140707067003"><ele>246.0</ele><time>2026-04-06T10:02:01Z</time></trkpt><trkpt lat="44.19634278248896" lon="11.60216525839069"><ele>245.0</ele><time>2026-04-06T10:02:02Z</time></trkpt><trkpt lat="44.19642275733943" lon="11.602177670320081"><ele>244.0</ele><time>2026-04-06T10:02:03Z</time></trkpt><trkpt lat="44.196505328649344" lon="11.602188971016286"><ele>243.0</ele><time>2026-04-06T10:02:04Z</time></trkpt><trkpt lat="44.19659031149127" lon="11.602189253807342"><ele>242.66666666666666</ele><time>2026-04-06T10:02:05Z</time></trkpt><trkpt lat="44.19667277413514" lon="11.602195762325797"><ele>242.33333333333331</ele><time>2026-04-06T10:02:06Z</time></trkpt><trkpt lat="44.19675514191301" lon="11.602199777250298"><ele>242.0</ele><time>2026-04-06T10:02:07Z</time></trkpt><trkpt lat="44.1968358838948" lon="11.602204990989058"><ele>241.66666666666666</ele><time>2026-04-06T10:02:08Z</time></trkpt><trkpt lat="44.196915276637526" lon="11.602211703991125"><ele>241.33333333333331</ele><time>2026-04-06T10:02:09Z</time></trkpt><trkpt lat="44.19699459746798" lon="11.60221236086999"><ele>241.0</ele><time>2026-04-06T10:02:10Z</time></trkpt><trkpt lat="44.19706953453988" lon="11.602211921104876"><ele>240.99999999999997</ele><time>2026-04-06T10:02:11Z</time></trkpt><trkpt lat="44.19714190373778" lon="11.60221308227962"><ele>241.0</ele><time>2026-04-06T10:02:12Z</time></trkpt><trkpt lat="44.19721042529964" lon="11.602221565871824"><ele>241.0</ele><time>2026-04-06T10:02:13Z</time></trkpt><trkpt lat="44.19727780222062" lon="11.602225089878226"><ele>241.0</ele><time>2026-04-06T10:02:14Z</time></trkpt><trkpt lat="44.197342936911255" lon="11.602226103581824"><ele>240.99999999999997</ele><time>2026-04-06T10:02:15Z</time></trkpt><trkpt lat="44.19740650702344" lon="11.60223289016847"><ele>241.0</ele><time>2026-04-06T10:02:16Z</time></trkpt><trkpt lat="44.19753154095687" lon="11.602235201909203"><ele>239.0</ele><time>2026-04-06T10:02:18Z</time></trkpt><trkpt lat="44.19759687015156" lon="11.60223808199382"><ele>237.0</ele><time>2026-04-06T10:02:19Z</time></trkpt><trkpt lat="44.197660442575796" lon="11.602241059599859"><ele>235.0</ele><time>2026-04-06T10:02:20Z</time></trkpt><trkpt lat="44.19772392701558" lon="11.602243881043924"><ele>233.0</ele><time>2026-04-06T10:02:21Z</time></trkpt><trkpt lat="44.19778822846035" lon="11.602248970230088"><ele>231.0</ele><time>2026-04-06T10:02:22Z</time></trkpt><trkpt lat="44.19785137187911" lon="11.602253200171004"><ele>229.0</ele><time>2026-04-06T10:02:23Z</time></trkpt><trkpt lat="44.19791439369879" lon="11.602253619886822"><ele>227.0</ele><time>2026-04-06T10:02:24Z</time></trkpt><trkpt lat="44.19797784044879" lon="11.602259070377162"><ele>225.0</ele><time>2026-04-06T10:02:25Z</time></trkpt><trkpt lat="44.198041493682695" lon="11.602261982358359"><ele>225.0</ele><time>2026-04-06T10:02:26Z</time></trkpt><trkpt lat="44.19816388653876" lon="11.602279803423924"><ele>225.0</ele><time>2026-04-06T10:02:28Z</time></trkpt><trkpt lat="44.198229367495294" lon="11.602292037231125"><ele>225.0</ele><time>2026-04-06T10:02:29Z</time></trkpt><trkpt lat="44.198294149525225" lon="11.60230662829109"><ele>225.0</ele><time>2026-04-06T10:02:30Z</time></trkpt><trkpt lat="44.198358500033805" lon="11.602316577870845"><ele>225.0</ele><time>2026-04-06T10:02:31Z</time></trkpt><trkpt lat="44.198420900748914" lon="11.602331000929269"><ele>225.0</ele><time>2026-04-06T10:02:32Z</time></trkpt><trkpt lat="44.19854433058669" lon="11.602389404251078"><ele>228.16666666666666</ele><time>2026-04-06T10:02:34Z</time></trkpt><trkpt lat="44.19860437990478" lon="11.602426292688865"><ele>231.33333333333331</ele><time>2026-04-06T10:02:35Z</time></trkpt><trkpt lat="44.19866189903948" lon="11.602469163582237"><ele>234.5</ele><time>2026-04-06T10:02:36Z</time></trkpt><trkpt lat="44.198767873681014" lon="11.602567073739003"><ele>237.66666666666666</ele><time>2026-04-06T10:02:38Z</time></trkpt><trkpt lat="44.19886957900344" lon="11.60266342888604"><ele>240.83333333333331</ele><time>2026-04-06T10:02:40Z</time></trkpt><trkpt lat="44.19891973341074" lon="11.602717058380424"><ele>244.0</ele><time>2026-04-06T10:02:41Z</time></trkpt><trkpt lat="44.19897302747505" lon="11.602768636999864"><ele>243.57142857142856</ele><time>2026-04-06T10:02:42Z</time></trkpt><trkpt lat="44.19902436561969" lon="11.602819600236867"><ele>243.14285714285714</ele><time>2026-04-06T10:02:43Z</time></trkpt><trkpt lat="44.19907704801628" lon="11.602876628731961"><ele>242.71428571428572</ele><time>2026-04-06T10:02:44Z</time></trkpt><trkpt lat="44.1991296046361" lon="11.602928198534515"><ele>242.28571428571428</ele><time>2026-04-06T10:02:45Z</time></trkpt><trkpt lat="44.199182751019976" lon="11.602979791371972"><ele>241.8571428571429</ele><time>2026-04-06T10:02:46Z</time></trkpt><trkpt lat="44.19923431256858" lon="11.60303595340055"><ele>241.42857142857144</ele><time>2026-04-06T10:02:47Z</time></trkpt><trkpt lat="44.199287725600314" lon="11.603090036388128"><ele>241.0</ele><time>2026-04-06T10:02:48Z</time></trkpt><trkpt lat="44.199340817862684" lon="11.603147143952473"><ele>242.71428571428572</ele><time>2026-04-06T10:02:49Z</time></trkpt><trkpt lat="44.19939438716505" lon="11.603200212783468"><ele>244.42857142857144</ele><time>2026-04-06T10:02:50Z</time></trkpt><trkpt lat="44.19944897570839" lon="11.603253539509083"><ele>246.14285714285717</ele><time>2026-04-06T10:02:51Z</time></trkpt><trkpt lat="44.199501802134236" lon="11.603307698473248"><ele>247.8571428571429</ele><time>2026-04-06T10:02:52Z</time></trkpt><trkpt lat="44.199555157718756" lon="11.603362136634527"><ele>249.57142857142858</ele><time>2026-04-06T10:02:53Z</time></trkpt><trkpt lat="44.19960709310016" lon="11.60342148126206"><ele>251.28571428571433</ele><time>2026-04-06T10:02:54Z</time></trkpt><trkpt lat="44.19965911554171" lon="11.603476796442227"><ele>253.00000000000003</ele><time>2026-04-06T10:02:55Z</time></trkpt><trkpt lat="44.19971116919663" lon="11.60353567628257"><ele>252.99999999999997</ele><time>2026-04-06T10:02:56Z</time></trkpt><trkpt lat="44.1997597474473" lon="11.603592178133734"><ele>253.0</ele><time>2026-04-06T10:02:57Z</time></trkpt><trkpt lat="44.19980633026681" lon="11.603658180145855"><ele>253.0</ele><time>2026-04-06T10:02:58Z</time></trkpt><trkpt lat="44.19985246638805" lon="11.603728732671232"><ele>253.0</ele><time>2026-04-06T10:02:59Z</time></trkpt><trkpt lat="44.19993310671602" lon="11.603873513104649"><ele>252.99999999999997</ele><time>2026-04-06T10:03:01Z</time></trkpt><trkpt lat="44.199973865793915" lon="11.603942962135184"><ele>253.0</ele><time>2026-04-06T10:03:02Z</time></trkpt><trkpt lat="44.20001617364219" lon="11.604012786293392"><ele>252.8</ele><time>2026-04-06T10:03:03Z</time></trkpt><trkpt lat="44.200088986846325" lon="11.604156721263362"><ele>252.60000000000002</ele><time>2026-04-06T10:03:05Z</time></trkpt><trkpt lat="44.20012089374209" lon="11.604234599282"><ele>252.39999999999998</ele><time>2026-04-06T10:03:06Z</time></trkpt><trkpt lat="44.20018136973389" lon="11.604389462467473"><ele>252.2</ele><time>2026-04-06T10:03:08Z</time></trkpt><trkpt lat="44.20020976568821" lon="11.604468648363184"><ele>252.0</ele><time>2026-04-06T10:03:09Z</time></trkpt><trkpt lat="44.20025923190488" lon="11.604631304469699"><ele>252.0</ele><time>2026-04-06T10:03:11Z</time></trkpt><trkpt lat="44.200282416944525" lon="11.604714906285079"><ele>252.0</ele><time>2026-04-06T10:03:12Z</time></trkpt><trkpt lat="44.20032497141146" lon="11.604879693140298"><ele>252.0</ele><time>2026-04-06T10:03:14Z</time></trkpt><trkpt lat="44.20034989279834" lon="11.60496103024617"><ele>252.0</ele><time>2026-04-06T10:03:15Z</time></trkpt><trkpt lat="44.20037403961725" lon="11.60504361260814"><ele>252.0</ele><time>2026-04-06T10:03:16Z</time></trkpt><trkpt lat="44.200400489862034" lon="11.605123886541955"><ele>252.0</ele><time>2026-04-06T10:03:17Z</time></trkpt><trkpt lat="44.200451463137185" lon="11.605280945170916"><ele>253.8</ele><time>2026-04-06T10:03:19Z</time></trkpt><trkpt lat="44.20048683934951" lon="11.605447777295527"><ele>255.6</ele><time>2026-04-06T10:03:21Z</time></trkpt><trkpt lat="44.20050957576265" lon="11.605530816400833"><ele>257.40000000000003</ele><time>2026-04-06T10:03:22Z</time></trkpt><trkpt lat="44.200557532975424" lon="11.60568724674928"><ele>259.2</ele><time>2026-04-06T10:03:24Z</time></trkpt><trkpt lat="44.20060362022821" lon="11.605841152012554"><ele>261.0</ele><time>2026-04-06T10:03:26Z</time></trkpt><trkpt lat="44.200636878220884" lon="11.605964565520795"><ele>261.0</ele><time>2026-04-06T10:03:28Z</time></trkpt><trkpt lat="44.20066618318874" lon="11.606065506730502"><ele>261.0</ele><time>2026-04-06T10:03:30Z</time></trkpt><trkpt lat="44.20069889808406" lon="11.60617757080858"><ele>261.0</ele><time>2026-04-06T10:03:32Z</time></trkpt><trkpt lat="44.20073425505304" lon="11.606288459372303"><ele>261.0</ele><time>2026-04-06T10:03:34Z</time></trkpt><trkpt lat="44.200764774238785" lon="11.606391683071603"><ele>261.0</ele><time>2026-04-06T10:03:36Z</time></trkpt><trkpt lat="44.20079885232185" lon="11.606485856067694"><ele>261.0</ele><time>2026-04-06T10:03:38Z</time></trkpt><trkpt lat="44.200832824596304" lon="11.60658604855275"><ele>260.5</ele><time>2026-04-06T10:03:40Z</time></trkpt><trkpt lat="44.200867542108114" lon="11.60668658773756"><ele>260.0</ele><time>2026-04-06T10:03:42Z</time></trkpt><trkpt lat="44.20091207180664" lon="11.606780270372061"><ele>259.5</ele><time>2026-04-06T10:03:44Z</time></trkpt><trkpt lat="44.2009615268555" lon="11.606877127456286"><ele>259.0</ele><time>2026-04-06T10:03:46Z</time></trkpt><trkpt lat="44.20101850700403" lon="11.606966098509298"><ele>258.5</ele><time>2026-04-06T10:03:48Z</time></trkpt><trkpt lat="44.20107413875468" lon="11.607062113221065"><ele>258.0</ele><time>2026-04-06T10:03:50Z</time></trkpt><trkpt lat="44.20113397494994" lon="11.6071501233539"><ele>258.0</ele><time>2026-04-06T10:03:52Z</time></trkpt><trkpt lat="44.20120291754125" lon="11.607244044221103"><ele>258.0</ele><time>2026-04-06T10:03:54Z</time></trkpt><trkpt lat="44.201276361752775" lon="11.607341631210428"><ele>258.0</ele><time>2026-04-06T10:03:56Z</time></trkpt><trkpt lat="44.20134989309725" lon="11.607450350132146"><ele>258.0</ele><time>2026-04-06T10:03:58Z</time></trkpt><trkpt lat="44.2014242316344" lon="11.607551317598121"><ele>258.0</ele><time>2026-04-06T10:04:00Z</time></trkpt><trkpt lat="44.201499847055054" lon="11.607659355201385"><ele>256.8</ele><time>2026-04-06T10:04:02Z</time></trkpt><trkpt lat="44.2015815675847" lon="11.607770616265947"><ele>255.60000000000002</ele><time>2026-04-06T10:04:04Z</time></trkpt><trkpt lat="44.201660387409476" lon="11.607882465561213"><ele>254.39999999999998</ele><time>2026-04-06T10:04:06Z</time></trkpt><trkpt lat="44.20174439560552" lon="11.607996890978267"><ele>253.2</ele><time>2026-04-06T10:04:08Z</time></trkpt><trkpt lat="44.20179082659574" lon="11.608062845042594"><ele>252.0</ele><time>2026-04-06T10:04:09Z</time></trkpt><trkpt lat="44.20183609681728" lon="11.60812452576073"><ele>252.0</ele><time>2026-04-06T10:04:10Z</time></trkpt><trkpt lat="44.201880569016005" lon="11.60818884212257"><ele>252.0</ele><time>2026-04-06T10:04:11Z</time></trkpt><trkpt lat="44.20192838740627" lon="11.608250427027235"><ele>252.0</ele><time>2026-04-06T10:04:12Z</time></trkpt><trkpt lat="44.2019724323864" lon="11.608313729832068"><ele>252.0</ele><time>2026-04-06T10:04:13Z</time></trkpt><trkpt lat="44.2020167120019" lon="11.60837832627054"><ele>252.0</ele><time>2026-04-06T10:04:14Z</time></trkpt><trkpt lat="44.20206334387192" lon="11.60844103509548"><ele>252.0</ele><time>2026-04-06T10:04:15Z</time></trkpt><trkpt lat="44.20210764465144" lon="11.608506208990846"><ele>252.0</ele><time>2026-04-06T10:04:16Z</time></trkpt><trkpt lat="44.202154437818876" lon="11.608570403200991"><ele>252.0</ele><time>2026-04-06T10:04:17Z</time></trkpt><trkpt lat="44.20220145810929" lon="11.60863214665101"><ele>252.0</ele><time>2026-04-06T10:04:18Z</time></trkpt><trkpt lat="44.20224660483087" lon="11.608694421551082"><ele>252.0</ele><time>2026-04-06T10:04:19Z</time></trkpt><trkpt lat="44.202292882757526" lon="11.608759851214343"><ele>252.0</ele><time>2026-04-06T10:04:20Z</time></trkpt><trkpt lat="44.20234040385509" lon="11.608828458485513"><ele>252.0</ele><time>2026-04-06T10:04:21Z</time></trkpt><trkpt lat="44.20238813763482" lon="11.608895305493206"><ele>252.0</ele><time>2026-04-06T10:04:22Z</time></trkpt><trkpt lat="44.20243683684101" lon="11.608962910477901"><ele>252.0</ele><time>2026-04-06T10:04:23Z</time></trkpt><trkpt lat="44.20248576949469" lon="11.609032959280785"><ele>251.85714285714286</ele><time>2026-04-06T10:04:24Z</time></trkpt><trkpt lat="44.20253390734159" lon="11.609097390625546"><ele>251.71428571428572</ele><time>2026-04-06T10:04:25Z</time></trkpt><trkpt lat="44.20258238975781" lon="11.60916893743353"><ele>251.57142857142856</ele><time>2026-04-06T10:04:26Z</time></trkpt><trkpt lat="44.202630664555215" lon="11.6092385672912"><ele>251.42857142857142</ele><time>2026-04-06T10:04:27Z</time></trkpt><trkpt lat="44.202678719208585" lon="11.609310802166178"><ele>251.28571428571428</ele><time>2026-04-06T10:04:28Z</time></trkpt><trkpt lat="44.20272744091131" lon="11.609385098059407"><ele>251.1428571428571</ele><time>2026-04-06T10:04:29Z</time></trkpt><trkpt lat="44.20277803532234" lon="11.609455908866979"><ele>250.99999999999997</ele><time>2026-04-06T10:04:30Z</time></trkpt><trkpt lat="44.20282928043304" lon="11.609526585674562"><ele>250.99999999999997</ele><time>2026-04-06T10:04:31Z</time></trkpt><trkpt lat="44.20288407553411" lon="11.609593162598953"><ele>251.0</ele><time>2026-04-06T10:04:32Z</time></trkpt><trkpt lat="44.202938674785564" lon="11.609657923771028"><ele>250.99999999999997</ele><time>2026-04-06T10:04:33Z</time></trkpt><trkpt lat="44.2029915596906" lon="11.609728079663942"><ele>250.99999999999997</ele><time>2026-04-06T10:04:34Z</time></trkpt><trkpt lat="44.20303875719483" lon="11.609801564245004"><ele>251.0</ele><time>2026-04-06T10:04:35Z</time></trkpt><trkpt lat="44.20308904927841" lon="11.609873260463674"><ele>250.99999999999997</ele><time>2026-04-06T10:04:36Z</time></trkpt><trkpt lat="44.20314176321365" lon="11.609941259852647"><ele>250.99999999999997</ele><time>2026-04-06T10:04:37Z</time></trkpt><trkpt lat="44.203191812534" lon="11.610010864476967"><ele>250.28571428571425</ele><time>2026-04-06T10:04:38Z</time></trkpt><trkpt lat="44.20324703464" lon="11.6100772938276"><ele>249.57142857142856</ele><time>2026-04-06T10:04:39Z</time></trkpt><trkpt lat="44.20329634469688" lon="11.610151958845833"><ele>248.85714285714286</ele><time>2026-04-06T10:04:40Z</time></trkpt><trkpt lat="44.203342612482025" lon="11.610228593963612"><ele>248.14285714285714</ele><time>2026-04-06T10:04:41Z</time></trkpt><trkpt lat="44.2033910271868" lon="11.610305363384102"><ele>247.42857142857144</ele><time>2026-04-06T10:04:42Z</time></trkpt><trkpt lat="44.20343655399459" lon="11.610383017264368"><ele>246.71428571428575</ele><time>2026-04-06T10:04:43Z</time></trkpt><trkpt lat="44.203480715305275" lon="11.61046133738262"><ele>246.00000000000003</ele><time>2026-04-06T10:04:44Z</time></trkpt><trkpt lat="44.20351619953882" lon="11.610547043651769"><ele>246.00000000000003</ele><time>2026-04-06T10:04:45Z</time></trkpt><trkpt lat="44.20355109906362" lon="11.610633569669197"><ele>246.0</ele><time>2026-04-06T10:04:46Z</time></trkpt><trkpt lat="44.203588911038366" lon="11.61071718122776"><ele>246.00000000000003</ele><time>2026-04-06T10:04:47Z</time></trkpt><trkpt lat="44.2036288943561" lon="11.610797365317577"><ele>246.00000000000003</ele><time>2026-04-06T10:04:48Z</time></trkpt><trkpt lat="44.20366685251867" lon="11.610879298615764"><ele>246.0</ele><time>2026-04-06T10:04:49Z</time></trkpt><trkpt lat="44.20370353930567" lon="11.610966714635634"><ele>246.00000000000003</ele><time>2026-04-06T10:04:50Z</time></trkpt><trkpt lat="44.203740373051644" lon="11.61105335306412"><ele>246.00000000000003</ele><time>2026-04-06T10:04:51Z</time></trkpt><trkpt lat="44.20377805806343" lon="11.61113977531236"><ele>246.8571428571429</ele><time>2026-04-06T10:04:52Z</time></trkpt><trkpt lat="44.203816368575865" lon="11.611226409651898"><ele>247.71428571428572</ele><time>2026-04-06T10:04:53Z</time></trkpt><trkpt lat="44.20385546140697" lon="11.61131253813072"><ele>248.57142857142858</ele><time>2026-04-06T10:04:54Z</time></trkpt><trkpt lat="44.203893649482076" lon="11.611401538808805"><ele>249.42857142857144</ele><time>2026-04-06T10:04:55Z</time></trkpt><trkpt lat="44.20393282755048" lon="11.611488946037547"><ele>250.28571428571428</ele><time>2026-04-06T10:04:56Z</time></trkpt><trkpt lat="44.20397172428111" lon="11.61157712111577"><ele>251.14285714285714</ele><time>2026-04-06T10:04:57Z</time></trkpt><trkpt lat="44.204011492899156" lon="11.611668939589071"><ele>252.0</ele><time>2026-04-06T10:04:57.999Z</time></trkpt><trkpt lat="44.20405115497375" lon="11.611763164717537"><ele>250.83333333333334</ele><time>2026-04-06T10:04:58.999Z</time></trkpt><trkpt lat="44.20409494717395" lon="11.611857302358773"><ele>249.66666666666669</ele><time>2026-04-06T10:04:59.999Z</time></trkpt><trkpt lat="44.20413565770871" lon="11.611956912130353"><ele>248.5</ele><time>2026-04-06T10:05:00.999Z</time></trkpt><trkpt lat="44.20417373111016" lon="11.612058032236472"><ele>247.33333333333334</ele><time>2026-04-06T10:05:02Z</time></trkpt><trkpt lat="44.20421523118027" lon="11.612165622170895"><ele>246.16666666666669</ele><time>2026-04-06T10:05:03Z</time></trkpt><trkpt lat="44.20425581378337" lon="11.61226941728717"><ele>245.0</ele><time>2026-04-06T10:05:04Z</time></trkpt><trkpt lat="44.20429634243742" lon="11.612374074221172"><ele>245.00000000000003</ele><time>2026-04-06T10:05:05Z</time></trkpt><trkpt lat="44.20433658953586" lon="11.612479150511984"><ele>245.0</ele><time>2026-04-06T10:05:06Z</time></trkpt><trkpt lat="44.20438010472148" lon="11.612586091366243"><ele>245.0</ele><time>2026-04-06T10:05:07Z</time></trkpt><trkpt lat="44.204419732376" lon="11.612694392372033"><ele>245.0</ele><time>2026-04-06T10:05:08Z</time></trkpt><trkpt lat="44.20446227237641" lon="11.612797158625062"><ele>245.00000000000003</ele><time>2026-04-06T10:05:09Z</time></trkpt><trkpt lat="44.20451009330109" lon="11.612905372617936"><ele>245.0</ele><time>2026-04-06T10:05:10Z</time></trkpt><trkpt lat="44.20455805159608" lon="11.613016121279507"><ele>245.83333333333334</ele><time>2026-04-06T10:05:11Z</time></trkpt><trkpt lat="44.20461096906998" lon="11.61311443610423"><ele>246.66666666666669</ele><time>2026-04-06T10:05:12Z</time></trkpt><trkpt lat="44.20466815033834" lon="11.613214249198418"><ele>247.5</ele><time>2026-04-06T10:05:13Z</time></trkpt><trkpt lat="44.20472382843127" lon="11.613310306771936"><ele>248.33333333333331</ele><time>2026-04-06T10:05:14Z</time></trkpt><trkpt lat="44.204783237135295" lon="11.613402834271653"><ele>249.16666666666666</ele><time>2026-04-06T10:05:15Z</time></trkpt><trkpt lat="44.204842161731925" lon="11.613491751345798"><ele>250.0</ele><time>2026-04-06T10:05:16Z</time></trkpt><trkpt lat="44.20490522916754" lon="11.61357593365335"><ele>247.66666666666666</ele><time>2026-04-06T10:05:17Z</time></trkpt><trkpt lat="44.20496634614085" lon="11.613658425575476"><ele>245.33333333333331</ele><time>2026-04-06T10:05:18Z</time></trkpt><trkpt lat="44.205026797961786" lon="11.613740059336806"><ele>243.0</ele><time>2026-04-06T10:05:19Z</time></trkpt><trkpt lat="44.20508884732916" lon="11.61382145977702"><ele>240.66666666666669</ele><time>2026-04-06T10:05:20Z</time></trkpt><trkpt lat="44.20514759549856" lon="11.613901211070226"><ele>238.33333333333334</ele><time>2026-04-06T10:05:21Z</time></trkpt><trkpt lat="44.20521026698743" lon="11.613984362658517"><ele>236.0</ele><time>2026-04-06T10:05:22Z</time></trkpt><trkpt lat="44.20527400909686" lon="11.614066116517677"><ele>236.00000000000003</ele><time>2026-04-06T10:05:23Z</time></trkpt><trkpt lat="44.20533354411046" lon="11.614149781677273"><ele>236.0</ele><time>2026-04-06T10:05:24Z</time></trkpt><trkpt lat="44.20539534289614" lon="11.614233992980768"><ele>236.0</ele><time>2026-04-06T10:05:25Z</time></trkpt><trkpt lat="44.20545194451389" lon="11.614323570743792"><ele>236.0</ele><time>2026-04-06T10:05:26Z</time></trkpt><trkpt lat="44.20552200426894" lon="11.61439868918222"><ele>236.00000000000003</ele><time>2026-04-06T10:05:27Z</time></trkpt><trkpt lat="44.205578181812356" lon="11.614480513417249"><ele>236.0</ele><time>2026-04-06T10:05:28Z</time></trkpt><trkpt lat="44.20564547157724" lon="11.614567817106161"><ele>235.50000000000003</ele><time>2026-04-06T10:05:29Z</time></trkpt><trkpt lat="44.20570683917116" lon="11.614651408871122"><ele>235.0</ele><time>2026-04-06T10:05:30Z</time></trkpt><trkpt lat="44.2057616021199" lon="11.614749659217246"><ele>234.5</ele><time>2026-04-06T10:05:31Z</time></trkpt><trkpt lat="44.20582983559627" lon="11.614829062872097"><ele>234.0</ele><time>2026-04-06T10:05:32Z</time></trkpt><trkpt lat="44.20589407776437" lon="11.61491461206107"><ele>233.50000000000003</ele><time>2026-04-06T10:05:33Z</time></trkpt><trkpt lat="44.205959120892224" lon="11.615006847975307"><ele>233.0</ele><time>2026-04-06T10:05:34Z</time></trkpt><trkpt lat="44.20602436529304" lon="11.615098798278186"><ele>233.0</ele><time>2026-04-06T10:05:35Z</time></trkpt><trkpt lat="44.206092379564865" lon="11.61518399288135"><ele>233.0</ele><time>2026-04-06T10:05:36Z</time></trkpt><trkpt lat="44.206157039302425" lon="11.615272145460363"><ele>233.0</ele><time>2026-04-06T10:05:37Z</time></trkpt><trkpt lat="44.20622736709366" lon="11.615361793812248"><ele>233.0</ele><time>2026-04-06T10:05:38Z</time></trkpt><trkpt lat="44.20629878737245" lon="11.615446865474198"><ele>233.0</ele><time>2026-04-06T10:05:39Z</time></trkpt><trkpt lat="44.20637085455479" lon="11.615523179221077"><ele>231.8</ele><time>2026-04-06T10:05:40Z</time></trkpt><trkpt lat="44.206444375020304" lon="11.61560041197253"><ele>230.60000000000002</ele><time>2026-04-06T10:05:41Z</time></trkpt><trkpt lat="44.20651520715513" lon="11.61568327934533"><ele>229.39999999999998</ele><time>2026-04-06T10:05:42Z</time></trkpt><trkpt lat="44.20658548602024" lon="11.615763971843668"><ele>228.2</ele><time>2026-04-06T10:05:43Z</time></trkpt><trkpt lat="44.206658930607816" lon="11.61584439121312"><ele>227.0</ele><time>2026-04-06T10:05:44Z</time></trkpt><trkpt lat="44.2067298682921" lon="11.615927803381574"><ele>227.0</ele><time>2026-04-06T10:05:45Z</time></trkpt><trkpt lat="44.206795794806595" lon="11.616006864422651"><ele>227.0</ele><time>2026-04-06T10:05:46Z</time></trkpt><trkpt lat="44.20686726410545" lon="11.616087879233879"><ele>227.0</ele><time>2026-04-06T10:05:47Z</time></trkpt><trkpt lat="44.20693936875678" lon="11.61616672925366"><ele>227.0</ele><time>2026-04-06T10:05:48Z</time></trkpt><trkpt lat="44.207008920115356" lon="11.61624578626673"><ele>227.0</ele><time>2026-04-06T10:05:49Z</time></trkpt><trkpt lat="44.20708021568566" lon="11.616323923895969"><ele>226.8</ele><time>2026-04-06T10:05:50Z</time></trkpt><trkpt lat="44.20715108773176" lon="11.61640568158018"><ele>226.6</ele><time>2026-04-06T10:05:51Z</time></trkpt><trkpt lat="44.207221312208056" lon="11.616484921193841"><ele>226.40000000000003</ele><time>2026-04-06T10:05:52Z</time></trkpt><trkpt lat="44.207294683620596" lon="11.616566353881563"><ele>226.20000000000002</ele><time>2026-04-06T10:05:53Z</time></trkpt><trkpt lat="44.20736931937036" lon="11.61664341541771"><ele>226.0</ele><time>2026-04-06T10:05:54Z</time></trkpt><trkpt lat="44.207442781503396" lon="11.616723361473733"><ele>226.0</ele><time>2026-04-06T10:05:55Z</time></trkpt><trkpt lat="44.2075156244843" lon="11.616801049152711"><ele>226.00000000000003</ele><time>2026-04-06T10:05:56Z</time></trkpt><trkpt lat="44.20759066380548" lon="11.616878449172061"><ele>226.00000000000003</ele><time>2026-04-06T10:05:57Z</time></trkpt><trkpt lat="44.207667355733896" lon="11.616951859742752"><ele>226.0</ele><time>2026-04-06T10:05:58Z</time></trkpt><trkpt lat="44.207745439972186" lon="11.617024615965033"><ele>226.0</ele><time>2026-04-06T10:05:59Z</time></trkpt><trkpt lat="44.20782681729245" lon="11.617090721382205"><ele>226.60000000000002</ele><time>2026-04-06T10:06:00Z</time></trkpt><trkpt lat="44.20790725091941" lon="11.61716149795403"><ele>227.20000000000002</ele><time>2026-04-06T10:06:01Z</time></trkpt><trkpt lat="44.20798658354369" lon="11.617229975467124"><ele>227.79999999999998</ele><time>2026-04-06T10:06:02Z</time></trkpt><trkpt lat="44.208068288353275" lon="11.617297708922049"><ele>228.39999999999998</ele><time>2026-04-06T10:06:03Z</time></trkpt><trkpt lat="44.20814961489213" lon="11.617362553108919"><ele>229.0</ele><time>2026-04-06T10:06:04Z</time></trkpt><trkpt lat="44.20823140531478" lon="11.617427960051327"><ele>227.2</ele><time>2026-04-06T10:06:05Z</time></trkpt><trkpt lat="44.2083150336688" lon="11.617492182892788"><ele>225.39999999999998</ele><time>2026-04-06T10:06:06Z</time></trkpt><trkpt lat="44.20839903998825" lon="11.617556287157022"><ele>223.6</ele><time>2026-04-06T10:06:07Z</time></trkpt><trkpt lat="44.208483420990916" lon="11.61761759655595"><ele>221.8</ele><time>2026-04-06T10:06:08Z</time></trkpt><trkpt lat="44.20857036755983" lon="11.617677022002058"><ele>220.0</ele><time>2026-04-06T10:06:09Z</time></trkpt><trkpt lat="44.20865592255158" lon="11.617742368576147"><ele>220.0</ele><time>2026-04-06T10:06:10Z</time></trkpt><trkpt lat="44.20874223703083" lon="11.617805548539506"><ele>220.0</ele><time>2026-04-06T10:06:11Z</time></trkpt><trkpt lat="44.20882950513698" lon="11.617866804604748"><ele>220.0</ele><time>2026-04-06T10:06:12Z</time></trkpt><trkpt lat="44.20891588755852" lon="11.617927709131989"><ele>220.0</ele><time>2026-04-06T10:06:13Z</time></trkpt><trkpt lat="44.20900287527609" lon="11.617987559438745"><ele>220.0</ele><time>2026-04-06T10:06:14Z</time></trkpt><trkpt lat="44.20908904244995" lon="11.618046125331693"><ele>220.2</ele><time>2026-04-06T10:06:15Z</time></trkpt><trkpt lat="44.20917590908372" lon="11.61810165569825"><ele>220.4</ele><time>2026-04-06T10:06:16Z</time></trkpt><trkpt lat="44.209263202245886" lon="11.618151436312223"><ele>220.60000000000002</ele><time>2026-04-06T10:06:17Z</time></trkpt><trkpt lat="44.209352351650615" lon="11.618200487245387"><ele>220.8</ele><time>2026-04-06T10:06:18Z</time></trkpt><trkpt lat="44.209448635944355" lon="11.618207504425035"><ele>221.0</ele><time>2026-04-06T10:06:19Z</time></trkpt><trkpt lat="44.20954479720222" lon="11.618175047414118"><ele>221.0</ele><time>2026-04-06T10:06:20Z</time></trkpt><trkpt lat="44.20963180970249" lon="11.618120576386445"><ele>221.00000000000003</ele><time>2026-04-06T10:06:21Z</time></trkpt><trkpt lat="44.20971258587735" lon="11.618053104750125"><ele>221.00000000000003</ele><time>2026-04-06T10:06:22Z</time></trkpt><trkpt lat="44.20978296967488" lon="11.617968651576874"><ele>221.0</ele><time>2026-04-06T10:06:23Z</time></trkpt><trkpt lat="44.209832715163074" lon="11.61785610953245"><ele>221.0</ele><time>2026-04-06T10:06:24Z</time></trkpt><trkpt lat="44.20985615660059" lon="11.617731598966857"><ele>218.50000000000003</ele><time>2026-04-06T10:06:25Z</time></trkpt><trkpt lat="44.20988400562412" lon="11.617621419381386"><ele>216.0</ele><time>2026-04-06T10:06:26Z</time></trkpt><trkpt lat="44.2099153208616" lon="11.61751640437033"><ele>213.5</ele><time>2026-04-06T10:06:27Z</time></trkpt><trkpt lat="44.2099436725124" lon="11.617415277799745"><ele>211.0</ele><time>2026-04-06T10:06:28Z</time></trkpt><trkpt lat="44.20996949817625" lon="11.617319586849272"><ele>208.50000000000003</ele><time>2026-04-06T10:06:29Z</time></trkpt><trkpt lat="44.209996539637984" lon="11.617226481371365"><ele>206.0</ele><time>2026-04-06T10:06:30Z</time></trkpt><trkpt lat="44.21002190468522" lon="11.61713481890987"><ele>206.00000000000003</ele><time>2026-04-06T10:06:31Z</time></trkpt><trkpt lat="44.21004660745728" lon="11.617047321621868"><ele>206.0</ele><time>2026-04-06T10:06:32Z</time></trkpt><trkpt lat="44.210074074411075" lon="11.616964807871344"><ele>206.0</ele><time>2026-04-06T10:06:33Z</time></trkpt><trkpt lat="44.21013761620686" lon="11.61681927065705"><ele>206.0</ele><time>2026-04-06T10:06:35Z</time></trkpt><trkpt lat="44.21019110275828" lon="11.616768512316957"><ele>206.00000000000003</ele><time>2026-04-06T10:06:36Z</time></trkpt><trkpt lat="44.210252398559085" lon="11.616734844329676"><ele>206.0</ele><time>2026-04-06T10:06:37Z</time></trkpt><trkpt lat="44.21037390962173" lon="11.616701771686248"><ele>207.16666666666669</ele><time>2026-04-06T10:06:39Z</time></trkpt><trkpt lat="44.21048537982091" lon="11.616686216210725"><ele>208.33333333333334</ele><time>2026-04-06T10:06:41Z</time></trkpt><trkpt lat="44.21058117603442" lon="11.616698532846494"><ele>209.5</ele><time>2026-04-06T10:06:43Z</time></trkpt><trkpt lat="44.210663442049544" lon="11.616723470029621"><ele>210.66666666666669</ele><time>2026-04-06T10:06:45Z</time></trkpt><trkpt lat="44.210735161064285" lon="11.616743980308245"><ele>211.83333333333334</ele><time>2026-04-06T10:06:47Z</time></trkpt><trkpt lat="44.21080647440904" lon="11.616761710824559"><ele>213.0</ele><time>2026-04-06T10:06:49Z</time></trkpt><trkpt lat="44.21089531428473" lon="11.616785624085276"><ele>214.0</ele><time>2026-04-06T10:06:51Z</time></trkpt><trkpt lat="44.21099221036026" lon="11.616812767271217"><ele>215.0</ele><time>2026-04-06T10:06:53Z</time></trkpt><trkpt lat="44.211094339486976" lon="11.61683235559405"><ele>216.0</ele><time>2026-04-06T10:06:55Z</time></trkpt><trkpt lat="44.21119275186421" lon="11.616857141456334"><ele>217.0</ele><time>2026-04-06T10:06:57Z</time></trkpt><trkpt lat="44.21129648735229" lon="11.616893717275692"><ele>218.0</ele><time>2026-04-06T10:06:58.999Z</time></trkpt><trkpt lat="44.211396540476464" lon="11.616935096915231"><ele>220.0</ele><time>2026-04-06T10:07:00.999Z</time></trkpt><trkpt lat="44.21150044693066" lon="11.616981803726091"><ele>222.0</ele><time>2026-04-06T10:07:02.999Z</time></trkpt><trkpt lat="44.211598535162125" lon="11.617050727258475"><ele>224.0</ele><time>2026-04-06T10:07:04.999Z</time></trkpt><trkpt lat="44.211702369990604" lon="11.617112326667629"><ele>226.0</ele><time>2026-04-06T10:07:06.999Z</time></trkpt><trkpt lat="44.211809922707126" lon="11.617152019394782"><ele>228.0</ele><time>2026-04-06T10:07:09Z</time></trkpt><trkpt lat="44.211907508049414" lon="11.617197986495356"><ele>226.60000000000002</ele><time>2026-04-06T10:07:11Z</time></trkpt><trkpt lat="44.21203060404165" lon="11.617254517469034"><ele>225.20000000000002</ele><time>2026-04-06T10:07:13Z</time></trkpt><trkpt lat="44.21209298800869" lon="11.617282865160027"><ele>223.8</ele><time>2026-04-06T10:07:14Z</time></trkpt><trkpt lat="44.212204754015" lon="11.617325200556147"><ele>222.4</ele><time>2026-04-06T10:07:16Z</time></trkpt><trkpt lat="44.21231598715951" lon="11.617371690211737"><ele>221.0</ele><time>2026-04-06T10:07:18Z</time></trkpt><trkpt lat="44.2124269935114" lon="11.617404944967967"><ele>221.0</ele><time>2026-04-06T10:07:20Z</time></trkpt><trkpt lat="44.212536314903694" lon="11.61745242766126"><ele>221.00000000000003</ele><time>2026-04-06T10:07:22Z</time></trkpt><trkpt lat="44.21265237385818" lon="11.617493446362737"><ele>221.00000000000003</ele><time>2026-04-06T10:07:24Z</time></trkpt><trkpt lat="44.21277244035929" lon="11.61753761205811"><ele>221.0</ele><time>2026-04-06T10:07:26Z</time></trkpt><trkpt lat="44.21283472144816" lon="11.617562026319485"><ele>221.0</ele><time>2026-04-06T10:07:27Z</time></trkpt><trkpt lat="44.21289688573977" lon="11.617584794197121"><ele>221.00000000000003</ele><time>2026-04-06T10:07:28Z</time></trkpt><trkpt lat="44.21295995123803" lon="11.617609263435872"><ele>221.0</ele><time>2026-04-06T10:07:29Z</time></trkpt><trkpt lat="44.213021251359045" lon="11.617629295722129"><ele>221.0</ele><time>2026-04-06T10:07:30Z</time></trkpt><trkpt lat="44.2130847219852" lon="11.617655949236415"><ele>221.0</ele><time>2026-04-06T10:07:31Z</time></trkpt><trkpt lat="44.21314694089532" lon="11.617679109541928"><ele>221.0</ele><time>2026-04-06T10:07:32Z</time></trkpt><trkpt lat="44.21321051206439" lon="11.617704350816872"><ele>221.00000000000003</ele><time>2026-04-06T10:07:33Z</time></trkpt><trkpt lat="44.21327363083635" lon="11.617725898123053"><ele>221.0</ele><time>2026-04-06T10:07:34Z</time></trkpt><trkpt lat="44.2133349522544" lon="11.617749565840302"><ele>221.60000000000002</ele><time>2026-04-06T10:07:35Z</time></trkpt><trkpt lat="44.2133982004695" lon="11.617769602820031"><ele>222.20000000000002</ele><time>2026-04-06T10:07:36Z</time></trkpt><trkpt lat="44.21346072309481" lon="11.617791044052897"><ele>222.79999999999998</ele><time>2026-04-06T10:07:37Z</time></trkpt><trkpt lat="44.2135848034559" lon="11.617831126000306"><ele>223.39999999999998</ele><time>2026-04-06T10:07:39Z</time></trkpt><trkpt lat="44.21370725271407" lon="11.617865123400835"><ele>224.0</ele><time>2026-04-06T10:07:41Z</time></trkpt><trkpt lat="44.21382666536521" lon="11.617884148776255"><ele>222.83333333333334</ele><time>2026-04-06T10:07:43Z</time></trkpt><trkpt lat="44.21395036529346" lon="11.617877100106087"><ele>221.66666666666669</ele><time>2026-04-06T10:07:45Z</time></trkpt><trkpt lat="44.2140172103112" lon="11.617877950578592"><ele>220.5</ele><time>2026-04-06T10:07:46Z</time></trkpt><trkpt lat="44.21408372842119" lon="11.61787749575422"><ele>219.33333333333331</ele><time>2026-04-06T10:07:47Z</time></trkpt><trkpt lat="44.2141510094611" lon="11.617873145322562"><ele>218.16666666666666</ele><time>2026-04-06T10:07:48Z</time></trkpt><trkpt lat="44.21421627332485" lon="11.617869266099744"><ele>217.0</ele><time>2026-04-06T10:07:49Z</time></trkpt><trkpt lat="44.214281746069446" lon="11.617869174436013"><ele>216.85714285714286</ele><time>2026-04-06T10:07:50Z</time></trkpt><trkpt lat="44.214348397242844" lon="11.617866760926566"><ele>216.71428571428572</ele><time>2026-04-06T10:07:51Z</time></trkpt><trkpt lat="44.21441725643409" lon="11.617862717713374"><ele>216.57142857142856</ele><time>2026-04-06T10:07:52Z</time></trkpt><trkpt lat="44.21448521978369" lon="11.617858765903549"><ele>216.42857142857144</ele><time>2026-04-06T10:07:53Z</time></trkpt><trkpt lat="44.21455319021477" lon="11.617856532724407"><ele>216.28571428571428</ele><time>2026-04-06T10:07:54Z</time></trkpt><trkpt lat="44.2146217097843" lon="11.617860116939344"><ele>216.14285714285714</ele><time>2026-04-06T10:07:55Z</time></trkpt><trkpt lat="44.21469220609264" lon="11.617851818707292"><ele>216.0</ele><time>2026-04-06T10:07:56Z</time></trkpt><trkpt lat="44.21476083933277" lon="11.617853449293008"><ele>215.5</ele><time>2026-04-06T10:07:57Z</time></trkpt><trkpt lat="44.21483295169916" lon="11.617846106823732"><ele>215.0</ele><time>2026-04-06T10:07:58Z</time></trkpt><trkpt lat="44.21490486570076" lon="11.617841873524524"><ele>214.5</ele><time>2026-04-06T10:07:59Z</time></trkpt><trkpt lat="44.214970781554975" lon="11.617846282511888"><ele>214.0</ele><time>2026-04-06T10:08:00Z</time></trkpt><trkpt lat="44.2150243373476" lon="11.617955290472818"><ele>213.5</ele><time>2026-04-06T10:08:02Z</time></trkpt><trkpt lat="44.214975630858184" lon="11.6180798895988"><ele>213.0</ele><time>2026-04-06T10:08:04Z</time></trkpt><trkpt lat="44.21488481653" lon="11.618110455238732"><ele>213.5</ele><time>2026-04-06T10:08:06Z</time></trkpt><trkpt lat="44.21480002121569" lon="11.618124700323873"><ele>214.0</ele><time>2026-04-06T10:08:08Z</time></trkpt><trkpt lat="44.21471887141953" lon="11.618143870174965"><ele>214.5</ele><time>2026-04-06T10:08:10Z</time></trkpt><trkpt lat="44.21464092699931" lon="11.618142862479983"><ele>215.0</ele><time>2026-04-06T10:08:12Z</time></trkpt><trkpt lat="44.214570205426035" lon="11.61814800911009"><ele>215.5</ele><time>2026-04-06T10:08:14Z</time></trkpt><trkpt lat="44.21450666653301" lon="11.618159775680361"><ele>216.0</ele><time>2026-04-06T10:08:16Z</time></trkpt><trkpt lat="44.21441888617492" lon="11.618164961746787"><ele>216.0</ele><time>2026-04-06T10:08:19Z</time></trkpt><trkpt lat="44.214340629007815" lon="11.618142500166464"><ele>216.0</ele><time>2026-04-06T10:08:22Z</time></trkpt><trkpt lat="44.21425525201803" lon="11.618128118919849"><ele>216.0</ele><time>2026-04-06T10:08:28Z</time></trkpt><trkpt lat="44.21420222274645" lon="11.61819325379934"><ele>216.0</ele><time>2026-04-06T10:08:31Z</time></trkpt><trkpt lat="44.21417428527088" lon="11.618276737173579"><ele>216.0</ele><time>2026-04-06T10:08:37Z</time></trkpt><trkpt lat="44.21411133702877" lon="11.618286733128473"><ele>216.0</ele><time>2026-04-06T10:11:03Z</time></trkpt><trkpt lat="44.21419545758444" lon="11.618268459628348"><ele>216.0</ele><time>2026-04-06T10:46:59Z</time></trkpt><trkpt lat="44.21425854736877" lon="11.618289504061396"><ele>216.0</ele><time>2026-04-06T10:47:23Z</time></trkpt><trkpt lat="44.21419258548507" lon="11.618261715675482"><ele>216.0</ele><time>2026-04-06T10:47:35Z</time></trkpt><trkpt lat="44.214121762536784" lon="11.618231378683074"><ele>216.0</ele><time>2026-04-06T10:47:39.999Z</time></trkpt><trkpt lat="44.21416825353977" lon="11.618169669666875"><ele>216.0</ele><time>2026-04-06T10:51:39Z</time></trkpt><trkpt lat="44.21423550199024" lon="11.618167648417533"><ele>216.0</ele><time>2026-04-06T10:51:43Z</time></trkpt><trkpt lat="44.214322790636764" lon="11.618168864642742"><ele>216.0</ele><time>2026-04-06T10:51:48Z</time></trkpt><trkpt lat="44.214390341266274" lon="11.618196914541388"><ele>216.0</ele><time>2026-04-06T10:51:52Z</time></trkpt><trkpt lat="44.214465673394756" lon="11.618229726626286"><ele>216.0</ele><time>2026-04-06T10:51:56Z</time></trkpt><trkpt lat="44.21453574591361" lon="11.618206185652886"><ele>216.0</ele><time>2026-04-06T10:51:58.999Z</time></trkpt><trkpt lat="44.21460899605981" lon="11.61817721638431"><ele>216.0</ele><time>2026-04-06T10:52:01.999Z</time></trkpt><trkpt lat="44.21468600135172" lon="11.618168640163072"><ele>216.0</ele><time>2026-04-06T10:52:04.999Z</time></trkpt><trkpt lat="44.21476818197692" lon="11.618173258013329"><ele>216.0</ele><time>2026-04-06T10:52:07.999Z</time></trkpt><trkpt lat="44.21484830555358" lon="11.618142935875227"><ele>215.57142857142856</ele><time>2026-04-06T10:52:10.999Z</time></trkpt><trkpt lat="44.21492676164382" lon="11.618121884070467"><ele>215.14285714285714</ele><time>2026-04-06T10:52:13.999Z</time></trkpt><trkpt lat="44.21499140161851" lon="11.61806710114919"><ele>214.71428571428572</ele><time>2026-04-06T10:52:16.999Z</time></trkpt><trkpt lat="44.215015947449" lon="11.617983936591926"><ele>214.28571428571428</ele><time>2026-04-06T10:52:19.999Z</time></trkpt><trkpt lat="44.21503189428147" lon="11.61788016518471"><ele>213.85714285714286</ele><time>2026-04-06T10:52:23.999Z</time></trkpt><trkpt lat="44.21502765139762" lon="11.617779003726191"><ele>213.42857142857142</ele><time>2026-04-06T10:52:27.999Z</time></trkpt><trkpt lat="44.214966380383" lon="11.617755602398509"><ele>213.0</ele><time>2026-04-06T10:52:29.999Z</time></trkpt><trkpt lat="44.21489283319917" lon="11.617758180576226"><ele>215.0</ele><time>2026-04-06T10:52:32.999Z</time></trkpt><trkpt lat="44.21481935448704" lon="11.617764964521855"><ele>217.0</ele><time>2026-04-06T10:52:35.999Z</time></trkpt><trkpt lat="44.214739531215145" lon="11.617765865917796"><ele>219.0</ele><time>2026-04-06T10:52:38.999Z</time></trkpt><trkpt lat="44.21466497118536" lon="11.617770492720721"><ele>221.0</ele><time>2026-04-06T10:52:41.999Z</time></trkpt><trkpt lat="44.214582763761584" lon="11.617773466387675"><ele>223.0</ele><time>2026-04-06T10:53:10.999Z</time></trkpt><trkpt lat="44.21450454069569" lon="11.61776343119858"><ele>225.0</ele><time>2026-04-06T10:53:14.999Z</time></trkpt><trkpt lat="44.21443843642523" lon="11.617770420116546"><ele>225.0</ele><time>2026-04-06T10:53:18Z</time></trkpt><trkpt lat="44.214366208961444" lon="11.617772063595721"><ele>225.0</ele><time>2026-04-06T10:53:21Z</time></trkpt><trkpt lat="44.214281329006965" lon="11.617777541503651"><ele>225.0</ele><time>2026-04-06T10:53:24Z</time></trkpt><trkpt lat="44.21418446094292" lon="11.61778915133739"><ele>225.0</ele><time>2026-04-06T10:53:27Z</time></trkpt><trkpt lat="44.21411061024593" lon="11.617790161743914"><ele>225.0</ele><time>2026-04-06T10:53:29Z</time></trkpt><trkpt lat="44.21404228518061" lon="11.617792314260763"><ele>225.0</ele><time>2026-04-06T10:53:31Z</time></trkpt><trkpt lat="44.213968727149606" lon="11.61779302799599"><ele>224.8571428571429</ele><time>2026-04-06T10:53:33Z</time></trkpt><trkpt lat="44.213896357404394" lon="11.617799717292048"><ele>224.71428571428572</ele><time>2026-04-06T10:53:35Z</time></trkpt><trkpt lat="44.21382572863814" lon="11.617795391292182"><ele>224.57142857142858</ele><time>2026-04-06T10:53:37Z</time></trkpt><trkpt lat="44.213751977329785" lon="11.617780692413167"><ele>224.42857142857144</ele><time>2026-04-06T10:53:39Z</time></trkpt><trkpt lat="44.21367392084735" lon="11.617774676378593"><ele>224.28571428571428</ele><time>2026-04-06T10:53:41Z</time></trkpt><trkpt lat="44.21359309073019" lon="11.61775704364877"><ele>224.14285714285714</ele><time>2026-04-06T10:53:43Z</time></trkpt><trkpt lat="44.21352615480425" lon="11.617732980886093"><ele>224.0</ele><time>2026-04-06T10:53:45Z</time></trkpt><trkpt lat="44.21345780936166" lon="11.617713349746145"><ele>224.0</ele><time>2026-04-06T10:53:47Z</time></trkpt><trkpt lat="44.213394249385374" lon="11.61769191476093"><ele>224.0</ele><time>2026-04-06T10:53:49Z</time></trkpt><trkpt lat="44.2133335041395" lon="11.617663008308673"><ele>224.0</ele><time>2026-04-06T10:53:51Z</time></trkpt><trkpt lat="44.21326760194403" lon="11.617642385969479"><ele>224.0</ele><time>2026-04-06T10:53:53Z</time></trkpt><trkpt lat="44.213202038536025" lon="11.617620558209365"><ele>224.0</ele><time>2026-04-06T10:53:55Z</time></trkpt><trkpt lat="44.2131374739532" lon="11.617604762330908"><ele>224.0</ele><time>2026-04-06T10:53:57Z</time></trkpt><trkpt lat="44.21307296052562" lon="11.617571657575622"><ele>224.0</ele><time>2026-04-06T10:53:59Z</time></trkpt><trkpt lat="44.2130118945121" lon="11.617549799082424"><ele>223.50000000000003</ele><time>2026-04-06T10:54:00.999Z</time></trkpt><trkpt lat="44.212943676555554" lon="11.617525748916632"><ele>223.0</ele><time>2026-04-06T10:54:02.999Z</time></trkpt><trkpt lat="44.21287776198358" lon="11.617499928337587"><ele>222.5</ele><time>2026-04-06T10:54:04.999Z</time></trkpt><trkpt lat="44.21281367783291" lon="11.61747117019847"><ele>222.0</ele><time>2026-04-06T10:54:06.999Z</time></trkpt><trkpt lat="44.21274289993536" lon="11.617446679827887"><ele>221.50000000000003</ele><time>2026-04-06T10:54:08.999Z</time></trkpt><trkpt lat="44.21265588298949" lon="11.617401938883887"><ele>221.0</ele><time>2026-04-06T10:54:12.999Z</time></trkpt><trkpt lat="44.21253726303063" lon="11.617350959292365"><ele>221.00000000000003</ele><time>2026-04-06T10:54:15.999Z</time></trkpt><trkpt lat="44.21245335936238" lon="11.617329813174504"><ele>221.0</ele><time>2026-04-06T10:54:17.999Z</time></trkpt><trkpt lat="44.212367290538964" lon="11.61729431532069"><ele>221.0</ele><time>2026-04-06T10:54:19.999Z</time></trkpt><trkpt lat="44.212284719345234" lon="11.617257358967839"><ele>221.0</ele><time>2026-04-06T10:54:21.999Z</time></trkpt><trkpt lat="44.212205413243616" lon="11.617215063938675"><ele>221.00000000000003</ele><time>2026-04-06T10:54:23.999Z</time></trkpt><trkpt lat="44.2121074827844" lon="11.617182503733163"><ele>221.0</ele><time>2026-04-06T10:54:25.999Z</time></trkpt><trkpt lat="44.21198905080736" lon="11.617137029795678"><ele>222.16666666666669</ele><time>2026-04-06T10:54:27.999Z</time></trkpt><trkpt lat="44.21192790526406" lon="11.617114074261767"><ele>223.33333333333334</ele><time>2026-04-06T10:54:28.999Z</time></trkpt><trkpt lat="44.211867165793166" lon="11.617089648730756"><ele>224.5</ele><time>2026-04-06T10:54:29.999Z</time></trkpt><trkpt lat="44.21177665044026" lon="11.617014295136618"><ele>225.66666666666669</ele><time>2026-04-06T10:54:31.999Z</time></trkpt><trkpt lat="44.21174250117792" lon="11.616889007615212"><ele>226.83333333333334</ele><time>2026-04-06T10:54:33.999Z</time></trkpt><trkpt lat="44.21177009784769" lon="11.616770318323987"><ele>228.0</ele><time>2026-04-06T10:54:35.999Z</time></trkpt><trkpt lat="44.21177402875935" lon="11.616663227602107"><ele>228.0</ele><time>2026-04-06T10:54:37.999Z</time></trkpt><trkpt lat="44.211799626284716" lon="11.616573302377967"><ele>228.0</ele><time>2026-04-06T10:54:39.999Z</time></trkpt><trkpt lat="44.211817095162736" lon="11.616447977192296"><ele>228.0</ele><time>2026-04-06T10:54:42.999Z</time></trkpt><trkpt lat="44.211820146857335" lon="11.61634690329969"><ele>228.0</ele><time>2026-04-06T10:54:44.999Z</time></trkpt><trkpt lat="44.21184086966391" lon="11.616258155112916"><ele>228.0</ele><time>2026-04-06T10:54:46.999Z</time></trkpt><trkpt lat="44.211853175436076" lon="11.616129762644368"><ele>228.0</ele><time>2026-04-06T10:54:49.999Z</time></trkpt><trkpt lat="44.211871752800235" lon="11.616017620603278"><ele>229.14285714285714</ele><time>2026-04-06T10:54:52.999Z</time></trkpt><trkpt lat="44.21188113932104" lon="11.615918991318889"><ele>230.28571428571428</ele><time>2026-04-06T10:54:55.999Z</time></trkpt><trkpt lat="44.21189568720873" lon="11.615818610136996"><ele>231.42857142857142</ele><time>2026-04-06T10:54:58.999Z</time></trkpt><trkpt lat="44.21191495168788" lon="11.615728076282824"><ele>232.57142857142856</ele><time>2026-04-06T10:55:01.999Z</time></trkpt><trkpt lat="44.211925414507995" lon="11.615620128170566"><ele>233.71428571428572</ele><time>2026-04-06T10:55:05.999Z</time></trkpt><trkpt lat="44.21191625231598" lon="11.615512711453082"><ele>234.85714285714283</ele><time>2026-04-06T10:55:09.999Z</time></trkpt><trkpt lat="44.21188803695928" lon="11.615425660867972"><ele>236.0</ele><time>2026-04-06T10:55:13.999Z</time></trkpt><trkpt lat="44.21183511133599" lon="11.615357567280268"><ele>236.83333333333334</ele><time>2026-04-06T10:55:18.999Z</time></trkpt><trkpt lat="44.21176940221361" lon="11.615319357146559"><ele>237.66666666666669</ele><time>2026-04-06T10:55:23Z</time></trkpt><trkpt lat="44.2117056708348" lon="11.61526541533444"><ele>238.5</ele><time>2026-04-06T10:55:27Z</time></trkpt><trkpt lat="44.21163404755378" lon="11.61521656950993"><ele>239.33333333333331</ele><time>2026-04-06T10:55:31Z</time></trkpt><trkpt lat="44.21156481242749" lon="11.615156289780245"><ele>240.16666666666666</ele><time>2026-04-06T10:55:35Z</time></trkpt><trkpt lat="44.21149180582614" lon="11.615109258494734"><ele>241.0</ele><time>2026-04-06T10:55:39Z</time></trkpt><trkpt lat="44.21143354239301" lon="11.615074959186037"><ele>241.0</ele><time>2026-04-06T10:55:42Z</time></trkpt><trkpt lat="44.211377922835254" lon="11.615028279686909"><ele>241.00000000000003</ele><time>2026-04-06T10:55:45Z</time></trkpt><trkpt lat="44.211320344526534" lon="11.6149895985606"><ele>241.0</ele><time>2026-04-06T10:55:48Z</time></trkpt><trkpt lat="44.211263102098506" lon="11.614938979342021"><ele>241.0</ele><time>2026-04-06T10:55:51Z</time></trkpt><trkpt lat="44.21120716063812" lon="11.614897312605551"><ele>241.00000000000003</ele><time>2026-04-06T10:55:53.999Z</time></trkpt><trkpt lat="44.21115144209816" lon="11.614847774170997"><ele>241.0</ele><time>2026-04-06T10:55:56.999Z</time></trkpt><trkpt lat="44.21109667835731" lon="11.614800779583598"><ele>241.0</ele><time>2026-04-06T10:55:59.999Z</time></trkpt><trkpt lat="44.211038434910954" lon="11.61475320460177"><ele>241.0</ele><time>2026-04-06T10:56:02.999Z</time></trkpt><trkpt lat="44.210976746615316" lon="11.614702609990212"><ele>241.00000000000003</ele><time>2026-04-06T10:56:05.999Z</time></trkpt><trkpt lat="44.21092040924005" lon="11.614658037086405"><ele>241.0</ele><time>2026-04-06T10:56:08.999Z</time></trkpt><trkpt lat="44.21086048461636" lon="11.614618498899295"><ele>241.0</ele><time>2026-04-06T10:56:11.999Z</time></trkpt><trkpt lat="44.2107891401853" lon="11.614557612123594"><ele>241.00000000000003</ele><time>2026-04-06T10:56:15.999Z</time></trkpt><trkpt lat="44.21072234973118" lon="11.614497618349771"><ele>241.0</ele><time>2026-04-06T10:56:19.999Z</time></trkpt><trkpt lat="44.210663661991596" lon="11.614439577157007"><ele>241.0</ele><time>2026-04-06T10:56:23.999Z</time></trkpt><trkpt lat="44.21059986142035" lon="11.614394662729852"><ele>243.16666666666666</ele><time>2026-04-06T10:56:28.999Z</time></trkpt><trkpt lat="44.210533268081996" lon="11.614341674895464"><ele>245.33333333333331</ele><time>2026-04-06T10:56:32.999Z</time></trkpt><trkpt lat="44.21045978310331" lon="11.61429394502464"><ele>247.5</ele><time>2026-04-06T10:56:36.999Z</time></trkpt><trkpt lat="44.210387629055205" lon="11.614252140248901"><ele>249.66666666666669</ele><time>2026-04-06T10:56:40.999Z</time></trkpt><trkpt lat="44.21030968549126" lon="11.614212196365028"><ele>251.83333333333334</ele><time>2026-04-06T10:56:44.999Z</time></trkpt><trkpt lat="44.21023484686759" lon="11.614161318727547"><ele>254.0</ele><time>2026-04-06T10:56:48.999Z</time></trkpt><trkpt lat="44.21016657163758" lon="11.614126335655493"><ele>254.00000000000003</ele><time>2026-04-06T10:56:51.999Z</time></trkpt><trkpt lat="44.21009437860046" lon="11.614098740335367"><ele>254.0</ele><time>2026-04-06T10:56:54.999Z</time></trkpt><trkpt lat="44.21002369824465" lon="11.614057788168491"><ele>254.0</ele><time>2026-04-06T10:56:57.999Z</time></trkpt><trkpt lat="44.20994967997025" lon="11.614020922606372"><ele>254.0</ele><time>2026-04-06T10:57:00.999Z</time></trkpt><trkpt lat="44.20987950393165" lon="11.613975635961381"><ele>254.00000000000003</ele><time>2026-04-06T10:57:03.999Z</time></trkpt><trkpt lat="44.20981403359982" lon="11.613920919285782"><ele>254.0</ele><time>2026-04-06T10:57:06.999Z</time></trkpt><trkpt lat="44.20974571291502" lon="11.613862741710403"><ele>252.83333333333334</ele><time>2026-04-06T10:57:09.999Z</time></trkpt><trkpt lat="44.20966643099745" lon="11.613820227193957"><ele>251.66666666666669</ele><time>2026-04-06T10:57:12.999Z</time></trkpt><trkpt lat="44.209603626825945" lon="11.613790848590677"><ele>250.5</ele><time>2026-04-06T10:57:14.999Z</time></trkpt><trkpt lat="44.20951607430399" lon="11.613764843745487"><ele>249.33333333333331</ele><time>2026-04-06T10:57:17.999Z</time></trkpt><trkpt lat="44.20943264825954" lon="11.613737898261096"><ele>248.16666666666666</ele><time>2026-04-06T10:57:20.999Z</time></trkpt><trkpt lat="44.20934496202662" lon="11.613721775124729"><ele>247.0</ele><time>2026-04-06T10:57:23.999Z</time></trkpt><trkpt lat="44.20927056217696" lon="11.613701381059919"><ele>246.99999999999997</ele><time>2026-04-06T10:57:26.999Z</time></trkpt><trkpt lat="44.2091868583198" lon="11.613694742485235"><ele>247.0</ele><time>2026-04-06T10:57:30Z</time></trkpt><trkpt lat="44.20911340914699" lon="11.613685915600062"><ele>247.0</ele><time>2026-04-06T10:57:33Z</time></trkpt><trkpt lat="44.20903373129437" lon="11.61367814575633"><ele>247.0</ele><time>2026-04-06T10:57:36Z</time></trkpt><trkpt lat="44.20895748556685" lon="11.613672437986137"><ele>246.99999999999997</ele><time>2026-04-06T10:57:39Z</time></trkpt><trkpt lat="44.20887550225134" lon="11.613664491200895"><ele>247.0</ele><time>2026-04-06T10:57:42Z</time></trkpt><trkpt lat="44.208804847149345" lon="11.613664121360687"><ele>246.85714285714286</ele><time>2026-04-06T10:57:45Z</time></trkpt><trkpt lat="44.20873198338416" lon="11.61365804397689"><ele>246.71428571428572</ele><time>2026-04-06T10:57:48Z</time></trkpt><trkpt lat="44.20866388422026" lon="11.613655725728158"><ele>246.57142857142858</ele><time>2026-04-06T10:57:51Z</time></trkpt><trkpt lat="44.20858939098277" lon="11.613637443877987"><ele>246.42857142857144</ele><time>2026-04-06T10:57:54Z</time></trkpt><trkpt lat="44.208523888955256" lon="11.613610749458362"><ele>246.28571428571428</ele><time>2026-04-06T10:57:57Z</time></trkpt><trkpt lat="44.208449198607305" lon="11.61355800855959"><ele>246.14285714285717</ele><time>2026-04-06T10:57:59.999Z</time></trkpt><trkpt lat="44.208403394904515" lon="11.613490292440984"><ele>246.00000000000003</ele><time>2026-04-06T10:58:01.999Z</time></trkpt><trkpt lat="44.208386995363846" lon="11.613387895956686"><ele>246.0</ele><time>2026-04-06T10:58:03.999Z</time></trkpt><trkpt lat="44.20841241147253" lon="11.613261556781115"><ele>246.0</ele><time>2026-04-06T10:58:05.999Z</time></trkpt><trkpt lat="44.208470131282596" lon="11.61313656114562"><ele>246.0</ele><time>2026-04-06T10:58:07.999Z</time></trkpt><trkpt lat="44.20849664322164" lon="11.613038344569247"><ele>246.0</ele><time>2026-04-06T10:58:08.999Z</time></trkpt><trkpt lat="44.208511340722" lon="11.612933304689513"><ele>246.0</ele><time>2026-04-06T10:58:09.999Z</time></trkpt><trkpt lat="44.208515424336845" lon="11.612810548411359"><ele>246.0</ele><time>2026-04-06T10:58:10.999Z</time></trkpt><trkpt lat="44.20850129972373" lon="11.612683243775434"><ele>245.66666666666666</ele><time>2026-04-06T10:58:11.999Z</time></trkpt><trkpt lat="44.20849163561172" lon="11.612559000650842"><ele>245.33333333333331</ele><time>2026-04-06T10:58:12.999Z</time></trkpt><trkpt lat="44.208511151333155" lon="11.612467529142783"><ele>245.0</ele><time>2026-04-06T10:58:13.999Z</time></trkpt><trkpt lat="44.208569177245025" lon="11.612367241671766"><ele>244.66666666666666</ele><time>2026-04-06T10:58:14.999Z</time></trkpt><trkpt lat="44.20866124699366" lon="11.612312703357414"><ele>244.33333333333331</ele><time>2026-04-06T10:58:15.999Z</time></trkpt><trkpt lat="44.208747832703224" lon="11.612287379090532"><ele>244.0</ele><time>2026-04-06T10:58:16.999Z</time></trkpt><trkpt lat="44.20884209141258" lon="11.612281599713661"><ele>243.99999999999997</ele><time>2026-04-06T10:58:17.999Z</time></trkpt><trkpt lat="44.20893000228133" lon="11.612293415886954"><ele>244.0</ele><time>2026-04-06T10:58:18.999Z</time></trkpt><trkpt lat="44.208998126515716" lon="11.612280495115545"><ele>244.0</ele><time>2026-04-06T10:58:19.999Z</time></trkpt><trkpt lat="44.209057619712794" lon="11.612223659251503"><ele>244.0</ele><time>2026-04-06T10:58:20.999Z</time></trkpt><trkpt lat="44.2090898829491" lon="11.612104909937843"><ele>243.99999999999997</ele><time>2026-04-06T10:58:21.999Z</time></trkpt><trkpt lat="44.209080068058775" lon="11.611970149783431"><ele>244.0</ele><time>2026-04-06T10:58:22.999Z</time></trkpt><trkpt lat="44.20905609868286" lon="11.611861023307705"><ele>244.39999999999998</ele><time>2026-04-06T10:58:23.999Z</time></trkpt><trkpt lat="44.20903680792452" lon="11.61174395522706"><ele>244.79999999999998</ele><time>2026-04-06T10:58:24.999Z</time></trkpt><trkpt lat="44.20897940005752" lon="11.611590278347554"><ele>245.20000000000002</ele><time>2026-04-06T10:58:26.999Z</time></trkpt><trkpt lat="44.20888282743129" lon="11.61150574651896"><ele>245.60000000000002</ele><time>2026-04-06T10:58:28.999Z</time></trkpt><trkpt lat="44.20877624668971" lon="11.611533069247427"><ele>246.0</ele><time>2026-04-06T10:58:30.999Z</time></trkpt><trkpt lat="44.20867055364827" lon="11.611576078611048"><ele>246.0</ele><time>2026-04-06T10:58:32.999Z</time></trkpt><trkpt lat="44.208561449408826" lon="11.611632542026877"><ele>246.00000000000003</ele><time>2026-04-06T10:58:34.999Z</time></trkpt><trkpt lat="44.208465006619065" lon="11.611681700973863"><ele>246.00000000000003</ele><time>2026-04-06T10:58:36.999Z</time></trkpt><trkpt lat="44.208370286416084" lon="11.611695721898617"><ele>246.0</ele><time>2026-04-06T10:58:38.999Z</time></trkpt><trkpt lat="44.208281883048436" lon="11.611668852145659"><ele>246.0</ele><time>2026-04-06T10:58:40.999Z</time></trkpt><trkpt lat="44.20820523599989" lon="11.611643003351194"><ele>245.0</ele><time>2026-04-06T10:58:42.999Z</time></trkpt><trkpt lat="44.20814253264522" lon="11.611626707072913"><ele>244.0</ele><time>2026-04-06T10:58:44.999Z</time></trkpt><trkpt lat="44.20805635312771" lon="11.611606385590093"><ele>243.0</ele><time>2026-04-06T10:58:47.999Z</time></trkpt><trkpt lat="44.20797115612898" lon="11.61162069537132"><ele>242.0</ele><time>2026-04-06T10:58:50.999Z</time></trkpt><trkpt lat="44.20789092455782" lon="11.611637949785461"><ele>241.0</ele><time>2026-04-06T10:58:53.999Z</time></trkpt><trkpt lat="44.207811343665995" lon="11.61165664804213"><ele>240.0</ele><time>2026-04-06T10:58:56.999Z</time></trkpt><trkpt lat="44.207721392340844" lon="11.611631780893548"><ele>240.0</ele><time>2026-04-06T10:58:59.999Z</time></trkpt><trkpt lat="44.20764413837979" lon="11.61159042346853"><ele>240.0</ele><time>2026-04-06T10:59:02.999Z</time></trkpt><trkpt lat="44.207575760803664" lon="11.611545985469977"><ele>240.0</ele><time>2026-04-06T10:59:05.999Z</time></trkpt><trkpt lat="44.207508226888" lon="11.61150481578873"><ele>240.0</ele><time>2026-04-06T10:59:08.999Z</time></trkpt><trkpt lat="44.20744211732237" lon="11.611469981690009"><ele>240.0</ele><time>2026-04-06T10:59:11.999Z</time></trkpt><trkpt lat="44.20737922953174" lon="11.611446980697647"><ele>240.0</ele><time>2026-04-06T10:59:14.999Z</time></trkpt><trkpt lat="44.20731892080899" lon="11.611396207698862"><ele>240.0</ele><time>2026-04-06T10:59:17.999Z</time></trkpt><trkpt lat="44.20727586474503" lon="11.611326376071588"><ele>240.0</ele><time>2026-04-06T10:59:20.999Z</time></trkpt><trkpt lat="44.20730225432338" lon="11.611240170799222"><ele>240.0</ele><time>2026-04-06T10:59:23.999Z</time></trkpt><trkpt lat="44.20737743429662" lon="11.611209040858917"><ele>240.0</ele><time>2026-04-06T10:59:26.999Z</time></trkpt><trkpt lat="44.20743956856363" lon="11.611170890782216"><ele>240.0</ele><time>2026-04-06T10:59:29.999Z</time></trkpt><trkpt lat="44.207509539318494" lon="11.611136063502377"><ele>240.0</ele><time>2026-04-06T10:59:32.999Z</time></trkpt><trkpt lat="44.20757722435053" lon="11.611094765912432"><ele>240.0</ele><time>2026-04-06T10:59:36Z</time></trkpt><trkpt lat="44.20764388648307" lon="11.611059341126504"><ele>240.0</ele><time>2026-04-06T10:59:39Z</time></trkpt><trkpt lat="44.20770624166934" lon="11.611019897706182"><ele>241.57142857142858</ele><time>2026-04-06T10:59:42Z</time></trkpt><trkpt lat="44.20776566672816" lon="11.610967541098704"><ele>243.1428571428571</ele><time>2026-04-06T10:59:45Z</time></trkpt><trkpt lat="44.20782838092355" lon="11.610913172795435"><ele>244.7142857142857</ele><time>2026-04-06T10:59:48Z</time></trkpt><trkpt lat="44.20787964472823" lon="11.610852027314778"><ele>246.28571428571428</ele><time>2026-04-06T10:59:51Z</time></trkpt><trkpt lat="44.20793414328438" lon="11.610787394922909"><ele>247.85714285714283</ele><time>2026-04-06T10:59:54Z</time></trkpt><trkpt lat="44.207982706210274" lon="11.6107160067841"><ele>249.4285714285714</ele><time>2026-04-06T10:59:57Z</time></trkpt><trkpt lat="44.20803269959669" lon="11.610657740693838"><ele>250.99999999999997</ele><time>2026-04-06T11:00:00Z</time></trkpt><trkpt lat="44.208077392092335" lon="11.610595510756404"><ele>250.99999999999997</ele><time>2026-04-06T11:00:02.999Z</time></trkpt><trkpt lat="44.20813035658633" lon="11.610529859632923"><ele>251.0</ele><time>2026-04-06T11:00:05.999Z</time></trkpt><trkpt lat="44.208177638447786" lon="11.610453769076383"><ele>250.99999999999997</ele><time>2026-04-06T11:00:08.999Z</time></trkpt><trkpt lat="44.208244730164566" lon="11.6104025996524"><ele>250.99999999999997</ele><time>2026-04-06T11:00:11.999Z</time></trkpt><trkpt lat="44.20831710201278" lon="11.610372691528713"><ele>251.0</ele><time>2026-04-06T11:00:14.999Z</time></trkpt><trkpt lat="44.208387825204504" lon="11.610373301507812"><ele>250.99999999999997</ele><time>2026-04-06T11:00:17.999Z</time></trkpt><trkpt lat="44.208466116958725" lon="11.610382761109962"><ele>250.99999999999997</ele><time>2026-04-06T11:00:20.999Z</time></trkpt><trkpt lat="44.208543341568614" lon="11.610395488474344"><ele>253.33333333333334</ele><time>2026-04-06T11:00:23.999Z</time></trkpt><trkpt lat="44.208625469812155" lon="11.610407185151763"><ele>255.66666666666669</ele><time>2026-04-06T11:00:26.999Z</time></trkpt><trkpt lat="44.20871092257111" lon="11.61039918673159"><ele>258.0</ele><time>2026-04-06T11:00:29.999Z</time></trkpt><trkpt lat="44.20877725239393" lon="11.610343957497397"><ele>260.3333333333333</ele><time>2026-04-06T11:00:32.999Z</time></trkpt><trkpt lat="44.20882174358065" lon="11.610263159968978"><ele>262.66666666666663</ele><time>2026-04-06T11:00:35.999Z</time></trkpt><trkpt lat="44.20884208373536" lon="11.61016552321557"><ele>265.0</ele><time>2026-04-06T11:00:38.999Z</time></trkpt><trkpt lat="44.20885944338019" lon="11.610078175219012"><ele>266.4285714285714</ele><time>2026-04-06T11:00:41.999Z</time></trkpt><trkpt lat="44.208881998065635" lon="11.609989011026626"><ele>267.85714285714283</ele><time>2026-04-06T11:00:44.999Z</time></trkpt><trkpt lat="44.208912981344085" lon="11.609902934508218"><ele>269.2857142857143</ele><time>2026-04-06T11:00:47.999Z</time></trkpt><trkpt lat="44.20895785907132" lon="11.609824977783372"><ele>270.71428571428567</ele><time>2026-04-06T11:00:50.999Z</time></trkpt><trkpt lat="44.209010538963796" lon="11.609762562958343"><ele>272.1428571428571</ele><time>2026-04-06T11:00:53.999Z</time></trkpt><trkpt lat="44.20907297232877" lon="11.609712720242022"><ele>273.57142857142856</ele><time>2026-04-06T11:00:56.999Z</time></trkpt><trkpt lat="44.2091361713338" lon="11.60966540031036"><ele>275.0</ele><time>2026-04-06T11:00:59.999Z</time></trkpt><trkpt lat="44.20920049156545" lon="11.609630580347448"><ele>275.0</ele><time>2026-04-06T11:01:02.999Z</time></trkpt><trkpt lat="44.20926937302149" lon="11.609604838980776"><ele>275.0</ele><time>2026-04-06T11:01:05.999Z</time></trkpt><trkpt lat="44.20933104393607" lon="11.609568055689168"><ele>275.0</ele><time>2026-04-06T11:01:08.999Z</time></trkpt><trkpt lat="44.20937898407033" lon="11.609507207187557"><ele>275.0</ele><time>2026-04-06T11:01:11.999Z</time></trkpt><trkpt lat="44.20935024047293" lon="11.609414025396998"><ele>275.0</ele><time>2026-04-06T11:01:14.999Z</time></trkpt><trkpt lat="44.20927986206868" lon="11.609378843696794"><ele>275.0</ele><time>2026-04-06T11:01:17.999Z</time></trkpt><trkpt lat="44.20920231402943" lon="11.609394481768089"><ele>275.0</ele><time>2026-04-06T11:01:20.999Z</time></trkpt><trkpt lat="44.209118719528604" lon="11.609416138643846"><ele>278.14285714285717</ele><time>2026-04-06T11:01:23.999Z</time></trkpt><trkpt lat="44.20903429436337" lon="11.609409875850798"><ele>281.2857142857143</ele><time>2026-04-06T11:01:26.999Z</time></trkpt><trkpt lat="44.208956713814025" lon="11.609421781811294"><ele>284.42857142857144</ele><time>2026-04-06T11:01:29.999Z</time></trkpt><trkpt lat="44.20888889068849" lon="11.609406855655934"><ele>287.57142857142856</ele><time>2026-04-06T11:01:32.999Z</time></trkpt><trkpt lat="44.20881257110984" lon="11.60940658626078"><ele>290.7142857142857</ele><time>2026-04-06T11:01:37.999Z</time></trkpt><trkpt lat="44.20874091175559" lon="11.609385513296724"><ele>293.8571428571429</ele><time>2026-04-06T11:01:42Z</time></trkpt><trkpt lat="44.208679408919096" lon="11.609362723266447"><ele>297.0</ele><time>2026-04-06T11:01:45Z</time></trkpt><trkpt lat="44.20861134490529" lon="11.609325828974155"><ele>298.3333333333333</ele><time>2026-04-06T11:01:48Z</time></trkpt><trkpt lat="44.20854355413218" lon="11.609298324859989"><ele>299.6666666666667</ele><time>2026-04-06T11:01:51Z</time></trkpt><trkpt lat="44.20847834073236" lon="11.60926671011196"><ele>301.0</ele><time>2026-04-06T11:01:54Z</time></trkpt><trkpt lat="44.20840621806094" lon="11.609243674087386"><ele>302.33333333333337</ele><time>2026-04-06T11:01:57Z</time></trkpt><trkpt lat="44.20832733045356" lon="11.609234035221812"><ele>303.6666666666667</ele><time>2026-04-06T11:02:00Z</time></trkpt><trkpt lat="44.20824744609367" lon="11.609238116850177"><ele>305.0</ele><time>2026-04-06T11:02:03Z</time></trkpt><trkpt lat="44.208167038119285" lon="11.60924221531666"><ele>304.5</ele><time>2026-04-06T11:02:05.999Z</time></trkpt><trkpt lat="44.20809267343759" lon="11.60927596988531"><ele>304.0</ele><time>2026-04-06T11:02:08.999Z</time></trkpt><trkpt lat="44.20801797616158" lon="11.60931485084415"><ele>303.5</ele><time>2026-04-06T11:02:11.999Z</time></trkpt><trkpt lat="44.20794255555458" lon="11.60935548674223"><ele>303.0</ele><time>2026-04-06T11:02:14.999Z</time></trkpt><trkpt lat="44.207869318885756" lon="11.609408900105997"><ele>302.5</ele><time>2026-04-06T11:02:17.999Z</time></trkpt><trkpt lat="44.20779318014027" lon="11.609440217637228"><ele>302.0</ele><time>2026-04-06T11:02:20.999Z</time></trkpt><trkpt lat="44.20771819554174" lon="11.609488247080916"><ele>302.0</ele><time>2026-04-06T11:02:23.999Z</time></trkpt><trkpt lat="44.20764423961074" lon="11.609547034983743"><ele>302.0</ele><time>2026-04-06T11:02:26.999Z</time></trkpt><trkpt lat="44.207573093911535" lon="11.609566620818153"><ele>302.0</ele><time>2026-04-06T11:02:28.999Z</time></trkpt><trkpt lat="44.20750080913045" lon="11.609556005346528"><ele>302.0</ele><time>2026-04-06T11:02:30.999Z</time></trkpt><trkpt lat="44.20742636332869" lon="11.60951441038048"><ele>302.0</ele><time>2026-04-06T11:02:32.999Z</time></trkpt><trkpt lat="44.20736132707767" lon="11.609410011562703"><ele>302.0</ele><time>2026-04-06T11:02:34.999Z</time></trkpt><trkpt lat="44.20732006749747" lon="11.609279902895628"><ele>299.33333333333337</ele><time>2026-04-06T11:02:36.999Z</time></trkpt><trkpt lat="44.20729051646865" lon="11.609153867172386"><ele>296.6666666666667</ele><time>2026-04-06T11:02:38.999Z</time></trkpt><trkpt lat="44.2072677894093" lon="11.609039851892152"><ele>294.0</ele><time>2026-04-06T11:02:40.999Z</time></trkpt><trkpt lat="44.207247462151486" lon="11.608931396132109"><ele>291.3333333333333</ele><time>2026-04-06T11:02:42.999Z</time></trkpt><trkpt lat="44.20722604103805" lon="11.608824192937968"><ele>288.66666666666663</ele><time>2026-04-06T11:02:44.999Z</time></trkpt><trkpt lat="44.20720732880142" lon="11.608722381206235"><ele>286.0</ele><time>2026-04-06T11:02:46.999Z</time></trkpt><trkpt lat="44.207189587089324" lon="11.608623647165361"><ele>286.0</ele><time>2026-04-06T11:02:48.999Z</time></trkpt><trkpt lat="44.20714829360499" lon="11.608519451764229"><ele>286.0</ele><time>2026-04-06T11:02:51.999Z</time></trkpt><trkpt lat="44.207111674874746" lon="11.608423718939106"><ele>286.0</ele><time>2026-04-06T11:02:54.999Z</time></trkpt><trkpt lat="44.207067921694446" lon="11.608332108470954"><ele>286.0</ele><time>2026-04-06T11:02:57.999Z</time></trkpt><trkpt lat="44.20701902664429" lon="11.608236863359796"><ele>286.0</ele><time>2026-04-06T11:03:00.999Z</time></trkpt><trkpt lat="44.206973123537786" lon="11.60814311796168"><ele>286.0</ele><time>2026-04-06T11:03:03.999Z</time></trkpt><trkpt lat="44.20695435673161" lon="11.60804071262943"><ele>285.99999999999994</ele><time>2026-04-06T11:03:06.999Z</time></trkpt><trkpt lat="44.20697124928081" lon="11.607942838968537"><ele>286.0</ele><time>2026-04-06T11:03:09.999Z</time></trkpt><trkpt lat="44.207066497776054" lon="11.608008061815477"><ele>286.0</ele><time>2026-04-06T11:03:13.999Z</time></trkpt><trkpt lat="44.20708000855658" lon="11.608098667184706"><ele>286.0</ele><time>2026-04-06T11:03:15.999Z</time></trkpt><trkpt lat="44.20710405806401" lon="11.608185135787002"><ele>286.0</ele><time>2026-04-06T11:03:17.999Z</time></trkpt><trkpt lat="44.2071324936228" lon="11.608267484350359"><ele>285.99999999999994</ele><time>2026-04-06T11:03:19.999Z</time></trkpt><trkpt lat="44.2071618163882" lon="11.60834843745476"><ele>286.0</ele><time>2026-04-06T11:03:21.999Z</time></trkpt><trkpt lat="44.207198387960915" lon="11.608427765550484"><ele>285.99999999999994</ele><time>2026-04-06T11:03:23.999Z</time></trkpt><trkpt lat="44.207245825960634" lon="11.608496998848596"><ele>286.0</ele><time>2026-04-06T11:03:25.999Z</time></trkpt><trkpt lat="44.20727826521498" lon="11.60857438806699"><ele>286.0</ele><time>2026-04-06T11:03:27.999Z</time></trkpt><trkpt lat="44.207313798590334" lon="11.608647488432993"><ele>286.0</ele><time>2026-04-06T11:03:29.999Z</time></trkpt><trkpt lat="44.207352508052935" lon="11.608723051265653"><ele>286.0</ele><time>2026-04-06T11:03:31.999Z</time></trkpt><trkpt lat="44.20738771111247" lon="11.60879922777253"><ele>285.99999999999994</ele><time>2026-04-06T11:03:33.999Z</time></trkpt><trkpt lat="44.20742991142399" lon="11.60887148319029"><ele>286.0</ele><time>2026-04-06T11:03:35.999Z</time></trkpt><trkpt lat="44.207485697291894" lon="11.608932573338814"><ele>288.2857142857143</ele><time>2026-04-06T11:03:37.999Z</time></trkpt><trkpt lat="44.20755442030535" lon="11.608967380922566"><ele>290.57142857142856</ele><time>2026-04-06T11:03:39.999Z</time></trkpt><trkpt lat="44.20763157610468" lon="11.608950954981733"><ele>292.8571428571429</ele><time>2026-04-06T11:03:41.999Z</time></trkpt><trkpt lat="44.20769755435386" lon="11.60892005553922"><ele>295.1428571428571</ele><time>2026-04-06T11:03:43.999Z</time></trkpt><trkpt lat="44.207767542339234" lon="11.608894759596586"><ele>297.42857142857144</ele><time>2026-04-06T11:03:46Z</time></trkpt><trkpt lat="44.20784073036178" lon="11.60887931691027"><ele>299.7142857142857</ele><time>2026-04-06T11:03:48Z</time></trkpt><trkpt lat="44.20790862951023" lon="11.608862371259514"><ele>302.0</ele><time>2026-04-06T11:03:50Z</time></trkpt><trkpt lat="44.20798276046578" lon="11.608840936654515"><ele>302.00000000000006</ele><time>2026-04-06T11:03:52Z</time></trkpt><trkpt lat="44.20805280760487" lon="11.608830614158505"><ele>302.0</ele><time>2026-04-06T11:03:54Z</time></trkpt><trkpt lat="44.20812301634866" lon="11.60881010195903"><ele>302.0</ele><time>2026-04-06T11:03:56Z</time></trkpt><trkpt lat="44.208195716685196" lon="11.608791018086064"><ele>302.0</ele><time>2026-04-06T11:03:58Z</time></trkpt><trkpt lat="44.20825881196049" lon="11.608747719490845"><ele>302.0</ele><time>2026-04-06T11:04:00Z</time></trkpt><trkpt lat="44.20831624804174" lon="11.608685594385756"><ele>302.00000000000006</ele><time>2026-04-06T11:04:02Z</time></trkpt><trkpt lat="44.20837204258492" lon="11.608616549131396"><ele>302.0</ele><time>2026-04-06T11:04:04Z</time></trkpt><trkpt lat="44.20843144452488" lon="11.608563933832407"><ele>307.0</ele><time>2026-04-06T11:04:06Z</time></trkpt><trkpt lat="44.20849136435655" lon="11.608521249925671"><ele>312.0</ele><time>2026-04-06T11:04:08Z</time></trkpt><trkpt lat="44.20856203361718" lon="11.60846652966478"><ele>317.0</ele><time>2026-04-06T11:04:09.999Z</time></trkpt><trkpt lat="44.208632139027806" lon="11.60840448288751"><ele>322.0</ele><time>2026-04-06T11:04:11.999Z</time></trkpt><trkpt lat="44.208698374670064" lon="11.608340250561353"><ele>327.0</ele><time>2026-04-06T11:04:13.999Z</time></trkpt><trkpt lat="44.20876192703353" lon="11.608284894442145"><ele>332.0</ele><time>2026-04-06T11:04:15.999Z</time></trkpt><trkpt lat="44.208831761282866" lon="11.608227572668246"><ele>332.0</ele><time>2026-04-06T11:04:17.999Z</time></trkpt><trkpt lat="44.20889405998652" lon="11.60815481528898"><ele>332.0</ele><time>2026-04-06T11:04:19.999Z</time></trkpt><trkpt lat="44.20895309977066" lon="11.60808299913265"><ele>332.0</ele><time>2026-04-06T11:04:21.999Z</time></trkpt><trkpt lat="44.20901036410295" lon="11.608015453107544"><ele>332.0</ele><time>2026-04-06T11:04:23.999Z</time></trkpt><trkpt lat="44.20907379168001" lon="11.607938261229982"><ele>332.0</ele><time>2026-04-06T11:04:25.999Z</time></trkpt><trkpt lat="44.209132477879734" lon="11.607874105462562"><ele>332.0</ele><time>2026-04-06T11:04:27.999Z</time></trkpt><trkpt lat="44.209189872355694" lon="11.607810190665193"><ele>333.0</ele><time>2026-04-06T11:04:29.999Z</time></trkpt><trkpt lat="44.20925719475495" lon="11.607749763231073"><ele>334.0</ele><time>2026-04-06T11:04:31.999Z</time></trkpt><trkpt lat="44.209330721740564" lon="11.607712898143685"><ele>335.0</ele><time>2026-04-06T11:04:33.999Z</time></trkpt><trkpt lat="44.209423296518224" lon="11.607669154314094"><ele>336.0</ele><time>2026-04-06T11:04:35.999Z</time></trkpt><trkpt lat="44.2095052150033" lon="11.607604641369278"><ele>337.0</ele><time>2026-04-06T11:04:37.999Z</time></trkpt><trkpt lat="44.20957509192256" lon="11.607524253358253"><ele>338.0</ele><time>2026-04-06T11:04:39.999Z</time></trkpt><trkpt lat="44.20962011545895" lon="11.607431012858484"><ele>338.0</ele><time>2026-04-06T11:04:41.999Z</time></trkpt><trkpt lat="44.20965287093828" lon="11.607335558757166"><ele>338.0</ele><time>2026-04-06T11:04:43.999Z</time></trkpt><trkpt lat="44.209675501147714" lon="11.607237558296887"><ele>338.0</ele><time>2026-04-06T11:04:45.999Z</time></trkpt><trkpt lat="44.209700994816444" lon="11.607155506550642"><ele>338.0</ele><time>2026-04-06T11:04:47.999Z</time></trkpt><trkpt lat="44.20975386230573" lon="11.60705361046225"><ele>338.0</ele><time>2026-04-06T11:04:50.999Z</time></trkpt><trkpt lat="44.20980893179445" lon="11.606960153952993"><ele>338.0</ele><time>2026-04-06T11:04:53.999Z</time></trkpt><trkpt lat="44.2098651491064" lon="11.60687714675435"><ele>338.1666666666667</ele><time>2026-04-06T11:04:56.999Z</time></trkpt><trkpt lat="44.20991031925487" lon="11.606789213085477"><ele>338.33333333333337</ele><time>2026-04-06T11:04:59.999Z</time></trkpt><trkpt lat="44.20996034747627" lon="11.606694706037521"><ele>338.5</ele><time>2026-04-06T11:05:02.999Z</time></trkpt><trkpt lat="44.20998783928925" lon="11.606596295693263"><ele>338.6666666666667</ele><time>2026-04-06T11:05:05.999Z</time></trkpt><trkpt lat="44.20997583035461" lon="11.606486166764084"><ele>338.8333333333333</ele><time>2026-04-06T11:05:08.999Z</time></trkpt><trkpt lat="44.20993543743333" lon="11.606391091276935"><ele>339.0</ele><time>2026-04-06T11:05:11.999Z</time></trkpt><trkpt lat="44.20989665139343" lon="11.606302460808864"><ele>339.0</ele><time>2026-04-06T11:05:14.999Z</time></trkpt><trkpt lat="44.20984663463876" lon="11.606233633484093"><ele>339.0</ele><time>2026-04-06T11:05:17.999Z</time></trkpt><trkpt lat="44.20978193076499" lon="11.606157099984873"><ele>339.0</ele><time>2026-04-06T11:05:21.999Z</time></trkpt><trkpt lat="44.20972731736822" lon="11.606107958402847"><ele>339.0</ele><time>2026-04-06T11:05:24.999Z</time></trkpt><trkpt lat="44.20964793391215" lon="11.606065043040095"><ele>339.0</ele><time>2026-04-06T11:05:28.999Z</time></trkpt><trkpt lat="44.20956539595163" lon="11.606058078579196"><ele>339.0</ele><time>2026-04-06T11:05:32.999Z</time></trkpt><trkpt lat="44.20950204187173" lon="11.606086365273264"><ele>341.85714285714283</ele><time>2026-04-06T11:05:35.999Z</time></trkpt><trkpt lat="44.20944105882547" lon="11.606117367952788"><ele>344.7142857142857</ele><time>2026-04-06T11:05:38.999Z</time></trkpt><trkpt lat="44.209378725490915" lon="11.606141981938341"><ele>347.57142857142856</ele><time>2026-04-06T11:05:41.999Z</time></trkpt><trkpt lat="44.20931400106919" lon="11.606149212963581"><ele>350.42857142857144</ele><time>2026-04-06T11:05:44.999Z</time></trkpt><trkpt lat="44.20925141537748" lon="11.606106434258308"><ele>353.28571428571433</ele><time>2026-04-06T11:05:47.999Z</time></trkpt><trkpt lat="44.20920880547798" lon="11.606040790622048"><ele>356.14285714285717</ele><time>2026-04-06T11:05:50.999Z</time></trkpt><trkpt lat="44.20921868460588" lon="11.605943895198097"><ele>359.0</ele><time>2026-04-06T11:05:53.999Z</time></trkpt><trkpt lat="44.20924740672238" lon="11.60583505646327"><ele>359.0</ele><time>2026-04-06T11:05:57.999Z</time></trkpt><trkpt lat="44.2092759333643" lon="11.605752299422111"><ele>359.0</ele><time>2026-04-06T11:06:00.999Z</time></trkpt><trkpt lat="44.209301334860875" lon="11.605657586708299"><ele>359.0</ele><time>2026-04-06T11:06:03.999Z</time></trkpt><trkpt lat="44.20932611590394" lon="11.605558093030435"><ele>359.0</ele><time>2026-04-06T11:06:06.999Z</time></trkpt><trkpt lat="44.2093489225203" lon="11.605456583508044"><ele>359.0</ele><time>2026-04-06T11:06:09.999Z</time></trkpt><trkpt lat="44.20937416337884" lon="11.60535608834389"><ele>359.0</ele><time>2026-04-06T11:06:12.999Z</time></trkpt><trkpt lat="44.209386362093355" lon="11.605242674243044"><ele>359.0</ele><time>2026-04-06T11:06:15.999Z</time></trkpt><trkpt lat="44.209386467613044" lon="11.605132957350406"><ele>360.0</ele><time>2026-04-06T11:06:18.999Z</time></trkpt><trkpt lat="44.20938161866349" lon="11.605036652066259"><ele>361.0</ele><time>2026-04-06T11:06:21.999Z</time></trkpt><trkpt lat="44.20937020554777" lon="11.604932541791468"><ele>362.0</ele><time>2026-04-06T11:06:24.999Z</time></trkpt><trkpt lat="44.20936613447973" lon="11.60483652114928"><ele>363.0</ele><time>2026-04-06T11:06:27.999Z</time></trkpt><trkpt lat="44.2093820097642" lon="11.604734272186358"><ele>364.0</ele><time>2026-04-06T11:06:30.999Z</time></trkpt><trkpt lat="44.209408076629266" lon="11.60463140435574"><ele>365.0</ele><time>2026-04-06T11:06:33.999Z</time></trkpt><trkpt lat="44.20943341597069" lon="11.60452993379988"><ele>366.0</ele><time>2026-04-06T11:06:36.999Z</time></trkpt><trkpt lat="44.20946351122009" lon="11.604423782568768"><ele>366.6666666666667</ele><time>2026-04-06T11:06:39.999Z</time></trkpt><trkpt lat="44.209488455414814" lon="11.604324400109718"><ele>367.3333333333333</ele><time>2026-04-06T11:06:42.999Z</time></trkpt><trkpt lat="44.209507980763355" lon="11.604220149183641"><ele>368.0</ele><time>2026-04-06T11:06:45.999Z</time></trkpt><trkpt lat="44.20954904597191" lon="11.604122175260759"><ele>368.66666666666663</ele><time>2026-04-06T11:06:48.999Z</time></trkpt><trkpt lat="44.20959131603632" lon="11.604029900588651"><ele>369.3333333333333</ele><time>2026-04-06T11:06:51.999Z</time></trkpt><trkpt lat="44.20963546640456" lon="11.603940214723925"><ele>370.0</ele><time>2026-04-06T11:06:54.999Z</time></trkpt><trkpt lat="44.20967118922443" lon="11.603851493562109"><ele>370.0</ele><time>2026-04-06T11:06:57.999Z</time></trkpt><trkpt lat="44.20969842105728" lon="11.603752084611216"><ele>370.0</ele><time>2026-04-06T11:07:00.999Z</time></trkpt><trkpt lat="44.209726443043614" lon="11.60365797219783"><ele>370.0</ele><time>2026-04-06T11:07:03.999Z</time></trkpt><trkpt lat="44.20975533920338" lon="11.603555953590238"><ele>370.0</ele><time>2026-04-06T11:07:06.999Z</time></trkpt><trkpt lat="44.20978336658741" lon="11.603449460955783"><ele>370.0</ele><time>2026-04-06T11:07:09.999Z</time></trkpt><trkpt lat="44.20983292199689" lon="11.603325236489486"><ele>370.0</ele><time>2026-04-06T11:07:12.999Z</time></trkpt><trkpt lat="44.20987926497435" lon="11.603224578974134"><ele>369.2857142857143</ele><time>2026-04-06T11:07:14.999Z</time></trkpt><trkpt lat="44.20992669276026" lon="11.603127686026188"><ele>368.57142857142856</ele><time>2026-04-06T11:07:16.999Z</time></trkpt><trkpt lat="44.20997636352591" lon="11.603038004014175"><ele>367.8571428571429</ele><time>2026-04-06T11:07:18.999Z</time></trkpt><trkpt lat="44.21003249850829" lon="11.602973571529686"><ele>367.1428571428571</ele><time>2026-04-06T11:07:20.999Z</time></trkpt><trkpt lat="44.2100965332787" lon="11.602944185248738"><ele>366.42857142857144</ele><time>2026-04-06T11:07:22.999Z</time></trkpt><trkpt lat="44.21016197720964" lon="11.602951341823156"><ele>365.7142857142857</ele><time>2026-04-06T11:07:24.999Z</time></trkpt><trkpt lat="44.21022901834185" lon="11.602966276709449"><ele>365.0</ele><time>2026-04-06T11:07:26.999Z</time></trkpt><trkpt lat="44.21029462229975" lon="11.602988523427037"><ele>365.0</ele><time>2026-04-06T11:07:28.999Z</time></trkpt><trkpt lat="44.21035750066756" lon="11.602998941946595"><ele>365.0</ele><time>2026-04-06T11:07:30.999Z</time></trkpt><trkpt lat="44.21043884868909" lon="11.602982603073265"><ele>365.0</ele><time>2026-04-06T11:07:33.999Z</time></trkpt><trkpt lat="44.210510915530456" lon="11.602914575938808"><ele>365.0</ele><time>2026-04-06T11:07:36.999Z</time></trkpt><trkpt lat="44.21055312357546" lon="11.602813595626642"><ele>365.0</ele><time>2026-04-06T11:07:39.999Z</time></trkpt><trkpt lat="44.210577991893445" lon="11.60270523816009"><ele>365.0</ele><time>2026-04-06T11:07:42.999Z</time></trkpt><trkpt lat="44.21060034548387" lon="11.602603268027698"><ele>368.5</ele><time>2026-04-06T11:07:45.999Z</time></trkpt><trkpt lat="44.21061190210209" lon="11.602496580918226"><ele>372.0</ele><time>2026-04-06T11:07:48.999Z</time></trkpt><trkpt lat="44.21062831089078" lon="11.602377065860992"><ele>375.5</ele><time>2026-04-06T11:07:51.999Z</time></trkpt><trkpt lat="44.210637576327635" lon="11.602263834779501"><ele>379.0</ele><time>2026-04-06T11:07:54.999Z</time></trkpt><trkpt lat="44.21064665494249" lon="11.60214241659704"><ele>382.49999999999994</ele><time>2026-04-06T11:07:57.999Z</time></trkpt><trkpt lat="44.21065045573461" lon="11.602024485176015"><ele>386.0</ele><time>2026-04-06T11:08:00.999Z</time></trkpt><trkpt lat="44.21065384198815" lon="11.601905638282503"><ele>385.49999999999994</ele><time>2026-04-06T11:08:03.999Z</time></trkpt><trkpt lat="44.210659101748476" lon="11.601779867979962"><ele>385.0</ele><time>2026-04-06T11:08:06.999Z</time></trkpt><trkpt lat="44.210645329345574" lon="11.601656298944677"><ele>384.5</ele><time>2026-04-06T11:08:09.999Z</time></trkpt><trkpt lat="44.210647042342046" lon="11.601534594394847"><ele>384.0</ele><time>2026-04-06T11:08:12.999Z</time></trkpt><trkpt lat="44.210639589961886" lon="11.601415939110215"><ele>383.5</ele><time>2026-04-06T11:08:15.999Z</time></trkpt><trkpt lat="44.21062732453145" lon="11.601299842993605"><ele>383.0</ele><time>2026-04-06T11:08:18.999Z</time></trkpt><trkpt lat="44.21060785959135" lon="11.601177441326879"><ele>385.33333333333337</ele><time>2026-04-06T11:08:21.999Z</time></trkpt><trkpt lat="44.21061713649179" lon="11.601062958127885"><ele>387.6666666666667</ele><time>2026-04-06T11:08:24.999Z</time></trkpt><trkpt lat="44.21063611367942" lon="11.60094582076481"><ele>390.0</ele><time>2026-04-06T11:08:27.999Z</time></trkpt><trkpt lat="44.21069079413768" lon="11.60085383990693"><ele>392.33333333333337</ele><time>2026-04-06T11:08:30.999Z</time></trkpt><trkpt lat="44.21074658766695" lon="11.600810660138714"><ele>394.6666666666667</ele><time>2026-04-06T11:08:32.999Z</time></trkpt><trkpt lat="44.21083123095986" lon="11.600758100154833"><ele>397.0</ele><time>2026-04-06T11:08:35.999Z</time></trkpt><trkpt lat="44.21092448750674" lon="11.60073370376838"><ele>397.0</ele><time>2026-04-06T11:08:38.999Z</time></trkpt><trkpt lat="44.21099149626789" lon="11.600733667118693"><ele>397.0</ele><time>2026-04-06T11:08:40.999Z</time></trkpt><trkpt lat="44.21105835058884" lon="11.600728312026606"><ele>397.0</ele><time>2026-04-06T11:08:42.999Z</time></trkpt><trkpt lat="44.211126972299525" lon="11.600733344624304"><ele>397.0</ele><time>2026-04-06T11:08:44.999Z</time></trkpt><trkpt lat="44.21119660439509" lon="11.60073697085052"><ele>397.0</ele><time>2026-04-06T11:08:46.999Z</time></trkpt><trkpt lat="44.211264253098996" lon="11.600743256644272"><ele>397.0</ele><time>2026-04-06T11:08:48.999Z</time></trkpt><trkpt lat="44.211328932647774" lon="11.600747195279638"><ele>397.0</ele><time>2026-04-06T11:08:50.999Z</time></trkpt><trkpt lat="44.211396054397945" lon="11.600743601371153"><ele>397.0</ele><time>2026-04-06T11:08:52.999Z</time></trkpt><trkpt lat="44.21146126205007" lon="11.600759958922627"><ele>397.0</ele><time>2026-04-06T11:08:54.999Z</time></trkpt><trkpt lat="44.21152995352443" lon="11.60077769880597"><ele>397.0</ele><time>2026-04-06T11:08:56.999Z</time></trkpt><trkpt lat="44.21160134569271" lon="11.60081443899111"><ele>397.0</ele><time>2026-04-06T11:08:58.999Z</time></trkpt><trkpt lat="44.21167180744754" lon="11.60085763619494"><ele>397.0</ele><time>2026-04-06T11:09:00.999Z</time></trkpt><trkpt lat="44.21174028262678" lon="11.600914828482699"><ele>397.0</ele><time>2026-04-06T11:09:02.999Z</time></trkpt><trkpt lat="44.211809002682976" lon="11.60096847791514"><ele>397.0</ele><time>2026-04-06T11:09:04.999Z</time></trkpt><trkpt lat="44.2118749651787" lon="11.60101712234679"><ele>397.57142857142856</ele><time>2026-04-06T11:09:06.999Z</time></trkpt><trkpt lat="44.21194273752975" lon="11.601044533334472"><ele>398.1428571428571</ele><time>2026-04-06T11:09:08.999Z</time></trkpt><trkpt lat="44.212012231056775" lon="11.601038004120683"><ele>398.7142857142857</ele><time>2026-04-06T11:09:10.999Z</time></trkpt><trkpt lat="44.21207333523554" lon="11.600987237842608"><ele>399.2857142857143</ele><time>2026-04-06T11:09:12.999Z</time></trkpt><trkpt lat="44.212128626349994" lon="11.600930020473564"><ele>399.8571428571429</ele><time>2026-04-06T11:09:14.999Z</time></trkpt><trkpt lat="44.21217872149755" lon="11.600870076433358"><ele>400.42857142857144</ele><time>2026-04-06T11:09:16.999Z</time></trkpt><trkpt lat="44.212238231778365" lon="11.600828106313415"><ele>401.0</ele><time>2026-04-06T11:09:18.999Z</time></trkpt><trkpt lat="44.212312131223975" lon="11.60078062973792"><ele>401.49999999999994</ele><time>2026-04-06T11:09:21.999Z</time></trkpt><trkpt lat="44.212389734804184" lon="11.600754284430238"><ele>402.0</ele><time>2026-04-06T11:09:24.999Z</time></trkpt><trkpt lat="44.21245046543115" lon="11.600717743697382"><ele>402.5</ele><time>2026-04-06T11:09:27.999Z</time></trkpt><trkpt lat="44.21253228563714" lon="11.600690707701515"><ele>403.0</ele><time>2026-04-06T11:09:30.999Z</time></trkpt><trkpt lat="44.21259707312828" lon="11.600656177656123"><ele>403.49999999999994</ele><time>2026-04-06T11:09:32.999Z</time></trkpt><trkpt lat="44.212687483093795" lon="11.600637012948473"><ele>404.0</ele><time>2026-04-06T11:09:35.999Z</time></trkpt><trkpt lat="44.212754852528974" lon="11.600622215279772"><ele>403.99999999999994</ele><time>2026-04-06T11:09:37.999Z</time></trkpt><trkpt lat="44.212846392596404" lon="11.600602468874591"><ele>404.0</ele><time>2026-04-06T11:09:40.999Z</time></trkpt><trkpt lat="44.212909609659405" lon="11.600587257833174"><ele>404.0</ele><time>2026-04-06T11:09:42.999Z</time></trkpt><trkpt lat="44.21297794251516" lon="11.60057048422296"><ele>404.0</ele><time>2026-04-06T11:09:44.999Z</time></trkpt><trkpt lat="44.21305672883025" lon="11.600548062228356"><ele>403.99999999999994</ele><time>2026-04-06T11:09:46.999Z</time></trkpt><trkpt lat="44.21314424879076" lon="11.600501095442167"><ele>404.0</ele><time>2026-04-06T11:09:48.999Z</time></trkpt><trkpt lat="44.213240459315614" lon="11.600442684517365"><ele>404.66666666666663</ele><time>2026-04-06T11:09:50.999Z</time></trkpt><trkpt lat="44.21334066747339" lon="11.600359333298899"><ele>405.3333333333333</ele><time>2026-04-06T11:09:52.999Z</time></trkpt><trkpt lat="44.21337975369235" lon="11.600282190661673"><ele>406.0</ele><time>2026-04-06T11:09:53.999Z</time></trkpt><trkpt lat="44.213411189963885" lon="11.60020140692271"><ele>406.66666666666663</ele><time>2026-04-06T11:09:54.999Z</time></trkpt><trkpt lat="44.21343971554521" lon="11.60011644715381"><ele>407.3333333333333</ele><time>2026-04-06T11:09:55.999Z</time></trkpt><trkpt lat="44.21346351087681" lon="11.600026144659857"><ele>408.0</ele><time>2026-04-06T11:09:56.999Z</time></trkpt><trkpt lat="44.21348846536971" lon="11.599936472116381"><ele>408.0</ele><time>2026-04-06T11:09:57.999Z</time></trkpt><trkpt lat="44.21351843218533" lon="11.599845528405785"><ele>408.0</ele><time>2026-04-06T11:09:58.999Z</time></trkpt><trkpt lat="44.21355303974261" lon="11.599759564114768"><ele>408.0</ele><time>2026-04-06T11:09:59.999Z</time></trkpt><trkpt lat="44.21359029524484" lon="11.599681757467389"><ele>408.0</ele><time>2026-04-06T11:10:00.999Z</time></trkpt><trkpt lat="44.2136639802493" lon="11.599556408110482"><ele>408.0</ele><time>2026-04-06T11:10:02.999Z</time></trkpt><trkpt lat="44.21374291394493" lon="11.599489787814665"><ele>408.0</ele><time>2026-04-06T11:10:04.999Z</time></trkpt><trkpt lat="44.21382318721703" lon="11.59944602397349"><ele>408.3333333333333</ele><time>2026-04-06T11:10:06.999Z</time></trkpt><trkpt lat="44.21390387403905" lon="11.59941316696304"><ele>408.66666666666663</ele><time>2026-04-06T11:10:08.999Z</time></trkpt><trkpt lat="44.213986331595585" lon="11.599374216708995"><ele>409.0</ele><time>2026-04-06T11:10:10.999Z</time></trkpt><trkpt lat="44.21406620209421" lon="11.599346739099849"><ele>409.3333333333333</ele><time>2026-04-06T11:10:12.999Z</time></trkpt><trkpt lat="44.2141455619642" lon="11.599325223794958"><ele>409.66666666666663</ele><time>2026-04-06T11:10:14.999Z</time></trkpt><trkpt lat="44.214222547905614" lon="11.599296580612803"><ele>410.0</ele><time>2026-04-06T11:10:16.999Z</time></trkpt><trkpt lat="44.21428902780152" lon="11.599297447193262"><ele>409.99999999999994</ele><time>2026-04-06T11:10:18.999Z</time></trkpt><trkpt lat="44.21436309802223" lon="11.599288624277115"><ele>410.0</ele><time>2026-04-06T11:10:20.999Z</time></trkpt><trkpt lat="44.214430441703705" lon="11.599249983089274"><ele>410.0</ele><time>2026-04-06T11:10:22.999Z</time></trkpt><trkpt lat="44.214469506015995" lon="11.599154507697992"><ele>410.0</ele><time>2026-04-06T11:10:24.999Z</time></trkpt><trkpt lat="44.21446303585816" lon="11.59904171885766"><ele>409.99999999999994</ele><time>2026-04-06T11:10:26.999Z</time></trkpt><trkpt lat="44.21443402409695" lon="11.598943651622651"><ele>410.0</ele><time>2026-04-06T11:10:28.999Z</time></trkpt><trkpt lat="44.21443540831462" lon="11.598824117993814"><ele>409.99999999999994</ele><time>2026-04-06T11:10:31.999Z</time></trkpt><trkpt lat="44.214446606245644" lon="11.598710096861007"><ele>410.0</ele><time>2026-04-06T11:10:34.999Z</time></trkpt><trkpt lat="44.21446379974595" lon="11.598608990201198"><ele>410.0</ele><time>2026-04-06T11:10:37.999Z</time></trkpt><trkpt lat="44.21448277627083" lon="11.598508684582074"><ele>410.0</ele><time>2026-04-06T11:10:40.999Z</time></trkpt><trkpt lat="44.21451028149237" lon="11.598412586794339"><ele>409.99999999999994</ele><time>2026-04-06T11:10:43.999Z</time></trkpt><trkpt lat="44.21454050650975" lon="11.598323323145829"><ele>410.0</ele><time>2026-04-06T11:10:46.999Z</time></trkpt><trkpt lat="44.2146016707929" lon="11.59824719184863"><ele>410.3333333333333</ele><time>2026-04-06T11:10:49.999Z</time></trkpt><trkpt lat="44.21466654697198" lon="11.598177244224338"><ele>410.66666666666663</ele><time>2026-04-06T11:10:52.999Z</time></trkpt><trkpt lat="44.21472559644231" lon="11.598102975300375"><ele>411.0</ele><time>2026-04-06T11:10:55.999Z</time></trkpt><trkpt lat="44.21478088770619" lon="11.598019869256872"><ele>411.33333333333337</ele><time>2026-04-06T11:10:58.999Z</time></trkpt><trkpt lat="44.21483035881718" lon="11.597908682635898"><ele>411.6666666666667</ele><time>2026-04-06T11:11:01.999Z</time></trkpt><trkpt lat="44.214861452976955" lon="11.597811699256049"><ele>412.0</ele><time>2026-04-06T11:11:03.999Z</time></trkpt><trkpt lat="44.21488375125799" lon="11.597712433098607"><ele>412.00000000000006</ele><time>2026-04-06T11:11:05.999Z</time></trkpt><trkpt lat="44.21490727428413" lon="11.597614096936116"><ele>412.0</ele><time>2026-04-06T11:11:07.999Z</time></trkpt><trkpt lat="44.21492912159948" lon="11.59750890748253"><ele>412.0</ele><time>2026-04-06T11:11:09.999Z</time></trkpt><trkpt lat="44.214959951029606" lon="11.597404005316168"><ele>412.0</ele><time>2026-04-06T11:11:11.999Z</time></trkpt><trkpt lat="44.214996089690764" lon="11.597300429145267"><ele>412.00000000000006</ele><time>2026-04-06T11:11:13.999Z</time></trkpt><trkpt lat="44.215044942799764" lon="11.597214406833674"><ele>412.0</ele><time>2026-04-06T11:11:15.999Z</time></trkpt><trkpt lat="44.215102065004764" lon="11.597126141948339"><ele>412.0</ele><time>2026-04-06T11:11:17.999Z</time></trkpt><trkpt lat="44.21516643533459" lon="11.597008289833417"><ele>412.0</ele><time>2026-04-06T11:11:19.999Z</time></trkpt><trkpt lat="44.21523362117499" lon="11.596872931070765"><ele>412.0</ele><time>2026-04-06T11:11:21.999Z</time></trkpt><trkpt lat="44.21529724681944" lon="11.596732634097528"><ele>412.0</ele><time>2026-04-06T11:11:23.999Z</time></trkpt><trkpt lat="44.21533899526693" lon="11.596602016404741"><ele>412.0</ele><time>2026-04-06T11:11:25.999Z</time></trkpt><trkpt lat="44.21536643747571" lon="11.596518725990634"><ele>414.25</ele><time>2026-04-06T11:11:26.999Z</time></trkpt><trkpt lat="44.21541285033777" lon="11.596357876260893"><ele>416.5</ele><time>2026-04-06T11:11:28.999Z</time></trkpt><trkpt lat="44.21545399797169" lon="11.596198309126418"><ele>418.75</ele><time>2026-04-06T11:11:30.999Z</time></trkpt><trkpt lat="44.215493669627385" lon="11.596038906174858"><ele>421.0</ele><time>2026-04-06T11:11:32.999Z</time></trkpt><trkpt lat="44.215537955397934" lon="11.595884913127161"><ele>423.5</ele><time>2026-04-06T11:11:34.999Z</time></trkpt><trkpt lat="44.215571570500174" lon="11.595721523342327"><ele>426.0</ele><time>2026-04-06T11:11:36.999Z</time></trkpt><trkpt lat="44.21558975108714" lon="11.595550411413496"><ele>428.5</ele><time>2026-04-06T11:11:38.999Z</time></trkpt><trkpt lat="44.2155831460384" lon="11.595379062245387"><ele>431.0</ele><time>2026-04-06T11:11:40.999Z</time></trkpt><trkpt lat="44.21557475405646" lon="11.595218907119955"><ele>432.25</ele><time>2026-04-06T11:11:42.999Z</time></trkpt><trkpt lat="44.21556708189967" lon="11.595052796004465"><ele>433.5</ele><time>2026-04-06T11:11:44.999Z</time></trkpt><trkpt lat="44.21557671165351" lon="11.594883043392322"><ele>434.75</ele><time>2026-04-06T11:11:46.999Z</time></trkpt><trkpt lat="44.215597040411694" lon="11.594720309834958"><ele>436.0</ele><time>2026-04-06T11:11:48.999Z</time></trkpt><trkpt lat="44.21563188805089" lon="11.594576342059513"><ele>434.50000000000006</ele><time>2026-04-06T11:11:50.999Z</time></trkpt><trkpt lat="44.21568180768145" lon="11.594467282970758"><ele>433.0</ele><time>2026-04-06T11:11:52.999Z</time></trkpt><trkpt lat="44.21573439775937" lon="11.594385719704105"><ele>431.5</ele><time>2026-04-06T11:11:54.999Z</time></trkpt><trkpt lat="44.215796999190594" lon="11.594332284092014"><ele>430.0</ele><time>2026-04-06T11:11:56.999Z</time></trkpt><trkpt lat="44.21586058389451" lon="11.594287810162283"><ele>428.50000000000006</ele><time>2026-04-06T11:11:58.999Z</time></trkpt><trkpt lat="44.21593476998917" lon="11.594242794464641"><ele>427.0</ele><time>2026-04-06T11:12:01.999Z</time></trkpt><trkpt lat="44.216007728209924" lon="11.594185534931272"><ele>427.00000000000006</ele><time>2026-04-06T11:12:04.999Z</time></trkpt><trkpt lat="44.21607056517111" lon="11.594088895202905"><ele>427.0</ele><time>2026-04-06T11:12:07.999Z</time></trkpt><trkpt lat="44.21607860724898" lon="11.593989165897991"><ele>427.0</ele><time>2026-04-06T11:12:09.999Z</time></trkpt><trkpt lat="44.21607644754164" lon="11.593897760619473"><ele>427.0</ele><time>2026-04-06T11:12:11.999Z</time></trkpt><trkpt lat="44.21606261891049" lon="11.593775547338057"><ele>427.00000000000006</ele><time>2026-04-06T11:12:14.999Z</time></trkpt><trkpt lat="44.21607597272423" lon="11.593653275286565"><ele>427.0</ele><time>2026-04-06T11:12:17.999Z</time></trkpt><trkpt lat="44.21611579130541" lon="11.593546824434203"><ele>429.50000000000006</ele><time>2026-04-06T11:12:20.999Z</time></trkpt><trkpt lat="44.21616354699677" lon="11.59345193200982"><ele>432.0</ele><time>2026-04-06T11:12:23.999Z</time></trkpt><trkpt lat="44.216207980279634" lon="11.593343991778163"><ele>434.5</ele><time>2026-04-06T11:12:26.999Z</time></trkpt><trkpt lat="44.21624528765022" lon="11.593272809525818"><ele>437.0</ele><time>2026-04-06T11:12:28.999Z</time></trkpt><trkpt lat="44.216287296636125" lon="11.593197064967486"><ele>439.50000000000006</ele><time>2026-04-06T11:12:30.999Z</time></trkpt><trkpt lat="44.216323475451055" lon="11.593121959665613"><ele>442.0</ele><time>2026-04-06T11:12:32.999Z</time></trkpt><trkpt lat="44.21637974130755" lon="11.593029097817208"><ele>442.00000000000006</ele><time>2026-04-06T11:12:35.999Z</time></trkpt><trkpt lat="44.21644161298871" lon="11.592938096533317"><ele>442.0</ele><time>2026-04-06T11:12:38.999Z</time></trkpt><trkpt lat="44.216477322635924" lon="11.592826857888095"><ele>442.0</ele><time>2026-04-06T11:12:41.999Z</time></trkpt><trkpt lat="44.21650076905565" lon="11.592709129724637"><ele>442.0</ele><time>2026-04-06T11:12:44.999Z</time></trkpt><trkpt lat="44.2165231828931" lon="11.59259436280404"><ele>442.00000000000006</ele><time>2026-04-06T11:12:47.999Z</time></trkpt><trkpt lat="44.21654549846977" lon="11.592481683910385"><ele>442.0</ele><time>2026-04-06T11:12:50.999Z</time></trkpt><trkpt lat="44.216555659748224" lon="11.592372959897743"><ele>442.00000000000006</ele><time>2026-04-06T11:12:53.999Z</time></trkpt><trkpt lat="44.216544670252866" lon="11.5922556260895"><ele>442.0</ele><time>2026-04-06T11:12:56.999Z</time></trkpt><trkpt lat="44.21649432858116" lon="11.592166758068267"><ele>442.0</ele><time>2026-04-06T11:12:59.999Z</time></trkpt><trkpt lat="44.216424360744305" lon="11.592147090561461"><ele>442.0</ele><time>2026-04-06T11:13:02.999Z</time></trkpt><trkpt lat="44.21636814956265" lon="11.592207478225186"><ele>442.00000000000006</ele><time>2026-04-06T11:13:05.999Z</time></trkpt><trkpt lat="44.216331042092115" lon="11.592305567945932"><ele>442.0</ele><time>2026-04-06T11:13:08.999Z</time></trkpt><trkpt lat="44.21631220691815" lon="11.592421088781796"><ele>444.83333333333337</ele><time>2026-04-06T11:13:11.999Z</time></trkpt><trkpt lat="44.21627740569238" lon="11.592530917384398"><ele>447.6666666666667</ele><time>2026-04-06T11:13:14.999Z</time></trkpt><trkpt lat="44.216234416707714" lon="11.59261972752107"><ele>450.5</ele><time>2026-04-06T11:13:17.999Z</time></trkpt><trkpt lat="44.21616362705564" lon="11.59268133566368"><ele>453.33333333333337</ele><time>2026-04-06T11:13:20.999Z</time></trkpt><trkpt lat="44.216085260225924" lon="11.592726441159432"><ele>456.1666666666667</ele><time>2026-04-06T11:13:23.999Z</time></trkpt><trkpt lat="44.216011176045654" lon="11.592768502731385"><ele>459.0</ele><time>2026-04-06T11:13:26.999Z</time></trkpt><trkpt lat="44.21592566821574" lon="11.592794646683485"><ele>459.0</ele><time>2026-04-06T11:13:29.999Z</time></trkpt><trkpt lat="44.2158438430465" lon="11.592813704128028"><ele>459.0</ele><time>2026-04-06T11:13:32.999Z</time></trkpt><trkpt lat="44.21576335366991" lon="11.59277906488709"><ele>459.0</ele><time>2026-04-06T11:13:35.999Z</time></trkpt><trkpt lat="44.21576802130636" lon="11.592657164537984"><ele>459.0</ele><time>2026-04-06T11:13:38.999Z</time></trkpt><trkpt lat="44.21582637145259" lon="11.592571932004116"><ele>459.0</ele><time>2026-04-06T11:13:41.999Z</time></trkpt><trkpt lat="44.21586074687953" lon="11.592478130028457"><ele>459.0</ele><time>2026-04-06T11:13:44.999Z</time></trkpt><trkpt lat="44.21586108074339" lon="11.592386194327322"><ele>459.0</ele><time>2026-04-06T11:13:46.999Z</time></trkpt><trkpt lat="44.21584785535456" lon="11.592283992784965"><ele>459.0</ele><time>2026-04-06T11:13:49.999Z</time></trkpt><trkpt lat="44.21582942497994" lon="11.592174529073997"><ele>459.0</ele><time>2026-04-06T11:13:52.999Z</time></trkpt><trkpt lat="44.21580471118546" lon="11.59207248907232"><ele>459.0</ele><time>2026-04-06T11:13:55.999Z</time></trkpt><trkpt lat="44.21578178726799" lon="11.591961535677006"><ele>459.0</ele><time>2026-04-06T11:13:58.999Z</time></trkpt><trkpt lat="44.215766971837574" lon="11.591842842214733"><ele>459.0</ele><time>2026-04-06T11:14:01.999Z</time></trkpt><trkpt lat="44.21575925809038" lon="11.59173182295761"><ele>460.3333333333333</ele><time>2026-04-06T11:14:04.999Z</time></trkpt><trkpt lat="44.215761005673095" lon="11.59162391373893"><ele>461.66666666666663</ele><time>2026-04-06T11:14:07.999Z</time></trkpt><trkpt lat="44.21575958742826" lon="11.591503729940824"><ele>463.0</ele><time>2026-04-06T11:14:10.999Z</time></trkpt><trkpt lat="44.215750623625965" lon="11.591398765170739"><ele>464.3333333333333</ele><time>2026-04-06T11:14:13.999Z</time></trkpt><trkpt lat="44.21574187598049" lon="11.591291416629911"><ele>465.66666666666663</ele><time>2026-04-06T11:14:16.999Z</time></trkpt><trkpt lat="44.21572439359771" lon="11.591199239695062"><ele>467.0</ele><time>2026-04-06T11:14:19.999Z</time></trkpt><trkpt lat="44.2156935626804" lon="11.591104659567227"><ele>470.2857142857142</ele><time>2026-04-06T11:14:22.999Z</time></trkpt><trkpt lat="44.21564435360176" lon="11.59103053754017"><ele>473.57142857142856</ele><time>2026-04-06T11:14:25.999Z</time></trkpt><trkpt lat="44.215592126872906" lon="11.590956999049174"><ele>476.85714285714283</ele><time>2026-04-06T11:14:28.999Z</time></trkpt><trkpt lat="44.21553863031575" lon="11.590896479766979"><ele>480.1428571428571</ele><time>2026-04-06T11:14:31.999Z</time></trkpt><trkpt lat="44.21549224208078" lon="11.590830532114817"><ele>483.42857142857144</ele><time>2026-04-06T11:14:34.999Z</time></trkpt><trkpt lat="44.21544959462542" lon="11.590750948414852"><ele>486.7142857142857</ele><time>2026-04-06T11:14:37.999Z</time></trkpt><trkpt lat="44.215427522571424" lon="11.590653127615303"><ele>490.0</ele><time>2026-04-06T11:14:40.999Z</time></trkpt><trkpt lat="44.2154124558107" lon="11.590553034715175"><ele>490.0</ele><time>2026-04-06T11:14:43.999Z</time></trkpt><trkpt lat="44.2154102363346" lon="11.590446616505844"><ele>490.0</ele><time>2026-04-06T11:14:46.999Z</time></trkpt><trkpt lat="44.21542461248111" lon="11.590347691367551"><ele>490.0</ele><time>2026-04-06T11:14:49.999Z</time></trkpt><trkpt lat="44.21545628772059" lon="11.59025658971882"><ele>490.0</ele><time>2026-04-06T11:14:52.999Z</time></trkpt><trkpt lat="44.21549640759484" lon="11.590171204832352"><ele>490.0</ele><time>2026-04-06T11:14:55.999Z</time></trkpt><trkpt lat="44.21551287851082" lon="11.590075742144561"><ele>490.0</ele><time>2026-04-06T11:14:58.999Z</time></trkpt><trkpt lat="44.21548460815121" lon="11.58999456322481"><ele>490.0</ele><time>2026-04-06T11:15:01.999Z</time></trkpt><trkpt lat="44.21541306247164" lon="11.590004764096996"><ele>490.00000000000006</ele><time>2026-04-06T11:15:04.999Z</time></trkpt><trkpt lat="44.215364567039074" lon="11.590089640271671"><ele>490.0</ele><time>2026-04-06T11:15:07.999Z</time></trkpt><trkpt lat="44.21533079084887" lon="11.590192919329269"><ele>490.0</ele><time>2026-04-06T11:15:10.999Z</time></trkpt><trkpt lat="44.21529017203808" lon="11.590294775908404"><ele>490.0</ele><time>2026-04-06T11:15:13.999Z</time></trkpt><trkpt lat="44.215250171162694" lon="11.590394087541757"><ele>490.00000000000006</ele><time>2026-04-06T11:15:16.999Z</time></trkpt><trkpt lat="44.21521145832098" lon="11.590504337795362"><ele>490.0</ele><time>2026-04-06T11:15:19.999Z</time></trkpt><trkpt lat="44.215160376796476" lon="11.590583846110274"><ele>490.0</ele><time>2026-04-06T11:15:22.999Z</time></trkpt><trkpt lat="44.21508063520369" lon="11.590586615672697"><ele>490.0</ele><time>2026-04-06T11:15:25.999Z</time></trkpt><trkpt lat="44.21503803018994" lon="11.590510383624661"><ele>490.0</ele><time>2026-04-06T11:15:28.999Z</time></trkpt><trkpt lat="44.215048509032016" lon="11.59039788637345"><ele>490.0</ele><time>2026-04-06T11:15:31.999Z</time></trkpt><trkpt lat="44.21506702352457" lon="11.590303675074848"><ele>490.0</ele><time>2026-04-06T11:15:34.999Z</time></trkpt><trkpt lat="44.2150772891066" lon="11.590210317756323"><ele>490.0</ele><time>2026-04-06T11:15:37.999Z</time></trkpt><trkpt lat="44.215087397729484" lon="11.59011328491578"><ele>490.0</ele><time>2026-04-06T11:15:40.999Z</time></trkpt><trkpt lat="44.21509437117192" lon="11.589995148035241"><ele>491.1428571428571</ele><time>2026-04-06T11:15:44.999Z</time></trkpt><trkpt lat="44.215102079534134" lon="11.589903182838388"><ele>492.2857142857143</ele><time>2026-04-06T11:15:47.999Z</time></trkpt><trkpt lat="44.21511280958368" lon="11.589814531011518"><ele>493.42857142857144</ele><time>2026-04-06T11:15:50.999Z</time></trkpt><trkpt lat="44.21512649141058" lon="11.58972773176712"><ele>494.57142857142856</ele><time>2026-04-06T11:15:53.999Z</time></trkpt><trkpt lat="44.21514931946436" lon="11.589643098868695"><ele>495.71428571428567</ele><time>2026-04-06T11:15:56.999Z</time></trkpt><trkpt lat="44.21519077221978" lon="11.589571304728812"><ele>496.85714285714283</ele><time>2026-04-06T11:15:59.999Z</time></trkpt><trkpt lat="44.21522814353179" lon="11.589494656662893"><ele>498.0</ele><time>2026-04-06T11:16:02.999Z</time></trkpt><trkpt lat="44.21525763373985" lon="11.589416042498204"><ele>499.4285714285714</ele><time>2026-04-06T11:16:05.999Z</time></trkpt><trkpt lat="44.215287709121895" lon="11.589338414664937"><ele>500.8571428571428</ele><time>2026-04-06T11:16:08.999Z</time></trkpt><trkpt lat="44.2153103844742" lon="11.589252548556773"><ele>502.2857142857143</ele><time>2026-04-06T11:16:11.999Z</time></trkpt><trkpt lat="44.21532197114718" lon="11.589163100494389"><ele>503.71428571428567</ele><time>2026-04-06T11:16:14.999Z</time></trkpt><trkpt lat="44.215306347511564" lon="11.589075924330842"><ele>505.1428571428571</ele><time>2026-04-06T11:16:17.999Z</time></trkpt><trkpt lat="44.21525372491403" lon="11.589025337247582"><ele>506.57142857142856</ele><time>2026-04-06T11:16:20.999Z</time></trkpt><trkpt lat="44.21518701401298" lon="11.589044933229369"><ele>508.0</ele><time>2026-04-06T11:16:23.999Z</time></trkpt><trkpt lat="44.215140147181856" lon="11.589112724494607"><ele>508.0</ele><time>2026-04-06T11:16:26.999Z</time></trkpt><trkpt lat="44.21509467716036" lon="11.589174078336503"><ele>508.0</ele><time>2026-04-06T11:16:29.999Z</time></trkpt><trkpt lat="44.21504085806493" lon="11.589232972606494"><ele>508.0</ele><time>2026-04-06T11:16:32.999Z</time></trkpt><trkpt lat="44.21498126838009" lon="11.589318860304283"><ele>508.0</ele><time>2026-04-06T11:16:35.999Z</time></trkpt><trkpt lat="44.214928761014676" lon="11.5893996598604"><ele>508.0</ele><time>2026-04-06T11:16:37.999Z</time></trkpt><trkpt lat="44.214878877803805" lon="11.589476703077882"><ele>508.0</ele><time>2026-04-06T11:16:39.999Z</time></trkpt><trkpt lat="44.214841255297245" lon="11.58956601105555"><ele>508.0</ele><time>2026-04-06T11:16:41.999Z</time></trkpt><trkpt lat="44.21481774195878" lon="11.589656841537938"><ele>509.57142857142856</ele><time>2026-04-06T11:16:43.999Z</time></trkpt><trkpt lat="44.214795178818825" lon="11.589760812931184"><ele>511.1428571428571</ele><time>2026-04-06T11:16:45.999Z</time></trkpt><trkpt lat="44.21477137718231" lon="11.589856020890007"><ele>512.7142857142857</ele><time>2026-04-06T11:16:47.999Z</time></trkpt><trkpt lat="44.21471020448163" lon="11.589883221543603"><ele>514.2857142857142</ele><time>2026-04-06T11:16:49.999Z</time></trkpt><trkpt lat="44.214679856685244" lon="11.589767002676782"><ele>515.8571428571428</ele><time>2026-04-06T11:16:52.999Z</time></trkpt><trkpt lat="44.21469465834314" lon="11.589676363129497"><ele>517.4285714285714</ele><time>2026-04-06T11:16:54.999Z</time></trkpt><trkpt lat="44.21469144943285" lon="11.589579915866338"><ele>519.0</ele><time>2026-04-06T11:16:57.999Z</time></trkpt><trkpt lat="44.21468943615317" lon="11.58948545046782"><ele>520.4285714285714</ele><time>2026-04-06T11:17:00.999Z</time></trkpt><trkpt lat="44.214695569683286" lon="11.589390233148386"><ele>521.8571428571428</ele><time>2026-04-06T11:17:03.999Z</time></trkpt><trkpt lat="44.21469744843309" lon="11.589295318132937"><ele>523.2857142857142</ele><time>2026-04-06T11:17:06.999Z</time></trkpt><trkpt lat="44.21468083736306" lon="11.589181976527868"><ele>524.7142857142857</ele><time>2026-04-06T11:17:10.999Z</time></trkpt><trkpt lat="44.21460791902959" lon="11.58915316217944"><ele>526.1428571428571</ele><time>2026-04-06T11:17:13.999Z</time></trkpt><trkpt lat="44.214558841685616" lon="11.58923626588826"><ele>527.5714285714286</ele><time>2026-04-06T11:17:16.999Z</time></trkpt><trkpt lat="44.21453321329681" lon="11.589322663830993"><ele>529.0</ele><time>2026-04-06T11:17:19.999Z</time></trkpt><trkpt lat="44.214499945125624" lon="11.589414642960064"><ele>529.0</ele><time>2026-04-06T11:17:22.999Z</time></trkpt><trkpt lat="44.21445287137358" lon="11.589503340864754"><ele>529.0</ele><time>2026-04-06T11:17:25.999Z</time></trkpt><trkpt lat="44.21440629491673" lon="11.589586091572414"><ele>529.0</ele><time>2026-04-06T11:17:28.999Z</time></trkpt><trkpt lat="44.21436226374499" lon="11.589665427028578"><ele>529.0</ele><time>2026-04-06T11:17:31.999Z</time></trkpt><trkpt lat="44.21431916473031" lon="11.589747130714501"><ele>529.0</ele><time>2026-04-06T11:17:34.999Z</time></trkpt><trkpt lat="44.21425560354988" lon="11.589821459446334"><ele>529.0</ele><time>2026-04-06T11:17:38.999Z</time></trkpt><trkpt lat="44.2141801198156" lon="11.589862740690002"><ele>530.1428571428571</ele><time>2026-04-06T11:17:42.999Z</time></trkpt><trkpt lat="44.214115282869635" lon="11.589867023251678"><ele>531.2857142857142</ele><time>2026-04-06T11:17:45.999Z</time></trkpt><trkpt lat="44.21404322408824" lon="11.589885072936157"><ele>532.4285714285713</ele><time>2026-04-06T11:17:48.999Z</time></trkpt><trkpt lat="44.213978646728854" lon="11.589919479321052"><ele>533.5714285714286</ele><time>2026-04-06T11:17:51.999Z</time></trkpt><trkpt lat="44.213912654707244" lon="11.589940922881043"><ele>534.7142857142857</ele><time>2026-04-06T11:17:54.999Z</time></trkpt><trkpt lat="44.21384851695921" lon="11.589924419935826"><ele>535.8571428571428</ele><time>2026-04-06T11:17:57.999Z</time></trkpt><trkpt lat="44.21383195592729" lon="11.589827431646352"><ele>537.0</ele><time>2026-04-06T11:18:00.999Z</time></trkpt><trkpt lat="44.21387227559026" lon="11.589758940434145"><ele>536.9999999999999</ele><time>2026-04-06T11:18:03.999Z</time></trkpt><trkpt lat="44.21393274311553" lon="11.58971310885167"><ele>537.0</ele><time>2026-04-06T11:18:06.999Z</time></trkpt><trkpt lat="44.21397904108616" lon="11.58963142470284"><ele>537.0</ele><time>2026-04-06T11:18:09.999Z</time></trkpt><trkpt lat="44.21401540499583" lon="11.589544376135526"><ele>537.0</ele><time>2026-04-06T11:18:12.999Z</time></trkpt><trkpt lat="44.21403767291355" lon="11.589452948485084"><ele>537.0</ele><time>2026-04-06T11:18:15.999Z</time></trkpt><trkpt lat="44.21405533228326" lon="11.589356911596125"><ele>536.9999999999999</ele><time>2026-04-06T11:18:18.999Z</time></trkpt><trkpt lat="44.214067385926604" lon="11.589256901567005"><ele>537.0</ele><time>2026-04-06T11:18:21.999Z</time></trkpt><trkpt lat="44.21407106182853" lon="11.589156270862707"><ele>537.1428571428571</ele><time>2026-04-06T11:18:24.999Z</time></trkpt><trkpt lat="44.214079558147816" lon="11.589057230072832"><ele>537.2857142857142</ele><time>2026-04-06T11:18:27.999Z</time></trkpt><trkpt lat="44.214087243007235" lon="11.588952837499123"><ele>537.4285714285714</ele><time>2026-04-06T11:18:30.999Z</time></trkpt><trkpt lat="44.214063526130936" lon="11.58885237755295"><ele>537.5714285714286</ele><time>2026-04-06T11:18:33.999Z</time></trkpt><trkpt lat="44.21403603977957" lon="11.58875429642577"><ele>537.7142857142858</ele><time>2026-04-06T11:18:36.999Z</time></trkpt><trkpt lat="44.21400171374435" lon="11.588663472526724"><ele>537.8571428571429</ele><time>2026-04-06T11:18:39.999Z</time></trkpt><trkpt lat="44.213980160097584" lon="11.588569824076862"><ele>538.0</ele><time>2026-04-06T11:18:42.999Z</time></trkpt><trkpt lat="44.213984929650415" lon="11.588468741817758"><ele>538.0</ele><time>2026-04-06T11:18:45.999Z</time></trkpt><trkpt lat="44.21400198621788" lon="11.588377406021815"><ele>538.0</ele><time>2026-04-06T11:18:48.999Z</time></trkpt><trkpt lat="44.21401670904026" lon="11.588282536368334"><ele>538.0</ele><time>2026-04-06T11:18:51.999Z</time></trkpt><trkpt lat="44.2140386933536" lon="11.588199871223367"><ele>538.0</ele><time>2026-04-06T11:18:54.999Z</time></trkpt><trkpt lat="44.21406842442668" lon="11.588099117907342"><ele>538.0</ele><time>2026-04-06T11:18:58.999Z</time></trkpt><trkpt lat="44.21411654013367" lon="11.588025015998124"><ele>538.0</ele><time>2026-04-06T11:19:01.999Z</time></trkpt><trkpt lat="44.21416037949134" lon="11.587948591075545"><ele>538.0</ele><time>2026-04-06T11:19:04.999Z</time></trkpt><trkpt lat="44.2141911746115" lon="11.587860467732463"><ele>539.8571428571429</ele><time>2026-04-06T11:19:07.999Z</time></trkpt><trkpt lat="44.21420042490735" lon="11.587765944513404"><ele>541.7142857142858</ele><time>2026-04-06T11:19:10.999Z</time></trkpt><trkpt lat="44.21419701630055" lon="11.587667353647705"><ele>543.5714285714286</ele><time>2026-04-06T11:19:13.999Z</time></trkpt><trkpt lat="44.21420367481592" lon="11.587568311573222"><ele>545.4285714285714</ele><time>2026-04-06T11:19:16.999Z</time></trkpt><trkpt lat="44.21420650311838" lon="11.587466489501299"><ele>547.2857142857142</ele><time>2026-04-06T11:19:19.999Z</time></trkpt><trkpt lat="44.214229374828335" lon="11.587364092840323"><ele>549.1428571428571</ele><time>2026-04-06T11:19:22.999Z</time></trkpt><trkpt lat="44.214247535842624" lon="11.587254852587689"><ele>551.0</ele><time>2026-04-06T11:19:25.999Z</time></trkpt><trkpt lat="44.21426062047161" lon="11.587129738453358"><ele>551.0</ele><time>2026-04-06T11:19:29.999Z</time></trkpt><trkpt lat="44.214275015093484" lon="11.58702069015555"><ele>551.0</ele><time>2026-04-06T11:19:32.999Z</time></trkpt><trkpt lat="44.21429062874934" lon="11.58691278863652"><ele>551.0</ele><time>2026-04-06T11:19:35.999Z</time></trkpt><trkpt lat="44.21430234022525" lon="11.586804603025433"><ele>551.0</ele><time>2026-04-06T11:19:38.999Z</time></trkpt><trkpt lat="44.214315624467396" lon="11.586695630343012"><ele>551.0</ele><time>2026-04-06T11:19:42Z</time></trkpt><trkpt lat="44.21432843242774" lon="11.586598949697809"><ele>551.0</ele><time>2026-04-06T11:19:45Z</time></trkpt><trkpt lat="44.21434132432297" lon="11.586495354646116"><ele>552.0</ele><time>2026-04-06T11:19:48Z</time></trkpt><trkpt lat="44.214354092622486" lon="11.586389106251646"><ele>553.0</ele><time>2026-04-06T11:19:51Z</time></trkpt><trkpt lat="44.21437096642176" lon="11.586280645717052"><ele>554.0</ele><time>2026-04-06T11:19:54Z</time></trkpt><trkpt lat="44.21438676691222" lon="11.586174378669966"><ele>555.0</ele><time>2026-04-06T11:19:57Z</time></trkpt><trkpt lat="44.214374695725574" lon="11.586071230885628"><ele>556.0</ele><time>2026-04-06T11:20:00Z</time></trkpt><trkpt lat="44.21431390698536" lon="11.586001633848992"><ele>557.0</ele><time>2026-04-06T11:20:03Z</time></trkpt><trkpt lat="44.21424156244099" lon="11.586046586944827"><ele>557.0</ele><time>2026-04-06T11:20:06Z</time></trkpt><trkpt lat="44.21420184981323" lon="11.586148367372607"><ele>557.0</ele><time>2026-04-06T11:20:09Z</time></trkpt><trkpt lat="44.21416456356854" lon="11.586253940646666"><ele>557.0</ele><time>2026-04-06T11:20:12Z</time></trkpt><trkpt lat="44.21413199273281" lon="11.586352134308127"><ele>557.0</ele><time>2026-04-06T11:20:15Z</time></trkpt><trkpt lat="44.21409092814051" lon="11.586448969531142"><ele>557.0</ele><time>2026-04-06T11:20:18Z</time></trkpt><trkpt lat="44.21405260969274" lon="11.586546147885551"><ele>557.0</ele><time>2026-04-06T11:20:21Z</time></trkpt><trkpt lat="44.21402226897592" lon="11.58664470394725"><ele>561.6666666666666</ele><time>2026-04-06T11:20:24Z</time></trkpt><trkpt lat="44.21396445632513" lon="11.586700229548613"><ele>566.3333333333333</ele><time>2026-04-06T11:20:27Z</time></trkpt><trkpt lat="44.21391716108582" lon="11.586608905384908"><ele>571.0</ele><time>2026-04-06T11:20:31Z</time></trkpt><trkpt lat="44.213953450906104" lon="11.586505887798857"><ele>575.6666666666666</ele><time>2026-04-06T11:20:34Z</time></trkpt><trkpt lat="44.21397748397221" lon="11.586404248439882"><ele>580.3333333333334</ele><time>2026-04-06T11:20:37Z</time></trkpt><trkpt lat="44.21398533121673" lon="11.586289944302635"><ele>585.0</ele><time>2026-04-06T11:20:40Z</time></trkpt><trkpt lat="44.213985056535094" lon="11.586180012558234"><ele>582.3333333333334</ele><time>2026-04-06T11:20:43Z</time></trkpt><trkpt lat="44.21399011473644" lon="11.58606976857293"><ele>579.6666666666666</ele><time>2026-04-06T11:20:46Z</time></trkpt><trkpt lat="44.21399901785689" lon="11.585959184330555"><ele>577.0</ele><time>2026-04-06T11:20:49Z</time></trkpt><trkpt lat="44.214010316355825" lon="11.585852289117824"><ele>574.3333333333333</ele><time>2026-04-06T11:20:52Z</time></trkpt><trkpt lat="44.21402888067057" lon="11.585743663561392"><ele>571.6666666666666</ele><time>2026-04-06T11:20:55Z</time></trkpt><trkpt lat="44.2140355215562" lon="11.585635329206868"><ele>569.0</ele><time>2026-04-06T11:20:58Z</time></trkpt><trkpt lat="44.214049995101796" lon="11.585533421940864"><ele>569.0000000000001</ele><time>2026-04-06T11:21:01Z</time></trkpt><trkpt lat="44.21405216152205" lon="11.58542887794983"><ele>569.0</ele><time>2026-04-06T11:21:04Z</time></trkpt><trkpt lat="44.21404791275755" lon="11.585332629524581"><ele>569.0</ele><time>2026-04-06T11:21:07Z</time></trkpt><trkpt lat="44.214035112053615" lon="11.585233053438175"><ele>569.0</ele><time>2026-04-06T11:21:10Z</time></trkpt><trkpt lat="44.214012520446445" lon="11.585142249206557"><ele>569.0</ele><time>2026-04-06T11:21:13Z</time></trkpt><trkpt lat="44.21400293596131" lon="11.58505366662105"><ele>569.0000000000001</ele><time>2026-04-06T11:21:16Z</time></trkpt><trkpt lat="44.21401325183289" lon="11.584951625355426"><ele>569.0</ele><time>2026-04-06T11:21:20Z</time></trkpt><trkpt lat="44.214036972832375" lon="11.584840677535906"><ele>571.0000000000001</ele><time>2026-04-06T11:21:24Z</time></trkpt><trkpt lat="44.214055367914135" lon="11.584750698838855"><ele>573.0</ele><time>2026-04-06T11:21:27Z</time></trkpt><trkpt lat="44.21407498535609" lon="11.584664239863342"><ele>575.0</ele><time>2026-04-06T11:21:30Z</time></trkpt><trkpt lat="44.21409287560319" lon="11.584574350275297"><ele>577.0</ele><time>2026-04-06T11:21:33Z</time></trkpt><trkpt lat="44.21411063133654" lon="11.584487154034214"><ele>579.0</ele><time>2026-04-06T11:21:36Z</time></trkpt><trkpt lat="44.21414752924033" lon="11.584410818368855"><ele>581.0000000000001</ele><time>2026-04-06T11:21:39Z</time></trkpt><trkpt lat="44.214197450489706" lon="11.58433420079725"><ele>583.0</ele><time>2026-04-06T11:21:43Z</time></trkpt><trkpt lat="44.214257204140374" lon="11.584288297190556"><ele>585.3333333333334</ele><time>2026-04-06T11:21:46Z</time></trkpt><trkpt lat="44.21431295595981" lon="11.584230041358682"><ele>587.6666666666667</ele><time>2026-04-06T11:21:49Z</time></trkpt><trkpt lat="44.2143543640454" lon="11.584163373832588"><ele>590.0</ele><time>2026-04-06T11:21:52Z</time></trkpt><trkpt lat="44.21437624250944" lon="11.584056224808894"><ele>592.3333333333334</ele><time>2026-04-06T11:21:55Z</time></trkpt><trkpt lat="44.21439349388345" lon="11.583941440841741"><ele>594.6666666666666</ele><time>2026-04-06T11:21:58Z</time></trkpt><trkpt lat="44.21440561555818" lon="11.583824159287996"><ele>597.0</ele><time>2026-04-06T11:22:01Z</time></trkpt><trkpt lat="44.214422780322266" lon="11.583713220998861"><ele>598.3333333333334</ele><time>2026-04-06T11:22:04Z</time></trkpt><trkpt lat="44.214434339555524" lon="11.583601444051736"><ele>599.6666666666666</ele><time>2026-04-06T11:22:08Z</time></trkpt><trkpt lat="44.214442867512346" lon="11.58350356053219"><ele>601.0</ele><time>2026-04-06T11:22:11Z</time></trkpt><trkpt lat="44.21445403635341" lon="11.583399402895147"><ele>602.3333333333333</ele><time>2026-04-06T11:22:14Z</time></trkpt><trkpt lat="44.21445893045969" lon="11.583298930983572"><ele>603.6666666666666</ele><time>2026-04-06T11:22:17Z</time></trkpt><trkpt lat="44.21448407548417" lon="11.58315741135244"><ele>605.0</ele><time>2026-04-06T11:22:20Z</time></trkpt><trkpt lat="44.21450975895615" lon="11.58306371674573"><ele>605.0</ele><time>2026-04-06T11:22:23Z</time></trkpt><trkpt lat="44.214532140900744" lon="11.582968916002063"><ele>605.0</ele><time>2026-04-06T11:22:26Z</time></trkpt><trkpt lat="44.21454878260792" lon="11.582882979759477"><ele>605.0</ele><time>2026-04-06T11:22:28Z</time></trkpt><trkpt lat="44.21457432701859" lon="11.582774383168987"><ele>605.0</ele><time>2026-04-06T11:22:31Z</time></trkpt><trkpt lat="44.21460476051789" lon="11.582686123642048"><ele>605.0</ele><time>2026-04-06T11:22:34Z</time></trkpt><trkpt lat="44.21465259355436" lon="11.582585547543767"><ele>605.0</ele><time>2026-04-06T11:22:38Z</time></trkpt><trkpt lat="44.21469532829995" lon="11.58250169053943"><ele>605.0</ele><time>2026-04-06T11:22:41Z</time></trkpt><trkpt lat="44.21474625290902" lon="11.582425144312403"><ele>605.1666666666666</ele><time>2026-04-06T11:22:44Z</time></trkpt><trkpt lat="44.21478943666101" lon="11.582332567967423"><ele>605.3333333333333</ele><time>2026-04-06T11:22:48Z</time></trkpt><trkpt lat="44.21482899981531" lon="11.58223563788768"><ele>605.5</ele><time>2026-04-06T11:22:51Z</time></trkpt><trkpt lat="44.21487517519661" lon="11.582149069659804"><ele>605.6666666666666</ele><time>2026-04-06T11:22:55Z</time></trkpt><trkpt lat="44.214909860812725" lon="11.582058723474864"><ele>605.8333333333334</ele><time>2026-04-06T11:22:58Z</time></trkpt><trkpt lat="44.21495755446354" lon="11.581957070114568"><ele>606.0</ele><time>2026-04-06T11:23:01Z</time></trkpt><trkpt lat="44.21499209935208" lon="11.581861365987818"><ele>606.5714285714286</ele><time>2026-04-06T11:23:04Z</time></trkpt><trkpt lat="44.21502910229977" lon="11.581776781441386"><ele>607.1428571428571</ele><time>2026-04-06T11:23:07Z</time></trkpt><trkpt lat="44.215056296551545" lon="11.58169401056412"><ele>607.7142857142858</ele><time>2026-04-06T11:23:09Z</time></trkpt><trkpt lat="44.21508294785498" lon="11.58160295783105"><ele>608.2857142857142</ele><time>2026-04-06T11:23:13Z</time></trkpt><trkpt lat="44.21509832613773" lon="11.581503701337736"><ele>608.8571428571428</ele><time>2026-04-06T11:23:17Z</time></trkpt><trkpt lat="44.2151123147303" lon="11.581397098711406"><ele>609.4285714285714</ele><time>2026-04-06T11:23:20Z</time></trkpt><trkpt lat="44.21513085659013" lon="11.581305772741606"><ele>610.0</ele><time>2026-04-06T11:23:23Z</time></trkpt><trkpt lat="44.215157815704345" lon="11.581195275097507"><ele>609.5</ele><time>2026-04-06T11:23:26Z</time></trkpt><trkpt lat="44.21518966055735" lon="11.581116242637707"><ele>609.0</ele><time>2026-04-06T11:23:28Z</time></trkpt><trkpt lat="44.21522711055601" lon="11.581031042515574"><ele>608.5</ele><time>2026-04-06T11:23:31Z</time></trkpt><trkpt lat="44.2152769067729" lon="11.580964410656849"><ele>608.0</ele><time>2026-04-06T11:23:34Z</time></trkpt><trkpt lat="44.215328783676576" lon="11.58087721948985"><ele>607.5</ele><time>2026-04-06T11:23:37Z</time></trkpt><trkpt lat="44.21537904545957" lon="11.580783862756025"><ele>607.0</ele><time>2026-04-06T11:23:40Z</time></trkpt><trkpt lat="44.215406987644535" lon="11.580674724221836"><ele>607.0</ele><time>2026-04-06T11:23:43Z</time></trkpt><trkpt lat="44.21535721258373" lon="11.580586283025742"><ele>607.0</ele><time>2026-04-06T11:23:45Z</time></trkpt><trkpt lat="44.21528014513327" lon="11.58055138552025"><ele>607.0</ele><time>2026-04-06T11:23:47Z</time></trkpt><trkpt lat="44.21521514668587" lon="11.580480770981376"><ele>607.0</ele><time>2026-04-06T11:23:50Z</time></trkpt><trkpt lat="44.21515189449442" lon="11.580433490135228"><ele>607.0</ele><time>2026-04-06T11:23:52Z</time></trkpt><trkpt lat="44.21508714355651" lon="11.580370947066317"><ele>607.0</ele><time>2026-04-06T11:23:55Z</time></trkpt><trkpt lat="44.21500822607844" lon="11.580345355894933"><ele>609.5</ele><time>2026-04-06T11:23:58Z</time></trkpt><trkpt lat="44.214944268221174" lon="11.580277983064056"><ele>612.0</ele><time>2026-04-06T11:24:01Z</time></trkpt><trkpt lat="44.214896011854655" lon="11.580142955167014"><ele>614.5</ele><time>2026-04-06T11:24:05Z</time></trkpt><trkpt lat="44.214867978624355" lon="11.580051782891232"><ele>617.0</ele><time>2026-04-06T11:24:08Z</time></trkpt><trkpt lat="44.214829039368986" lon="11.579963200824682"><ele>619.5</ele><time>2026-04-06T11:24:11Z</time></trkpt><trkpt lat="44.214803730048686" lon="11.579876572958474"><ele>622.0</ele><time>2026-04-06T11:24:14Z</time></trkpt><trkpt lat="44.21478940857888" lon="11.579765349111502"><ele>622.0</ele><time>2026-04-06T11:24:18Z</time></trkpt><trkpt lat="44.214803486671364" lon="11.579671779798462"><ele>622.0</ele><time>2026-04-06T11:24:22Z</time></trkpt><trkpt lat="44.21484404557964" lon="11.579556017010747"><ele>622.0</ele><time>2026-04-06T11:24:26Z</time></trkpt><trkpt lat="44.214888935867" lon="11.579473432296112"><ele>622.0</ele><time>2026-04-06T11:24:29Z</time></trkpt><trkpt lat="44.21494572632401" lon="11.579400918620916"><ele>622.0</ele><time>2026-04-06T11:24:32Z</time></trkpt><trkpt lat="44.21497853575523" lon="11.579305413260908"><ele>622.0</ele><time>2026-04-06T11:24:36Z</time></trkpt><trkpt lat="44.21495269531459" lon="11.579176924930616"><ele>623.7142857142857</ele><time>2026-04-06T11:24:39Z</time></trkpt><trkpt lat="44.214923049150165" lon="11.57908562849703"><ele>625.4285714285714</ele><time>2026-04-06T11:24:42Z</time></trkpt><trkpt lat="44.21490067799843" lon="11.579000137540598"><ele>627.1428571428571</ele><time>2026-04-06T11:24:45Z</time></trkpt><trkpt lat="44.21489171663832" lon="11.578897360172313"><ele>628.8571428571429</ele><time>2026-04-06T11:24:49Z</time></trkpt><trkpt lat="44.21490973449441" lon="11.578806162219387"><ele>630.5714285714286</ele><time>2026-04-06T11:24:52Z</time></trkpt><trkpt lat="44.21493239659221" lon="11.578707754180462"><ele>632.2857142857143</ele><time>2026-04-06T11:24:55Z</time></trkpt><trkpt lat="44.21495714082854" lon="11.578625323038327"><ele>634.0</ele><time>2026-04-06T11:24:57Z</time></trkpt><trkpt lat="44.21495109351486" lon="11.578520044467956"><ele>635.1666666666667</ele><time>2026-04-06T11:25:00Z</time></trkpt><trkpt lat="44.21491866607177" lon="11.578414052452604"><ele>636.3333333333334</ele><time>2026-04-06T11:25:03Z</time></trkpt><trkpt lat="44.2148767933176" lon="11.578318662695409"><ele>637.5</ele><time>2026-04-06T11:25:06Z</time></trkpt><trkpt lat="44.214841362460994" lon="11.578221873623662"><ele>638.6666666666666</ele><time>2026-04-06T11:25:09Z</time></trkpt><trkpt lat="44.21483421803148" lon="11.57812156503217"><ele>639.8333333333333</ele><time>2026-04-06T11:25:12Z</time></trkpt><trkpt lat="44.2148526825894" lon="11.5780166230229"><ele>641.0</ele><time>2026-04-06T11:25:15Z</time></trkpt><trkpt lat="44.214873410168245" lon="11.57791087637119"><ele>640.0</ele><time>2026-04-06T11:25:18Z</time></trkpt><trkpt lat="44.21487127642632" lon="11.577786272520333"><ele>639.0</ele><time>2026-04-06T11:25:22Z</time></trkpt><trkpt lat="44.2148524758481" lon="11.577701314471408"><ele>638.0</ele><time>2026-04-06T11:25:25Z</time></trkpt><trkpt lat="44.21483652498337" lon="11.577597320240061"><ele>637.0</ele><time>2026-04-06T11:25:28Z</time></trkpt><trkpt lat="44.21481226149089" lon="11.577501539773676"><ele>636.0</ele><time>2026-04-06T11:25:31Z</time></trkpt><trkpt lat="44.2147847385642" lon="11.577418351733838"><ele>635.0</ele><time>2026-04-06T11:25:33Z</time></trkpt><trkpt lat="44.21474632769969" lon="11.577313161247377"><ele>634.4285714285713</ele><time>2026-04-06T11:25:37Z</time></trkpt><trkpt lat="44.21471510792294" lon="11.577229456963806"><ele>633.8571428571429</ele><time>2026-04-06T11:25:40Z</time></trkpt><trkpt lat="44.2146993304786" lon="11.577140368019052"><ele>633.2857142857142</ele><time>2026-04-06T11:25:43Z</time></trkpt><trkpt lat="44.21469455100962" lon="11.577029078776725"><ele>632.7142857142857</ele><time>2026-04-06T11:25:47Z</time></trkpt><trkpt lat="44.21465953863906" lon="11.576927527637762"><ele>632.1428571428571</ele><time>2026-04-06T11:25:52Z</time></trkpt><trkpt lat="44.21459879365611" lon="11.576867093479539"><ele>631.5714285714286</ele><time>2026-04-06T11:25:56Z</time></trkpt><trkpt lat="44.214543498952615" lon="11.576790147571835"><ele>631.0</ele><time>2026-04-06T11:26:00Z</time></trkpt><trkpt lat="44.214484689906996" lon="11.57673966680402"><ele>631.0</ele><time>2026-04-06T11:26:03Z</time></trkpt><trkpt lat="44.2144293804854" lon="11.576684173993524"><ele>631.0</ele><time>2026-04-06T11:26:07Z</time></trkpt><trkpt lat="44.214369223729726" lon="11.57664192862577"><ele>631.0</ele><time>2026-04-06T11:26:10Z</time></trkpt><trkpt lat="44.21430481813404" lon="11.576605880188856"><ele>631.0</ele><time>2026-04-06T11:26:13Z</time></trkpt><trkpt lat="44.21423012313424" lon="11.57655557634288"><ele>631.0</ele><time>2026-04-06T11:26:16Z</time></trkpt><trkpt lat="44.214150782847604" lon="11.576506377889991"><ele>631.0</ele><time>2026-04-06T11:26:19Z</time></trkpt><trkpt lat="44.214089839217316" lon="11.576438450473788"><ele>631.0</ele><time>2026-04-06T11:26:22Z</time></trkpt><trkpt lat="44.21403919055209" lon="11.57635152040397"><ele>631.0</ele><time>2026-04-06T11:26:26Z</time></trkpt><trkpt lat="44.21398940334228" lon="11.576246648230967"><ele>631.0</ele><time>2026-04-06T11:26:30Z</time></trkpt><trkpt lat="44.21395823644791" lon="11.576158966988263"><ele>631.0</ele><time>2026-04-06T11:26:32Z</time></trkpt><trkpt lat="44.213916154378495" lon="11.576073894642711"><ele>631.0</ele><time>2026-04-06T11:26:34Z</time></trkpt><trkpt lat="44.213871184861915" lon="11.57598292540121"><ele>631.0</ele><time>2026-04-06T11:26:37Z</time></trkpt><trkpt lat="44.21385632448946" lon="11.575878666745199"><ele>631.6666666666667</ele><time>2026-04-06T11:26:41Z</time></trkpt><trkpt lat="44.21386138934891" lon="11.575782904403843"><ele>632.3333333333334</ele><time>2026-04-06T11:27:36Z</time></trkpt><trkpt lat="44.21386195545692" lon="11.575671995358427"><ele>633.0</ele><time>2026-04-06T11:27:39Z</time></trkpt><trkpt lat="44.21383493436062" lon="11.575583072438683"><ele>633.6666666666666</ele><time>2026-04-06T11:27:41Z</time></trkpt><trkpt lat="44.21379131420009" lon="11.575482542230768"><ele>634.3333333333333</ele><time>2026-04-06T11:27:43Z</time></trkpt><trkpt lat="44.213712049864256" lon="11.575371953224924"><ele>635.0</ele><time>2026-04-06T11:27:45Z</time></trkpt><trkpt lat="44.21366564593684" lon="11.575306608418183"><ele>635.0</ele><time>2026-04-06T11:27:46Z</time></trkpt><trkpt lat="44.2136111208331" lon="11.57523563229889"><ele>635.0</ele><time>2026-04-06T11:27:47Z</time></trkpt><trkpt lat="44.21355272351412" lon="11.575161843966669"><ele>635.0</ele><time>2026-04-06T11:27:48Z</time></trkpt><trkpt lat="44.21349792747143" lon="11.575083640138349"><ele>635.0</ele><time>2026-04-06T11:27:49Z</time></trkpt><trkpt lat="44.213443202979754" lon="11.57500296645217"><ele>635.0</ele><time>2026-04-06T11:27:50Z</time></trkpt><trkpt lat="44.21337999487182" lon="11.574921722958404"><ele>635.0</ele><time>2026-04-06T11:27:51Z</time></trkpt><trkpt lat="44.213319696328796" lon="11.574839755314537"><ele>635.0</ele><time>2026-04-06T11:27:52Z</time></trkpt><trkpt lat="44.21325605023826" lon="11.5747596834255"><ele>635.0</ele><time>2026-04-06T11:27:53Z</time></trkpt><trkpt lat="44.21319398416244" lon="11.574679994858734"><ele>635.0</ele><time>2026-04-06T11:27:54Z</time></trkpt><trkpt lat="44.21313305141099" lon="11.574598831892615"><ele>635.0</ele><time>2026-04-06T11:27:55Z</time></trkpt><trkpt lat="44.21307592532017" lon="11.574518538240644"><ele>635.0</ele><time>2026-04-06T11:27:56Z</time></trkpt><trkpt lat="44.21301920282223" lon="11.57443802637384"><ele>635.0</ele><time>2026-04-06T11:27:57Z</time></trkpt><trkpt lat="44.212958068349934" lon="11.574360062107163"><ele>632.0</ele><time>2026-04-06T11:27:58Z</time></trkpt><trkpt lat="44.21288819944168" lon="11.57429543303573"><ele>629.0</ele><time>2026-04-06T11:27:59Z</time></trkpt><trkpt lat="44.212812628769896" lon="11.57424236720783"><ele>626.0</ele><time>2026-04-06T11:28:00Z</time></trkpt><trkpt lat="44.21274134379569" lon="11.574183887193705"><ele>623.0</ele><time>2026-04-06T11:28:01Z</time></trkpt><trkpt lat="44.21267758897971" lon="11.574103920773751"><ele>620.0</ele><time>2026-04-06T11:28:02Z</time></trkpt><trkpt lat="44.21261356482298" lon="11.574012161141919"><ele>617.0</ele><time>2026-04-06T11:28:03Z</time></trkpt><trkpt lat="44.21254942529822" lon="11.573918001390807"><ele>617.0</ele><time>2026-04-06T11:28:04Z</time></trkpt><trkpt lat="44.212487893247854" lon="11.573818769767731"><ele>617.0</ele><time>2026-04-06T11:28:05Z</time></trkpt><trkpt lat="44.21241551458853" lon="11.57373835035748"><ele>617.0</ele><time>2026-04-06T11:28:06Z</time></trkpt><trkpt lat="44.21234392613099" lon="11.573671758837412"><ele>617.0</ele><time>2026-04-06T11:28:07Z</time></trkpt><trkpt lat="44.21228299155705" lon="11.573614031710456"><ele>617.0</ele><time>2026-04-06T11:28:08Z</time></trkpt><trkpt lat="44.21223227045919" lon="11.573543218704573"><ele>617.0</ele><time>2026-04-06T11:28:09Z</time></trkpt><trkpt lat="44.212190895170295" lon="11.573454137242273"><ele>614.5714285714286</ele><time>2026-04-06T11:28:10Z</time></trkpt><trkpt lat="44.212157360648135" lon="11.573355960959374"><ele>612.1428571428571</ele><time>2026-04-06T11:28:11Z</time></trkpt><trkpt lat="44.212125753223745" lon="11.573256289160003"><ele>609.7142857142857</ele><time>2026-04-06T11:28:12Z</time></trkpt><trkpt lat="44.212093961393805" lon="11.573157744267935"><ele>607.2857142857142</ele><time>2026-04-06T11:28:13Z</time></trkpt><trkpt lat="44.212060788937734" lon="11.573065373796592"><ele>604.8571428571429</ele><time>2026-04-06T11:28:14Z</time></trkpt><trkpt lat="44.212026498545825" lon="11.572977774449285"><ele>602.4285714285713</ele><time>2026-04-06T11:28:15Z</time></trkpt><trkpt lat="44.21199613016027" lon="11.572894356684714"><ele>600.0</ele><time>2026-04-06T11:28:16Z</time></trkpt><trkpt lat="44.2119794652866" lon="11.572760129214082"><ele>600.0</ele><time>2026-04-06T11:28:18Z</time></trkpt><trkpt lat="44.21205006029961" lon="11.572670168428111"><ele>600.0</ele><time>2026-04-06T11:28:20Z</time></trkpt><trkpt lat="44.21212586075457" lon="11.57251977695342"><ele>600.0</ele><time>2026-04-06T11:28:22Z</time></trkpt><trkpt lat="44.21217423604902" lon="11.572428873650422"><ele>600.0</ele><time>2026-04-06T11:28:23Z</time></trkpt><trkpt lat="44.21220042489562" lon="11.572318198233232"><ele>600.0</ele><time>2026-04-06T11:28:24Z</time></trkpt><trkpt lat="44.21222163890257" lon="11.572200731091247"><ele>600.0</ele><time>2026-04-06T11:28:25Z</time></trkpt><trkpt lat="44.21224317381892" lon="11.572081197021634"><ele>600.0</ele><time>2026-04-06T11:28:26Z</time></trkpt><trkpt lat="44.212249052082875" lon="11.571968186730762"><ele>600.0</ele><time>2026-04-06T11:28:27Z</time></trkpt><trkpt lat="44.21224515168838" lon="11.57185795252935"><ele>600.0</ele><time>2026-04-06T11:28:28Z</time></trkpt><trkpt lat="44.212275901888475" lon="11.571766438411476"><ele>600.0</ele><time>2026-04-06T11:28:29Z</time></trkpt><trkpt lat="44.212327045880826" lon="11.571676556298392"><ele>600.0</ele><time>2026-04-06T11:28:30Z</time></trkpt><trkpt lat="44.212362507119764" lon="11.571569996999719"><ele>600.8</ele><time>2026-04-06T11:28:31Z</time></trkpt><trkpt lat="44.212399707424225" lon="11.571458211942227"><ele>601.6</ele><time>2026-04-06T11:28:32Z</time></trkpt><trkpt lat="44.21243183331522" lon="11.571370106806915"><ele>602.4</ele><time>2026-04-06T11:28:33Z</time></trkpt><trkpt lat="44.212466823948084" lon="11.571285266496023"><ele>603.2</ele><time>2026-04-06T11:28:34Z</time></trkpt><trkpt lat="44.212521577533785" lon="11.571152507741035"><ele>604.0</ele><time>2026-04-06T11:28:36Z</time></trkpt><trkpt lat="44.21245123530989" lon="11.571033592401266"><ele>604.0</ele><time>2026-04-06T11:28:37Z</time></trkpt><trkpt lat="44.21240990905924" lon="11.570957620600224"><ele>604.0</ele><time>2026-04-06T11:28:38Z</time></trkpt><trkpt lat="44.212366637507564" lon="11.570889969412626"><ele>604.0</ele><time>2026-04-06T11:28:39Z</time></trkpt><trkpt lat="44.212296578097224" lon="11.570766582649384"><ele>604.0</ele><time>2026-04-06T11:28:41Z</time></trkpt><trkpt lat="44.212219219032946" lon="11.570679975667705"><ele>604.0</ele><time>2026-04-06T11:28:43Z</time></trkpt><trkpt lat="44.21216536867936" lon="11.570596347747584"><ele>604.0</ele><time>2026-04-06T11:28:45Z</time></trkpt><trkpt lat="44.21211125873958" lon="11.57052513203172"><ele>603.6</ele><time>2026-04-06T11:28:47Z</time></trkpt><trkpt lat="44.212048034199974" lon="11.570443121808028"><ele>603.2</ele><time>2026-04-06T11:28:49Z</time></trkpt><trkpt lat="44.21197307303954" lon="11.57036306427394"><ele>602.8000000000001</ele><time>2026-04-06T11:28:51Z</time></trkpt><trkpt lat="44.21189908247098" lon="11.570287903870488"><ele>602.4</ele><time>2026-04-06T11:28:53Z</time></trkpt><trkpt lat="44.211820484672316" lon="11.570227196396356"><ele>602.0</ele><time>2026-04-06T11:28:55Z</time></trkpt><trkpt lat="44.211753022747295" lon="11.570137465810042"><ele>602.0</ele><time>2026-04-06T11:28:57Z</time></trkpt><trkpt lat="44.211712610956326" lon="11.570021588263"><ele>602.0</ele><time>2026-04-06T11:28:59Z</time></trkpt><trkpt lat="44.211714194411" lon="11.569879328223617"><ele>602.0</ele><time>2026-04-06T11:29:01Z</time></trkpt><trkpt lat="44.21175049244625" lon="11.569732633994978"><ele>602.0</ele><time>2026-04-06T11:29:04Z</time></trkpt><trkpt lat="44.21178982242406" lon="11.569632429843605"><ele>602.0</ele><time>2026-04-06T11:29:06Z</time></trkpt><trkpt lat="44.21184488469058" lon="11.569527745287505"><ele>602.2857142857143</ele><time>2026-04-06T11:29:09Z</time></trkpt><trkpt lat="44.21186898308818" lon="11.569443274256914"><ele>602.5714285714286</ele><time>2026-04-06T11:29:11Z</time></trkpt><trkpt lat="44.21188898794489" lon="11.569353519097268"><ele>602.8571428571429</ele><time>2026-04-06T11:29:13Z</time></trkpt><trkpt lat="44.21190062357038" lon="11.569261553724555"><ele>603.1428571428571</ele><time>2026-04-06T11:29:16Z</time></trkpt><trkpt lat="44.2119108138526" lon="11.569169472874085"><ele>603.4285714285714</ele><time>2026-04-06T11:29:18Z</time></trkpt><trkpt lat="44.21191980585415" lon="11.569068094233847"><ele>603.7142857142858</ele><time>2026-04-06T11:29:20Z</time></trkpt><trkpt lat="44.211910358680576" lon="11.56896983317303"><ele>604.0</ele><time>2026-04-06T11:29:22Z</time></trkpt><trkpt lat="44.21191391070821" lon="11.568853658405873"><ele>604.0000000000001</ele><time>2026-04-06T11:29:24Z</time></trkpt><trkpt lat="44.21187103761542" lon="11.568744028494693"><ele>604.0</ele><time>2026-04-06T11:29:27Z</time></trkpt><trkpt lat="44.2118315074744" lon="11.568670322489131"><ele>604.0</ele><time>2026-04-06T11:29:29Z</time></trkpt><trkpt lat="44.21180332829037" lon="11.568582536374318"><ele>604.0</ele><time>2026-04-06T11:29:33Z</time></trkpt><trkpt lat="44.211804028237616" lon="11.56848216025416"><ele>604.0</ele><time>2026-04-06T11:29:38Z</time></trkpt><trkpt lat="44.211792628760506" lon="11.56839242285189"><ele>604.0000000000001</ele><time>2026-04-06T11:29:41Z</time></trkpt><trkpt lat="44.21175261951388" lon="11.568287501322743"><ele>604.0</ele><time>2026-04-06T11:29:45Z</time></trkpt><trkpt lat="44.2117137894297" lon="11.568209904464851"><ele>605.5</ele><time>2026-04-06T11:29:48Z</time></trkpt><trkpt lat="44.21167289620216" lon="11.568115577228793"><ele>607.0</ele><time>2026-04-06T11:29:52Z</time></trkpt><trkpt lat="44.211638287375585" lon="11.567991846470544"><ele>608.5</ele><time>2026-04-06T11:29:55Z</time></trkpt><trkpt lat="44.211644242125494" lon="11.567878124952463"><ele>610.0</ele><time>2026-04-06T11:29:58Z</time></trkpt><trkpt lat="44.21165600748763" lon="11.567790304257159"><ele>611.5</ele><time>2026-04-06T11:30:00Z</time></trkpt><trkpt lat="44.21167110716055" lon="11.567704377052012"><ele>613.0</ele><time>2026-04-06T11:30:02Z</time></trkpt><trkpt lat="44.21167633521394" lon="11.567587194830045"><ele>613.0</ele><time>2026-04-06T11:30:04Z</time></trkpt><trkpt lat="44.21164903067959" lon="11.567433539381893"><ele>613.0</ele><time>2026-04-06T11:30:06Z</time></trkpt><trkpt lat="44.21159463424214" lon="11.567296557833862"><ele>613.0</ele><time>2026-04-06T11:30:08Z</time></trkpt><trkpt lat="44.21155301385002" lon="11.567172707976361"><ele>613.0</ele><time>2026-04-06T11:30:10Z</time></trkpt><trkpt lat="44.21152700159437" lon="11.567039839964636"><ele>613.0</ele><time>2026-04-06T11:30:12Z</time></trkpt><trkpt lat="44.21153712649733" lon="11.566893944813478"><ele>613.0</ele><time>2026-04-06T11:30:14Z</time></trkpt><trkpt lat="44.21155735297082" lon="11.566745773377557"><ele>613.0</ele><time>2026-04-06T11:30:16Z</time></trkpt><trkpt lat="44.21157513928546" lon="11.566571110637929"><ele>613.0</ele><time>2026-04-06T11:30:18Z</time></trkpt><trkpt lat="44.211573356839004" lon="11.56648277767276"><ele>613.0</ele><time>2026-04-06T11:30:19Z</time></trkpt><trkpt lat="44.21154599520479" lon="11.566312897564087"><ele>613.0</ele><time>2026-04-06T11:30:21Z</time></trkpt><trkpt lat="44.21151512777931" lon="11.566235102619558"><ele>610.8</ele><time>2026-04-06T11:30:22Z</time></trkpt><trkpt lat="44.21143378361033" lon="11.566104404911185"><ele>608.5999999999999</ele><time>2026-04-06T11:30:24Z</time></trkpt><trkpt lat="44.21139075397126" lon="11.566035054760714"><ele>606.4000000000001</ele><time>2026-04-06T11:30:25Z</time></trkpt><trkpt lat="44.21129926235377" lon="11.565916516794848"><ele>604.2</ele><time>2026-04-06T11:30:27Z</time></trkpt><trkpt lat="44.211207047436666" lon="11.565811093170238"><ele>602.0</ele><time>2026-04-06T11:30:29Z</time></trkpt><trkpt lat="44.21112279375579" lon="11.565702623609104"><ele>602.0</ele><time>2026-04-06T11:30:31Z</time></trkpt><trkpt lat="44.21106386800491" lon="11.565596201728566"><ele>602.0</ele><time>2026-04-06T11:30:33Z</time></trkpt><trkpt lat="44.21102489895968" lon="11.565522408249999"><ele>602.0</ele><time>2026-04-06T11:30:35Z</time></trkpt><trkpt lat="44.210985440050564" lon="11.565441523552575"><ele>602.0</ele><time>2026-04-06T11:30:37Z</time></trkpt><trkpt lat="44.2109419113179" lon="11.565363290153758"><ele>602.0</ele><time>2026-04-06T11:30:39Z</time></trkpt><trkpt lat="44.21090392666172" lon="11.565288881402783"><ele>602.0</ele><time>2026-04-06T11:30:41Z</time></trkpt><trkpt lat="44.210863874554065" lon="11.565217152959113"><ele>602.0</ele><time>2026-04-06T11:30:43Z</time></trkpt><trkpt lat="44.21080449334742" lon="11.565117462699522"><ele>601.5</ele><time>2026-04-06T11:30:46Z</time></trkpt><trkpt lat="44.21076160727411" lon="11.565047640165789"><ele>601.0</ele><time>2026-04-06T11:30:48Z</time></trkpt><trkpt lat="44.210705187750605" lon="11.564948274071838"><ele>600.5</ele><time>2026-04-06T11:30:51Z</time></trkpt><trkpt lat="44.210652407591425" lon="11.564859710876359"><ele>600.0</ele><time>2026-04-06T11:30:54Z</time></trkpt><trkpt lat="44.210604035549274" lon="11.56477292056635"><ele>599.5</ele><time>2026-04-06T11:30:57Z</time></trkpt><trkpt lat="44.210560468682665" lon="11.564686074978395"><ele>599.0</ele><time>2026-04-06T11:31:00Z</time></trkpt><trkpt lat="44.21051385615255" lon="11.564607490949065"><ele>599.0</ele><time>2026-04-06T11:31:03Z</time></trkpt><trkpt lat="44.21046157749104" lon="11.564536257571946"><ele>599.0</ele><time>2026-04-06T11:31:06Z</time></trkpt><trkpt lat="44.210420401772794" lon="11.564455262531839"><ele>599.0</ele><time>2026-04-06T11:31:09Z</time></trkpt><trkpt lat="44.21037113279966" lon="11.564377993857816"><ele>599.0</ele><time>2026-04-06T11:31:12Z</time></trkpt><trkpt lat="44.21035262469907" lon="11.5642690667241"><ele>599.0</ele><time>2026-04-06T11:31:15Z</time></trkpt><trkpt lat="44.21033201146998" lon="11.564156406245024"><ele>599.0</ele><time>2026-04-06T11:31:18Z</time></trkpt><trkpt lat="44.21028961724289" lon="11.564045329901177"><ele>602.3333333333333</ele><time>2026-04-06T11:31:21Z</time></trkpt><trkpt lat="44.21023429407366" lon="11.563999033173864"><ele>605.6666666666666</ele><time>2026-04-06T11:31:23Z</time></trkpt><trkpt lat="44.21014714989782" lon="11.563957945778665"><ele>609.0</ele><time>2026-04-06T11:31:26Z</time></trkpt><trkpt lat="44.21005593785497" lon="11.563934351867882"><ele>612.3333333333334</ele><time>2026-04-06T11:31:29Z</time></trkpt><trkpt lat="44.20997421056781" lon="11.563877417784223"><ele>615.6666666666667</ele><time>2026-04-06T11:31:32Z</time></trkpt><trkpt lat="44.209890559026874" lon="11.563809164327816"><ele>619.0</ele><time>2026-04-06T11:31:35Z</time></trkpt><trkpt lat="44.20983840412975" lon="11.563727784966554"><ele>618.6</ele><time>2026-04-06T11:31:37Z</time></trkpt><trkpt lat="44.20979229225919" lon="11.56361868302815"><ele>618.2</ele><time>2026-04-06T11:31:39Z</time></trkpt><trkpt lat="44.209731716337615" lon="11.56352555302605"><ele>617.8000000000001</ele><time>2026-04-06T11:31:41Z</time></trkpt><trkpt lat="44.209673401126636" lon="11.563428810555756"><ele>617.4</ele><time>2026-04-06T11:31:43Z</time></trkpt><trkpt lat="44.209603826645235" lon="11.563336360056852"><ele>617.0</ele><time>2026-04-06T11:31:45Z</time></trkpt><trkpt lat="44.209524581132264" lon="11.563283199569963"><ele>617.0</ele><time>2026-04-06T11:31:47Z</time></trkpt><trkpt lat="44.20944416056133" lon="11.563229406068393"><ele>617.0</ele><time>2026-04-06T11:31:49Z</time></trkpt><trkpt lat="44.20936620125923" lon="11.563160741420615"><ele>617.0</ele><time>2026-04-06T11:31:51Z</time></trkpt><trkpt lat="44.209300478708606" lon="11.563068546665395"><ele>617.0</ele><time>2026-04-06T11:31:53Z</time></trkpt><trkpt lat="44.20925699755825" lon="11.562952119151626"><ele>617.0</ele><time>2026-04-06T11:31:55Z</time></trkpt><trkpt lat="44.209254172744885" lon="11.562825547720005"><ele>618.0</ele><time>2026-04-06T11:31:57Z</time></trkpt><trkpt lat="44.20930055724711" lon="11.562701550690333"><ele>619.0</ele><time>2026-04-06T11:31:59Z</time></trkpt><trkpt lat="44.20933505356487" lon="11.562608036732579"><ele>620.0</ele><time>2026-04-06T11:32:01Z</time></trkpt><trkpt lat="44.20936574204616" lon="11.56250033008959"><ele>621.0</ele><time>2026-04-06T11:32:03Z</time></trkpt><trkpt lat="44.20937182818099" lon="11.562379984330994"><ele>622.0</ele><time>2026-04-06T11:32:05Z</time></trkpt><trkpt lat="44.20935110231253" lon="11.562260536228933"><ele>623.0</ele><time>2026-04-06T11:32:07Z</time></trkpt><trkpt lat="44.20930910603541" lon="11.562147721775174"><ele>623.0</ele><time>2026-04-06T11:32:09Z</time></trkpt><trkpt lat="44.209263071985234" lon="11.562044500536802"><ele>623.0</ele><time>2026-04-06T11:32:11Z</time></trkpt><trkpt lat="44.20921584624795" lon="11.561951130813727"><ele>623.0</ele><time>2026-04-06T11:32:13Z</time></trkpt><trkpt lat="44.20917912290542" lon="11.561850898329256"><ele>623.0</ele><time>2026-04-06T11:32:15Z</time></trkpt><trkpt lat="44.20912653600405" lon="11.561757209525716"><ele>623.0</ele><time>2026-04-06T11:32:17Z</time></trkpt><trkpt lat="44.209060236588726" lon="11.561661310179575"><ele>623.0</ele><time>2026-04-06T11:32:19Z</time></trkpt><trkpt lat="44.20898235180579" lon="11.561594591683962"><ele>622.8</ele><time>2026-04-06T11:32:21Z</time></trkpt><trkpt lat="44.20890048009622" lon="11.561531105156144"><ele>622.5999999999999</ele><time>2026-04-06T11:32:23Z</time></trkpt><trkpt lat="44.208792820227195" lon="11.561451560793675"><ele>622.4000000000001</ele><time>2026-04-06T11:32:26Z</time></trkpt><trkpt lat="44.20873989258037" lon="11.561398947236826"><ele>622.2</ele><time>2026-04-06T11:32:27Z</time></trkpt><trkpt lat="44.20869783558203" lon="11.56130644202908"><ele>622.0</ele><time>2026-04-06T11:32:29Z</time></trkpt><trkpt lat="44.20864397553298" lon="11.561195353293572"><ele>622.0</ele><time>2026-04-06T11:32:31Z</time></trkpt><trkpt lat="44.20858820124168" lon="11.561091212337102"><ele>622.0</ele><time>2026-04-06T11:32:33Z</time></trkpt><trkpt lat="44.20852552555408" lon="11.560998115233922"><ele>622.0</ele><time>2026-04-06T11:32:35Z</time></trkpt><trkpt lat="44.20845936878861" lon="11.560889030772403"><ele>622.0</ele><time>2026-04-06T11:32:37Z</time></trkpt><trkpt lat="44.20838324549562" lon="11.560785264094601"><ele>622.0</ele><time>2026-04-06T11:32:39Z</time></trkpt><trkpt lat="44.2083065433315" lon="11.560694360914711"><ele>622.0</ele><time>2026-04-06T11:32:41Z</time></trkpt><trkpt lat="44.20823193663364" lon="11.560608373040207"><ele>622.0</ele><time>2026-04-06T11:32:43Z</time></trkpt><trkpt lat="44.20815364654216" lon="11.560534729318613"><ele>622.0</ele><time>2026-04-06T11:32:45Z</time></trkpt><trkpt lat="44.20807003318415" lon="11.56048155062754"><ele>622.0</ele><time>2026-04-06T11:32:47Z</time></trkpt><trkpt lat="44.20798417069119" lon="11.560444355976275"><ele>622.0</ele><time>2026-04-06T11:32:49Z</time></trkpt><trkpt lat="44.207908040388325" lon="11.560385238570397"><ele>620.8000000000001</ele><time>2026-04-06T11:32:51Z</time></trkpt><trkpt lat="44.207840569175815" lon="11.560302716656526"><ele>619.6</ele><time>2026-04-06T11:32:53Z</time></trkpt><trkpt lat="44.20777926302353" lon="11.560217434045434"><ele>618.4000000000001</ele><time>2026-04-06T11:32:55Z</time></trkpt><trkpt lat="44.207719206038625" lon="11.560118734084693"><ele>617.2</ele><time>2026-04-06T11:32:57Z</time></trkpt><trkpt lat="44.207650349677316" lon="11.560020430632015"><ele>616.0</ele><time>2026-04-06T11:32:59Z</time></trkpt><trkpt lat="44.20757440458052" lon="11.559918996270126"><ele>616.0</ele><time>2026-04-06T11:33:01Z</time></trkpt><trkpt lat="44.20750145282087" lon="11.559819465199643"><ele>616.0</ele><time>2026-04-06T11:33:03Z</time></trkpt><trkpt lat="44.20743384634248" lon="11.55971107727283"><ele>616.0</ele><time>2026-04-06T11:33:05Z</time></trkpt><trkpt lat="44.20737166582038" lon="11.559607823935416"><ele>616.0</ele><time>2026-04-06T11:33:07Z</time></trkpt><trkpt lat="44.20730468794512" lon="11.559512157220361"><ele>616.0</ele><time>2026-04-06T11:33:09Z</time></trkpt><trkpt lat="44.20725009798055" lon="11.559426235342473"><ele>616.8333333333334</ele><time>2026-04-06T11:33:11Z</time></trkpt><trkpt lat="44.20720108188823" lon="11.559357856235296"><ele>617.6666666666667</ele><time>2026-04-06T11:33:15Z</time></trkpt><trkpt lat="44.20714012423257" lon="11.559314322880217"><ele>618.5</ele><time>2026-04-06T11:33:19Z</time></trkpt><trkpt lat="44.20718566899424" lon="11.559392698207171"><ele>619.3333333333334</ele><time>2026-04-06T11:33:30Z</time></trkpt><trkpt lat="44.207148356665215" lon="11.55931685610489"><ele>620.1666666666666</ele><time>2026-04-06T11:35:05Z</time></trkpt><trkpt lat="44.20706222710475" lon="11.55931755781337"><ele>621.0</ele><time>2026-04-06T11:35:08Z</time></trkpt><trkpt lat="44.20695656976238" lon="11.55936454619688"><ele>621.0</ele><time>2026-04-06T11:35:10Z</time></trkpt><trkpt lat="44.206888095523695" lon="11.55936999278253"><ele>621.0</ele><time>2026-04-06T11:35:11Z</time></trkpt><trkpt lat="44.206821148248245" lon="11.559384470750516"><ele>621.0</ele><time>2026-04-06T11:35:12Z</time></trkpt><trkpt lat="44.206751998082915" lon="11.55941207192004"><ele>621.0</ele><time>2026-04-06T11:35:13Z</time></trkpt><trkpt lat="44.20668712993705" lon="11.559442014807486"><ele>621.0</ele><time>2026-04-06T11:35:14Z</time></trkpt><trkpt lat="44.20660142939702" lon="11.559511800629512"><ele>621.0</ele><time>2026-04-06T11:35:16Z</time></trkpt><trkpt lat="44.20651815204397" lon="11.559607997281313"><ele>617.3333333333334</ele><time>2026-04-06T11:35:18Z</time></trkpt><trkpt lat="44.206416987782404" lon="11.559646579343678"><ele>613.6666666666666</ele><time>2026-04-06T11:35:20Z</time></trkpt><trkpt lat="44.20633139381186" lon="11.559700662009746"><ele>610.0</ele><time>2026-04-06T11:35:22Z</time></trkpt><trkpt lat="44.20626406745231" lon="11.559786023254823"><ele>606.3333333333333</ele><time>2026-04-06T11:35:24Z</time></trkpt><trkpt lat="44.20620544746713" lon="11.559839868802525"><ele>602.6666666666666</ele><time>2026-04-06T11:35:26Z</time></trkpt><trkpt lat="44.20613774508157" lon="11.559858829874164"><ele>599.0</ele><time>2026-04-06T11:35:28Z</time></trkpt><trkpt lat="44.20604750152383" lon="11.559923490750075"><ele>599.0</ele><time>2026-04-06T11:35:31Z</time></trkpt><trkpt lat="44.20598171827402" lon="11.559957452564399"><ele>599.0</ele><time>2026-04-06T11:35:34Z</time></trkpt><trkpt lat="44.20592327353825" lon="11.560030339654102"><ele>599.0</ele><time>2026-04-06T11:35:38Z</time></trkpt><trkpt lat="44.20586753701336" lon="11.560099425658404"><ele>599.0</ele><time>2026-04-06T11:36:29Z</time></trkpt><trkpt lat="44.20579624257151" lon="11.56014151676116"><ele>599.0</ele><time>2026-04-06T11:36:33Z</time></trkpt><trkpt lat="44.20573294160193" lon="11.560113803206264"><ele>599.0</ele><time>2026-04-06T11:36:41Z</time></trkpt><trkpt lat="44.20572934165753" lon="11.560019780916969"><ele>599.0</ele><time>2026-04-06T11:36:43Z</time></trkpt><trkpt lat="44.20568641163426" lon="11.559929482908013"><ele>593.2</ele><time>2026-04-06T11:36:46Z</time></trkpt><trkpt lat="44.20564280472648" lon="11.55983558915854"><ele>587.4</ele><time>2026-04-06T11:36:49Z</time></trkpt><trkpt lat="44.205515808702366" lon="11.55966776324932"><ele>581.6</ele><time>2026-04-06T11:36:51Z</time></trkpt><trkpt lat="44.20545429472421" lon="11.559639901910943"><ele>575.8</ele><time>2026-04-06T11:36:52Z</time></trkpt><trkpt lat="44.205392541942686" lon="11.559603671954784"><ele>570.0</ele><time>2026-04-06T11:36:53Z</time></trkpt><trkpt lat="44.205337667453094" lon="11.559552836271983"><ele>567.4</ele><time>2026-04-06T11:36:54Z</time></trkpt><trkpt lat="44.205238287804434" lon="11.559511538903692"><ele>564.8</ele><time>2026-04-06T11:36:56Z</time></trkpt><trkpt lat="44.20515608255421" lon="11.55951550404905"><ele>562.2</ele><time>2026-04-06T11:36:58Z</time></trkpt><trkpt lat="44.20503518639416" lon="11.5594934569142"><ele>559.6</ele><time>2026-04-06T11:37:00Z</time></trkpt><trkpt lat="44.20492890198895" lon="11.559499710578176"><ele>557.0</ele><time>2026-04-06T11:37:02Z</time></trkpt><trkpt lat="44.20481457427353" lon="11.559551918236496"><ele>557.0</ele><time>2026-04-06T11:37:04Z</time></trkpt><trkpt lat="44.20475027536324" lon="11.559589616954897"><ele>557.0</ele><time>2026-04-06T11:37:05Z</time></trkpt><trkpt lat="44.204682531243265" lon="11.559625172833236"><ele>557.0</ele><time>2026-04-06T11:37:06Z</time></trkpt><trkpt lat="44.20461510470013" lon="11.559658101437702"><ele>557.0</ele><time>2026-04-06T11:37:07Z</time></trkpt><trkpt lat="44.20455005399852" lon="11.55968741566547"><ele>557.0</ele><time>2026-04-06T11:37:08Z</time></trkpt><trkpt lat="44.2044919074085" lon="11.559725455242937"><ele>557.0</ele><time>2026-04-06T11:37:09Z</time></trkpt><trkpt lat="44.20441764556945" lon="11.559796760539903"><ele>557.0</ele><time>2026-04-06T11:37:10Z</time></trkpt><trkpt lat="44.2043486169649" lon="11.559840333997537"><ele>557.0</ele><time>2026-04-06T11:37:11Z</time></trkpt><trkpt lat="44.20428624953109" lon="11.559885971988761"><ele>557.0</ele><time>2026-04-06T11:37:12Z</time></trkpt><trkpt lat="44.2041959486295" lon="11.559963766101284"><ele>557.0</ele><time>2026-04-06T11:37:14Z</time></trkpt><trkpt lat="44.20414893195661" lon="11.560051870988959"><ele>557.0</ele><time>2026-04-06T11:37:16Z</time></trkpt><trkpt lat="44.204070885083276" lon="11.560098978740319"><ele>557.0</ele><time>2026-04-06T11:37:18Z</time></trkpt><trkpt lat="44.20400953448524" lon="11.560127723994585"><ele>557.0</ele><time>2026-04-06T11:37:20Z</time></trkpt><trkpt lat="44.20394066145842" lon="11.560167819448315"><ele>556.3333333333333</ele><time>2026-04-06T11:37:24Z</time></trkpt><trkpt lat="44.20387937319027" lon="11.560188563202376"><ele>555.6666666666666</ele><time>2026-04-06T11:37:28Z</time></trkpt><trkpt lat="44.203779404732366" lon="11.560222034240189"><ele>555.0</ele><time>2026-04-06T11:37:32Z</time></trkpt><trkpt lat="44.203683334217494" lon="11.560287603320823"><ele>554.3333333333334</ele><time>2026-04-06T11:37:35Z</time></trkpt><trkpt lat="44.20361058555273" lon="11.56035618588422"><ele>553.6666666666667</ele><time>2026-04-06T11:37:37Z</time></trkpt><trkpt lat="44.20354813205111" lon="11.560413444353207"><ele>553.0</ele><time>2026-04-06T11:37:38Z</time></trkpt><trkpt lat="44.20346400755018" lon="11.560483257670656"><ele>553.0</ele><time>2026-04-06T11:37:39Z</time></trkpt><trkpt lat="44.203337517058834" lon="11.56049388340424"><ele>553.0</ele><time>2026-04-06T11:37:41Z</time></trkpt><trkpt lat="44.20322983868285" lon="11.56050291930557"><ele>553.0</ele><time>2026-04-06T11:37:43Z</time></trkpt><trkpt lat="44.20313569906784" lon="11.560503709101555"><ele>553.0</ele><time>2026-04-06T11:37:45Z</time></trkpt><trkpt lat="44.20303558172077" lon="11.560498460544341"><ele>553.0</ele><time>2026-04-06T11:37:47Z</time></trkpt><trkpt lat="44.202945087596724" lon="11.5604772841536"><ele>553.0</ele><time>2026-04-06T11:37:49Z</time></trkpt><trkpt lat="44.20286992565514" lon="11.560492573696013"><ele>553.0</ele><time>2026-04-06T11:37:51Z</time></trkpt><trkpt lat="44.20277623435634" lon="11.560518924607369"><ele>553.0</ele><time>2026-04-06T11:37:53Z</time></trkpt><trkpt lat="44.20268571867642" lon="11.560551905488751"><ele>553.0</ele><time>2026-04-06T11:37:55Z</time></trkpt><trkpt lat="44.20261787039344" lon="11.560551005646237"><ele>553.0</ele><time>2026-04-06T11:37:58Z</time></trkpt><trkpt lat="44.20254209094594" lon="11.560603628890792"><ele>553.0</ele><time>2026-04-06T11:38:00Z</time></trkpt><trkpt lat="44.202455380777565" lon="11.560597033233272"><ele>550.0</ele><time>2026-04-06T11:38:02Z</time></trkpt><trkpt lat="44.20219579849246" lon="11.560605309979328"><ele>547.0</ele><time>2026-04-06T11:38:04Z</time></trkpt><trkpt lat="44.20209510591464" lon="11.560612095836564"><ele>544.0</ele><time>2026-04-06T11:38:08Z</time></trkpt><trkpt lat="44.20200717518832" lon="11.560607890748427"><ele>541.0</ele><time>2026-04-06T11:38:10Z</time></trkpt><trkpt lat="44.201910525047936" lon="11.560613834733132"><ele>541.0</ele><time>2026-04-06T11:38:12Z</time></trkpt><trkpt lat="44.20182800424649" lon="11.560597832177752"><ele>541.0</ele><time>2026-04-06T11:38:14Z</time></trkpt><trkpt lat="44.20174666457401" lon="11.560577070125852"><ele>541.0</ele><time>2026-04-06T11:38:18Z</time></trkpt><trkpt lat="44.201664894048065" lon="11.560569620735963"><ele>541.0</ele><time>2026-04-06T11:38:21Z</time></trkpt><trkpt lat="44.2015795449505" lon="11.560592504598633"><ele>541.0</ele><time>2026-04-06T11:38:25Z</time></trkpt><trkpt lat="44.20150982480518" lon="11.560588461213666"><ele>541.0</ele><time>2026-04-06T11:38:28Z</time></trkpt><trkpt lat="44.20144139650366" lon="11.56054937236199"><ele>537.1428571428572</ele><time>2026-04-06T11:38:33Z</time></trkpt><trkpt lat="44.20137242823451" lon="11.560586189773842"><ele>533.2857142857143</ele><time>2026-04-06T11:40:20Z</time></trkpt><trkpt lat="44.20129876105623" lon="11.560614245685139"><ele>529.4285714285714</ele><time>2026-04-06T11:40:23Z</time></trkpt><trkpt lat="44.201235985745" lon="11.56058109152121"><ele>525.5714285714287</ele><time>2026-04-06T11:40:26Z</time></trkpt><trkpt lat="44.20115634472481" lon="11.56058928398475"><ele>521.7142857142858</ele><time>2026-04-06T11:40:29Z</time></trkpt><trkpt lat="44.20109375794612" lon="11.560557464596343"><ele>517.8571428571429</ele><time>2026-04-06T11:40:31Z</time></trkpt><trkpt lat="44.20102984626035" lon="11.560513215537686"><ele>514.0</ele><time>2026-04-06T11:41:07Z</time></trkpt><trkpt lat="44.20095348800358" lon="11.560481182757487"><ele>514.0</ele><time>2026-04-06T11:41:11Z</time></trkpt><trkpt lat="44.200876366075825" lon="11.560487660073106"><ele>514.0</ele><time>2026-04-06T11:41:15Z</time></trkpt><trkpt lat="44.20080951846151" lon="11.560478116787214"><ele>514.0</ele><time>2026-04-06T11:41:17Z</time></trkpt><trkpt lat="44.200702234733534" lon="11.560480362111011"><ele>514.0</ele><time>2026-04-06T11:41:19Z</time></trkpt><trkpt lat="44.200614343541055" lon="11.560457185956185"><ele>514.0</ele><time>2026-04-06T11:41:21Z</time></trkpt><trkpt lat="44.20052296554566" lon="11.560476703643467"><ele>514.0</ele><time>2026-04-06T11:41:24Z</time></trkpt><trkpt lat="44.200441949171136" lon="11.560505075549594"><ele>513.0</ele><time>2026-04-06T11:41:26.999Z</time></trkpt><trkpt lat="44.20035857413154" lon="11.560574240879225"><ele>512.0</ele><time>2026-04-06T11:41:29Z</time></trkpt><trkpt lat="44.20028356291474" lon="11.560621959114817"><ele>511.0</ele><time>2026-04-06T11:41:31Z</time></trkpt><trkpt lat="44.20019731685635" lon="11.560641357958032"><ele>510.0</ele><time>2026-04-06T11:41:33Z</time></trkpt><trkpt lat="44.20010966855214" lon="11.560697995268562"><ele>509.0</ele><time>2026-04-06T11:41:37Z</time></trkpt><trkpt lat="44.20002608190999" lon="11.56078064181646"><ele>508.99999999999994</ele><time>2026-04-06T11:41:39Z</time></trkpt><trkpt lat="44.19996135178839" lon="11.56082193032119"><ele>509.0</ele><time>2026-04-06T11:41:44Z</time></trkpt><trkpt lat="44.19989145697191" lon="11.560861914477877"><ele>508.99999999999994</ele><time>2026-04-06T11:41:49Z</time></trkpt><trkpt lat="44.19983061134522" lon="11.560894454681904"><ele>508.99999999999994</ele><time>2026-04-06T11:41:53Z</time></trkpt><trkpt lat="44.199769013924794" lon="11.560920732130084"><ele>509.0</ele><time>2026-04-06T11:42:16Z</time></trkpt><trkpt lat="44.19968094133163" lon="11.560898750146125"><ele>508.99999999999994</ele><time>2026-04-06T11:42:20Z</time></trkpt><trkpt lat="44.199612476074755" lon="11.56085646620273"><ele>508.99999999999994</ele><time>2026-04-06T11:42:22Z</time></trkpt><trkpt lat="44.199514410165975" lon="11.560822464117278"><ele>508.0</ele><time>2026-04-06T11:42:24Z</time></trkpt><trkpt lat="44.19943187381158" lon="11.56076756195849"><ele>507.0</ele><time>2026-04-06T11:42:26Z</time></trkpt><trkpt lat="44.199368210519204" lon="11.560657340724424"><ele>506.0</ele><time>2026-04-06T11:42:28Z</time></trkpt><trkpt lat="44.19928776953706" lon="11.560594064844528"><ele>505.0</ele><time>2026-04-06T11:42:30Z</time></trkpt><trkpt lat="44.19920082401535" lon="11.560550510997587"><ele>504.0</ele><time>2026-04-06T11:42:32Z</time></trkpt><trkpt lat="44.199105390700815" lon="11.560541023003912"><ele>504.0</ele><time>2026-04-06T11:42:34Z</time></trkpt><trkpt lat="44.199009817063086" lon="11.560543520104977"><ele>504.0</ele><time>2026-04-06T11:42:36Z</time></trkpt><trkpt lat="44.19892154318485" lon="11.560559806100292"><ele>504.0</ele><time>2026-04-06T11:42:38Z</time></trkpt><trkpt lat="44.19884069491694" lon="11.560565683325766"><ele>504.0</ele><time>2026-04-06T11:42:40Z</time></trkpt><trkpt lat="44.198742393947285" lon="11.560564550660198"><ele>504.0</ele><time>2026-04-06T11:42:42Z</time></trkpt><trkpt lat="44.19866421745923" lon="11.560589770418835"><ele>504.0</ele><time>2026-04-06T11:42:44Z</time></trkpt><trkpt lat="44.19859494285161" lon="11.560636315789"><ele>504.0</ele><time>2026-04-06T11:43:01Z</time></trkpt><trkpt lat="44.198503287104415" lon="11.56071990958961"><ele>504.0</ele><time>2026-04-06T11:43:04Z</time></trkpt><trkpt lat="44.198412183464036" lon="11.560797636102503"><ele>504.0</ele><time>2026-04-06T11:43:06Z</time></trkpt><trkpt lat="44.19831361849631" lon="11.560898891505646"><ele>504.0</ele><time>2026-04-06T11:43:08Z</time></trkpt><trkpt lat="44.198222139674925" lon="11.560974492431873"><ele>504.0</ele><time>2026-04-06T11:43:10Z</time></trkpt><trkpt lat="44.19814004974593" lon="11.561056526265606"><ele>501.0</ele><time>2026-04-06T11:43:12Z</time></trkpt><trkpt lat="44.19806134709605" lon="11.561093065715605"><ele>498.0</ele><time>2026-04-06T11:43:14Z</time></trkpt><trkpt lat="44.19797525884829" lon="11.561149322150488"><ele>495.0</ele><time>2026-04-06T11:43:16Z</time></trkpt><trkpt lat="44.197887884472216" lon="11.561226112836827"><ele>492.0</ele><time>2026-04-06T11:43:18Z</time></trkpt><trkpt lat="44.197831617339745" lon="11.561268674847742"><ele>489.0</ele><time>2026-04-06T11:43:19Z</time></trkpt><trkpt lat="44.1977453230726" lon="11.56126837554043"><ele>486.0</ele><time>2026-04-06T11:43:21Z</time></trkpt><trkpt lat="44.19768569678636" lon="11.561309390390436"><ele>486.0</ele><time>2026-04-06T11:43:23.999Z</time></trkpt><trkpt lat="44.19761481495485" lon="11.561306740059864"><ele>486.0</ele><time>2026-04-06T11:43:26.999Z</time></trkpt><trkpt lat="44.19750723715497" lon="11.561292279043867"><ele>486.0</ele><time>2026-04-06T11:43:28.999Z</time></trkpt><trkpt lat="44.19744713681998" lon="11.561259490990704"><ele>486.0</ele><time>2026-04-06T11:43:31.999Z</time></trkpt><trkpt lat="44.197376860598844" lon="11.561217791025653"><ele>486.0</ele><time>2026-04-06T11:43:33.999Z</time></trkpt><trkpt lat="44.197292159714486" lon="11.56119227585965"><ele>486.0</ele><time>2026-04-06T11:43:37Z</time></trkpt><trkpt lat="44.19719746326564" lon="11.561200198698135"><ele>483.0</ele><time>2026-04-06T11:43:39Z</time></trkpt><trkpt lat="44.19711175500868" lon="11.561198091133038"><ele>480.0</ele><time>2026-04-06T11:43:43Z</time></trkpt><trkpt lat="44.197012726421654" lon="11.561181462812554"><ele>477.0</ele><time>2026-04-06T11:43:46Z</time></trkpt><trkpt lat="44.19694431249485" lon="11.561177263853613"><ele>474.0</ele><time>2026-04-06T11:43:49Z</time></trkpt><trkpt lat="44.196855715124364" lon="11.561207605502322"><ele>471.0</ele><time>2026-04-06T11:43:52Z</time></trkpt><trkpt lat="44.19678936690667" lon="11.561224647813514"><ele>468.0</ele><time>2026-04-06T11:43:54Z</time></trkpt><trkpt lat="44.19670986896863" lon="11.561278401460486"><ele>468.0</ele><time>2026-04-06T11:43:57Z</time></trkpt><trkpt lat="44.19663896312909" lon="11.561324530828275"><ele>468.0</ele><time>2026-04-06T11:44:00Z</time></trkpt><trkpt lat="44.196584000842115" lon="11.561386683225098"><ele>468.0</ele><time>2026-04-06T11:44:03Z</time></trkpt><trkpt lat="44.196521605990455" lon="11.561463840481007"><ele>468.0</ele><time>2026-04-06T11:44:06Z</time></trkpt><trkpt lat="44.19643639737238" lon="11.561469899429378"><ele>468.0</ele><time>2026-04-06T11:44:09Z</time></trkpt><trkpt lat="44.19634976359626" lon="11.56146017780986"><ele>468.0</ele><time>2026-04-06T11:44:12Z</time></trkpt><trkpt lat="44.19628994524437" lon="11.561498114837487"><ele>466.1666666666667</ele><time>2026-04-06T11:44:14Z</time></trkpt><trkpt lat="44.19619744588867" lon="11.56147810648064"><ele>464.33333333333337</ele><time>2026-04-06T11:44:17Z</time></trkpt><trkpt lat="44.19612793128513" lon="11.561489826236915"><ele>462.5</ele><time>2026-04-06T11:44:19Z</time></trkpt><trkpt lat="44.196061795014444" lon="11.561506026789926"><ele>460.6666666666667</ele><time>2026-04-06T11:44:21Z</time></trkpt><trkpt lat="44.19599397860778" lon="11.56153332755084"><ele>458.83333333333337</ele><time>2026-04-06T11:44:28Z</time></trkpt><trkpt lat="44.19599140703939" lon="11.561640283424682"><ele>457.0</ele><time>2026-04-06T11:45:11.999Z</time></trkpt><trkpt lat="44.19607519843687" lon="11.561711353156609"><ele>457.00000000000006</ele><time>2026-04-06T11:45:14.999Z</time></trkpt><trkpt lat="44.196147771348" lon="11.561685060873296"><ele>457.0</ele><time>2026-04-06T11:45:16.999Z</time></trkpt><trkpt lat="44.19622315228912" lon="11.56165407637114"><ele>457.0</ele><time>2026-04-06T11:45:19.999Z</time></trkpt><trkpt lat="44.19628808896751" lon="11.561641122845113"><ele>457.0</ele><time>2026-04-06T11:45:21.999Z</time></trkpt><trkpt lat="44.196371036078695" lon="11.561686337129402"><ele>457.00000000000006</ele><time>2026-04-06T11:45:23.999Z</time></trkpt><trkpt lat="44.19642886382004" lon="11.56175744336726"><ele>457.0</ele><time>2026-04-06T11:45:25.999Z</time></trkpt><trkpt lat="44.19649256137093" lon="11.56178392966159"><ele>458.83333333333337</ele><time>2026-04-06T11:45:27.999Z</time></trkpt><trkpt lat="44.1965766279704" lon="11.561819368139528"><ele>460.6666666666667</ele><time>2026-04-06T11:45:29.999Z</time></trkpt><trkpt lat="44.19668622516145" lon="11.561832642417686"><ele>462.5</ele><time>2026-04-06T11:45:31.999Z</time></trkpt><trkpt lat="44.19674987458516" lon="11.561803119028612"><ele>464.33333333333337</ele><time>2026-04-06T11:45:32.999Z</time></trkpt><trkpt lat="44.1968086776816" lon="11.561765325604085"><ele>466.1666666666667</ele><time>2026-04-06T11:45:33.999Z</time></trkpt><trkpt lat="44.19686873473845" lon="11.561737103459583"><ele>468.0</ele><time>2026-04-06T11:45:34.999Z</time></trkpt><trkpt lat="44.19698234441743" lon="11.561751030979332"><ele>468.0</ele><time>2026-04-06T11:45:36.999Z</time></trkpt><trkpt lat="44.19705302283544" lon="11.561843977202521"><ele>467.99999999999994</ele><time>2026-04-06T11:45:38.999Z</time></trkpt><trkpt lat="44.197156654465715" lon="11.56193331828734"><ele>467.99999999999994</ele><time>2026-04-06T11:45:41Z</time></trkpt><trkpt lat="44.197197927206844" lon="11.562075585374858"><ele>468.0</ele><time>2026-04-06T11:45:43Z</time></trkpt><trkpt lat="44.19725057901156" lon="11.56222432315531"><ele>468.0</ele><time>2026-04-06T11:45:45Z</time></trkpt><trkpt lat="44.1972708004842" lon="11.562337412112921"><ele>465.2</ele><time>2026-04-06T11:45:47Z</time></trkpt><trkpt lat="44.19735455738748" lon="11.562438280122437"><ele>462.4</ele><time>2026-04-06T11:45:49Z</time></trkpt><trkpt lat="44.19744458316968" lon="11.562430089508888"><ele>459.59999999999997</ele><time>2026-04-06T11:45:51Z</time></trkpt><trkpt lat="44.19752427557004" lon="11.562397759451326"><ele>456.79999999999995</ele><time>2026-04-06T11:45:53Z</time></trkpt><trkpt lat="44.19757719084541" lon="11.562530878881393"><ele>454.0</ele><time>2026-04-06T11:45:55Z</time></trkpt><trkpt lat="44.197674611730385" lon="11.562581166664707"><ele>454.0</ele><time>2026-04-06T11:45:57Z</time></trkpt><trkpt lat="44.19775466338406" lon="11.562566400976703"><ele>454.0</ele><time>2026-04-06T11:45:59Z</time></trkpt><trkpt lat="44.19785346312227" lon="11.562540837790538"><ele>454.0</ele><time>2026-04-06T11:46:01Z</time></trkpt><trkpt lat="44.19793447032311" lon="11.562580791515112"><ele>454.0</ele><time>2026-04-06T11:46:03Z</time></trkpt><trkpt lat="44.198031207292296" lon="11.562588425497712"><ele>454.0</ele><time>2026-04-06T11:46:05Z</time></trkpt><trkpt lat="44.19812188551507" lon="11.562560331421748"><ele>451.79999999999995</ele><time>2026-04-06T11:46:07Z</time></trkpt><trkpt lat="44.19822486141774" lon="11.562501856714547"><ele>449.59999999999997</ele><time>2026-04-06T11:46:09Z</time></trkpt><trkpt lat="44.19829780408474" lon="11.562422504661807"><ele>447.4</ele><time>2026-04-06T11:46:11Z</time></trkpt><trkpt lat="44.19838103663654" lon="11.5624315446845"><ele>445.2</ele><time>2026-04-06T11:46:13Z</time></trkpt><trkpt lat="44.1984369082444" lon="11.562341465256917"><ele>443.0</ele><time>2026-04-06T11:46:15Z</time></trkpt><trkpt lat="44.198518307999585" lon="11.56233364154885"><ele>442.99999999999994</ele><time>2026-04-06T11:46:18Z</time></trkpt><trkpt lat="44.198618058998015" lon="11.562274188471166"><ele>443.0</ele><time>2026-04-06T11:46:20Z</time></trkpt><trkpt lat="44.19871815396558" lon="11.562290031495081"><ele>443.0</ele><time>2026-04-06T11:46:22Z</time></trkpt><trkpt lat="44.19877779843315" lon="11.562236105512508"><ele>443.0</ele><time>2026-04-06T11:46:25Z</time></trkpt><trkpt lat="44.19882070446687" lon="11.562350711126289"><ele>442.99999999999994</ele><time>2026-04-06T11:46:28Z</time></trkpt><trkpt lat="44.198887711007" lon="11.562399923885602"><ele>443.0</ele><time>2026-04-06T11:46:37Z</time></trkpt><trkpt lat="44.19886545338918" lon="11.562495228408352"><ele>442.99999999999994</ele><time>2026-04-06T11:46:40Z</time></trkpt><trkpt lat="44.19884364073778" lon="11.56258787209122"><ele>443.0</ele><time>2026-04-06T11:46:41Z</time></trkpt><trkpt lat="44.19881814428802" lon="11.562689938749005"><ele>443.0</ele><time>2026-04-06T11:46:42Z</time></trkpt><trkpt lat="44.198828259629266" lon="11.562809209469048"><ele>443.0</ele><time>2026-04-06T11:46:44Z</time></trkpt><trkpt lat="44.198870991908024" lon="11.562915091987557"><ele>442.99999999999994</ele><time>2026-04-06T11:46:46Z</time></trkpt><trkpt lat="44.19892873071439" lon="11.56299550796703"><ele>443.0</ele><time>2026-04-06T11:46:48Z</time></trkpt><trkpt lat="44.19897609534636" lon="11.563062580945799"><ele>439.0</ele><time>2026-04-06T11:46:50Z</time></trkpt><trkpt lat="44.19901979004602" lon="11.563180272518874"><ele>434.99999999999994</ele><time>2026-04-06T11:46:54Z</time></trkpt><trkpt lat="44.19909603987079" lon="11.56328389800732"><ele>431.0</ele><time>2026-04-06T11:46:56Z</time></trkpt><trkpt lat="44.19914372332494" lon="11.563415221433766"><ele>427.0</ele><time>2026-04-06T11:46:58Z</time></trkpt><trkpt lat="44.19920364947874" lon="11.563481307384894"><ele>423.0</ele><time>2026-04-06T11:47:01Z</time></trkpt><trkpt lat="44.19925987090311" lon="11.563551503917873"><ele>423.0</ele><time>2026-04-06T11:47:03Z</time></trkpt><trkpt lat="44.19937116374605" lon="11.5636178515772"><ele>423.0</ele><time>2026-04-06T11:47:04Z</time></trkpt><trkpt lat="44.19943645860772" lon="11.56362551870787"><ele>423.0</ele><time>2026-04-06T11:47:06Z</time></trkpt><trkpt lat="44.19947363057766" lon="11.563708962872447"><ele>423.0</ele><time>2026-04-06T11:47:08Z</time></trkpt><trkpt lat="44.199557316984034" lon="11.563817556000162"><ele>423.0</ele><time>2026-04-06T11:47:10Z</time></trkpt><trkpt lat="44.199641970695424" lon="11.56391670479979"><ele>422.5</ele><time>2026-04-06T11:47:11.999Z</time></trkpt><trkpt lat="44.199718114973095" lon="11.563977167898162"><ele>422.0</ele><time>2026-04-06T11:47:13.999Z</time></trkpt><trkpt lat="44.199760569409776" lon="11.564051671405593"><ele>421.5</ele><time>2026-04-06T11:47:16.999Z</time></trkpt><trkpt lat="44.199794054833276" lon="11.56415823589882"><ele>421.0</ele><time>2026-04-06T11:47:19.999Z</time></trkpt><trkpt lat="44.19984825472481" lon="11.564213360169218"><ele>420.5</ele><time>2026-04-06T11:47:22.999Z</time></trkpt><trkpt lat="44.199880426737764" lon="11.564330318940637"><ele>420.0</ele><time>2026-04-06T11:47:25.999Z</time></trkpt><trkpt lat="44.19991723152895" lon="11.564426887143116"><ele>420.0</ele><time>2026-04-06T11:47:26.999Z</time></trkpt><trkpt lat="44.19995825248819" lon="11.564524586922019"><ele>420.0</ele><time>2026-04-06T11:47:27.999Z</time></trkpt><trkpt lat="44.20000059239619" lon="11.564602568434301"><ele>420.0</ele><time>2026-04-06T11:47:28.999Z</time></trkpt><trkpt lat="44.20009631225695" lon="11.564694878706193"><ele>420.0</ele><time>2026-04-06T11:47:30.999Z</time></trkpt><trkpt lat="44.20017043561654" lon="11.564802403676499"><ele>420.0</ele><time>2026-04-06T11:47:32.999Z</time></trkpt><trkpt lat="44.20008334733747" lon="11.564962140627797"><ele>419.8</ele><time>2026-04-06T11:47:33.999Z</time></trkpt><trkpt lat="44.200132217609024" lon="11.565081738247622"><ele>419.6</ele><time>2026-04-06T11:47:37.999Z</time></trkpt><trkpt lat="44.20019883968617" lon="11.565134401240497"><ele>419.4</ele><time>2026-04-06T11:47:40.999Z</time></trkpt><trkpt lat="44.20023569819002" lon="11.56524318382822"><ele>419.2</ele><time>2026-04-06T11:47:43.999Z</time></trkpt><trkpt lat="44.20028885367053" lon="11.565367111359121"><ele>419.0</ele><time>2026-04-06T11:47:44.999Z</time></trkpt><trkpt lat="44.20032199617883" lon="11.565484419943411"><ele>421.49999999999994</ele><time>2026-04-06T11:47:48Z</time></trkpt><trkpt lat="44.20036007290158" lon="11.565587453128979"><ele>424.0</ele><time>2026-04-06T11:47:51Z</time></trkpt><trkpt lat="44.20039676538108" lon="11.565699312471036"><ele>426.5</ele><time>2026-04-06T11:47:54Z</time></trkpt><trkpt lat="44.200453821726754" lon="11.565793667627275"><ele>429.0</ele><time>2026-04-06T11:47:57Z</time></trkpt><trkpt lat="44.20052087319858" lon="11.565853566640884"><ele>431.49999999999994</ele><time>2026-04-06T11:48:00Z</time></trkpt><trkpt lat="44.20058917571113" lon="11.56592702893088"><ele>434.0</ele><time>2026-04-06T11:48:03Z</time></trkpt><trkpt lat="44.200656873190006" lon="11.566003174318618"><ele>433.99999999999994</ele><time>2026-04-06T11:48:06Z</time></trkpt><trkpt lat="44.20073322664495" lon="11.566047144492787"><ele>434.0</ele><time>2026-04-06T11:48:09Z</time></trkpt><trkpt lat="44.20081497620453" lon="11.56608243082042"><ele>434.0</ele><time>2026-04-06T11:48:12Z</time></trkpt><trkpt lat="44.20087460262562" lon="11.566122885875055"><ele>434.0</ele><time>2026-04-06T11:48:15Z</time></trkpt><trkpt lat="44.200934094502166" lon="11.566183408549122"><ele>433.99999999999994</ele><time>2026-04-06T11:48:18Z</time></trkpt><trkpt lat="44.20098705641661" lon="11.566257614694507"><ele>434.0</ele><time>2026-04-06T11:48:21Z</time></trkpt><trkpt lat="44.201034566156885" lon="11.566356309173802"><ele>433.49999999999994</ele><time>2026-04-06T11:48:24Z</time></trkpt><trkpt lat="44.20108091363457" lon="11.566459812821881"><ele>433.0</ele><time>2026-04-06T11:48:26Z</time></trkpt><trkpt lat="44.20113506091129" lon="11.566546979529026"><ele>432.5</ele><time>2026-04-06T11:48:29Z</time></trkpt><trkpt lat="44.20121280953853" lon="11.566618313259573"><ele>432.0</ele><time>2026-04-06T11:48:32Z</time></trkpt><trkpt lat="44.20129902852881" lon="11.566660630687641"><ele>431.49999999999994</ele><time>2026-04-06T11:48:35Z</time></trkpt><trkpt lat="44.20135063899733" lon="11.566714170699116"><ele>431.0</ele><time>2026-04-06T11:48:38Z</time></trkpt><trkpt lat="44.201405315585625" lon="11.566791957238474"><ele>430.99999999999994</ele><time>2026-04-06T11:48:41Z</time></trkpt><trkpt lat="44.20147944126459" lon="11.566911824344237"><ele>431.0</ele><time>2026-04-06T11:48:44Z</time></trkpt><trkpt lat="44.20154669260894" lon="11.567008583900533"><ele>431.0</ele><time>2026-04-06T11:48:47Z</time></trkpt><trkpt lat="44.20161731573815" lon="11.567097030653525"><ele>431.0</ele><time>2026-04-06T11:48:50Z</time></trkpt><trkpt lat="44.20167262957007" lon="11.567141938223184"><ele>430.99999999999994</ele><time>2026-04-06T11:48:52Z</time></trkpt><trkpt lat="44.20173184366052" lon="11.567176586187424"><ele>431.0</ele><time>2026-04-06T11:48:54Z</time></trkpt><trkpt lat="44.20181894903586" lon="11.567224970398328"><ele>432.7142857142857</ele><time>2026-04-06T11:48:57Z</time></trkpt><trkpt lat="44.20188056114989" lon="11.567258164578153"><ele>434.4285714285714</ele><time>2026-04-06T11:48:59Z</time></trkpt><trkpt lat="44.20194418086532" lon="11.567279975653818"><ele>436.1428571428571</ele><time>2026-04-06T11:49:01Z</time></trkpt><trkpt lat="44.20201306533828" lon="11.567296876450193"><ele>437.8571428571429</ele><time>2026-04-06T11:49:04Z</time></trkpt><trkpt lat="44.20207796244226" lon="11.567303308136118"><ele>439.57142857142856</ele><time>2026-04-06T11:49:06Z</time></trkpt><trkpt lat="44.202170745958" lon="11.567333471270691"><ele>441.2857142857143</ele><time>2026-04-06T11:49:09Z</time></trkpt><trkpt lat="44.20223616201763" lon="11.567362872535215"><ele>443.0</ele><time>2026-04-06T11:49:11Z</time></trkpt><trkpt lat="44.20232352654575" lon="11.567389656595864"><ele>443.49999999999994</ele><time>2026-04-06T11:49:14Z</time></trkpt><trkpt lat="44.20241534095572" lon="11.56741406841949"><ele>444.0</ele><time>2026-04-06T11:49:17Z</time></trkpt><trkpt lat="44.20247576262084" lon="11.567442726017756"><ele>444.5</ele><time>2026-04-06T11:49:19Z</time></trkpt><trkpt lat="44.20253789265901" lon="11.567497996236606"><ele>445.0</ele><time>2026-04-06T11:49:22Z</time></trkpt><trkpt lat="44.20259492241367" lon="11.5675725083477"><ele>445.49999999999994</ele><time>2026-04-06T11:49:25Z</time></trkpt><trkpt lat="44.20265294502268" lon="11.567645198505804"><ele>446.0</ele><time>2026-04-06T11:49:27Z</time></trkpt><trkpt lat="44.20270785174078" lon="11.567738068275213"><ele>446.0</ele><time>2026-04-06T11:49:30Z</time></trkpt><trkpt lat="44.20276172490363" lon="11.56781625165056"><ele>446.0</ele><time>2026-04-06T11:49:33Z</time></trkpt><trkpt lat="44.202836851183235" lon="11.567880288033168"><ele>446.0</ele><time>2026-04-06T11:49:36Z</time></trkpt><trkpt lat="44.202897018962084" lon="11.567916097102088"><ele>446.0</ele><time>2026-04-06T11:49:37.999Z</time></trkpt><trkpt lat="44.2029597160633" lon="11.567933547052878"><ele>446.0</ele><time>2026-04-06T11:49:39.999Z</time></trkpt><trkpt lat="44.203027324342905" lon="11.567953692059197"><ele>446.0</ele><time>2026-04-06T11:49:41.999Z</time></trkpt><trkpt lat="44.20309441312887" lon="11.567956733663108"><ele>446.0</ele><time>2026-04-06T11:49:43.999Z</time></trkpt><trkpt lat="44.20316699566135" lon="11.567950611844884"><ele>445.99999999999994</ele><time>2026-04-06T11:49:45.999Z</time></trkpt><trkpt lat="44.20323966793947" lon="11.567952819817748"><ele>446.0</ele><time>2026-04-06T11:49:47.999Z</time></trkpt><trkpt lat="44.203309669075395" lon="11.567943179189959"><ele>446.0</ele><time>2026-04-06T11:49:49.999Z</time></trkpt><trkpt lat="44.20338959938749" lon="11.567938113436673"><ele>446.0</ele><time>2026-04-06T11:49:51.999Z</time></trkpt><trkpt lat="44.20347056771546" lon="11.567927262513201"><ele>445.99999999999994</ele><time>2026-04-06T11:49:54Z</time></trkpt><trkpt lat="44.20354708147007" lon="11.567906241709936"><ele>446.0</ele><time>2026-04-06T11:49:56Z</time></trkpt><trkpt lat="44.20364337365918" lon="11.567890750564873"><ele>446.0</ele><time>2026-04-06T11:49:59Z</time></trkpt><trkpt lat="44.203713736674764" lon="11.567849169389685"><ele>446.0</ele><time>2026-04-06T11:50:01Z</time></trkpt><trkpt lat="44.203778192797074" lon="11.56781464973514"><ele>446.0</ele><time>2026-04-06T11:50:03Z</time></trkpt><trkpt lat="44.20384222681531" lon="11.567816307542255"><ele>446.0</ele><time>2026-04-06T11:50:05Z</time></trkpt><trkpt lat="44.20390209419657" lon="11.56784420365171"><ele>446.0</ele><time>2026-04-06T11:50:07Z</time></trkpt><trkpt lat="44.20396721074953" lon="11.567873359752424"><ele>446.0</ele><time>2026-04-06T11:50:10Z</time></trkpt><trkpt lat="44.20403520894996" lon="11.567913015370712"><ele>446.0</ele><time>2026-04-06T11:50:13Z</time></trkpt><trkpt lat="44.20410867563826" lon="11.567949108328458"><ele>447.0</ele><time>2026-04-06T11:50:16Z</time></trkpt><trkpt lat="44.20417008932893" lon="11.56799948169295"><ele>448.0</ele><time>2026-04-06T11:50:19Z</time></trkpt><trkpt lat="44.20423623206549" lon="11.56802264485093"><ele>449.0</ele><time>2026-04-06T11:50:22Z</time></trkpt><trkpt lat="44.20430590474423" lon="11.568028732265493"><ele>450.0</ele><time>2026-04-06T11:50:25Z</time></trkpt><trkpt lat="44.20437407254674" lon="11.5680582142434"><ele>451.0</ele><time>2026-04-06T11:50:29Z</time></trkpt><trkpt lat="44.20443984754836" lon="11.568076460395057"><ele>451.99999999999994</ele><time>2026-04-06T11:50:32Z</time></trkpt><trkpt lat="44.204505248243365" lon="11.568094403346812"><ele>452.99999999999994</ele><time>2026-04-06T11:50:35Z</time></trkpt><trkpt lat="44.204574855112924" lon="11.568114156697153"><ele>453.0</ele><time>2026-04-06T11:50:38Z</time></trkpt><trkpt lat="44.204664434500444" lon="11.568137875955545"><ele>453.0</ele><time>2026-04-06T11:50:42Z</time></trkpt><trkpt lat="44.20474022805461" lon="11.56815369352983"><ele>453.0</ele><time>2026-04-06T11:50:46Z</time></trkpt><trkpt lat="44.20480770508137" lon="11.56817212793551"><ele>453.0</ele><time>2026-04-06T11:50:49Z</time></trkpt><trkpt lat="44.204883945940374" lon="11.568184397956664"><ele>453.0</ele><time>2026-04-06T11:50:52Z</time></trkpt><trkpt lat="44.204956137020815" lon="11.568208243689908"><ele>453.0</ele><time>2026-04-06T11:50:56Z</time></trkpt><trkpt lat="44.20503057010506" lon="11.568221277825902"><ele>454.8333333333333</ele><time>2026-04-06T11:50:59Z</time></trkpt><trkpt lat="44.20511955244196" lon="11.568232226507455"><ele>456.66666666666663</ele><time>2026-04-06T11:51:02Z</time></trkpt><trkpt lat="44.2051927535645" lon="11.568254440856261"><ele>458.5</ele><time>2026-04-06T11:51:06Z</time></trkpt><trkpt lat="44.2052842226414" lon="11.568273255568888"><ele>460.3333333333333</ele><time>2026-04-06T11:51:09Z</time></trkpt><trkpt lat="44.20535230054057" lon="11.568288681242782"><ele>462.16666666666663</ele><time>2026-04-06T11:51:12Z</time></trkpt><trkpt lat="44.20541562455534" lon="11.568311864052696"><ele>464.0</ele><time>2026-04-06T11:51:15Z</time></trkpt><trkpt lat="44.2054949003623" lon="11.56834193526719"><ele>464.00000000000006</ele><time>2026-04-06T11:51:19Z</time></trkpt><trkpt lat="44.20555701660626" lon="11.568367234677812"><ele>464.0</ele><time>2026-04-06T11:51:22Z</time></trkpt><trkpt lat="44.20561896108026" lon="11.568409667286492"><ele>464.00000000000006</ele><time>2026-04-06T11:51:25Z</time></trkpt><trkpt lat="44.20568012394883" lon="11.568445434101085"><ele>464.00000000000006</ele><time>2026-04-06T11:51:28Z</time></trkpt><trkpt lat="44.20574519488482" lon="11.568472615019045"><ele>464.0</ele><time>2026-04-06T11:51:32Z</time></trkpt><trkpt lat="44.20581450515807" lon="11.568491868393792"><ele>464.00000000000006</ele><time>2026-04-06T11:51:35Z</time></trkpt><trkpt lat="44.205881732342235" lon="11.568525339282282"><ele>464.00000000000006</ele><time>2026-04-06T11:51:38Z</time></trkpt><trkpt lat="44.20594555322618" lon="11.568540987294302"><ele>466.28571428571433</ele><time>2026-04-06T11:51:42Z</time></trkpt><trkpt lat="44.206008292571106" lon="11.568549545703918"><ele>468.57142857142856</ele><time>2026-04-06T11:51:44.999Z</time></trkpt><trkpt lat="44.206072604455976" lon="11.568555983290526"><ele>470.8571428571429</ele><time>2026-04-06T11:51:47.999Z</time></trkpt><trkpt lat="44.206146367527374" lon="11.568558399343114"><ele>473.14285714285717</ele><time>2026-04-06T11:51:50.999Z</time></trkpt><trkpt lat="44.20622117154716" lon="11.568555001837014"><ele>475.42857142857144</ele><time>2026-04-06T11:51:54.999Z</time></trkpt><trkpt lat="44.20629488499442" lon="11.568572781496428"><ele>477.7142857142857</ele><time>2026-04-06T11:51:59Z</time></trkpt><trkpt lat="44.206360326551795" lon="11.568583682163464"><ele>480.0</ele><time>2026-04-06T11:52:03Z</time></trkpt><trkpt lat="44.20642877466021" lon="11.568579512744869"><ele>482.42857142857144</ele><time>2026-04-06T11:52:07Z</time></trkpt><trkpt lat="44.20650025734798" lon="11.568590435294048"><ele>484.85714285714283</ele><time>2026-04-06T11:52:11Z</time></trkpt><trkpt lat="44.206578275839775" lon="11.568590316592298"><ele>487.2857142857143</ele><time>2026-04-06T11:52:16Z</time></trkpt><trkpt lat="44.20665243878197" lon="11.56855210016213"><ele>489.7142857142857</ele><time>2026-04-06T11:52:20Z</time></trkpt><trkpt lat="44.20670959960014" lon="11.568489638951675"><ele>492.1428571428571</ele><time>2026-04-06T11:52:25Z</time></trkpt><trkpt lat="44.20676245117267" lon="11.568431157647286"><ele>494.57142857142856</ele><time>2026-04-06T11:52:29Z</time></trkpt><trkpt lat="44.2068185576989" lon="11.5683590931408"><ele>497.0</ele><time>2026-04-06T11:52:34Z</time></trkpt><trkpt lat="44.206869494982406" lon="11.568284450553357"><ele>497.0</ele><time>2026-04-06T11:52:38Z</time></trkpt><trkpt lat="44.20693142060682" lon="11.568213956344774"><ele>497.0</ele><time>2026-04-06T11:52:43Z</time></trkpt><trkpt lat="44.206973917393285" lon="11.568140401255715"><ele>497.0</ele><time>2026-04-06T11:52:47Z</time></trkpt><trkpt lat="44.20704034060467" lon="11.568078376744783"><ele>497.0</ele><time>2026-04-06T11:52:51Z</time></trkpt><trkpt lat="44.207098671587886" lon="11.568044544374777"><ele>497.0</ele><time>2026-04-06T11:52:54Z</time></trkpt><trkpt lat="44.207168154686975" lon="11.568006181604641"><ele>497.0</ele><time>2026-04-06T11:52:58Z</time></trkpt><trkpt lat="44.20723366726583" lon="11.567958142007088"><ele>497.0</ele><time>2026-04-06T11:53:02Z</time></trkpt><trkpt lat="44.20730729879441" lon="11.56791037606029"><ele>497.7142857142857</ele><time>2026-04-06T11:53:07Z</time></trkpt><trkpt lat="44.20739085108275" lon="11.567876021369855"><ele>498.42857142857144</ele><time>2026-04-06T11:53:11Z</time></trkpt><trkpt lat="44.207463396317266" lon="11.56783648528616"><ele>499.1428571428571</ele><time>2026-04-06T11:53:15Z</time></trkpt><trkpt lat="44.20752698047239" lon="11.567806985079915"><ele>499.85714285714283</ele><time>2026-04-06T11:53:19Z</time></trkpt><trkpt lat="44.207593915794746" lon="11.56777564571318"><ele>500.57142857142856</ele><time>2026-04-06T11:53:23Z</time></trkpt><trkpt lat="44.20765220564405" lon="11.56773671739132"><ele>501.2857142857142</ele><time>2026-04-06T11:53:27Z</time></trkpt><trkpt lat="44.20771089191505" lon="11.567687761447129"><ele>501.99999999999994</ele><time>2026-04-06T11:53:31Z</time></trkpt><trkpt lat="44.20776296032832" lon="11.567619188836003"><ele>504.2857142857142</ele><time>2026-04-06T11:53:35Z</time></trkpt><trkpt lat="44.20780708409782" lon="11.567536970293729"><ele>506.57142857142856</ele><time>2026-04-06T11:53:39Z</time></trkpt><trkpt lat="44.207851695696164" lon="11.567455049911018"><ele>508.85714285714283</ele><time>2026-04-06T11:53:43Z</time></trkpt><trkpt lat="44.207884337604504" lon="11.567379588006668"><ele>511.1428571428571</ele><time>2026-04-06T11:53:45.999Z</time></trkpt><trkpt lat="44.207923478229446" lon="11.56730415794081"><ele>513.4285714285714</ele><time>2026-04-06T11:53:48.999Z</time></trkpt><trkpt lat="44.20797728465388" lon="11.56723534600827"><ele>515.7142857142857</ele><time>2026-04-06T11:53:52.999Z</time></trkpt><trkpt lat="44.20803816527321" lon="11.56716813882251"><ele>518.0</ele><time>2026-04-06T11:53:56.999Z</time></trkpt><trkpt lat="44.20809564192759" lon="11.567100655534764"><ele>519.1428571428571</ele><time>2026-04-06T11:54:00.999Z</time></trkpt><trkpt lat="44.20815585454004" lon="11.567016909149965"><ele>520.2857142857142</ele><time>2026-04-06T11:54:05Z</time></trkpt><trkpt lat="44.208202409298" lon="11.566947780190041"><ele>521.4285714285714</ele><time>2026-04-06T11:54:08Z</time></trkpt><trkpt lat="44.20824216965556" lon="11.566878869722775"><ele>522.5714285714286</ele><time>2026-04-06T11:54:11Z</time></trkpt><trkpt lat="44.208295890625905" lon="11.56679373969423"><ele>523.7142857142857</ele><time>2026-04-06T11:54:15Z</time></trkpt><trkpt lat="44.208349985510985" lon="11.566708296276923"><ele>524.8571428571429</ele><time>2026-04-06T11:54:19Z</time></trkpt><trkpt lat="44.208386033386304" lon="11.566632082424038"><ele>526.0</ele><time>2026-04-06T11:54:22Z</time></trkpt><trkpt lat="44.20844283617877" lon="11.566545800017169"><ele>526.0</ele><time>2026-04-06T11:54:26Z</time></trkpt><trkpt lat="44.20848477426588" lon="11.566469349958071"><ele>526.0</ele><time>2026-04-06T11:54:30Z</time></trkpt><trkpt lat="44.20852890236441" lon="11.56638062827624"><ele>526.0</ele><time>2026-04-06T11:54:33Z</time></trkpt><trkpt lat="44.20857810124726" lon="11.566290772880897"><ele>526.0</ele><time>2026-04-06T11:54:37Z</time></trkpt><trkpt lat="44.2086294438605" lon="11.566205062887542"><ele>526.0</ele><time>2026-04-06T11:54:41Z</time></trkpt><trkpt lat="44.20866257288594" lon="11.56611187115286"><ele>526.0</ele><time>2026-04-06T11:54:45Z</time></trkpt><trkpt lat="44.208648768182194" lon="11.566021800001746"><ele>526.0</ele><time>2026-04-06T11:54:49Z</time></trkpt><trkpt lat="44.20859602405349" lon="11.565951943574433"><ele>530.1666666666667</ele><time>2026-04-06T11:54:53Z</time></trkpt><trkpt lat="44.20852058106374" lon="11.565925269053087"><ele>534.3333333333334</ele><time>2026-04-06T11:54:57Z</time></trkpt><trkpt lat="44.20844630744055" lon="11.565908645732634"><ele>538.5</ele><time>2026-04-06T11:55:01Z</time></trkpt><trkpt lat="44.208364835026146" lon="11.565904406544544"><ele>542.6666666666666</ele><time>2026-04-06T11:55:05Z</time></trkpt><trkpt lat="44.20829925848766" lon="11.565884056161174"><ele>546.8333333333333</ele><time>2026-04-06T11:55:08Z</time></trkpt><trkpt lat="44.20822312669964" lon="11.565865762745544"><ele>551.0</ele><time>2026-04-06T11:55:12Z</time></trkpt><trkpt lat="44.2081401698735" lon="11.565862918616839"><ele>552.2857142857142</ele><time>2026-04-06T11:55:16Z</time></trkpt><trkpt lat="44.20807516427596" lon="11.565874993783208"><ele>553.5714285714286</ele><time>2026-04-06T11:55:19Z</time></trkpt><trkpt lat="44.208010493649645" lon="11.56587928782725"><ele>554.8571428571429</ele><time>2026-04-06T11:55:22Z</time></trkpt><trkpt lat="44.2079429488481" lon="11.565900408406911"><ele>556.1428571428571</ele><time>2026-04-06T11:55:25Z</time></trkpt><trkpt lat="44.20787926880497" lon="11.565910953386272"><ele>557.4285714285714</ele><time>2026-04-06T11:55:29Z</time></trkpt><trkpt lat="44.207804221526594" lon="11.565937923462712"><ele>558.7142857142857</ele><time>2026-04-06T11:57:42.999Z</time></trkpt><trkpt lat="44.20772462406249" lon="11.565960164948379"><ele>560.0</ele><time>2026-04-06T11:57:46.999Z</time></trkpt><trkpt lat="44.20764667639328" lon="11.565996515143986"><ele>560.0</ele><time>2026-04-06T11:57:50.999Z</time></trkpt><trkpt lat="44.207585156295906" lon="11.566017450274627"><ele>560.0</ele><time>2026-04-06T11:57:53.999Z</time></trkpt><trkpt lat="44.20752534319914" lon="11.566047858081136"><ele>560.0</ele><time>2026-04-06T11:57:56.999Z</time></trkpt><trkpt lat="44.20745332815555" lon="11.566092092330218"><ele>560.0</ele><time>2026-04-06T11:58:00.999Z</time></trkpt><trkpt lat="44.20739249425344" lon="11.566121298523663"><ele>560.0</ele><time>2026-04-06T11:58:03.999Z</time></trkpt><trkpt lat="44.20732814554281" lon="11.566146620803666"><ele>560.0</ele><time>2026-04-06T11:58:06.999Z</time></trkpt><trkpt lat="44.20725781256824" lon="11.566163844637456"><ele>560.0</ele><time>2026-04-06T11:58:09.999Z</time></trkpt><trkpt lat="44.20718895443194" lon="11.56613749016723"><ele>560.0</ele><time>2026-04-06T11:58:12.999Z</time></trkpt><trkpt lat="44.207168408492834" lon="11.566036575834175"><ele>560.0</ele><time>2026-04-06T11:58:15.999Z</time></trkpt><trkpt lat="44.20720446107372" lon="11.565930120978452"><ele>560.0</ele><time>2026-04-06T11:58:19Z</time></trkpt><trkpt lat="44.207253704696654" lon="11.565832416876798"><ele>560.0</ele><time>2026-04-06T11:58:22Z</time></trkpt><trkpt lat="44.20729106160864" lon="11.565741440080924"><ele>560.0</ele><time>2026-04-06T11:58:25Z</time></trkpt><trkpt lat="44.20731576526927" lon="11.565636946225839"><ele>560.0</ele><time>2026-04-06T11:58:28Z</time></trkpt><trkpt lat="44.20733772492637" lon="11.565531837673245"><ele>560.0</ele><time>2026-04-06T11:58:31Z</time></trkpt><trkpt lat="44.20737024372495" lon="11.565442259402491"><ele>560.0</ele><time>2026-04-06T11:58:34Z</time></trkpt><trkpt lat="44.20742281107155" lon="11.565367250074335"><ele>560.0</ele><time>2026-04-06T11:58:37Z</time></trkpt><trkpt lat="44.20749370530003" lon="11.565323852830696"><ele>560.0</ele><time>2026-04-06T11:58:40Z</time></trkpt><trkpt lat="44.20756417307901" lon="11.565305307891105"><ele>560.0</ele><time>2026-04-06T11:58:43Z</time></trkpt><trkpt lat="44.20764650529056" lon="11.565298709484953"><ele>560.0</ele><time>2026-04-06T11:58:46Z</time></trkpt><trkpt lat="44.207734707797336" lon="11.565268230907206"><ele>564.5</ele><time>2026-04-06T11:58:49Z</time></trkpt><trkpt lat="44.20779387837291" lon="11.565232425584284"><ele>569.0</ele><time>2026-04-06T11:58:51Z</time></trkpt><trkpt lat="44.2078511684259" lon="11.565179256455076"><ele>573.5</ele><time>2026-04-06T11:58:53Z</time></trkpt><trkpt lat="44.20791047184996" lon="11.565133731119868"><ele>578.0</ele><time>2026-04-06T11:58:55Z</time></trkpt><trkpt lat="44.20799438676789" lon="11.565085980203465"><ele>582.5</ele><time>2026-04-06T11:58:58Z</time></trkpt><trkpt lat="44.20807125882936" lon="11.565014626519156"><ele>587.0</ele><time>2026-04-06T11:59:01Z</time></trkpt><trkpt lat="44.20813558942051" lon="11.564941918304585"><ele>588.1428571428571</ele><time>2026-04-06T11:59:04Z</time></trkpt><trkpt lat="44.20819008002588" lon="11.564881386005734"><ele>589.2857142857143</ele><time>2026-04-06T11:59:07Z</time></trkpt><trkpt lat="44.20823513521591" lon="11.564819491360593"><ele>590.4285714285714</ele><time>2026-04-06T11:59:09Z</time></trkpt><trkpt lat="44.2082931527085" lon="11.564740480645535"><ele>591.5714285714286</ele><time>2026-04-06T11:59:12Z</time></trkpt><trkpt lat="44.20835709187583" lon="11.564663277096539"><ele>592.7142857142858</ele><time>2026-04-06T11:59:16Z</time></trkpt><trkpt lat="44.2084091497127" lon="11.564598332023342"><ele>593.8571428571429</ele><time>2026-04-06T11:59:19Z</time></trkpt><trkpt lat="44.20846606393662" lon="11.564543734842093"><ele>595.0</ele><time>2026-04-06T11:59:22Z</time></trkpt><trkpt lat="44.20851269296194" lon="11.564472521842498"><ele>595.0</ele><time>2026-04-06T11:59:25Z</time></trkpt><trkpt lat="44.20857061708214" lon="11.564420107290353"><ele>595.0</ele><time>2026-04-06T11:59:30Z</time></trkpt><trkpt lat="44.208631908879575" lon="11.564379024802637"><ele>595.0</ele><time>2026-04-06T11:59:34Z</time></trkpt><trkpt lat="44.208688706185754" lon="11.564316447162527"><ele>595.0</ele><time>2026-04-06T11:59:38Z</time></trkpt><trkpt lat="44.20875404380626" lon="11.56427549227738"><ele>595.0</ele><time>2026-04-06T11:59:41Z</time></trkpt><trkpt lat="44.20882847526107" lon="11.564251244182767"><ele>595.0</ele><time>2026-04-06T11:59:45Z</time></trkpt><trkpt lat="44.208914032595224" lon="11.564231305708313"><ele>595.0</ele><time>2026-04-06T11:59:49Z</time></trkpt><trkpt lat="44.20897872634956" lon="11.564216294244407"><ele>595.5714285714286</ele><time>2026-04-06T11:59:51.999Z</time></trkpt><trkpt lat="44.20905156414423" lon="11.564171555371198"><ele>596.1428571428571</ele><time>2026-04-06T11:59:55.999Z</time></trkpt><trkpt lat="44.20912311271155" lon="11.564108851094907"><ele>596.7142857142858</ele><time>2026-04-06T11:59:59.999Z</time></trkpt><trkpt lat="44.20918521304318" lon="11.56408700383083"><ele>597.2857142857142</ele><time>2026-04-06T12:00:02.999Z</time></trkpt><trkpt lat="44.209251136946705" lon="11.564102080076758"><ele>597.8571428571429</ele><time>2026-04-06T12:00:05.999Z</time></trkpt><trkpt lat="44.20930209069089" lon="11.564158509596963"><ele>598.4285714285714</ele><time>2026-04-06T12:00:08.999Z</time></trkpt><trkpt lat="44.20933226671398" lon="11.564240241983274"><ele>599.0</ele><time>2026-04-06T12:00:11.999Z</time></trkpt><trkpt lat="44.20936944571243" lon="11.564311312079766"><ele>599.0</ele><time>2026-04-06T12:00:14.999Z</time></trkpt><trkpt lat="44.209418890895776" lon="11.564403555115602"><ele>599.0</ele><time>2026-04-06T12:00:18.999Z</time></trkpt><trkpt lat="44.2094630484187" lon="11.564496403873774"><ele>599.0</ele><time>2026-04-06T12:00:23Z</time></trkpt><trkpt lat="44.20953398701472" lon="11.564536677817593"><ele>599.0</ele><time>2026-04-06T12:00:27Z</time></trkpt><trkpt lat="44.20961570197934" lon="11.564523366611407"><ele>599.0</ele><time>2026-04-06T12:00:31Z</time></trkpt><trkpt lat="44.20969445323276" lon="11.564508327423134"><ele>599.0</ele><time>2026-04-06T12:00:35Z</time></trkpt><trkpt lat="44.209757338215255" lon="11.564498878415039"><ele>599.0</ele><time>2026-04-06T12:00:38Z</time></trkpt><trkpt lat="44.20983532151021" lon="11.564492399521285"><ele>599.0</ele><time>2026-04-06T12:00:42Z</time></trkpt><trkpt lat="44.20990922472453" lon="11.564520937522246"><ele>599.0</ele><time>2026-04-06T12:00:46Z</time></trkpt><trkpt lat="44.20997298976416" lon="11.564585292433556"><ele>599.0</ele><time>2026-04-06T12:00:50Z</time></trkpt><trkpt lat="44.21003792036179" lon="11.56464583344068"><ele>599.0</ele><time>2026-04-06T12:00:54Z</time></trkpt><trkpt lat="44.210093134781495" lon="11.564728400742226"><ele>599.0</ele><time>2026-04-06T12:00:58Z</time></trkpt><trkpt lat="44.21015296365388" lon="11.564787648095212"><ele>599.0</ele><time>2026-04-06T12:01:02Z</time></trkpt><trkpt lat="44.210216711672615" lon="11.564862785789996"><ele>599.0</ele><time>2026-04-06T12:01:06Z</time></trkpt><trkpt lat="44.21024832176123" lon="11.564950049909314"><ele>599.0</ele><time>2026-04-06T12:01:09Z</time></trkpt><trkpt lat="44.210264602654135" lon="11.56503638468101"><ele>599.0</ele><time>2026-04-06T12:01:12Z</time></trkpt><trkpt lat="44.21026643066868" lon="11.565128323058262"><ele>599.0</ele><time>2026-04-06T12:01:15Z</time></trkpt><trkpt lat="44.21026625305631" lon="11.565216951699156"><ele>599.0</ele><time>2026-04-06T12:01:18Z</time></trkpt><trkpt lat="44.210260029698944" lon="11.565309516299534"><ele>599.0</ele><time>2026-04-06T12:01:21Z</time></trkpt><trkpt lat="44.21027655765727" lon="11.565397488408173"><ele>599.4285714285714</ele><time>2026-04-06T12:01:24Z</time></trkpt><trkpt lat="44.21032551632523" lon="11.565471675895719"><ele>599.8571428571429</ele><time>2026-04-06T12:01:27Z</time></trkpt><trkpt lat="44.210404547971464" lon="11.565504687707055"><ele>600.2857142857142</ele><time>2026-04-06T12:01:30Z</time></trkpt><trkpt lat="44.21047936323149" lon="11.565502627460917"><ele>600.7142857142858</ele><time>2026-04-06T12:01:33Z</time></trkpt><trkpt lat="44.21055218244814" lon="11.565520374003814"><ele>601.1428571428571</ele><time>2026-04-06T12:01:36Z</time></trkpt><trkpt lat="44.21062205100483" lon="11.565548036694503"><ele>601.5714285714286</ele><time>2026-04-06T12:01:39Z</time></trkpt><trkpt lat="44.21068851977055" lon="11.565586062041644"><ele>602.0</ele><time>2026-04-06T12:01:42Z</time></trkpt><trkpt lat="44.21075320633251" lon="11.56562350613649"><ele>602.0</ele><time>2026-04-06T12:01:45Z</time></trkpt><trkpt lat="44.210820306314744" lon="11.565668803043259"><ele>602.0</ele><time>2026-04-06T12:01:48Z</time></trkpt><trkpt lat="44.210891234437625" lon="11.565706820209897"><ele>602.0</ele><time>2026-04-06T12:01:51Z</time></trkpt><trkpt lat="44.210964850824" lon="11.565742796629687"><ele>602.0</ele><time>2026-04-06T12:01:53.999Z</time></trkpt><trkpt lat="44.21103287855231" lon="11.56575914682045"><ele>602.0</ele><time>2026-04-06T12:01:56.999Z</time></trkpt><trkpt lat="44.21110330121796" lon="11.565779454012306"><ele>602.0</ele><time>2026-04-06T12:02:01.999Z</time></trkpt><trkpt lat="44.21117237067204" lon="11.565765340247577"><ele>602.0</ele><time>2026-04-06T12:02:07.999Z</time></trkpt><trkpt lat="44.21124694793944" lon="11.565839158410295"><ele>602.0</ele><time>2026-04-06T12:03:47.999Z</time></trkpt><trkpt lat="44.2112970487415" lon="11.56591030831851"><ele>602.0</ele><time>2026-04-06T12:03:49.999Z</time></trkpt><trkpt lat="44.21135103442172" lon="11.565984864123838"><ele>602.0</ele><time>2026-04-06T12:03:51.999Z</time></trkpt><trkpt lat="44.21139793132789" lon="11.566065945036048"><ele>602.0</ele><time>2026-04-06T12:03:53.999Z</time></trkpt><trkpt lat="44.21145212998213" lon="11.566148434737142"><ele>602.0</ele><time>2026-04-06T12:03:55.999Z</time></trkpt><trkpt lat="44.21149562205471" lon="11.566237481108491"><ele>602.0</ele><time>2026-04-06T12:03:57.999Z</time></trkpt><trkpt lat="44.21152355668256" lon="11.566330565523357"><ele>603.8333333333333</ele><time>2026-04-06T12:03:59.999Z</time></trkpt><trkpt lat="44.21154081688562" lon="11.566438588408692"><ele>605.6666666666666</ele><time>2026-04-06T12:04:01.999Z</time></trkpt><trkpt lat="44.21154149264611" lon="11.566552272384845"><ele>607.5</ele><time>2026-04-06T12:04:03.999Z</time></trkpt><trkpt lat="44.21153739339883" lon="11.56665882772163"><ele>609.3333333333334</ele><time>2026-04-06T12:04:05.999Z</time></trkpt><trkpt lat="44.21152391507229" lon="11.566759694980949"><ele>611.1666666666667</ele><time>2026-04-06T12:04:07.999Z</time></trkpt><trkpt lat="44.211513188885085" lon="11.566855705378087"><ele>613.0</ele><time>2026-04-06T12:04:09.999Z</time></trkpt><trkpt lat="44.211502410734916" lon="11.56695167822758"><ele>613.0</ele><time>2026-04-06T12:04:11.999Z</time></trkpt><trkpt lat="44.21150727095775" lon="11.567041177307539"><ele>613.0</ele><time>2026-04-06T12:04:13.999Z</time></trkpt><trkpt lat="44.211526133681396" lon="11.567130298243548"><ele>613.0</ele><time>2026-04-06T12:04:15.999Z</time></trkpt><trkpt lat="44.21155720661631" lon="11.567217102804932"><ele>613.0</ele><time>2026-04-06T12:04:17.999Z</time></trkpt><trkpt lat="44.21158492043552" lon="11.56731392106094"><ele>613.0</ele><time>2026-04-06T12:04:19.999Z</time></trkpt><trkpt lat="44.21161960748655" lon="11.567414080221889"><ele>613.0</ele><time>2026-04-06T12:04:21.999Z</time></trkpt><trkpt lat="44.211646820496455" lon="11.567526381757144"><ele>613.0</ele><time>2026-04-06T12:04:23.999Z</time></trkpt><trkpt lat="44.21163488397689" lon="11.567636657937019"><ele>613.0</ele><time>2026-04-06T12:04:25.999Z</time></trkpt><trkpt lat="44.21162155939105" lon="11.567745203775164"><ele>613.0</ele><time>2026-04-06T12:04:27.999Z</time></trkpt><trkpt lat="44.21160579512753" lon="11.567845100712926"><ele>613.0</ele><time>2026-04-06T12:04:29.999Z</time></trkpt><trkpt lat="44.211606177242906" lon="11.567951569738296"><ele>613.0</ele><time>2026-04-06T12:04:31.999Z</time></trkpt><trkpt lat="44.211630848992634" lon="11.568051163494536"><ele>613.0</ele><time>2026-04-06T12:04:34Z</time></trkpt><trkpt lat="44.21166736766503" lon="11.568146160092626"><ele>613.0</ele><time>2026-04-06T12:04:36Z</time></trkpt><trkpt lat="44.21170705849318" lon="11.56824223948644"><ele>613.0</ele><time>2026-04-06T12:04:38Z</time></trkpt><trkpt lat="44.2117423372264" lon="11.568332708429082"><ele>613.0</ele><time>2026-04-06T12:04:40Z</time></trkpt><trkpt lat="44.21176184746919" lon="11.568433609853"><ele>613.0</ele><time>2026-04-06T12:04:42Z</time></trkpt><trkpt lat="44.21177391248247" lon="11.568533552875396"><ele>613.0</ele><time>2026-04-06T12:04:44Z</time></trkpt><trkpt lat="44.21178170558663" lon="11.568646147084975"><ele>613.0</ele><time>2026-04-06T12:04:46Z</time></trkpt><trkpt lat="44.21183771559536" lon="11.568742495131994"><ele>613.0</ele><time>2026-04-06T12:04:48Z</time></trkpt><trkpt lat="44.211887875265774" lon="11.568873184595915"><ele>611.5</ele><time>2026-04-06T12:04:50Z</time></trkpt><trkpt lat="44.21190207976752" lon="11.569007245023592"><ele>610.0</ele><time>2026-04-06T12:04:52Z</time></trkpt><trkpt lat="44.21189773490805" lon="11.569128574899313"><ele>608.5</ele><time>2026-04-06T12:04:54Z</time></trkpt><trkpt lat="44.211890038419675" lon="11.569241177194618"><ele>607.0</ele><time>2026-04-06T12:04:56Z</time></trkpt><trkpt lat="44.21187426958954" lon="11.569343458863578"><ele>605.5</ele><time>2026-04-06T12:04:58Z</time></trkpt><trkpt lat="44.21184957914827" lon="11.569440693817812"><ele>604.0</ele><time>2026-04-06T12:05:00Z</time></trkpt><trkpt lat="44.211818444850266" lon="11.569534972669791"><ele>603.6666666666667</ele><time>2026-04-06T12:05:02Z</time></trkpt><trkpt lat="44.21177013438133" lon="11.569647958126675"><ele>603.3333333333334</ele><time>2026-04-06T12:05:05Z</time></trkpt><trkpt lat="44.211725916600905" lon="11.569735540954236"><ele>603.0</ele><time>2026-04-06T12:05:07Z</time></trkpt><trkpt lat="44.21169328802932" lon="11.569828274431837"><ele>602.6666666666666</ele><time>2026-04-06T12:05:09Z</time></trkpt><trkpt lat="44.21168398618683" lon="11.5699579179686"><ele>602.3333333333333</ele><time>2026-04-06T12:05:11Z</time></trkpt><trkpt lat="44.21171038979703" lon="11.570099640176412"><ele>602.0</ele><time>2026-04-06T12:05:13Z</time></trkpt><trkpt lat="44.211786712580576" lon="11.570220753941442"><ele>602.0</ele><time>2026-04-06T12:05:15Z</time></trkpt><trkpt lat="44.21188511981355" lon="11.570316896452509"><ele>602.0</ele><time>2026-04-06T12:05:17Z</time></trkpt><trkpt lat="44.211939282034685" lon="11.570364681063586"><ele>602.0</ele><time>2026-04-06T12:05:18Z</time></trkpt><trkpt lat="44.21203770514937" lon="11.570472575036572"><ele>602.0</ele><time>2026-04-06T12:05:20Z</time></trkpt><trkpt lat="44.21211765979135" lon="11.570588585158495"><ele>602.0</ele><time>2026-04-06T12:05:22Z</time></trkpt><trkpt lat="44.21219675919737" lon="11.570699725358418"><ele>602.4</ele><time>2026-04-06T12:05:24Z</time></trkpt><trkpt lat="44.212280417862694" lon="11.57080397540022"><ele>602.8000000000001</ele><time>2026-04-06T12:05:26Z</time></trkpt><trkpt lat="44.21235697068535" lon="11.570925542340671"><ele>603.2</ele><time>2026-04-06T12:05:28Z</time></trkpt><trkpt lat="44.21241634461871" lon="11.571050303891669"><ele>603.6</ele><time>2026-04-06T12:05:30Z</time></trkpt><trkpt lat="44.212452601616505" lon="11.571163987561542"><ele>604.0</ele><time>2026-04-06T12:05:32Z</time></trkpt><trkpt lat="44.21244108760251" lon="11.57125793479366"><ele>605.0</ele><time>2026-04-06T12:05:34Z</time></trkpt><trkpt lat="44.212393907363015" lon="11.571340467365568"><ele>606.0</ele><time>2026-04-06T12:05:36Z</time></trkpt><trkpt lat="44.21235344020628" lon="11.57144925592299"><ele>607.0</ele><time>2026-04-06T12:05:38Z</time></trkpt><trkpt lat="44.212311787940415" lon="11.571588201027607"><ele>608.0</ele><time>2026-04-06T12:05:39.999Z</time></trkpt><trkpt lat="44.21226529386553" lon="11.571725244519872"><ele>609.0</ele><time>2026-04-06T12:05:41.999Z</time></trkpt><trkpt lat="44.2122280380876" lon="11.571839546149535"><ele>607.5</ele><time>2026-04-06T12:05:43.999Z</time></trkpt><trkpt lat="44.212213173449754" lon="11.571964364386526"><ele>606.0</ele><time>2026-04-06T12:05:45.999Z</time></trkpt><trkpt lat="44.212216464149265" lon="11.572078431341493"><ele>604.5</ele><time>2026-04-06T12:05:47.999Z</time></trkpt><trkpt lat="44.21219505106841" lon="11.572186150846147"><ele>603.0</ele><time>2026-04-06T12:05:49.999Z</time></trkpt><trkpt lat="44.2121667479686" lon="11.572287838531793"><ele>601.5</ele><time>2026-04-06T12:05:51.999Z</time></trkpt><trkpt lat="44.21214145277397" lon="11.572389837169418"><ele>600.0</ele><time>2026-04-06T12:05:53.999Z</time></trkpt><trkpt lat="44.21210255561865" lon="11.572493524668461"><ele>600.0</ele><time>2026-04-06T12:05:56.999Z</time></trkpt><trkpt lat="44.212046152176356" lon="11.572573343561121"><ele>600.0</ele><time>2026-04-06T12:05:59.999Z</time></trkpt><trkpt lat="44.211999187201826" lon="11.572673559100645"><ele>600.0</ele><time>2026-04-06T12:06:03.999Z</time></trkpt><trkpt lat="44.21198389865476" lon="11.572766989438065"><ele>600.0</ele><time>2026-04-06T12:06:06.999Z</time></trkpt><trkpt lat="44.211989541656244" lon="11.572866429208483"><ele>600.0</ele><time>2026-04-06T12:06:09.999Z</time></trkpt><trkpt lat="44.21201887472375" lon="11.572955145476877"><ele>600.0</ele><time>2026-04-06T12:06:12.999Z</time></trkpt><trkpt lat="44.21205163263533" lon="11.573048636200237"><ele>599.1666666666666</ele><time>2026-04-06T12:06:15.999Z</time></trkpt><trkpt lat="44.21208481669788" lon="11.573156168258745"><ele>598.3333333333334</ele><time>2026-04-06T12:06:18.999Z</time></trkpt><trkpt lat="44.212120588680506" lon="11.573265858402607"><ele>597.5</ele><time>2026-04-06T12:06:21.999Z</time></trkpt><trkpt lat="44.21214571489581" lon="11.573347315074614"><ele>596.6666666666667</ele><time>2026-04-06T12:06:23.999Z</time></trkpt><trkpt lat="44.21217564466849" lon="11.57342874070843"><ele>595.8333333333334</ele><time>2026-04-06T12:06:25.999Z</time></trkpt><trkpt lat="44.212205620618775" lon="11.573507508383175"><ele>595.0</ele><time>2026-04-06T12:06:27.999Z</time></trkpt><trkpt lat="44.21226860027759" lon="11.57360594515014"><ele>595.0</ele><time>2026-04-06T12:06:30.999Z</time></trkpt><trkpt lat="44.21232205476894" lon="11.573667729941608"><ele>595.0</ele><time>2026-04-06T12:06:32.999Z</time></trkpt><trkpt lat="44.212380487104376" lon="11.573727874853423"><ele>595.0</ele><time>2026-04-06T12:06:34.999Z</time></trkpt><trkpt lat="44.21244316646137" lon="11.573794470297209"><ele>595.0</ele><time>2026-04-06T12:06:36.999Z</time></trkpt><trkpt lat="44.212512211838195" lon="11.573873706858693"><ele>595.0</ele><time>2026-04-06T12:06:38.999Z</time></trkpt><trkpt lat="44.21256820929352" lon="11.573958266765402"><ele>595.0</ele><time>2026-04-06T12:06:41Z</time></trkpt><trkpt lat="44.21262267078139" lon="11.574031484770241"><ele>598.6666666666667</ele><time>2026-04-06T12:06:43Z</time></trkpt><trkpt lat="44.21267252463555" lon="11.5741082949805"><ele>602.3333333333334</ele><time>2026-04-06T12:06:45Z</time></trkpt><trkpt lat="44.212739082161114" lon="11.574195978606472"><ele>606.0</ele><time>2026-04-06T12:06:48Z</time></trkpt><trkpt lat="44.21281317849962" lon="11.574257401065758"><ele>609.6666666666666</ele><time>2026-04-06T12:06:51Z</time></trkpt><trkpt lat="44.2128703465298" lon="11.57429808573494"><ele>613.3333333333333</ele><time>2026-04-06T12:06:53Z</time></trkpt><trkpt lat="44.21293183104271" lon="11.574356581927276"><ele>617.0</ele><time>2026-04-06T12:06:55Z</time></trkpt><trkpt lat="44.21298393943324" lon="11.574416879545753"><ele>617.0</ele><time>2026-04-06T12:06:57Z</time></trkpt><trkpt lat="44.21303123903644" lon="11.574479231514683"><ele>617.0</ele><time>2026-04-06T12:06:59Z</time></trkpt><trkpt lat="44.21307863151782" lon="11.574559182130194"><ele>617.0</ele><time>2026-04-06T12:07:02Z</time></trkpt><trkpt lat="44.21313878842113" lon="11.574653141046527"><ele>617.0</ele><time>2026-04-06T12:07:05Z</time></trkpt><trkpt lat="44.21319606527488" lon="11.574700956318502"><ele>617.0</ele><time>2026-04-06T12:07:07Z</time></trkpt><trkpt lat="44.21324336488635" lon="11.57476277198657"><ele>617.0</ele><time>2026-04-06T12:07:09Z</time></trkpt><trkpt lat="44.21330430519906" lon="11.57484364973769"><ele>617.0</ele><time>2026-04-06T12:07:12Z</time></trkpt><trkpt lat="44.213366453064204" lon="11.57492916900792"><ele>620.0</ele><time>2026-04-06T12:07:15Z</time></trkpt><trkpt lat="44.21343239308094" lon="11.575016693709491"><ele>623.0</ele><time>2026-04-06T12:07:18Z</time></trkpt><trkpt lat="44.21348541463752" lon="11.575102159769909"><ele>626.0</ele><time>2026-04-06T12:07:21Z</time></trkpt><trkpt lat="44.213545657975374" lon="11.575179590272754"><ele>629.0</ele><time>2026-04-06T12:07:24Z</time></trkpt><trkpt lat="44.21360545183392" lon="11.57527166010078"><ele>632.0</ele><time>2026-04-06T12:07:27Z</time></trkpt><trkpt lat="44.21366142053999" lon="11.575349424371291"><ele>635.0</ele><time>2026-04-06T12:07:30Z</time></trkpt><trkpt lat="44.213713993889534" lon="11.575417557590505"><ele>635.5714285714286</ele><time>2026-04-06T12:07:33Z</time></trkpt><trkpt lat="44.213764385417896" lon="11.575511416482833"><ele>636.1428571428571</ele><time>2026-04-06T12:07:37Z</time></trkpt><trkpt lat="44.213800616769724" lon="11.575590868240742"><ele>636.7142857142858</ele><time>2026-04-06T12:07:39.999Z</time></trkpt><trkpt lat="44.21382187629873" lon="11.575693614255043"><ele>637.2857142857142</ele><time>2026-04-06T12:07:42.999Z</time></trkpt><trkpt lat="44.21383072617236" lon="11.575794671123722"><ele>637.8571428571429</ele><time>2026-04-06T12:07:45.999Z</time></trkpt><trkpt lat="44.213845418193344" lon="11.57589109571344"><ele>638.4285714285714</ele><time>2026-04-06T12:07:48.999Z</time></trkpt><trkpt lat="44.21386159927506" lon="11.575993407627367"><ele>639.0</ele><time>2026-04-06T12:07:51.999Z</time></trkpt><trkpt lat="44.21390646100854" lon="11.576084742184927"><ele>639.0</ele><time>2026-04-06T12:07:54.999Z</time></trkpt><trkpt lat="44.21394356001664" lon="11.576172507709133"><ele>639.0</ele><time>2026-04-06T12:07:57.999Z</time></trkpt><trkpt lat="44.21398033733063" lon="11.5762626883563"><ele>639.0</ele><time>2026-04-06T12:08:00.999Z</time></trkpt><trkpt lat="44.214023345090716" lon="11.576365917850712"><ele>639.0</ele><time>2026-04-06T12:08:04.999Z</time></trkpt><trkpt lat="44.21406827822665" lon="11.576453399535398"><ele>639.0</ele><time>2026-04-06T12:08:07.999Z</time></trkpt><trkpt lat="44.21413569532959" lon="11.57651156793845"><ele>639.0</ele><time>2026-04-06T12:08:10.999Z</time></trkpt><trkpt lat="44.21421253776636" lon="11.576571594408675"><ele>637.6666666666666</ele><time>2026-04-06T12:08:13.999Z</time></trkpt><trkpt lat="44.21429574763566" lon="11.576622122024038"><ele>636.3333333333334</ele><time>2026-04-06T12:08:16.999Z</time></trkpt><trkpt lat="44.2143737859327" lon="11.576669347990741"><ele>635.0</ele><time>2026-04-06T12:08:19.999Z</time></trkpt><trkpt lat="44.21444609284701" lon="11.576725134785722"><ele>633.6666666666667</ele><time>2026-04-06T12:08:22.999Z</time></trkpt><trkpt lat="44.2145133287731" lon="11.576779118828982"><ele>632.3333333333334</ele><time>2026-04-06T12:08:25.999Z</time></trkpt><trkpt lat="44.21457750567823" lon="11.576854270182208"><ele>631.0</ele><time>2026-04-06T12:08:28.999Z</time></trkpt><trkpt lat="44.21463112501997" lon="11.576944726271483"><ele>631.8</ele><time>2026-04-06T12:08:31.999Z</time></trkpt><trkpt lat="44.21465947158312" lon="11.577045348031369"><ele>632.6</ele><time>2026-04-06T12:08:34.999Z</time></trkpt><trkpt lat="44.21467882037626" lon="11.577137057720355"><ele>633.4</ele><time>2026-04-06T12:08:36.999Z</time></trkpt><trkpt lat="44.214720841919714" lon="11.577254785769277"><ele>634.2</ele><time>2026-04-06T12:08:38.999Z</time></trkpt><trkpt lat="44.214770715944546" lon="11.577386836401509"><ele>635.0</ele><time>2026-04-06T12:08:40.999Z</time></trkpt><trkpt lat="44.21482239810714" lon="11.577552490192637"><ele>634.9999999999999</ele><time>2026-04-06T12:08:42.999Z</time></trkpt><trkpt lat="44.21484248396196" lon="11.577660054037413"><ele>635.0</ele><time>2026-04-06T12:08:43.999Z</time></trkpt><trkpt lat="44.2148531985697" lon="11.577763279055922"><ele>635.0</ele><time>2026-04-06T12:08:44.999Z</time></trkpt><trkpt lat="44.21485811563824" lon="11.577858457404774"><ele>635.0</ele><time>2026-04-06T12:08:46Z</time></trkpt><trkpt lat="44.214845190692586" lon="11.57795160159331"><ele>635.0</ele><time>2026-04-06T12:08:47Z</time></trkpt><trkpt lat="44.214819875439765" lon="11.578049089596915"><ele>634.9999999999999</ele><time>2026-04-06T12:08:48Z</time></trkpt><trkpt lat="44.214810097070156" lon="11.578148712539026"><ele>635.0</ele><time>2026-04-06T12:08:49Z</time></trkpt><trkpt lat="44.21483083961984" lon="11.578250429230124"><ele>634.8</ele><time>2026-04-06T12:08:50Z</time></trkpt><trkpt lat="44.21488128997948" lon="11.578343070851314"><ele>634.6</ele><time>2026-04-06T12:08:51Z</time></trkpt><trkpt lat="44.21493041419251" lon="11.578416709361559"><ele>634.4</ele><time>2026-04-06T12:08:52Z</time></trkpt><trkpt lat="44.21495571703435" lon="11.578574536403508"><ele>634.2</ele><time>2026-04-06T12:08:54Z</time></trkpt><trkpt lat="44.214918553127525" lon="11.578723759386587"><ele>634.0</ele><time>2026-04-06T12:08:56Z</time></trkpt><trkpt lat="44.21488154919413" lon="11.578801782529744"><ele>634.0</ele><time>2026-04-06T12:08:57Z</time></trkpt><trkpt lat="44.21485828978274" lon="11.57888701290142"><ele>634.0</ele><time>2026-04-06T12:08:58Z</time></trkpt><trkpt lat="44.214866774826305" lon="11.578983938313218"><ele>634.0</ele><time>2026-04-06T12:08:59Z</time></trkpt><trkpt lat="44.21488887386559" lon="11.579081156234952"><ele>634.0</ele><time>2026-04-06T12:09:00Z</time></trkpt><trkpt lat="44.21492112866468" lon="11.579164613885178"><ele>634.0</ele><time>2026-04-06T12:09:01Z</time></trkpt><trkpt lat="44.214953633145136" lon="11.579307347512618"><ele>634.0</ele><time>2026-04-06T12:09:03Z</time></trkpt><trkpt lat="44.214924335285986" lon="11.579385693862626"><ele>634.0</ele><time>2026-04-06T12:09:04Z</time></trkpt><trkpt lat="44.214821766033744" lon="11.57948015205263"><ele>631.6</ele><time>2026-04-06T12:09:06Z</time></trkpt><trkpt lat="44.21476240425456" lon="11.579618895233951"><ele>629.2</ele><time>2026-04-06T12:09:08Z</time></trkpt><trkpt lat="44.214735177402666" lon="11.579794394111806"><ele>626.8000000000001</ele><time>2026-04-06T12:09:10Z</time></trkpt><trkpt lat="44.214744760526656" lon="11.579889312151417"><ele>624.4</ele><time>2026-04-06T12:09:11Z</time></trkpt><trkpt lat="44.21479198378314" lon="11.579973076753348"><ele>622.0</ele><time>2026-04-06T12:09:12Z</time></trkpt><trkpt lat="44.21483771539667" lon="11.580094143850213"><ele>622.0</ele><time>2026-04-06T12:09:13Z</time></trkpt><trkpt lat="44.21487028267324" lon="11.580210490884108"><ele>622.0</ele><time>2026-04-06T12:09:14Z</time></trkpt><trkpt lat="44.21492222658989" lon="11.580293226567285"><ele>622.0</ele><time>2026-04-06T12:09:15Z</time></trkpt><trkpt lat="44.21496773737234" lon="11.58036315737932"><ele>622.0</ele><time>2026-04-06T12:09:16Z</time></trkpt><trkpt lat="44.21502967868041" lon="11.580391671091132"><ele>622.0</ele><time>2026-04-06T12:09:17Z</time></trkpt><trkpt lat="44.215108670102104" lon="11.58038297699059"><ele>622.0</ele><time>2026-04-06T12:09:18Z</time></trkpt><trkpt lat="44.2151808111353" lon="11.580426736122853"><ele>619.0</ele><time>2026-04-06T12:09:19Z</time></trkpt><trkpt lat="44.215273397783434" lon="11.580510256010218"><ele>616.0</ele><time>2026-04-06T12:09:20Z</time></trkpt><trkpt lat="44.21537342635648" lon="11.580579567804884"><ele>613.0</ele><time>2026-04-06T12:09:22Z</time></trkpt><trkpt lat="44.21539547229133" lon="11.58070618643934"><ele>610.0</ele><time>2026-04-06T12:09:24Z</time></trkpt><trkpt lat="44.215344402281794" lon="11.580818628310704"><ele>607.0</ele><time>2026-04-06T12:09:26Z</time></trkpt><trkpt lat="44.215263498223194" lon="11.580908478615589"><ele>607.0</ele><time>2026-04-06T12:09:28Z</time></trkpt><trkpt lat="44.21518170669893" lon="11.581031114765704"><ele>607.0</ele><time>2026-04-06T12:09:30Z</time></trkpt><trkpt lat="44.215138664098966" lon="11.581103505206414"><ele>607.0</ele><time>2026-04-06T12:09:31Z</time></trkpt><trkpt lat="44.21507941200054" lon="11.581210693989812"><ele>607.0</ele><time>2026-04-06T12:09:33Z</time></trkpt><trkpt lat="44.21510808239984" lon="11.581310878371879"><ele>607.0</ele><time>2026-04-06T12:09:49.999Z</time></trkpt><trkpt lat="44.21511638786807" lon="11.581408599347201"><ele>607.0</ele><time>2026-04-06T12:10:00.999Z</time></trkpt><trkpt lat="44.21514087615371" lon="11.581530892013363"><ele>607.6</ele><time>2026-04-06T12:10:04.999Z</time></trkpt><trkpt lat="44.21516050628777" lon="11.581704528984481"><ele>608.2</ele><time>2026-04-06T12:10:06.999Z</time></trkpt><trkpt lat="44.21516209753904" lon="11.58186261556886"><ele>608.8</ele><time>2026-04-06T12:10:08.999Z</time></trkpt><trkpt lat="44.215156679582066" lon="11.582000303209865"><ele>609.4</ele><time>2026-04-06T12:10:10.999Z</time></trkpt><trkpt lat="44.21509466652399" lon="11.582044526862038"><ele>610.0</ele><time>2026-04-06T12:10:13.999Z</time></trkpt><trkpt lat="44.21503253363799" lon="11.582158066094417"><ele>609.3333333333334</ele><time>2026-04-06T12:10:16.999Z</time></trkpt><trkpt lat="44.214940949927616" lon="11.582193861949575"><ele>608.6666666666667</ele><time>2026-04-06T12:10:19.999Z</time></trkpt><trkpt lat="44.21487227064231" lon="11.582256282395061"><ele>608.0</ele><time>2026-04-06T12:10:21.999Z</time></trkpt><trkpt lat="44.21483467160804" lon="11.582363264544817"><ele>607.3333333333334</ele><time>2026-04-06T12:10:23.999Z</time></trkpt><trkpt lat="44.214829346210244" lon="11.582457746647279"><ele>606.6666666666666</ele><time>2026-04-06T12:10:27.999Z</time></trkpt><trkpt lat="44.21481173943849" lon="11.582542200680162"><ele>606.0</ele><time>2026-04-06T12:10:29.999Z</time></trkpt><trkpt lat="44.21472316626065" lon="11.582606660912308"><ele>606.0</ele><time>2026-04-06T12:10:31.999Z</time></trkpt><trkpt lat="44.2146894436921" lon="11.582705407257185"><ele>606.0</ele><time>2026-04-06T12:10:35.999Z</time></trkpt><trkpt lat="44.214638026667686" lon="11.582787541765608"><ele>606.0</ele><time>2026-04-06T12:10:38.999Z</time></trkpt><trkpt lat="44.21457824770765" lon="11.582904694799588"><ele>606.0</ele><time>2026-04-06T12:10:40.999Z</time></trkpt><trkpt lat="44.21456489260283" lon="11.583001649883057"><ele>606.0</ele><time>2026-04-06T12:10:41.999Z</time></trkpt><trkpt lat="44.21452873063042" lon="11.583106131469565"><ele>606.0</ele><time>2026-04-06T12:10:42.999Z</time></trkpt><trkpt lat="44.214507055303834" lon="11.583220436899902"><ele>605.8333333333334</ele><time>2026-04-06T12:10:43.999Z</time></trkpt><trkpt lat="44.21450492218065" lon="11.58333412537148"><ele>605.6666666666666</ele><time>2026-04-06T12:10:44.999Z</time></trkpt><trkpt lat="44.214502100434245" lon="11.583442752100922"><ele>605.5</ele><time>2026-04-06T12:10:45.999Z</time></trkpt><trkpt lat="44.214495805872275" lon="11.58355433995876"><ele>605.3333333333333</ele><time>2026-04-06T12:10:46.999Z</time></trkpt><trkpt lat="44.21451897205927" lon="11.583668757961894"><ele>605.1666666666666</ele><time>2026-04-06T12:10:48.999Z</time></trkpt><trkpt lat="44.21463772316737" lon="11.583626644426936"><ele>605.0</ele><time>2026-04-06T12:10:51Z</time></trkpt><trkpt lat="44.21468495142391" lon="11.583546712788081"><ele>605.0</ele><time>2026-04-06T12:10:52Z</time></trkpt><trkpt lat="44.21475197698547" lon="11.58347802251464"><ele>605.0</ele><time>2026-04-06T12:10:54Z</time></trkpt><trkpt lat="44.21484421627407" lon="11.583515767063345"><ele>605.0</ele><time>2026-04-06T12:10:56Z</time></trkpt><trkpt lat="44.214920750792515" lon="11.58351084928501"><ele>605.0</ele><time>2026-04-06T12:10:58Z</time></trkpt><trkpt lat="44.21500445487303" lon="11.583498413529385"><ele>605.0</ele><time>2026-04-06T12:11:00Z</time></trkpt><trkpt lat="44.21504291032419" lon="11.583583341110222"><ele>605.0</ele><time>2026-04-06T12:11:02Z</time></trkpt><trkpt lat="44.21506762541835" lon="11.583711848718883"><ele>600.0</ele><time>2026-04-06T12:11:04Z</time></trkpt><trkpt lat="44.21506655589933" lon="11.583861111966767"><ele>595.0</ele><time>2026-04-06T12:11:06Z</time></trkpt><trkpt lat="44.21505656868854" lon="11.583966188775257"><ele>590.0</ele><time>2026-04-06T12:11:08Z</time></trkpt><trkpt lat="44.21505850482107" lon="11.584129841058111"><ele>585.0</ele><time>2026-04-06T12:11:10Z</time></trkpt><trkpt lat="44.21508103903035" lon="11.584242961132961"><ele>580.0</ele><time>2026-04-06T12:11:12Z</time></trkpt><trkpt lat="44.21510735572051" lon="11.58434494543976"><ele>580.0</ele><time>2026-04-06T12:11:14Z</time></trkpt><trkpt lat="44.215142232134774" lon="11.584447567793033"><ele>580.0</ele><time>2026-04-06T12:11:16Z</time></trkpt><trkpt lat="44.2151936300557" lon="11.584523907981968"><ele>580.0</ele><time>2026-04-06T12:11:18Z</time></trkpt><trkpt lat="44.21526130019572" lon="11.584545953678601"><ele>580.0</ele><time>2026-04-06T12:11:20Z</time></trkpt><trkpt lat="44.21533306541893" lon="11.584563502803805"><ele>580.0</ele><time>2026-04-06T12:11:24Z</time></trkpt><trkpt lat="44.21538463112435" lon="11.58464678751451"><ele>580.0</ele><time>2026-04-06T12:11:26Z</time></trkpt><trkpt lat="44.215421350902176" lon="11.584724823710042"><ele>580.0</ele><time>2026-04-06T12:11:29Z</time></trkpt><trkpt lat="44.21547476902026" lon="11.584805972113408"><ele>577.5</ele><time>2026-04-06T12:11:31Z</time></trkpt><trkpt lat="44.21552536206492" lon="11.584870970157219"><ele>575.0</ele><time>2026-04-06T12:11:33Z</time></trkpt><trkpt lat="44.21555020721728" lon="11.584963123735903"><ele>572.5</ele><time>2026-04-06T12:11:36Z</time></trkpt><trkpt lat="44.21561023641014" lon="11.585070554092963"><ele>570.0</ele><time>2026-04-06T12:11:40Z</time></trkpt><trkpt lat="44.21565406579147" lon="11.585135257648123"><ele>567.5</ele><time>2026-04-06T12:11:43Z</time></trkpt><trkpt lat="44.215693047562816" lon="11.585211642325962"><ele>565.0</ele><time>2026-04-06T12:11:46.999Z</time></trkpt><trkpt lat="44.21572829922259" lon="11.585315015561081"><ele>559.1666666666667</ele><time>2026-04-06T12:12:06.999Z</time></trkpt><trkpt lat="44.21579103080419" lon="11.585402530781323"><ele>553.3333333333334</ele><time>2026-04-06T12:12:08.999Z</time></trkpt><trkpt lat="44.215835984841" lon="11.58549461150116"><ele>547.5</ele><time>2026-04-06T12:12:10.999Z</time></trkpt><trkpt lat="44.215881066461" lon="11.585571036398811"><ele>541.6666666666666</ele><time>2026-04-06T12:12:12.999Z</time></trkpt><trkpt lat="44.21594749226319" lon="11.585639826794171"><ele>535.8333333333333</ele><time>2026-04-06T12:12:14.999Z</time></trkpt><trkpt lat="44.21602061245486" lon="11.58568999941895"><ele>530.0</ele><time>2026-04-06T12:12:17.999Z</time></trkpt><trkpt lat="44.21609624662241" lon="11.585764350205686"><ele>530.0</ele><time>2026-04-06T12:12:19.999Z</time></trkpt><trkpt lat="44.2161778671648" lon="11.585790765595174"><ele>530.0</ele><time>2026-04-06T12:12:21.999Z</time></trkpt><trkpt lat="44.21626233917541" lon="11.5857358510004"><ele>530.0</ele><time>2026-04-06T12:12:24.999Z</time></trkpt><trkpt lat="44.216315097268755" lon="11.585637037782133"><ele>530.0</ele><time>2026-04-06T12:12:26.999Z</time></trkpt><trkpt lat="44.216380787740725" lon="11.585671604725002"><ele>530.0</ele><time>2026-04-06T12:12:30.999Z</time></trkpt><trkpt lat="44.216396072905134" lon="11.585798769436504"><ele>530.0</ele><time>2026-04-06T12:12:38.999Z</time></trkpt><trkpt lat="44.21638512328476" lon="11.585924205385421"><ele>530.0</ele><time>2026-04-06T12:12:40.999Z</time></trkpt><trkpt lat="44.216310910396444" lon="11.586020309858478"><ele>530.0</ele><time>2026-04-06T12:12:42.999Z</time></trkpt><trkpt lat="44.21627619765114" lon="11.586141729871887"><ele>530.0</ele><time>2026-04-06T12:12:44.999Z</time></trkpt><trkpt lat="44.21627906391857" lon="11.586275297737156"><ele>530.0</ele><time>2026-04-06T12:12:46.999Z</time></trkpt><trkpt lat="44.216235259850514" lon="11.586353971028178"><ele>530.0</ele><time>2026-04-06T12:12:48.999Z</time></trkpt><trkpt lat="44.21615609510326" lon="11.586354888898999"><ele>530.0</ele><time>2026-04-06T12:12:50.999Z</time></trkpt><trkpt lat="44.21606754810426" lon="11.58642795928025"><ele>526.6</ele><time>2026-04-06T12:12:52.999Z</time></trkpt><trkpt lat="44.216013223178194" lon="11.586542128281405"><ele>523.2</ele><time>2026-04-06T12:12:54.999Z</time></trkpt><trkpt lat="44.21598442551757" lon="11.586675176808713"><ele>519.8</ele><time>2026-04-06T12:12:57Z</time></trkpt><trkpt lat="44.215972535058604" lon="11.586817046515142"><ele>516.4</ele><time>2026-04-06T12:12:59Z</time></trkpt><trkpt lat="44.21590791942498" lon="11.586918815648971"><ele>513.0</ele><time>2026-04-06T12:13:01Z</time></trkpt><trkpt lat="44.21589090345184" lon="11.58701166351816"><ele>510.8333333333333</ele><time>2026-04-06T12:13:02Z</time></trkpt><trkpt lat="44.21589703658574" lon="11.58711601373795"><ele>508.66666666666663</ele><time>2026-04-06T12:13:03Z</time></trkpt><trkpt lat="44.21587328195718" lon="11.587258929299642"><ele>506.5</ele><time>2026-04-06T12:13:05Z</time></trkpt><trkpt lat="44.21579143813127" lon="11.587351393938809"><ele>504.3333333333333</ele><time>2026-04-06T12:13:07Z</time></trkpt><trkpt lat="44.21575797915644" lon="11.587426130629888"><ele>502.16666666666663</ele><time>2026-04-06T12:13:09Z</time></trkpt><trkpt lat="44.21573151132338" lon="11.587509429162854"><ele>500.0</ele><time>2026-04-06T12:13:13Z</time></trkpt><trkpt lat="44.215670083654885" lon="11.587605527373697"><ele>502.66666666666663</ele><time>2026-04-06T12:13:16Z</time></trkpt><trkpt lat="44.21562228031427" lon="11.587678823649632"><ele>505.3333333333333</ele><time>2026-04-06T12:13:18Z</time></trkpt><trkpt lat="44.215559991026154" lon="11.587767222441778"><ele>508.0</ele><time>2026-04-06T12:13:21Z</time></trkpt><trkpt lat="44.21547956128456" lon="11.58776753515232"><ele>510.66666666666663</ele><time>2026-04-06T12:13:25Z</time></trkpt><trkpt lat="44.215406411493575" lon="11.587753046892088"><ele>513.3333333333334</ele><time>2026-04-06T12:13:29Z</time></trkpt><trkpt lat="44.21533716816835" lon="11.587842241401912"><ele>516.0</ele><time>2026-04-06T12:13:33Z</time></trkpt><trkpt lat="44.21531041255551" lon="11.587924685284204"><ele>516.0</ele><time>2026-04-06T12:13:36Z</time></trkpt><trkpt lat="44.215288237522486" lon="11.588019358385505"><ele>516.0</ele><time>2026-04-06T12:13:39Z</time></trkpt><trkpt lat="44.21526525335462" lon="11.5881376807826"><ele>516.0</ele><time>2026-04-06T12:13:42Z</time></trkpt><trkpt lat="44.21522717598872" lon="11.588231242383092"><ele>516.0</ele><time>2026-04-06T12:13:56Z</time></trkpt><trkpt lat="44.215179565288075" lon="11.588313630771218"><ele>516.0</ele><time>2026-04-06T12:13:58Z</time></trkpt><trkpt lat="44.215140870576754" lon="11.588418470482752"><ele>516.0</ele><time>2026-04-06T12:14:00Z</time></trkpt><trkpt lat="44.2151513493739" lon="11.588529743602482"><ele>516.0</ele><time>2026-04-06T12:14:02Z</time></trkpt><trkpt lat="44.2151447281986" lon="11.588648128318546"><ele>516.0</ele><time>2026-04-06T12:14:03.999Z</time></trkpt><trkpt lat="44.21512388029842" lon="11.588758294369953"><ele>516.0</ele><time>2026-04-06T12:14:05.999Z</time></trkpt><trkpt lat="44.21510879550496" lon="11.588864471134114"><ele>516.0</ele><time>2026-04-06T12:14:08.999Z</time></trkpt><trkpt lat="44.215083362704576" lon="11.58896853074875"><ele>516.0</ele><time>2026-04-06T12:14:11.999Z</time></trkpt><trkpt lat="44.215044987743795" lon="11.589065817959916"><ele>516.0</ele><time>2026-04-06T12:14:13.999Z</time></trkpt><trkpt lat="44.21499421454684" lon="11.589210715423617"><ele>516.6</ele><time>2026-04-06T12:14:15.999Z</time></trkpt><trkpt lat="44.21497370001431" lon="11.589296587307636"><ele>517.2</ele><time>2026-04-06T12:14:16.999Z</time></trkpt><trkpt lat="44.21490150371111" lon="11.589405265727418"><ele>517.8</ele><time>2026-04-06T12:14:18.999Z</time></trkpt><trkpt lat="44.21484583562479" lon="11.589530749142193"><ele>518.4</ele><time>2026-04-06T12:14:20.999Z</time></trkpt><trkpt lat="44.21480344481652" lon="11.589657034618932"><ele>519.0</ele><time>2026-04-06T12:14:22.999Z</time></trkpt><trkpt lat="44.214776325310694" lon="11.589791166348062"><ele>519.0</ele><time>2026-04-06T12:14:24.999Z</time></trkpt><trkpt lat="44.2147101269909" lon="11.589867450948658"><ele>519.0</ele><time>2026-04-06T12:14:26.999Z</time></trkpt><trkpt lat="44.21466964110352" lon="11.58976857186245"><ele>519.0</ele><time>2026-04-06T12:14:29.999Z</time></trkpt><trkpt lat="44.2146741582057" lon="11.589648776353052"><ele>519.0</ele><time>2026-04-06T12:14:32.999Z</time></trkpt><trkpt lat="44.21467533579972" lon="11.589555797688032"><ele>519.0</ele><time>2026-04-06T12:14:34.999Z</time></trkpt><trkpt lat="44.21467347114272" lon="11.589461846251043"><ele>519.0</ele><time>2026-04-06T12:14:36.999Z</time></trkpt><trkpt lat="44.21467871332927" lon="11.589373135914897"><ele>519.0</ele><time>2026-04-06T12:14:38.999Z</time></trkpt><trkpt lat="44.21468423918141" lon="11.589281361788501"><ele>519.0</ele><time>2026-04-06T12:14:40.999Z</time></trkpt><trkpt lat="44.21466190479673" lon="11.589180378744036"><ele>519.0</ele><time>2026-04-06T12:14:43.999Z</time></trkpt><trkpt lat="44.21459078441423" lon="11.589157359873083"><ele>519.0</ele><time>2026-04-06T12:14:46.999Z</time></trkpt><trkpt lat="44.21455542359735" lon="11.589260206848454"><ele>519.0</ele><time>2026-04-06T12:14:49.999Z</time></trkpt><trkpt lat="44.2145254443563" lon="11.58935159591275"><ele>519.0</ele><time>2026-04-06T12:14:52.999Z</time></trkpt><trkpt lat="44.21448648258118" lon="11.589443598858129"><ele>519.0</ele><time>2026-04-06T12:14:55.999Z</time></trkpt><trkpt lat="44.21444221666224" lon="11.589520549432036"><ele>519.0</ele><time>2026-04-06T12:14:58.999Z</time></trkpt><trkpt lat="44.21440032407135" lon="11.58959729821427"><ele>519.0</ele><time>2026-04-06T12:15:02Z</time></trkpt><trkpt lat="44.21436269870003" lon="11.58967063203389"><ele>519.0</ele><time>2026-04-06T12:15:05Z</time></trkpt><trkpt lat="44.2143118320044" lon="11.589754093980165"><ele>519.0</ele><time>2026-04-06T12:15:09Z</time></trkpt><trkpt lat="44.214254965424274" lon="11.5898290461633"><ele>519.0</ele><time>2026-04-06T12:15:13Z</time></trkpt><trkpt lat="44.21417265156492" lon="11.589858601719888"><ele>519.0</ele><time>2026-04-06T12:15:17Z</time></trkpt><trkpt lat="44.21409923053263" lon="11.589874648071348"><ele>519.0</ele><time>2026-04-06T12:15:20Z</time></trkpt><trkpt lat="44.21402904263471" lon="11.58990577910974"><ele>519.0</ele><time>2026-04-06T12:15:23Z</time></trkpt><trkpt lat="44.213966161923196" lon="11.589940397676463"><ele>519.0</ele><time>2026-04-06T12:15:26Z</time></trkpt><trkpt lat="44.213887123340236" lon="11.589964412599986"><ele>519.0</ele><time>2026-04-06T12:15:30Z</time></trkpt><trkpt lat="44.21381797350736" lon="11.589934478827674"><ele>519.0</ele><time>2026-04-06T12:15:34Z</time></trkpt><trkpt lat="44.21381199536858" lon="11.589840302799793"><ele>519.0</ele><time>2026-04-06T12:15:37Z</time></trkpt><trkpt lat="44.21384493438072" lon="11.589759975082822"><ele>519.0</ele><time>2026-04-06T12:15:40Z</time></trkpt><trkpt lat="44.213902635127766" lon="11.589694760991245"><ele>519.0</ele><time>2026-04-06T12:15:43Z</time></trkpt><trkpt lat="44.21395880765222" lon="11.589630672653483"><ele>519.0</ele><time>2026-04-06T12:15:46Z</time></trkpt><trkpt lat="44.213992407728256" lon="11.58954317720453"><ele>519.0</ele><time>2026-04-06T12:15:49Z</time></trkpt><trkpt lat="44.214011225404114" lon="11.589455532667968"><ele>519.0</ele><time>2026-04-06T12:15:52Z</time></trkpt><trkpt lat="44.214054433670604" lon="11.589354193349438"><ele>519.0</ele><time>2026-04-06T12:15:56Z</time></trkpt><trkpt lat="44.21405819066425" lon="11.5892601047714"><ele>519.0</ele><time>2026-04-06T12:15:59Z</time></trkpt><trkpt lat="44.21407007240129" lon="11.589160280846205"><ele>519.0</ele><time>2026-04-06T12:16:02Z</time></trkpt><trkpt lat="44.21407964088629" lon="11.589065628797112"><ele>520.4285714285714</ele><time>2026-04-06T12:16:05Z</time></trkpt><trkpt lat="44.21408658449324" lon="11.588969823696221"><ele>521.8571428571428</ele><time>2026-04-06T12:16:07.999Z</time></trkpt><trkpt lat="44.21408011509151" lon="11.588874908729707"><ele>523.2857142857142</ele><time>2026-04-06T12:16:10.999Z</time></trkpt><trkpt lat="44.21405162820818" lon="11.588796016034879"><ele>524.7142857142857</ele><time>2026-04-06T12:16:13.999Z</time></trkpt><trkpt lat="44.21401881397451" lon="11.588710539017338"><ele>526.1428571428571</ele><time>2026-04-06T12:16:16.999Z</time></trkpt><trkpt lat="44.21399184145569" lon="11.588624640216654"><ele>527.5714285714286</ele><time>2026-04-06T12:16:19.999Z</time></trkpt><trkpt lat="44.21397602255376" lon="11.588515089678785"><ele>529.0</ele><time>2026-04-06T12:16:23.999Z</time></trkpt><trkpt lat="44.2139926673951" lon="11.588400126438122"><ele>530.2857142857143</ele><time>2026-04-06T12:16:27.999Z</time></trkpt><trkpt lat="44.21399647394195" lon="11.58831017680327"><ele>531.5714285714286</ele><time>2026-04-06T12:16:30.999Z</time></trkpt><trkpt lat="44.214020550005486" lon="11.58822368687591"><ele>532.8571428571429</ele><time>2026-04-06T12:16:33.999Z</time></trkpt><trkpt lat="44.214059244264014" lon="11.588119789550694"><ele>534.1428571428571</ele><time>2026-04-06T12:16:37.999Z</time></trkpt><trkpt lat="44.21409813849394" lon="11.588036164580773"><ele>535.4285714285714</ele><time>2026-04-06T12:16:41.999Z</time></trkpt><trkpt lat="44.21414103635269" lon="11.587964700788342"><ele>536.7142857142858</ele><time>2026-04-06T12:16:45.999Z</time></trkpt><trkpt lat="44.214179215919266" lon="11.587893998472666"><ele>538.0</ele><time>2026-04-06T12:16:48.999Z</time></trkpt><trkpt lat="44.214197556963065" lon="11.58778869478442"><ele>539.8571428571429</ele><time>2026-04-06T12:16:52.999Z</time></trkpt><trkpt lat="44.21419071633264" lon="11.587701292608338"><ele>541.7142857142858</ele><time>2026-04-06T12:16:56.999Z</time></trkpt><trkpt lat="44.214190250829645" lon="11.587599378713922"><ele>543.5714285714286</ele><time>2026-04-06T12:17:00.999Z</time></trkpt><trkpt lat="44.214187619814844" lon="11.587497786108026"><ele>545.4285714285714</ele><time>2026-04-06T12:17:04.999Z</time></trkpt><trkpt lat="44.21420498078015" lon="11.587403986224757"><ele>547.2857142857142</ele><time>2026-04-06T12:17:09Z</time></trkpt><trkpt lat="44.2142204865794" lon="11.587315767026437"><ele>549.1428571428571</ele><time>2026-04-06T12:17:12Z</time></trkpt><trkpt lat="44.214241367253905" lon="11.587204024652953"><ele>551.0</ele><time>2026-04-06T12:17:16Z</time></trkpt><trkpt lat="44.21425866026734" lon="11.587115142264997"><ele>550.9999999999999</ele><time>2026-04-06T12:17:19Z</time></trkpt><trkpt lat="44.214270037833366" lon="11.587023982388608"><ele>551.0</ele><time>2026-04-06T12:17:22Z</time></trkpt><trkpt lat="44.21428085100398" lon="11.586929053989806"><ele>551.0</ele><time>2026-04-06T12:17:25Z</time></trkpt><trkpt lat="44.21429099462872" lon="11.586835320028774"><ele>551.0</ele><time>2026-04-06T12:17:28Z</time></trkpt><trkpt lat="44.21430197681815" lon="11.586742043001662"><ele>551.0</ele><time>2026-04-06T12:17:31Z</time></trkpt><trkpt lat="44.21431399402021" lon="11.586651275657024"><ele>550.9999999999999</ele><time>2026-04-06T12:17:34Z</time></trkpt><trkpt lat="44.21433027760065" lon="11.586561504892682"><ele>551.0</ele><time>2026-04-06T12:17:37Z</time></trkpt><trkpt lat="44.21434234506033" lon="11.58647244214218"><ele>551.8571428571428</ele><time>2026-04-06T12:17:40Z</time></trkpt><trkpt lat="44.214352435709024" lon="11.58636853175543"><ele>552.7142857142857</ele><time>2026-04-06T12:17:44Z</time></trkpt><trkpt lat="44.2143617741524" lon="11.586276183580942"><ele>553.5714285714286</ele><time>2026-04-06T12:17:47Z</time></trkpt><trkpt lat="44.214372651347176" lon="11.586187639887934"><ele>554.4285714285713</ele><time>2026-04-06T12:17:50Z</time></trkpt><trkpt lat="44.214363417260344" lon="11.586085729449687"><ele>555.2857142857142</ele><time>2026-04-06T12:17:53Z</time></trkpt><trkpt lat="44.21431135531085" lon="11.586021182226135"><ele>556.1428571428571</ele><time>2026-04-06T12:17:56Z</time></trkpt><trkpt lat="44.21424776258449" lon="11.586035375640579"><ele>557.0</ele><time>2026-04-06T12:17:59Z</time></trkpt><trkpt lat="44.21420731168773" lon="11.586106180373243"><ele>557.0</ele><time>2026-04-06T12:18:02Z</time></trkpt><trkpt lat="44.21418042663888" lon="11.586195755483022"><ele>557.0</ele><time>2026-04-06T12:18:05Z</time></trkpt><trkpt lat="44.214143393544" lon="11.586296246579042"><ele>557.0</ele><time>2026-04-06T12:18:09Z</time></trkpt><trkpt lat="44.214105046123336" lon="11.586393476159168"><ele>557.0</ele><time>2026-04-06T12:18:13Z</time></trkpt><trkpt lat="44.21406873963514" lon="11.586491651176754"><ele>557.0</ele><time>2026-04-06T12:18:17Z</time></trkpt><trkpt lat="44.21403742486707" lon="11.586589528245268"><ele>557.0</ele><time>2026-04-06T12:18:21Z</time></trkpt><trkpt lat="44.21398051237038" lon="11.586658154675836"><ele>558.7142857142858</ele><time>2026-04-06T12:18:25Z</time></trkpt><trkpt lat="44.21392165620647" lon="11.58661583860126"><ele>560.4285714285714</ele><time>2026-04-06T12:18:28.999Z</time></trkpt><trkpt lat="44.21395040921489" lon="11.586521257932471"><ele>562.1428571428571</ele><time>2026-04-06T12:18:32.999Z</time></trkpt><trkpt lat="44.21397493532065" lon="11.586427411483426"><ele>563.8571428571429</ele><time>2026-04-06T12:18:36.999Z</time></trkpt><trkpt lat="44.21398738979803" lon="11.586317217525895"><ele>565.5714285714286</ele><time>2026-04-06T12:18:40.999Z</time></trkpt><trkpt lat="44.21398739864839" lon="11.586206385504882"><ele>567.2857142857143</ele><time>2026-04-06T12:18:44.999Z</time></trkpt><trkpt lat="44.213992410565645" lon="11.586101410513429"><ele>569.0</ele><time>2026-04-06T12:18:48.999Z</time></trkpt><trkpt lat="44.21399338126826" lon="11.585995497237501"><ele>569.0</ele><time>2026-04-06T12:18:52.999Z</time></trkpt><trkpt lat="44.21400334100113" lon="11.58588318389512"><ele>569.0</ele><time>2026-04-06T12:18:56.999Z</time></trkpt><trkpt lat="44.21402028679259" lon="11.585776515596493"><ele>569.0</ele><time>2026-04-06T12:19:00.999Z</time></trkpt><trkpt lat="44.214031376754875" lon="11.5856698261135"><ele>569.0</ele><time>2026-04-06T12:19:04.999Z</time></trkpt><trkpt lat="44.21403919905223" lon="11.585581153050532"><ele>569.0</ele><time>2026-04-06T12:19:07.999Z</time></trkpt><trkpt lat="44.214044084951965" lon="11.58547690513013"><ele>569.0</ele><time>2026-04-06T12:19:11.999Z</time></trkpt><trkpt lat="44.21404611513069" lon="11.585365880451489"><ele>571.0000000000001</ele><time>2026-04-06T12:19:16Z</time></trkpt><trkpt lat="44.21402951601221" lon="11.585258377071142"><ele>573.0</ele><time>2026-04-06T12:19:20Z</time></trkpt><trkpt lat="44.21400925575643" lon="11.585151010250916"><ele>575.0</ele><time>2026-04-06T12:19:24Z</time></trkpt><trkpt lat="44.21399514421675" lon="11.585063455776574"><ele>577.0</ele><time>2026-04-06T12:19:27Z</time></trkpt><trkpt lat="44.21400498634474" lon="11.584956475592714"><ele>579.0</ele><time>2026-04-06T12:19:31Z</time></trkpt><trkpt lat="44.21402283111709" lon="11.584850741338775"><ele>581.0000000000001</ele><time>2026-04-06T12:19:35Z</time></trkpt><trkpt lat="44.214042471665216" lon="11.584766500138436"><ele>583.0</ele><time>2026-04-06T12:19:38Z</time></trkpt><trkpt lat="44.2140566683161" lon="11.584657705521638"><ele>583.0000000000001</ele><time>2026-04-06T12:19:42Z</time></trkpt><trkpt lat="44.214077970194914" lon="11.58456169853786"><ele>583.0</ele><time>2026-04-06T12:19:47Z</time></trkpt><trkpt lat="44.21411221475216" lon="11.584480786955565"><ele>583.0</ele><time>2026-04-06T12:19:51Z</time></trkpt><trkpt lat="44.21414945748826" lon="11.584396083568983"><ele>583.0</ele><time>2026-04-06T12:19:55Z</time></trkpt><trkpt lat="44.21420090373472" lon="11.58431901917522"><ele>583.0</ele><time>2026-04-06T12:20:00Z</time></trkpt><trkpt lat="44.21424669694106" lon="11.584254729726696"><ele>583.0000000000001</ele><time>2026-04-06T12:20:04Z</time></trkpt><trkpt lat="44.21429992636531" lon="11.58418082946376"><ele>583.0</ele><time>2026-04-06T12:20:08Z</time></trkpt><trkpt lat="44.214341607180025" lon="11.584096574947738"><ele>585.0000000000001</ele><time>2026-04-06T12:20:12Z</time></trkpt><trkpt lat="44.21436551144571" lon="11.583990054390267"><ele>587.0</ele><time>2026-04-06T12:20:16Z</time></trkpt><trkpt lat="44.21438923614423" lon="11.58388371023849"><ele>589.0</ele><time>2026-04-06T12:20:20Z</time></trkpt><trkpt lat="44.21440501364298" lon="11.583788469642757"><ele>591.0</ele><time>2026-04-06T12:20:22.999Z</time></trkpt><trkpt lat="44.214418728381055" lon="11.583696587631806"><ele>593.0</ele><time>2026-04-06T12:20:25.999Z</time></trkpt><trkpt lat="44.2144277591803" lon="11.583607650443478"><ele>595.0000000000001</ele><time>2026-04-06T12:20:28.999Z</time></trkpt><trkpt lat="44.214438288514565" lon="11.583497346901158"><ele>597.0</ele><time>2026-04-06T12:20:32.999Z</time></trkpt><trkpt lat="44.21444440406209" lon="11.58337780087994"><ele>598.1428571428572</ele><time>2026-04-06T12:20:36.999Z</time></trkpt><trkpt lat="44.21446295065698" lon="11.583270702678426"><ele>599.2857142857143</ele><time>2026-04-06T12:20:40.999Z</time></trkpt><trkpt lat="44.214478985839584" lon="11.583182873744928"><ele>600.4285714285714</ele><time>2026-04-06T12:20:43.999Z</time></trkpt><trkpt lat="44.214499899768896" lon="11.583091045468034"><ele>601.5714285714287</ele><time>2026-04-06T12:20:46.999Z</time></trkpt><trkpt lat="44.214524307252006" lon="11.582981506470011"><ele>602.7142857142858</ele><time>2026-04-06T12:20:50.999Z</time></trkpt><trkpt lat="44.21454733029788" lon="11.582877331340235"><ele>603.8571428571429</ele><time>2026-04-06T12:20:54.999Z</time></trkpt><trkpt lat="44.21455699771363" lon="11.582780495765398"><ele>605.0</ele><time>2026-04-06T12:20:57.999Z</time></trkpt><trkpt lat="44.214585226253696" lon="11.58270022854163"><ele>605.1666666666666</ele><time>2026-04-06T12:21:00.999Z</time></trkpt><trkpt lat="44.214611628477414" lon="11.582615422920778"><ele>605.3333333333333</ele><time>2026-04-06T12:21:04.999Z</time></trkpt><trkpt lat="44.21465189800681" lon="11.582539587542882"><ele>605.5</ele><time>2026-04-06T12:21:08.999Z</time></trkpt><trkpt lat="44.21469860632177" lon="11.582448070216842"><ele>605.6666666666666</ele><time>2026-04-06T12:21:12.999Z</time></trkpt><trkpt lat="44.21474206105891" lon="11.58237225057105"><ele>605.8333333333334</ele><time>2026-04-06T12:21:15.999Z</time></trkpt><trkpt lat="44.21478559424273" lon="11.582285697969862"><ele>606.0</ele><time>2026-04-06T12:21:20Z</time></trkpt><trkpt lat="44.21484337596411" lon="11.582185554898347"><ele>605.4285714285714</ele><time>2026-04-06T12:21:24Z</time></trkpt><trkpt lat="44.21487856663647" lon="11.582103106494918"><ele>604.8571428571429</ele><time>2026-04-06T12:21:27Z</time></trkpt><trkpt lat="44.214915106661614" lon="11.582025376081571"><ele>604.2857142857142</ele><time>2026-04-06T12:21:30Z</time></trkpt><trkpt lat="44.2149450739228" lon="11.581947893008774"><ele>603.7142857142858</ele><time>2026-04-06T12:21:33Z</time></trkpt><trkpt lat="44.214994555729696" lon="11.581852409187912"><ele>603.1428571428571</ele><time>2026-04-06T12:21:37Z</time></trkpt><trkpt lat="44.2150237775396" lon="11.581767084611386"><ele>602.5714285714286</ele><time>2026-04-06T12:21:40Z</time></trkpt><trkpt lat="44.21505743673267" lon="11.581683312742275"><ele>602.0</ele><time>2026-04-06T12:21:44Z</time></trkpt><trkpt lat="44.21508318318798" lon="11.581598924812965"><ele>602.8333333333333</ele><time>2026-04-06T12:21:47Z</time></trkpt><trkpt lat="44.21510847645506" lon="11.581496414094357"><ele>603.6666666666666</ele><time>2026-04-06T12:21:51Z</time></trkpt><trkpt lat="44.215121564305484" lon="11.581407547871667"><ele>604.5</ele><time>2026-04-06T12:21:54Z</time></trkpt><trkpt lat="44.21512708660315" lon="11.581312472932918"><ele>605.3333333333334</ele><time>2026-04-06T12:21:58Z</time></trkpt><trkpt lat="44.21515299112844" lon="11.581205099900174"><ele>606.1666666666667</ele><time>2026-04-06T12:22:02Z</time></trkpt><trkpt lat="44.21519753491225" lon="11.581105958924374"><ele>607.0</ele><time>2026-04-06T12:22:06Z</time></trkpt><trkpt lat="44.21524010571579" lon="11.581016726574699"><ele>607.0</ele><time>2026-04-06T12:22:10Z</time></trkpt><trkpt lat="44.215281533712975" lon="11.580942053596358"><ele>607.0</ele><time>2026-04-06T12:22:14Z</time></trkpt><trkpt lat="44.215334124979826" lon="11.580844993656749"><ele>607.0</ele><time>2026-04-06T12:22:18Z</time></trkpt><trkpt lat="44.21537260366994" lon="11.580744498138202"><ele>607.0</ele><time>2026-04-06T12:22:21Z</time></trkpt><trkpt lat="44.21537439108861" lon="11.580654373344839"><ele>607.0</ele><time>2026-04-06T12:22:23Z</time></trkpt><trkpt lat="44.21530299986836" lon="11.580575831191112"><ele>607.0</ele><time>2026-04-06T12:22:26Z</time></trkpt><trkpt lat="44.21524561230481" lon="11.580519361452888"><ele>606.9999999999999</ele><time>2026-04-06T12:22:29Z</time></trkpt><trkpt lat="44.215191764575586" lon="11.580451037642842"><ele>607.0</ele><time>2026-04-06T12:22:32Z</time></trkpt><trkpt lat="44.21512740121266" lon="11.580398993970718"><ele>607.0</ele><time>2026-04-06T12:22:35Z</time></trkpt><trkpt lat="44.215061638129164" lon="11.580364724798882"><ele>607.0</ele><time>2026-04-06T12:22:38Z</time></trkpt><trkpt lat="44.214988692424015" lon="11.580302954917824"><ele>607.0</ele><time>2026-04-06T12:22:41.999Z</time></trkpt><trkpt lat="44.21494270872655" lon="11.580229422235266"><ele>606.9999999999999</ele><time>2026-04-06T12:22:44.999Z</time></trkpt><trkpt lat="44.2149133580894" lon="11.580144159764282"><ele>607.0</ele><time>2026-04-06T12:22:47.999Z</time></trkpt><trkpt lat="44.21487271090169" lon="11.580066157682243"><ele>609.1428571428571</ele><time>2026-04-06T12:22:50.999Z</time></trkpt><trkpt lat="44.214837695286306" lon="11.579991022823688"><ele>611.2857142857142</ele><time>2026-04-06T12:22:53.999Z</time></trkpt><trkpt lat="44.214802807154776" lon="11.579906645054752"><ele>613.4285714285713</ele><time>2026-04-06T12:22:56.999Z</time></trkpt><trkpt lat="44.21477483087935" lon="11.57981216187993"><ele>615.5714285714286</ele><time>2026-04-06T12:23:00.999Z</time></trkpt><trkpt lat="44.214781800718754" lon="11.579718550266712"><ele>617.7142857142858</ele><time>2026-04-06T12:23:04.999Z</time></trkpt><trkpt lat="44.21480227230691" lon="11.579624896303267"><ele>619.8571428571428</ele><time>2026-04-06T12:23:09.999Z</time></trkpt><trkpt lat="44.2148412465459" lon="11.579541158273203"><ele>622.0</ele><time>2026-04-06T12:23:14.999Z</time></trkpt><trkpt lat="44.21487483275099" lon="11.579457322984737"><ele>623.7142857142857</ele><time>2026-04-06T12:23:18.999Z</time></trkpt><trkpt lat="44.214928852063814" lon="11.579375756617203"><ele>625.4285714285714</ele><time>2026-04-06T12:23:22.999Z</time></trkpt><trkpt lat="44.21496601008997" lon="11.579303297193688"><ele>627.1428571428571</ele><time>2026-04-06T12:23:26Z</time></trkpt><trkpt lat="44.214953926563176" lon="11.579207385826326"><ele>628.8571428571429</ele><time>2026-04-06T12:23:29Z</time></trkpt><trkpt lat="44.214923511568635" lon="11.57910494763478"><ele>630.5714285714286</ele><time>2026-04-06T12:23:33Z</time></trkpt><trkpt lat="44.21489642750193" lon="11.579014831672096"><ele>632.2857142857143</ele><time>2026-04-06T12:23:36Z</time></trkpt><trkpt lat="44.21488563650903" lon="11.578923008726715"><ele>634.0</ele><time>2026-04-06T12:23:39Z</time></trkpt><trkpt lat="44.214905904967154" lon="11.57882724459857"><ele>634.0</ele><time>2026-04-06T12:23:42Z</time></trkpt><trkpt lat="44.21493213158883" lon="11.578733636313087"><ele>634.0</ele><time>2026-04-06T12:23:45Z</time></trkpt><trkpt lat="44.21495214601793" lon="11.57863872291529"><ele>634.0</ele><time>2026-04-06T12:23:48Z</time></trkpt><trkpt lat="44.21494419352761" lon="11.578532574926218"><ele>634.0</ele><time>2026-04-06T12:23:51Z</time></trkpt><trkpt lat="44.214914204584474" lon="11.578442939585035"><ele>634.0</ele><time>2026-04-06T12:23:54Z</time></trkpt><trkpt lat="44.21488016052471" lon="11.57836091543584"><ele>634.0</ele><time>2026-04-06T12:23:57Z</time></trkpt><trkpt lat="44.21484584517854" lon="11.578273626620943"><ele>634.0</ele><time>2026-04-06T12:24:00Z</time></trkpt><trkpt lat="44.21482779616595" lon="11.578188884738386"><ele>634.1428571428571</ele><time>2026-04-06T12:24:03Z</time></trkpt><trkpt lat="44.21482668322975" lon="11.578094947877256"><ele>634.2857142857142</ele><time>2026-04-06T12:24:06Z</time></trkpt><trkpt lat="44.214846980570734" lon="11.578007849923505"><ele>634.4285714285713</ele><time>2026-04-06T12:24:09Z</time></trkpt><trkpt lat="44.21486753330085" lon="11.57792048109484"><ele>634.5714285714286</ele><time>2026-04-06T12:24:12Z</time></trkpt><trkpt lat="44.21487071777806" lon="11.577829522923288"><ele>634.7142857142857</ele><time>2026-04-06T12:24:15Z</time></trkpt><trkpt lat="44.21485740058951" lon="11.577718756601257"><ele>634.8571428571428</ele><time>2026-04-06T12:24:19Z</time></trkpt><trkpt lat="44.21484156284148" lon="11.577620253585316"><ele>635.0</ele><time>2026-04-06T12:24:22Z</time></trkpt><trkpt lat="44.214826372510664" lon="11.577533441988196"><ele>630.8571428571428</ele><time>2026-04-06T12:24:25Z</time></trkpt><trkpt lat="44.21479951812204" lon="11.577445578431822"><ele>626.7142857142857</ele><time>2026-04-06T12:24:27.999Z</time></trkpt><trkpt lat="44.214776232716545" lon="11.577361907055625"><ele>622.5714285714286</ele><time>2026-04-06T12:24:30.999Z</time></trkpt><trkpt lat="44.214745194733226" lon="11.577270185750287"><ele>618.4285714285713</ele><time>2026-04-06T12:24:34.999Z</time></trkpt><trkpt lat="44.21471212140194" lon="11.57716469592187"><ele>614.2857142857142</ele><time>2026-04-06T12:24:38.999Z</time></trkpt><trkpt lat="44.21469623106775" lon="11.577063214324339"><ele>610.1428571428571</ele><time>2026-04-06T12:24:42.999Z</time></trkpt><trkpt lat="44.214759120670394" lon="11.57708727287091"><ele>606.0</ele><time>2026-04-06T12:24:50.999Z</time></trkpt><trkpt lat="44.21481315422525" lon="11.577167858361952"><ele>610.8333333333334</ele><time>2026-04-06T12:24:55.999Z</time></trkpt><trkpt lat="44.21486883247932" lon="11.577239471231769"><ele>615.6666666666666</ele><time>2026-04-06T12:24:59.999Z</time></trkpt><trkpt lat="44.21491744651982" lon="11.577297669915376"><ele>620.5</ele><time>2026-04-06T12:25:03.999Z</time></trkpt><trkpt lat="44.21497714202571" lon="11.577377084683528"><ele>625.3333333333333</ele><time>2026-04-06T12:25:07.999Z</time></trkpt><trkpt lat="44.21504397628586" lon="11.57743467810193"><ele>630.1666666666666</ele><time>2026-04-06T12:25:10.999Z</time></trkpt><trkpt lat="44.21513104112434" lon="11.577479993651004"><ele>635.0</ele><time>2026-04-06T12:25:13.999Z</time></trkpt><trkpt lat="44.21521842319209" lon="11.577512451895927"><ele>635.0</ele><time>2026-04-06T12:25:16.999Z</time></trkpt><trkpt lat="44.21530191575423" lon="11.577558619349189"><ele>635.0</ele><time>2026-04-06T12:25:19.999Z</time></trkpt><trkpt lat="44.21537065677274" lon="11.577620160462931"><ele>635.0</ele><time>2026-04-06T12:25:22.999Z</time></trkpt><trkpt lat="44.21542663363149" lon="11.577684959021177"><ele>635.0</ele><time>2026-04-06T12:25:25.999Z</time></trkpt><trkpt lat="44.21548821261307" lon="11.577758203924075"><ele>635.0</ele><time>2026-04-06T12:25:29.999Z</time></trkpt><trkpt lat="44.21554904231052" lon="11.577798125610386"><ele>635.0</ele><time>2026-04-06T12:25:33Z</time></trkpt><trkpt lat="44.21562545404974" lon="11.577832043477873"><ele>635.0</ele><time>2026-04-06T12:25:36Z</time></trkpt><trkpt lat="44.21569027998286" lon="11.577854086300377"><ele>635.0</ele><time>2026-04-06T12:25:38Z</time></trkpt><trkpt lat="44.215766687548886" lon="11.577875163332717"><ele>635.0</ele><time>2026-04-06T12:25:40Z</time></trkpt><trkpt lat="44.21585325639623" lon="11.577838028797736"><ele>635.0</ele><time>2026-04-06T12:25:42Z</time></trkpt><trkpt lat="44.21593199326474" lon="11.577761528898638"><ele>635.0</ele><time>2026-04-06T12:25:44Z</time></trkpt><trkpt lat="44.216010433988416" lon="11.577688319213914"><ele>635.0</ele><time>2026-04-06T12:25:46Z</time></trkpt><trkpt lat="44.21611344866327" lon="11.577702970745438"><ele>635.0</ele><time>2026-04-06T12:25:48Z</time></trkpt><trkpt lat="44.21619292069712" lon="11.577807703096893"><ele>635.0</ele><time>2026-04-06T12:25:50Z</time></trkpt><trkpt lat="44.21623822399458" lon="11.577926222428085"><ele>635.0</ele><time>2026-04-06T12:25:52Z</time></trkpt><trkpt lat="44.21626300834104" lon="11.578025966943228"><ele>635.0</ele><time>2026-04-06T12:25:54Z</time></trkpt><trkpt lat="44.21629702327437" lon="11.578123739526069"><ele>635.0</ele><time>2026-04-06T12:25:56Z</time></trkpt><trkpt lat="44.21634722868294" lon="11.57821666926384"><ele>635.0</ele><time>2026-04-06T12:25:58Z</time></trkpt><trkpt lat="44.21640938041504" lon="11.57829087308"><ele>638.0</ele><time>2026-04-06T12:26:00Z</time></trkpt><trkpt lat="44.21648040788784" lon="11.578353757823987"><ele>641.0</ele><time>2026-04-06T12:26:02Z</time></trkpt><trkpt lat="44.216564650306104" lon="11.578416271313445"><ele>644.0</ele><time>2026-04-06T12:26:04Z</time></trkpt><trkpt lat="44.2166750373034" lon="11.57847257860655"><ele>647.0</ele><time>2026-04-06T12:26:06Z</time></trkpt><trkpt lat="44.21678151316435" lon="11.578513151167519"><ele>650.0</ele><time>2026-04-06T12:26:08Z</time></trkpt><trkpt lat="44.21687006800799" lon="11.57851597867879"><ele>650.0</ele><time>2026-04-06T12:26:10Z</time></trkpt><trkpt lat="44.21694875787332" lon="11.578505674308646"><ele>650.0</ele><time>2026-04-06T12:26:12Z</time></trkpt><trkpt lat="44.217017702747654" lon="11.578500958547506"><ele>650.0</ele><time>2026-04-06T12:26:14Z</time></trkpt><trkpt lat="44.217101421574434" lon="11.57849365260561"><ele>650.0</ele><time>2026-04-06T12:26:17Z</time></trkpt><trkpt lat="44.21717641814389" lon="11.578480807146903"><ele>650.0</ele><time>2026-04-06T12:26:20Z</time></trkpt><trkpt lat="44.217256289632836" lon="11.57849151517145"><ele>650.0</ele><time>2026-04-06T12:26:23Z</time></trkpt><trkpt lat="44.21733124301103" lon="11.57846127196468"><ele>651.2857142857142</ele><time>2026-04-06T12:26:26Z</time></trkpt><trkpt lat="44.217407096272915" lon="11.578433854996542"><ele>652.5714285714287</ele><time>2026-04-06T12:26:29Z</time></trkpt><trkpt lat="44.217468090401304" lon="11.578371654242806"><ele>653.8571428571429</ele><time>2026-04-06T12:26:31.999Z</time></trkpt><trkpt lat="44.217526362393215" lon="11.578302890826766"><ele>655.1428571428571</ele><time>2026-04-06T12:26:34.999Z</time></trkpt><trkpt lat="44.217578760322944" lon="11.578230851365205"><ele>656.4285714285713</ele><time>2026-04-06T12:26:37.999Z</time></trkpt><trkpt lat="44.217625323675456" lon="11.578160242850803"><ele>657.7142857142858</ele><time>2026-04-06T12:26:40.999Z</time></trkpt><trkpt lat="44.21768043892194" lon="11.578091271411507"><ele>659.0</ele><time>2026-04-06T12:26:43.999Z</time></trkpt><trkpt lat="44.217737186282825" lon="11.57802850988117"><ele>659.0</ele><time>2026-04-06T12:26:46.999Z</time></trkpt><trkpt lat="44.217804489489204" lon="11.578005238597436"><ele>659.0</ele><time>2026-04-06T12:26:49.999Z</time></trkpt><trkpt lat="44.217878291416014" lon="11.578014977761468"><ele>659.0</ele><time>2026-04-06T12:26:52.999Z</time></trkpt><trkpt lat="44.21794021104222" lon="11.578057401952908"><ele>659.0</ele><time>2026-04-06T12:26:55.999Z</time></trkpt><trkpt lat="44.2179899530329" lon="11.578138671004398"><ele>659.0</ele><time>2026-04-06T12:26:58.999Z</time></trkpt><trkpt lat="44.218036128310004" lon="11.578229753644939"><ele>659.0</ele><time>2026-04-06T12:27:01.999Z</time></trkpt><trkpt lat="44.2180906335158" lon="11.578311320925248"><ele>659.0</ele><time>2026-04-06T12:27:04.999Z</time></trkpt><trkpt lat="44.2181450099697" lon="11.578383013238295"><ele>659.3333333333333</ele><time>2026-04-06T12:27:07.999Z</time></trkpt><trkpt lat="44.21820320365628" lon="11.57845007142552"><ele>659.6666666666666</ele><time>2026-04-06T12:27:10.999Z</time></trkpt><trkpt lat="44.2182630992131" lon="11.57850152149663"><ele>660.0</ele><time>2026-04-06T12:27:13.999Z</time></trkpt><trkpt lat="44.218329732600914" lon="11.578556371246373"><ele>660.3333333333334</ele><time>2026-04-06T12:27:16.999Z</time></trkpt><trkpt lat="44.21838732030354" lon="11.578607056741909"><ele>660.6666666666667</ele><time>2026-04-06T12:27:19.999Z</time></trkpt><trkpt lat="44.21844918321564" lon="11.578672292075444"><ele>661.0</ele><time>2026-04-06T12:27:22.999Z</time></trkpt><trkpt lat="44.21851789201587" lon="11.578753947170306"><ele>665.3333333333334</ele><time>2026-04-06T12:27:25.999Z</time></trkpt><trkpt lat="44.21858079131584" lon="11.578842783564959"><ele>669.6666666666667</ele><time>2026-04-06T12:27:28.999Z</time></trkpt><trkpt lat="44.21864009006275" lon="11.578920458222287"><ele>674.0</ele><time>2026-04-06T12:27:31.999Z</time></trkpt><trkpt lat="44.21868378685952" lon="11.578985097515137"><ele>678.3333333333334</ele><time>2026-04-06T12:27:33.999Z</time></trkpt><trkpt lat="44.218729898386556" lon="11.579053667628703"><ele>682.6666666666666</ele><time>2026-04-06T12:27:35.999Z</time></trkpt><trkpt lat="44.21880719300694" lon="11.57913432503792"><ele>687.0</ele><time>2026-04-06T12:27:39Z</time></trkpt><trkpt lat="44.218855680422806" lon="11.5791975226525"><ele>687.0</ele><time>2026-04-06T12:27:41Z</time></trkpt><trkpt lat="44.21890694091091" lon="11.579254902720004"><ele>687.0</ele><time>2026-04-06T12:27:43Z</time></trkpt><trkpt lat="44.21895950281052" lon="11.579316220335125"><ele>687.0</ele><time>2026-04-06T12:27:45Z</time></trkpt><trkpt lat="44.21900971977153" lon="11.579377128749302"><ele>687.0</ele><time>2026-04-06T12:27:47Z</time></trkpt><trkpt lat="44.219068347176524" lon="11.579429602021651"><ele>687.0</ele><time>2026-04-06T12:27:49Z</time></trkpt><trkpt lat="44.21912299775225" lon="11.579509117738164"><ele>687.0</ele><time>2026-04-06T12:27:51Z</time></trkpt><trkpt lat="44.21918154768825" lon="11.579602297088856"><ele>687.0</ele><time>2026-04-06T12:27:53Z</time></trkpt><trkpt lat="44.21923764907812" lon="11.579700879271098"><ele>685.5</ele><time>2026-04-06T12:27:55Z</time></trkpt><trkpt lat="44.21929265792178" lon="11.579801075396146"><ele>684.0</ele><time>2026-04-06T12:27:57Z</time></trkpt><trkpt lat="44.219335407331336" lon="11.579908269696912"><ele>682.5</ele><time>2026-04-06T12:27:59Z</time></trkpt><trkpt lat="44.21939688046243" lon="11.58000952847984"><ele>681.0</ele><time>2026-04-06T12:28:01Z</time></trkpt><trkpt lat="44.21944744770947" lon="11.580088153285885"><ele>679.5</ele><time>2026-04-06T12:28:03Z</time></trkpt><trkpt lat="44.21950939334065" lon="11.580178917619499"><ele>678.0</ele><time>2026-04-06T12:28:05Z</time></trkpt><trkpt lat="44.219557309810405" lon="11.58027117197666"><ele>676.3333333333334</ele><time>2026-04-06T12:28:07Z</time></trkpt><trkpt lat="44.21960810295031" lon="11.580355767643693"><ele>674.6666666666666</ele><time>2026-04-06T12:28:09Z</time></trkpt><trkpt lat="44.219656098225464" lon="11.580451404897792"><ele>673.0</ele><time>2026-04-06T12:28:11Z</time></trkpt><trkpt lat="44.21970323652472" lon="11.580542051756785"><ele>671.3333333333333</ele><time>2026-04-06T12:28:13Z</time></trkpt><trkpt lat="44.219745732365325" lon="11.580624798662605"><ele>669.6666666666666</ele><time>2026-04-06T12:28:15Z</time></trkpt><trkpt lat="44.219791141757625" lon="11.580736400269656"><ele>668.0</ele><time>2026-04-06T12:28:17Z</time></trkpt><trkpt lat="44.21984228888522" lon="11.580864811126823"><ele>666.5</ele><time>2026-04-06T12:28:19Z</time></trkpt><trkpt lat="44.219883139664795" lon="11.580980263393633"><ele>665.0</ele><time>2026-04-06T12:28:21Z</time></trkpt><trkpt lat="44.21996420163778" lon="11.581097437875249"><ele>663.5</ele><time>2026-04-06T12:28:23Z</time></trkpt><trkpt lat="44.22001807695176" lon="11.58115976383152"><ele>662.0</ele><time>2026-04-06T12:28:24Z</time></trkpt><trkpt lat="44.22007520720117" lon="11.581221148452277"><ele>660.5</ele><time>2026-04-06T12:28:25Z</time></trkpt><trkpt lat="44.220136522252545" lon="11.58126995334438"><ele>659.0</ele><time>2026-04-06T12:28:26Z</time></trkpt><trkpt lat="44.220241766276764" lon="11.581334679362627"><ele>657.5</ele><time>2026-04-06T12:28:27.999Z</time></trkpt><trkpt lat="44.22033869895288" lon="11.58139775096548"><ele>656.0</ele><time>2026-04-06T12:28:29.999Z</time></trkpt><trkpt lat="44.220410801818325" lon="11.581459454552487"><ele>654.5</ele><time>2026-04-06T12:28:31.999Z</time></trkpt><trkpt lat="44.220468726632106" lon="11.581536853280888"><ele>653.0</ele><time>2026-04-06T12:28:33.999Z</time></trkpt><trkpt lat="44.22051855356988" lon="11.581637929408602"><ele>651.5</ele><time>2026-04-06T12:28:35.999Z</time></trkpt><trkpt lat="44.22056548563812" lon="11.581730797034044"><ele>650.0</ele><time>2026-04-06T12:28:37.999Z</time></trkpt><trkpt lat="44.22062443346504" lon="11.581809529544849"><ele>651.5714285714286</ele><time>2026-04-06T12:28:39.999Z</time></trkpt><trkpt lat="44.220689060573115" lon="11.581844568158145"><ele>653.1428571428572</ele><time>2026-04-06T12:28:41.999Z</time></trkpt><trkpt lat="44.220760190127095" lon="11.58185898527286"><ele>654.7142857142858</ele><time>2026-04-06T12:28:43.999Z</time></trkpt><trkpt lat="44.22082861097714" lon="11.581877664440126"><ele>656.2857142857142</ele><time>2026-04-06T12:28:45.999Z</time></trkpt><trkpt lat="44.22091061145234" lon="11.581892442083308"><ele>657.8571428571429</ele><time>2026-04-06T12:28:48.999Z</time></trkpt><trkpt lat="44.22097610736671" lon="11.581907495833711"><ele>659.4285714285714</ele><time>2026-04-06T12:28:51.999Z</time></trkpt><trkpt lat="44.22104393417278" lon="11.581941033798657"><ele>661.0</ele><time>2026-04-06T12:28:54.999Z</time></trkpt><trkpt lat="44.22110986500538" lon="11.581990754314266"><ele>659.7142857142857</ele><time>2026-04-06T12:28:57.999Z</time></trkpt><trkpt lat="44.22117031880982" lon="11.582055798852801"><ele>658.4285714285714</ele><time>2026-04-06T12:29:00.999Z</time></trkpt><trkpt lat="44.22122253723263" lon="11.582115109908731"><ele>657.1428571428571</ele><time>2026-04-06T12:29:03.999Z</time></trkpt><trkpt lat="44.22127301906735" lon="11.582181316246514"><ele>655.8571428571429</ele><time>2026-04-06T12:29:06.999Z</time></trkpt><trkpt lat="44.22132607460839" lon="11.58224041684066"><ele>654.5714285714286</ele><time>2026-04-06T12:29:09.999Z</time></trkpt><trkpt lat="44.22138459003365" lon="11.58230428025476"><ele>653.2857142857143</ele><time>2026-04-06T12:29:12.999Z</time></trkpt><trkpt lat="44.22144953619596" lon="11.582371968240253"><ele>652.0</ele><time>2026-04-06T12:29:15.999Z</time></trkpt><trkpt lat="44.22150685142464" lon="11.582416280677"><ele>655.1666666666667</ele><time>2026-04-06T12:29:17.999Z</time></trkpt><trkpt lat="44.221560820802445" lon="11.582463489803565"><ele>658.3333333333334</ele><time>2026-04-06T12:29:19.999Z</time></trkpt><trkpt lat="44.221644905488205" lon="11.582518490019252"><ele>661.5</ele><time>2026-04-06T12:29:22.999Z</time></trkpt><trkpt lat="44.22173076229341" lon="11.582581415754435"><ele>664.6666666666666</ele><time>2026-04-06T12:29:25.999Z</time></trkpt><trkpt lat="44.22179382652935" lon="11.582616834729373"><ele>667.8333333333333</ele><time>2026-04-06T12:29:27.999Z</time></trkpt><trkpt lat="44.22185047183945" lon="11.582666831276867"><ele>671.0</ele><time>2026-04-06T12:29:29.999Z</time></trkpt><trkpt lat="44.221904545315084" lon="11.582726792112139"><ele>671.0</ele><time>2026-04-06T12:29:31.999Z</time></trkpt><trkpt lat="44.221956362900634" lon="11.582790505081986"><ele>671.0</ele><time>2026-04-06T12:29:33.999Z</time></trkpt><trkpt lat="44.22201830248146" lon="11.58287513739121"><ele>671.0</ele><time>2026-04-06T12:29:36.999Z</time></trkpt><trkpt lat="44.222056117472455" lon="11.582981971260196"><ele>671.0</ele><time>2026-04-06T12:29:39.999Z</time></trkpt><trkpt lat="44.22206099519929" lon="11.58307792987752"><ele>671.0</ele><time>2026-04-06T12:29:45Z</time></trkpt><trkpt lat="44.22213433646099" lon="11.58306652173841"><ele>671.0</ele><time>2026-04-06T12:34:38.999Z</time></trkpt><trkpt lat="44.22219376359889" lon="11.5831031751828"><ele>671.0</ele><time>2026-04-06T12:34:40.999Z</time></trkpt><trkpt lat="44.22223882677953" lon="11.583176722390338"><ele>669.5999999999999</ele><time>2026-04-06T12:34:42.999Z</time></trkpt><trkpt lat="44.22230391464676" lon="11.583236581849164"><ele>668.2</ele><time>2026-04-06T12:34:44.999Z</time></trkpt><trkpt lat="44.222402486366825" lon="11.583335297256035"><ele>666.8</ele><time>2026-04-06T12:34:46.999Z</time></trkpt><trkpt lat="44.22249889430574" lon="11.583435853070254"><ele>665.4000000000001</ele><time>2026-04-06T12:34:48.999Z</time></trkpt><trkpt lat="44.222556988895015" lon="11.583493693745782"><ele>664.0</ele><time>2026-04-06T12:34:49.999Z</time></trkpt><trkpt lat="44.22261680296059" lon="11.583553911784977"><ele>664.0</ele><time>2026-04-06T12:34:50.999Z</time></trkpt><trkpt lat="44.22267042614443" lon="11.583612277587614"><ele>664.0</ele><time>2026-04-06T12:34:51.999Z</time></trkpt><trkpt lat="44.22275149640288" lon="11.58370798472914"><ele>664.0</ele><time>2026-04-06T12:34:53.999Z</time></trkpt><trkpt lat="44.22282229833686" lon="11.583726178816141"><ele>664.0</ele><time>2026-04-06T12:34:56.999Z</time></trkpt><trkpt lat="44.222885006782846" lon="11.583647155343426"><ele>664.0</ele><time>2026-04-06T12:34:59.999Z</time></trkpt><trkpt lat="44.222955368741324" lon="11.583644489748867"><ele>664.0</ele><time>2026-04-06T12:35:02.999Z</time></trkpt><trkpt lat="44.22303867728421" lon="11.583688663445928"><ele>661.6</ele><time>2026-04-06T12:35:04.999Z</time></trkpt><trkpt lat="44.223140193541646" lon="11.583722895704927"><ele>659.2</ele><time>2026-04-06T12:35:06.999Z</time></trkpt><trkpt lat="44.22328369044689" lon="11.583733244709613"><ele>656.8000000000001</ele><time>2026-04-06T12:35:08.999Z</time></trkpt><trkpt lat="44.22335444405941" lon="11.583751571609053"><ele>654.4000000000001</ele><time>2026-04-06T12:35:09.999Z</time></trkpt><trkpt lat="44.22341940540463" lon="11.583779026304951"><ele>652.0</ele><time>2026-04-06T12:35:10.999Z</time></trkpt><trkpt lat="44.223532549126745" lon="11.583777559917044"><ele>652.0</ele><time>2026-04-06T12:35:12.999Z</time></trkpt><trkpt lat="44.22359591936308" lon="11.583815269250127"><ele>652.0</ele><time>2026-04-06T12:35:13.999Z</time></trkpt><trkpt lat="44.22365437533522" lon="11.583854387224356"><ele>652.0</ele><time>2026-04-06T12:35:14.999Z</time></trkpt><trkpt lat="44.223763698575056" lon="11.583870252009138"><ele>652.0</ele><time>2026-04-06T12:35:16.999Z</time></trkpt><trkpt lat="44.22388474142593" lon="11.583936466846156"><ele>652.0</ele><time>2026-04-06T12:35:18.999Z</time></trkpt><trkpt lat="44.223952337254325" lon="11.583966654429286"><ele>652.0</ele><time>2026-04-06T12:35:19.999Z</time></trkpt><trkpt lat="44.22401876477039" lon="11.583987315016918"><ele>650.5</ele><time>2026-04-06T12:35:20.999Z</time></trkpt><trkpt lat="44.22409372451206" lon="11.584003706361747"><ele>649.0</ele><time>2026-04-06T12:35:21.999Z</time></trkpt><trkpt lat="44.22417351536983" lon="11.584045507931348"><ele>647.5</ele><time>2026-04-06T12:35:22.999Z</time></trkpt><trkpt lat="44.22423522874313" lon="11.58412544596472"><ele>646.0</ele><time>2026-04-06T12:35:23.999Z</time></trkpt><trkpt lat="44.224309212740955" lon="11.584202020569606"><ele>644.5</ele><time>2026-04-06T12:35:25.999Z</time></trkpt><trkpt lat="44.224389707989125" lon="11.584156558202144"><ele>643.0</ele><time>2026-04-06T12:35:27.999Z</time></trkpt><trkpt lat="44.22447752587149" lon="11.584188306252347"><ele>643.0</ele><time>2026-04-06T12:35:29.999Z</time></trkpt><trkpt lat="44.22456768879247" lon="11.58426004567288"><ele>643.0</ele><time>2026-04-06T12:35:31.999Z</time></trkpt><trkpt lat="44.22463109985273" lon="11.584349101345005"><ele>643.0</ele><time>2026-04-06T12:35:33.999Z</time></trkpt><trkpt lat="44.224724386843775" lon="11.584397969436749"><ele>643.0</ele><time>2026-04-06T12:35:35.999Z</time></trkpt><trkpt lat="44.22481912849609" lon="11.584456568893255"><ele>643.0</ele><time>2026-04-06T12:35:37.999Z</time></trkpt><trkpt lat="44.22489652848702" lon="11.584587088653688"><ele>640.8333333333334</ele><time>2026-04-06T12:35:39.999Z</time></trkpt><trkpt lat="44.22498677843796" lon="11.584646557878523"><ele>638.6666666666667</ele><time>2026-04-06T12:35:41.999Z</time></trkpt><trkpt lat="44.22507292218355" lon="11.584706329971548"><ele>636.5</ele><time>2026-04-06T12:35:43.999Z</time></trkpt><trkpt lat="44.2251020516101" lon="11.584809797140485"><ele>634.3333333333334</ele><time>2026-04-06T12:35:46.999Z</time></trkpt><trkpt lat="44.22514503924634" lon="11.584874568312529"><ele>632.1666666666666</ele><time>2026-04-06T12:35:54.999Z</time></trkpt><trkpt lat="44.22520275553155" lon="11.584914989772473"><ele>630.0</ele><time>2026-04-06T12:35:57Z</time></trkpt><trkpt lat="44.225280840531305" lon="11.584968751422354"><ele>630.0</ele><time>2026-04-06T12:35:59Z</time></trkpt><trkpt lat="44.22537156711939" lon="11.58505049396022"><ele>630.0</ele><time>2026-04-06T12:36:01Z</time></trkpt><trkpt lat="44.22548046286089" lon="11.585136572880876"><ele>630.0</ele><time>2026-04-06T12:36:03Z</time></trkpt><trkpt lat="44.22557148011896" lon="11.585201150071846"><ele>630.0</ele><time>2026-04-06T12:36:05Z</time></trkpt><trkpt lat="44.22566896575731" lon="11.585247291131008"><ele>630.0</ele><time>2026-04-06T12:36:07Z</time></trkpt><trkpt lat="44.2257356475105" lon="11.585261757510883"><ele>628.3333333333334</ele><time>2026-04-06T12:36:08Z</time></trkpt><trkpt lat="44.225807921586465" lon="11.585276607026636"><ele>626.6666666666666</ele><time>2026-04-06T12:36:09Z</time></trkpt><trkpt lat="44.22588834304425" lon="11.585307642738082"><ele>625.0</ele><time>2026-04-06T12:36:10Z</time></trkpt><trkpt lat="44.22597909000613" lon="11.585349124015192"><ele>623.3333333333333</ele><time>2026-04-06T12:36:11Z</time></trkpt><trkpt lat="44.22606303635075" lon="11.585380734323326"><ele>621.6666666666666</ele><time>2026-04-06T12:36:12Z</time></trkpt><trkpt lat="44.22613681113715" lon="11.58541316903031"><ele>620.0</ele><time>2026-04-06T12:36:13Z</time></trkpt><trkpt lat="44.2262012366521" lon="11.585442018254238"><ele>617.3333333333333</ele><time>2026-04-06T12:36:14Z</time></trkpt><trkpt lat="44.226264956870025" lon="11.585476942579772"><ele>614.6666666666666</ele><time>2026-04-06T12:36:15Z</time></trkpt><trkpt lat="44.22633247325892" lon="11.585535956907178"><ele>612.0</ele><time>2026-04-06T12:36:16Z</time></trkpt><trkpt lat="44.226401669765394" lon="11.585625118469261"><ele>609.3333333333334</ele><time>2026-04-06T12:36:17Z</time></trkpt><trkpt lat="44.22646607120788" lon="11.585731613049376"><ele>606.6666666666667</ele><time>2026-04-06T12:36:18Z</time></trkpt><trkpt lat="44.22653585088595" lon="11.5858389337454"><ele>604.0</ele><time>2026-04-06T12:36:19Z</time></trkpt><trkpt lat="44.226614387640154" lon="11.585939471661614"><ele>603.8</ele><time>2026-04-06T12:36:20Z</time></trkpt><trkpt lat="44.22669143424132" lon="11.586054621065474"><ele>603.5999999999999</ele><time>2026-04-06T12:36:21Z</time></trkpt><trkpt lat="44.22676076184662" lon="11.586178976693592"><ele>603.4</ele><time>2026-04-06T12:36:22Z</time></trkpt><trkpt lat="44.22682955181854" lon="11.586282418306217"><ele>603.1999999999999</ele><time>2026-04-06T12:36:23Z</time></trkpt><trkpt lat="44.22692542090802" lon="11.58634738340955"><ele>603.0</ele><time>2026-04-06T12:36:24Z</time></trkpt><trkpt lat="44.22703365351149" lon="11.586393240724563"><ele>598.5</ele><time>2026-04-06T12:36:25Z</time></trkpt><trkpt lat="44.227126973461" lon="11.586475647490479"><ele>594.0</ele><time>2026-04-06T12:36:26Z</time></trkpt><trkpt lat="44.22720149111198" lon="11.58661338050825"><ele>589.5</ele><time>2026-04-06T12:36:27Z</time></trkpt><trkpt lat="44.227252597835715" lon="11.586767800254735"><ele>585.0</ele><time>2026-04-06T12:36:28Z</time></trkpt><trkpt lat="44.2272943174804" lon="11.586917341349777"><ele>585.8333333333334</ele><time>2026-04-06T12:36:29Z</time></trkpt><trkpt lat="44.227339008244606" lon="11.587038817064954"><ele>586.6666666666666</ele><time>2026-04-06T12:36:30Z</time></trkpt><trkpt lat="44.22738396884977" lon="11.587142547661584"><ele>587.5</ele><time>2026-04-06T12:36:31Z</time></trkpt><trkpt lat="44.22743128840261" lon="11.58723398081195"><ele>588.3333333333333</ele><time>2026-04-06T12:36:32Z</time></trkpt><trkpt lat="44.22749590984128" lon="11.587308179386714"><ele>589.1666666666666</ele><time>2026-04-06T12:36:33Z</time></trkpt><trkpt lat="44.227577843690256" lon="11.587363428630425"><ele>590.0</ele><time>2026-04-06T12:36:34Z</time></trkpt><trkpt lat="44.22766399953638" lon="11.587416359701196"><ele>590.0</ele><time>2026-04-06T12:36:35Z</time></trkpt><trkpt lat="44.227751372696126" lon="11.587475705964525"><ele>590.0</ele><time>2026-04-06T12:36:36Z</time></trkpt><trkpt lat="44.227842384803175" lon="11.58753045439349"><ele>590.0</ele><time>2026-04-06T12:36:37Z</time></trkpt><trkpt lat="44.227933578371164" lon="11.58759274916896"><ele>590.0</ele><time>2026-04-06T12:36:38Z</time></trkpt><trkpt lat="44.228017097093876" lon="11.5876725123442"><ele>590.0</ele><time>2026-04-06T12:36:39Z</time></trkpt><trkpt lat="44.22809670727929" lon="11.587766551947173"><ele>589.0</ele><time>2026-04-06T12:36:40Z</time></trkpt><trkpt lat="44.22817708009697" lon="11.587855053792346"><ele>588.0</ele><time>2026-04-06T12:36:41Z</time></trkpt><trkpt lat="44.22826459827708" lon="11.587937031479276"><ele>587.0</ele><time>2026-04-06T12:36:42Z</time></trkpt><trkpt lat="44.22835248544996" lon="11.588008224277566"><ele>586.0</ele><time>2026-04-06T12:36:43Z</time></trkpt><trkpt lat="44.22844336954555" lon="11.58808321874605"><ele>585.0</ele><time>2026-04-06T12:36:44Z</time></trkpt><trkpt lat="44.22853746302098" lon="11.588150836116695"><ele>585.0</ele><time>2026-04-06T12:36:45Z</time></trkpt><trkpt lat="44.22863764857781" lon="11.58819933740108"><ele>585.0</ele><time>2026-04-06T12:36:46Z</time></trkpt><trkpt lat="44.22874019700609" lon="11.588225285569107"><ele>585.0</ele><time>2026-04-06T12:36:47Z</time></trkpt><trkpt lat="44.22883830890033" lon="11.588223857357185"><ele>585.0</ele><time>2026-04-06T12:36:48Z</time></trkpt><trkpt lat="44.22892286775301" lon="11.58821011458369"><ele>585.0</ele><time>2026-04-06T12:36:49Z</time></trkpt><trkpt lat="44.22899708944074" lon="11.588202533270096"><ele>584.6666666666666</ele><time>2026-04-06T12:36:50Z</time></trkpt><trkpt lat="44.229064036680036" lon="11.588200043970023"><ele>584.3333333333334</ele><time>2026-04-06T12:36:51Z</time></trkpt><trkpt lat="44.22917701158806" lon="11.588181227829262"><ele>584.0</ele><time>2026-04-06T12:36:53Z</time></trkpt><trkpt lat="44.22924712371716" lon="11.5880874733765"><ele>583.6666666666667</ele><time>2026-04-06T12:36:55Z</time></trkpt><trkpt lat="44.22927184113138" lon="11.587982900109552"><ele>583.3333333333334</ele><time>2026-04-06T12:36:57Z</time></trkpt><trkpt lat="44.22930460118893" lon="11.58787086389226"><ele>583.0</ele><time>2026-04-06T12:36:59Z</time></trkpt><trkpt lat="44.22933896853604" lon="11.587767150684265"><ele>581.8</ele><time>2026-04-06T12:37:01Z</time></trkpt><trkpt lat="44.22940956912209" lon="11.587704587313741"><ele>580.5999999999999</ele><time>2026-04-06T12:37:03Z</time></trkpt><trkpt lat="44.22949995149778" lon="11.587662412127955"><ele>579.4000000000001</ele><time>2026-04-06T12:37:05Z</time></trkpt><trkpt lat="44.229591615880906" lon="11.587614475126133"><ele>578.2</ele><time>2026-04-06T12:37:07Z</time></trkpt><trkpt lat="44.229678787577015" lon="11.587560123326613"><ele>577.0</ele><time>2026-04-06T12:37:09Z</time></trkpt><trkpt lat="44.22975990921535" lon="11.587512268760769"><ele>580.2</ele><time>2026-04-06T12:37:11Z</time></trkpt><trkpt lat="44.229842979927774" lon="11.58750473946309"><ele>583.4000000000001</ele><time>2026-04-06T12:37:13Z</time></trkpt><trkpt lat="44.229932881795406" lon="11.587527937900965"><ele>586.5999999999999</ele><time>2026-04-06T12:37:15Z</time></trkpt><trkpt lat="44.23002464432462" lon="11.587558237628986"><ele>589.8</ele><time>2026-04-06T12:37:17Z</time></trkpt><trkpt lat="44.230123628516246" lon="11.587577014597315"><ele>593.0</ele><time>2026-04-06T12:37:19Z</time></trkpt><trkpt lat="44.23022467358057" lon="11.587580764594911"><ele>593.0</ele><time>2026-04-06T12:37:21Z</time></trkpt><trkpt lat="44.23032184593934" lon="11.587566413885288"><ele>593.0</ele><time>2026-04-06T12:37:23Z</time></trkpt><trkpt lat="44.230414956762694" lon="11.587559514409412"><ele>593.0</ele><time>2026-04-06T12:37:25Z</time></trkpt><trkpt lat="44.230508015560815" lon="11.587551021872361"><ele>593.0</ele><time>2026-04-06T12:37:27Z</time></trkpt><trkpt lat="44.23059596932826" lon="11.587529028218453"><ele>593.0</ele><time>2026-04-06T12:37:29Z</time></trkpt><trkpt lat="44.23068642609821" lon="11.587521065848989"><ele>593.1666666666666</ele><time>2026-04-06T12:37:31Z</time></trkpt><trkpt lat="44.230766431422055" lon="11.587532631163732"><ele>593.3333333333333</ele><time>2026-04-06T12:37:33Z</time></trkpt><trkpt lat="44.23081873814201" lon="11.58761180226423"><ele>593.5</ele><time>2026-04-06T12:37:35Z</time></trkpt><trkpt lat="44.23080171585879" lon="11.587733217288058"><ele>593.6666666666666</ele><time>2026-04-06T12:37:37Z</time></trkpt><trkpt lat="44.23078618050245" lon="11.587827348334969"><ele>593.8333333333334</ele><time>2026-04-06T12:37:39Z</time></trkpt><trkpt lat="44.23077420421966" lon="11.58792715064509"><ele>594.0</ele><time>2026-04-06T12:37:41Z</time></trkpt><trkpt lat="44.23075209636628" lon="11.588026134217"><ele>594.0</ele><time>2026-04-06T12:37:43Z</time></trkpt><trkpt lat="44.23073556631872" lon="11.588136450447331"><ele>594.0</ele><time>2026-04-06T12:37:45Z</time></trkpt><trkpt lat="44.23071820706099" lon="11.588246031276215"><ele>594.0</ele><time>2026-04-06T12:37:47Z</time></trkpt><trkpt lat="44.23070050191852" lon="11.588360494083178"><ele>594.0</ele><time>2026-04-06T12:37:49Z</time></trkpt><trkpt lat="44.23069017587841" lon="11.588473825120246"><ele>594.0</ele><time>2026-04-06T12:37:51Z</time></trkpt><trkpt lat="44.23068601922097" lon="11.58859025199228"><ele>594.0</ele><time>2026-04-06T12:37:53Z</time></trkpt><trkpt lat="44.230691057325245" lon="11.588691288231168"><ele>594.0</ele><time>2026-04-06T12:37:55Z</time></trkpt><trkpt lat="44.23070961962538" lon="11.588781736175317"><ele>594.0</ele><time>2026-04-06T12:37:57Z</time></trkpt><trkpt lat="44.23073413711253" lon="11.588878968063902"><ele>594.0</ele><time>2026-04-06T12:37:59Z</time></trkpt><trkpt lat="44.2307736071361" lon="11.58897816404259"><ele>594.0</ele><time>2026-04-06T12:38:01Z</time></trkpt><trkpt lat="44.23082084930077" lon="11.589062575570816"><ele>594.0</ele><time>2026-04-06T12:38:03Z</time></trkpt><trkpt lat="44.230883547301566" lon="11.589106923316129"><ele>594.0</ele><time>2026-04-06T12:38:05Z</time></trkpt><trkpt lat="44.23095891735365" lon="11.589181816586626"><ele>594.0</ele><time>2026-04-06T12:38:07Z</time></trkpt><trkpt lat="44.23104258937451" lon="11.589288827345879"><ele>594.0</ele><time>2026-04-06T12:38:09Z</time></trkpt><trkpt lat="44.23114311200855" lon="11.58938289446515"><ele>594.0</ele><time>2026-04-06T12:38:11Z</time></trkpt><trkpt lat="44.23119604321225" lon="11.589432567168057"><ele>594.0</ele><time>2026-04-06T12:38:12Z</time></trkpt><trkpt lat="44.231252945613576" lon="11.589485198581311"><ele>594.0</ele><time>2026-04-06T12:38:13Z</time></trkpt><trkpt lat="44.231347987110965" lon="11.589561451112901"><ele>593.5</ele><time>2026-04-06T12:38:15Z</time></trkpt><trkpt lat="44.23140880147417" lon="11.58966265627436"><ele>593.0</ele><time>2026-04-06T12:38:17Z</time></trkpt><trkpt lat="44.23144634784303" lon="11.589828818233425"><ele>592.5</ele><time>2026-04-06T12:38:19Z</time></trkpt><trkpt lat="44.23148046361086" lon="11.589922836315063"><ele>592.0</ele><time>2026-04-06T12:38:20Z</time></trkpt><trkpt lat="44.23149690762588" lon="11.59003506636362"><ele>591.5</ele><time>2026-04-06T12:38:21Z</time></trkpt><trkpt lat="44.23151504525949" lon="11.590127493604856"><ele>591.0</ele><time>2026-04-06T12:38:22Z</time></trkpt><trkpt lat="44.23153780029301" lon="11.590230613547382"><ele>591.0</ele><time>2026-04-06T12:38:23Z</time></trkpt><trkpt lat="44.23156708590724" lon="11.590312427989469"><ele>591.0</ele><time>2026-04-06T12:38:24Z</time></trkpt><trkpt lat="44.231619210264014" lon="11.590380699451822"><ele>591.0</ele><time>2026-04-06T12:38:25Z</time></trkpt><trkpt lat="44.23167140936696" lon="11.590444417330456"><ele>591.0</ele><time>2026-04-06T12:38:26Z</time></trkpt><trkpt lat="44.2317177994815" lon="11.590511724470522"><ele>591.0</ele><time>2026-04-06T12:38:27Z</time></trkpt><trkpt lat="44.23181360536456" lon="11.590601709554385"><ele>591.0</ele><time>2026-04-06T12:38:29Z</time></trkpt><trkpt lat="44.23190084557328" lon="11.590650704535769"><ele>590.0</ele><time>2026-04-06T12:38:31Z</time></trkpt><trkpt lat="44.23195874144142" lon="11.590729739952279"><ele>589.0</ele><time>2026-04-06T12:38:33Z</time></trkpt><trkpt lat="44.23202596534689" lon="11.59077081351618"><ele>588.0</ele><time>2026-04-06T12:38:35Z</time></trkpt><trkpt lat="44.23207130318422" lon="11.590868242557738"><ele>587.0</ele><time>2026-04-06T12:38:37Z</time></trkpt><trkpt lat="44.23211578986877" lon="11.590967328121422"><ele>586.0</ele><time>2026-04-06T12:38:39Z</time></trkpt><trkpt lat="44.232171674525134" lon="11.591047934867927"><ele>585.0</ele><time>2026-04-06T12:38:41Z</time></trkpt><trkpt lat="44.23221466867838" lon="11.591126989133864"><ele>586.1666666666666</ele><time>2026-04-06T12:38:43Z</time></trkpt><trkpt lat="44.23225283548997" lon="11.591197787299675"><ele>587.3333333333334</ele><time>2026-04-06T12:38:45Z</time></trkpt><trkpt lat="44.23229977133125" lon="11.59132928430621"><ele>588.5</ele><time>2026-04-06T12:38:48Z</time></trkpt><trkpt lat="44.23237116909542" lon="11.591429570539091"><ele>589.6666666666667</ele><time>2026-04-06T12:38:50Z</time></trkpt><trkpt lat="44.232423794520635" lon="11.591509172086809"><ele>590.8333333333334</ele><time>2026-04-06T12:38:55Z</time></trkpt><trkpt lat="44.23250566047017" lon="11.591568397561343"><ele>592.0</ele><time>2026-04-06T12:38:57Z</time></trkpt><trkpt lat="44.23256739006758" lon="11.591607270096544"><ele>592.0</ele><time>2026-04-06T12:38:58Z</time></trkpt><trkpt lat="44.23263126013965" lon="11.59166771261034"><ele>592.0</ele><time>2026-04-06T12:38:59Z</time></trkpt><trkpt lat="44.23270116738064" lon="11.591718893180847"><ele>592.0</ele><time>2026-04-06T12:39:00Z</time></trkpt><trkpt lat="44.23279422918051" lon="11.5917890284825"><ele>592.0</ele><time>2026-04-06T12:39:02Z</time></trkpt><trkpt lat="44.23287011523373" lon="11.591899916775168"><ele>592.0</ele><time>2026-04-06T12:39:04Z</time></trkpt><trkpt lat="44.232949528865106" lon="11.591924631311251"><ele>592.0</ele><time>2026-04-06T12:39:06Z</time></trkpt><trkpt lat="44.23305151005795" lon="11.591909949355466"><ele>592.0</ele><time>2026-04-06T12:39:08Z</time></trkpt><trkpt lat="44.23313561908691" lon="11.591981885262056"><ele>592.0</ele><time>2026-04-06T12:39:10Z</time></trkpt><trkpt lat="44.23319027035887" lon="11.592044688738776"><ele>592.0</ele><time>2026-04-06T12:39:11Z</time></trkpt><trkpt lat="44.233259064071184" lon="11.59210950221693"><ele>592.0</ele><time>2026-04-06T12:39:12Z</time></trkpt><trkpt lat="44.23337139579984" lon="11.592177078690419"><ele>589.0</ele><time>2026-04-06T12:39:14Z</time></trkpt><trkpt lat="44.23346696115257" lon="11.592206609539925"><ele>586.0</ele><time>2026-04-06T12:39:16Z</time></trkpt><trkpt lat="44.23355224973832" lon="11.592219667202077"><ele>583.0</ele><time>2026-04-06T12:39:18Z</time></trkpt><trkpt lat="44.23362450498715" lon="11.592196324982465"><ele>580.0</ele><time>2026-04-06T12:39:20Z</time></trkpt><trkpt lat="44.233641694762866" lon="11.592100937778334"><ele>577.0</ele><time>2026-04-06T12:39:22Z</time></trkpt><trkpt lat="44.233662728992726" lon="11.59198830077788"><ele>574.0</ele><time>2026-04-06T12:39:24Z</time></trkpt><trkpt lat="44.233605009356154" lon="11.591918483861697"><ele>573.5714285714286</ele><time>2026-04-06T12:39:26Z</time></trkpt><trkpt lat="44.23353066524631" lon="11.591863088287921"><ele>573.1428571428571</ele><time>2026-04-06T12:39:28Z</time></trkpt><trkpt lat="44.2334707996145" lon="11.591802928954081"><ele>572.7142857142858</ele><time>2026-04-06T12:39:31Z</time></trkpt><trkpt lat="44.23352321511448" lon="11.59174115969947"><ele>572.2857142857142</ele><time>2026-04-06T12:39:35Z</time></trkpt><trkpt lat="44.233585883281485" lon="11.591717258189185"><ele>571.8571428571429</ele><time>2026-04-06T12:39:37Z</time></trkpt><trkpt lat="44.233648981013545" lon="11.591780342614973"><ele>571.4285714285714</ele><time>2026-04-06T12:39:40Z</time></trkpt><trkpt lat="44.23369138981766" lon="11.591852482891062"><ele>571.0</ele><time>2026-04-06T12:39:43Z</time></trkpt><trkpt lat="44.23375846848948" lon="11.591951172677458"><ele>571.6</ele><time>2026-04-06T12:39:46Z</time></trkpt><trkpt lat="44.23380152713381" lon="11.592041646713424"><ele>572.2</ele><time>2026-04-06T12:39:49Z</time></trkpt><trkpt lat="44.23384825566686" lon="11.592163112390711"><ele>572.8</ele><time>2026-04-06T12:39:52Z</time></trkpt><trkpt lat="44.23390813205079" lon="11.592224771638174"><ele>573.4</ele><time>2026-04-06T12:39:54Z</time></trkpt><trkpt lat="44.23403312230319" lon="11.59229295970302"><ele>574.0</ele><time>2026-04-06T12:39:56Z</time></trkpt><trkpt lat="44.23409116379548" lon="11.592359629622223"><ele>572.6</ele><time>2026-04-06T12:39:57Z</time></trkpt><trkpt lat="44.23416358914034" lon="11.592402225199505"><ele>571.2</ele><time>2026-04-06T12:39:58Z</time></trkpt><trkpt lat="44.23426300298133" lon="11.592441780079342"><ele>569.8000000000001</ele><time>2026-04-06T12:40:00Z</time></trkpt><trkpt lat="44.234368281966624" lon="11.59240305078428"><ele>568.4</ele><time>2026-04-06T12:40:02Z</time></trkpt><trkpt lat="44.234442461498375" lon="11.592347534255028"><ele>567.0</ele><time>2026-04-06T12:40:04Z</time></trkpt><trkpt lat="44.23452546181742" lon="11.592317908018508"><ele>567.0</ele><time>2026-04-06T12:40:06Z</time></trkpt><trkpt lat="44.234590335073726" lon="11.592325942608964"><ele>567.0</ele><time>2026-04-06T12:40:08Z</time></trkpt><trkpt lat="44.23467761970003" lon="11.592334322424014"><ele>567.0</ele><time>2026-04-06T12:40:11Z</time></trkpt><trkpt lat="44.23477284933728" lon="11.592354825220262"><ele>567.0</ele><time>2026-04-06T12:40:13Z</time></trkpt><trkpt lat="44.23489758012791" lon="11.592312891509165"><ele>567.0</ele><time>2026-04-06T12:40:15Z</time></trkpt><trkpt lat="44.234987960474655" lon="11.592211173251997"><ele>565.1666666666666</ele><time>2026-04-06T12:40:17Z</time></trkpt><trkpt lat="44.235003102495774" lon="11.592116549535394"><ele>563.3333333333334</ele><time>2026-04-06T12:40:18Z</time></trkpt><trkpt lat="44.235027122115824" lon="11.592031082911411"><ele>561.5</ele><time>2026-04-06T12:40:19Z</time></trkpt><trkpt lat="44.2351411568686" lon="11.592008365436104"><ele>559.6666666666667</ele><time>2026-04-06T12:40:21Z</time></trkpt><trkpt lat="44.23519683816657" lon="11.592081364167285"><ele>557.8333333333334</ele><time>2026-04-06T12:40:23Z</time></trkpt><trkpt lat="44.235256586855535" lon="11.591999840717499"><ele>556.0</ele><time>2026-04-06T12:40:26Z</time></trkpt><trkpt lat="44.23532505216766" lon="11.591951023444944"><ele>556.0</ele><time>2026-04-06T12:40:29Z</time></trkpt><trkpt lat="44.235390123735975" lon="11.591955311799852"><ele>556.0</ele><time>2026-04-06T12:40:31Z</time></trkpt><trkpt lat="44.23535120411567" lon="11.592036328712297"><ele>556.0</ele><time>2026-04-06T12:41:02Z</time></trkpt><trkpt lat="44.235322071663305" lon="11.592123748788042"><ele>556.0</ele><time>2026-04-06T12:41:06Z</time></trkpt><trkpt lat="44.23530979348819" lon="11.59222192195576"><ele>556.0</ele><time>2026-04-06T12:41:11Z</time></trkpt><trkpt lat="44.2352934219106" lon="11.592310485211325"><ele>556.0</ele><time>2026-04-06T12:41:14Z</time></trkpt><trkpt lat="44.2352802343329" lon="11.592433130503347"><ele>556.0</ele><time>2026-04-06T12:41:18Z</time></trkpt><trkpt lat="44.2352782855451" lon="11.592536580592302"><ele>556.0</ele><time>2026-04-06T12:41:21Z</time></trkpt><trkpt lat="44.23527093407764" lon="11.592636868814974"><ele>556.0</ele><time>2026-04-06T12:41:24Z</time></trkpt><trkpt lat="44.23527156179263" lon="11.59275910595933"><ele>556.0</ele><time>2026-04-06T12:41:27Z</time></trkpt><trkpt lat="44.23526372032558" lon="11.59285494948745"><ele>554.0</ele><time>2026-04-06T12:41:29Z</time></trkpt><trkpt lat="44.235258041143574" lon="11.592942521849693"><ele>554.0</ele><time>2026-04-06T12:41:31Z</time></trkpt><trkpt lat="44.235268910598485" lon="11.593031654886017"><ele>554.0</ele><time>2026-04-06T12:41:34Z</time></trkpt></trkseg></trk></gpx>